<?xml version='1.0' encoding='UTF-8'?><gpx version="1.1" creator="JPX - https://github.com/jenetics/jpx" xmlns="http://www.topografix.com/GPX/1/1"><trk><trkseg><trkpt lat="45.53742795188419" lon="10.21294317119596"><ele>149.0</ele><time>2026-03-27T13:45:58.999Z</time></trkpt><trkpt lat="45.537493351575264" lon="10.212966254436457"><ele>149.0</ele><time>2026-03-27T13:45:59.999Z</time></trkpt><trkpt lat="45.53757847163179" lon="10.213004171918566"><ele>149.0</ele><time>2026-03-27T13:46:00.999Z</time></trkpt><trkpt lat="45.5376543847308" lon="10.21308795907431"><ele>149.0</ele><time>2026-03-27T13:46:01.999Z</time></trkpt><trkpt lat="45.537766677289994" lon="10.213131487041029"><ele>149.0</ele><time>2026-03-27T13:46:02.999Z</time></trkpt><trkpt lat="45.53789668809191" lon="10.213181663835975"><ele>148.6</ele><time>2026-03-27T13:46:03.999Z</time></trkpt><trkpt lat="45.53799005060461" lon="10.213218726716384"><ele>148.2</ele><time>2026-03-27T13:46:04.999Z</time></trkpt><trkpt lat="45.538080261652375" lon="10.213254707163784"><ele>147.79999999999998</ele><time>2026-03-27T13:46:05.999Z</time></trkpt><trkpt lat="45.53818157961908" lon="10.213295117577388"><ele>147.4</ele><time>2026-03-27T13:46:06.999Z</time></trkpt><trkpt lat="45.53827510544416" lon="10.21333203125438"><ele>147.0</ele><time>2026-03-27T13:46:07.999Z</time></trkpt><trkpt lat="45.5384096335949" lon="10.213384200817012"><ele>147.0</ele><time>2026-03-27T13:46:08.999Z</time></trkpt><trkpt lat="45.538502193772246" lon="10.213408019582715"><ele>147.0</ele><time>2026-03-27T13:46:09.999Z</time></trkpt><trkpt lat="45.53858525575703" lon="10.213437771235414"><ele>147.0</ele><time>2026-03-27T13:46:10.999Z</time></trkpt><trkpt lat="45.53866940962587" lon="10.213472570912133"><ele>147.0</ele><time>2026-03-27T13:46:11.999Z</time></trkpt><trkpt lat="45.53875372299347" lon="10.213510061631888"><ele>147.0</ele><time>2026-03-27T13:46:12.999Z</time></trkpt><trkpt lat="45.538841841777774" lon="10.21353982699585"><ele>147.0</ele><time>2026-03-27T13:46:13.999Z</time></trkpt><trkpt lat="45.53891792801964" lon="10.213572585433269"><ele>147.5</ele><time>2026-03-27T13:46:14.999Z</time></trkpt><trkpt lat="45.538998591466395" lon="10.21360513768956"><ele>148.0</ele><time>2026-03-27T13:46:15.999Z</time></trkpt><trkpt lat="45.53908345608057" lon="10.21363535827796"><ele>148.5</ele><time>2026-03-27T13:46:16.999Z</time></trkpt><trkpt lat="45.539165753887914" lon="10.213665621797233"><ele>149.0</ele><time>2026-03-27T13:46:17.999Z</time></trkpt><trkpt lat="45.539235473442886" lon="10.213696954736296"><ele>149.5</ele><time>2026-03-27T13:46:18.999Z</time></trkpt><trkpt lat="45.539306568166396" lon="10.213729422248315"><ele>150.0</ele><time>2026-03-27T13:46:19.999Z</time></trkpt><trkpt lat="45.53941847503983" lon="10.213764207850755"><ele>150.0</ele><time>2026-03-27T13:46:21.999Z</time></trkpt><trkpt lat="45.53949881983001" lon="10.213815170820942"><ele>150.0</ele><time>2026-03-27T13:46:22.999Z</time></trkpt><trkpt lat="45.53956708733511" lon="10.213844366126136"><ele>150.0</ele><time>2026-03-27T13:46:23.999Z</time></trkpt><trkpt lat="45.53966704392429" lon="10.213601212077446"><ele>150.0</ele><time>2026-03-27T13:46:24.999Z</time></trkpt><trkpt lat="45.539610980291215" lon="10.213391813617871"><ele>150.0</ele><time>2026-03-27T13:46:25.999Z</time></trkpt><trkpt lat="45.53962284883692" lon="10.213206351048216"><ele>150.0</ele><time>2026-03-27T13:46:26.999Z</time></trkpt><trkpt lat="45.53963499276737" lon="10.213016790240461"><ele>150.0</ele><time>2026-03-27T13:46:27.999Z</time></trkpt><trkpt lat="45.53949378007007" lon="10.212794913243444"><ele>150.0</ele><time>2026-03-27T13:46:28.999Z</time></trkpt><trkpt lat="45.53951205874694" lon="10.212607528978271"><ele>150.0</ele><time>2026-03-27T13:46:29.999Z</time></trkpt><trkpt lat="45.53952558612187" lon="10.212433507556955"><ele>150.0</ele><time>2026-03-27T13:46:30.999Z</time></trkpt><trkpt lat="45.539535978048455" lon="10.212291346054446"><ele>150.0</ele><time>2026-03-27T13:46:31.999Z</time></trkpt><trkpt lat="45.53954316697434" lon="10.212161598664574"><ele>150.0</ele><time>2026-03-27T13:46:32.999Z</time></trkpt><trkpt lat="45.53954997084952" lon="10.212051936212355"><ele>149.66666666666666</ele><time>2026-03-27T13:46:33.999Z</time></trkpt><trkpt lat="45.53955711242653" lon="10.211936830785136"><ele>149.33333333333334</ele><time>2026-03-27T13:46:34.999Z</time></trkpt><trkpt lat="45.53956334829186" lon="10.211836323320476"><ele>149.0</ele><time>2026-03-27T13:46:35.999Z</time></trkpt><trkpt lat="45.539579625115735" lon="10.211682791532775"><ele>148.66666666666669</ele><time>2026-03-27T13:46:37.999Z</time></trkpt><trkpt lat="45.53959206049428" lon="10.211581207419117"><ele>148.33333333333334</ele><time>2026-03-27T13:46:39.999Z</time></trkpt><trkpt lat="45.5395854910045" lon="10.211473711153824"><ele>148.0</ele><time>2026-03-27T13:47:21.998Z</time></trkpt><trkpt lat="45.53958984240178" lon="10.211372526457739"><ele>148.0</ele><time>2026-03-27T13:47:23.998Z</time></trkpt><trkpt lat="45.539718026822875" lon="10.211308871187262"><ele>148.0</ele><time>2026-03-27T13:47:26.998Z</time></trkpt><trkpt lat="45.53978140476342" lon="10.211336223093546"><ele>148.0</ele><time>2026-03-27T13:47:27.998Z</time></trkpt><trkpt lat="45.53986951390398" lon="10.211364260001721"><ele>148.0</ele><time>2026-03-27T13:47:28.998Z</time></trkpt><trkpt lat="45.539965763057054" lon="10.211389224919698"><ele>148.0</ele><time>2026-03-27T13:47:29.998Z</time></trkpt><trkpt lat="45.54007606599896" lon="10.21143268589543"><ele>148.0</ele><time>2026-03-27T13:47:30.998Z</time></trkpt><trkpt lat="45.540191038182265" lon="10.211455475750402"><ele>148.0</ele><time>2026-03-27T13:47:31.999Z</time></trkpt><trkpt lat="45.54031066350866" lon="10.211509347553255"><ele>148.0</ele><time>2026-03-27T13:47:32.999Z</time></trkpt><trkpt lat="45.54044043658758" lon="10.211541554679913"><ele>148.0</ele><time>2026-03-27T13:47:33.999Z</time></trkpt><trkpt lat="45.54057978889552" lon="10.211581969592958"><ele>148.6</ele><time>2026-03-27T13:47:34.999Z</time></trkpt><trkpt lat="45.54070441284578" lon="10.211603414823829"><ele>149.20000000000002</ele><time>2026-03-27T13:47:35.999Z</time></trkpt><trkpt lat="45.54081502154227" lon="10.21164496815249"><ele>149.8</ele><time>2026-03-27T13:47:36.999Z</time></trkpt><trkpt lat="45.540914668960916" lon="10.211673595864795"><ele>150.4</ele><time>2026-03-27T13:47:37.999Z</time></trkpt><trkpt lat="45.54101121669138" lon="10.211680523330564"><ele>151.0</ele><time>2026-03-27T13:47:38.999Z</time></trkpt><trkpt lat="45.541089244175645" lon="10.21171524896238"><ele>151.0</ele><time>2026-03-27T13:47:39.999Z</time></trkpt><trkpt lat="45.5411638992399" lon="10.211722984578046"><ele>151.0</ele><time>2026-03-27T13:47:40.999Z</time></trkpt><trkpt lat="45.54122743457894" lon="10.211736027805184"><ele>151.0</ele><time>2026-03-27T13:47:41.999Z</time></trkpt><trkpt lat="45.54132765246589" lon="10.211760385798513"><ele>151.0</ele><time>2026-03-27T13:47:43.999Z</time></trkpt><trkpt lat="45.54139484396868" lon="10.21177812720538"><ele>151.0</ele><time>2026-03-27T13:47:45.999Z</time></trkpt><trkpt lat="45.54147950631746" lon="10.211797262263156"><ele>151.0</ele><time>2026-03-27T13:48:02.999Z</time></trkpt><trkpt lat="45.541610279905576" lon="10.211822828697986"><ele>151.0</ele><time>2026-03-27T13:48:04.999Z</time></trkpt><trkpt lat="45.54169089715093" lon="10.211850157086813"><ele>151.0</ele><time>2026-03-27T13:48:05.999Z</time></trkpt><trkpt lat="45.54178175836158" lon="10.211878587613647"><ele>151.0</ele><time>2026-03-27T13:48:06.999Z</time></trkpt><trkpt lat="45.5418810971028" lon="10.211914836479442"><ele>151.0</ele><time>2026-03-27T13:48:07.999Z</time></trkpt><trkpt lat="45.54198545457897" lon="10.2119574978718"><ele>151.0</ele><time>2026-03-27T13:48:08.999Z</time></trkpt><trkpt lat="45.542089181290656" lon="10.21201340330465"><ele>151.0</ele><time>2026-03-27T13:48:09.999Z</time></trkpt><trkpt lat="45.542205572309086" lon="10.212069907025697"><ele>151.0</ele><time>2026-03-27T13:48:10.999Z</time></trkpt><trkpt lat="45.54232009721594" lon="10.212139778934027"><ele>151.0</ele><time>2026-03-27T13:48:11.999Z</time></trkpt><trkpt lat="45.54244688239985" lon="10.212188113528404"><ele>151.0</ele><time>2026-03-27T13:48:12.999Z</time></trkpt><trkpt lat="45.54257825799552" lon="10.21224819355222"><ele>151.0</ele><time>2026-03-27T13:48:13.999Z</time></trkpt><trkpt lat="45.542711651486684" lon="10.21230737425471"><ele>151.0</ele><time>2026-03-27T13:48:14.999Z</time></trkpt><trkpt lat="45.54283828643068" lon="10.21236727760646"><ele>151.0</ele><time>2026-03-27T13:48:15.999Z</time></trkpt><trkpt lat="45.54297951294413" lon="10.212430021925782"><ele>151.0</ele><time>2026-03-27T13:48:16.999Z</time></trkpt><trkpt lat="45.543125113114" lon="10.212499348662888"><ele>150.66666666666669</ele><time>2026-03-27T13:48:17.999Z</time></trkpt><trkpt lat="45.54326737001208" lon="10.21256510084372"><ele>150.33333333333334</ele><time>2026-03-27T13:48:18.999Z</time></trkpt><trkpt lat="45.54342244322313" lon="10.212630077174472"><ele>150.0</ele><time>2026-03-27T13:48:19.999Z</time></trkpt><trkpt lat="45.543570338891406" lon="10.212700146608967"><ele>150.33333333333334</ele><time>2026-03-27T13:48:20.999Z</time></trkpt><trkpt lat="45.54373403101476" lon="10.212772100534428"><ele>150.66666666666669</ele><time>2026-03-27T13:48:21.999Z</time></trkpt><trkpt lat="45.543881903816064" lon="10.212844360814636"><ele>151.0</ele><time>2026-03-27T13:48:22.999Z</time></trkpt><trkpt lat="45.54404239331033" lon="10.212918571196283"><ele>151.0</ele><time>2026-03-27T13:48:23.999Z</time></trkpt><trkpt lat="45.5441898330698" lon="10.212993613992822"><ele>151.0</ele><time>2026-03-27T13:48:24.999Z</time></trkpt><trkpt lat="45.544359809861724" lon="10.213070159890524"><ele>151.0</ele><time>2026-03-27T13:48:25.999Z</time></trkpt><trkpt lat="45.544507781184514" lon="10.213146989088496"><ele>150.66666666666669</ele><time>2026-03-27T13:48:26.999Z</time></trkpt><trkpt lat="45.544665756772645" lon="10.213218645197573"><ele>150.33333333333334</ele><time>2026-03-27T13:48:27.999Z</time></trkpt><trkpt lat="45.544820906945134" lon="10.213284630267463"><ele>150.0</ele><time>2026-03-27T13:48:28.999Z</time></trkpt><trkpt lat="45.54498310335405" lon="10.213365559415779"><ele>150.0</ele><time>2026-03-27T13:48:29.999Z</time></trkpt><trkpt lat="45.545140917221076" lon="10.21343424965593"><ele>150.0</ele><time>2026-03-27T13:48:30.999Z</time></trkpt><trkpt lat="45.545294687248216" lon="10.213507001485993"><ele>150.0</ele><time>2026-03-27T13:48:31.999Z</time></trkpt><trkpt lat="45.54544942043102" lon="10.213578736756967"><ele>150.75</ele><time>2026-03-27T13:48:32.999Z</time></trkpt><trkpt lat="45.545590229413335" lon="10.213633756820611"><ele>151.5</ele><time>2026-03-27T13:48:33.999Z</time></trkpt><trkpt lat="45.54573390913455" lon="10.213700231376212"><ele>152.25</ele><time>2026-03-27T13:48:34.999Z</time></trkpt><trkpt lat="45.54586313848147" lon="10.213764199278932"><ele>153.0</ele><time>2026-03-27T13:48:35.999Z</time></trkpt><trkpt lat="45.5459723149248" lon="10.213820798553495"><ele>153.0</ele><time>2026-03-27T13:48:36.999Z</time></trkpt><trkpt lat="45.54607843070365" lon="10.213869571917437"><ele>153.0</ele><time>2026-03-27T13:48:37.999Z</time></trkpt><trkpt lat="45.546169171737766" lon="10.21392493886557"><ele>153.0</ele><time>2026-03-27T13:48:38.999Z</time></trkpt><trkpt lat="45.546248150020794" lon="10.213948668051751"><ele>153.0</ele><time>2026-03-27T13:48:39.999Z</time></trkpt><trkpt lat="45.54635477578238" lon="10.213972859543501"><ele>153.0</ele><time>2026-03-27T13:48:41.999Z</time></trkpt><trkpt lat="45.54642488826519" lon="10.213979296109544"><ele>152.66666666666666</ele><time>2026-03-27T13:48:44.998Z</time></trkpt><trkpt lat="45.546458224910374" lon="10.21384008043091"><ele>152.33333333333334</ele><time>2026-03-27T13:48:47.998Z</time></trkpt><trkpt lat="45.54652011495961" lon="10.213762883529931"><ele>152.0</ele><time>2026-03-27T13:48:48.998Z</time></trkpt><trkpt lat="45.546552454181544" lon="10.213585918137102"><ele>151.66666666666669</ele><time>2026-03-27T13:48:50.998Z</time></trkpt><trkpt lat="45.54659585265739" lon="10.213515332482158"><ele>151.33333333333334</ele><time>2026-03-27T13:48:51.998Z</time></trkpt><trkpt lat="45.54665901130999" lon="10.213490692466033"><ele>151.0</ele><time>2026-03-27T13:48:52.998Z</time></trkpt><trkpt lat="45.54677423579211" lon="10.213524256031317"><ele>151.0</ele><time>2026-03-27T13:48:54.998Z</time></trkpt><trkpt lat="45.54683723640616" lon="10.213530908979308"><ele>151.0</ele><time>2026-03-27T13:48:55.998Z</time></trkpt><trkpt lat="45.54691294295041" lon="10.213538902419574"><ele>151.0</ele><time>2026-03-27T13:48:56.998Z</time></trkpt><trkpt lat="45.54696876147775" lon="10.213670548677529"><ele>151.0</ele><time>2026-03-27T13:48:57.998Z</time></trkpt><trkpt lat="45.547063402201296" lon="10.213711878014887"><ele>151.0</ele><time>2026-03-27T13:48:59.998Z</time></trkpt><trkpt lat="45.547139230402585" lon="10.213747389069372"><ele>151.0</ele><time>2026-03-27T13:49:01.998Z</time></trkpt><trkpt lat="45.547210579682165" lon="10.213772975617767"><ele>151.0</ele><time>2026-03-27T13:49:03.998Z</time></trkpt><trkpt lat="45.547295789195225" lon="10.213826538313986"><ele>151.0</ele><time>2026-03-27T13:49:05.998Z</time></trkpt><trkpt lat="45.54737474780842" lon="10.213867438738824"><ele>151.0</ele><time>2026-03-27T13:49:07.998Z</time></trkpt><trkpt lat="45.54746938742161" lon="10.213912845827917"><ele>151.0</ele><time>2026-03-27T13:49:09.998Z</time></trkpt><trkpt lat="45.54759732576768" lon="10.21396458649989"><ele>151.0</ele><time>2026-03-27T13:49:11.998Z</time></trkpt><trkpt lat="45.54767199701565" lon="10.21400187266605"><ele>151.0</ele><time>2026-03-27T13:49:12.998Z</time></trkpt><trkpt lat="45.54774159720878" lon="10.214037125667424"><ele>151.0</ele><time>2026-03-27T13:49:13.998Z</time></trkpt><trkpt lat="45.547830999072" lon="10.214087788734854"><ele>151.0</ele><time>2026-03-27T13:49:15.998Z</time></trkpt><trkpt lat="45.54790885215481" lon="10.214139401253256"><ele>151.0</ele><time>2026-03-27T13:49:17.998Z</time></trkpt><trkpt lat="45.54795398450096" lon="10.214249571406913"><ele>151.0</ele><time>2026-03-27T13:49:19.998Z</time></trkpt><trkpt lat="45.548017858833724" lon="10.214281135087356"><ele>151.0</ele><time>2026-03-27T13:49:20.998Z</time></trkpt><trkpt lat="45.54807903588439" lon="10.21420288862553"><ele>151.33333333333334</ele><time>2026-03-27T13:49:21.998Z</time></trkpt><trkpt lat="45.54812984858262" lon="10.21414055116536"><ele>151.66666666666669</ele><time>2026-03-27T13:49:22.998Z</time></trkpt><trkpt lat="45.5481742855166" lon="10.214043034658417"><ele>152.0</ele><time>2026-03-27T13:49:23.998Z</time></trkpt><trkpt lat="45.54822066263476" lon="10.213967550686402"><ele>152.33333333333334</ele><time>2026-03-27T13:49:24.998Z</time></trkpt><trkpt lat="45.548271205859024" lon="10.213899392708607"><ele>152.66666666666666</ele><time>2026-03-27T13:49:25.998Z</time></trkpt><trkpt lat="45.54833160722333" lon="10.213817904839756"><ele>153.0</ele><time>2026-03-27T13:49:26.998Z</time></trkpt><trkpt lat="45.548396517427335" lon="10.213737706454891"><ele>153.4</ele><time>2026-03-27T13:49:27.998Z</time></trkpt><trkpt lat="45.54848313240785" lon="10.213676281549118"><ele>153.8</ele><time>2026-03-27T13:49:28.998Z</time></trkpt><trkpt lat="45.54854954302352" lon="10.213575991499631"><ele>154.2</ele><time>2026-03-27T13:49:29.998Z</time></trkpt><trkpt lat="45.548629969172644" lon="10.213492959409686"><ele>154.6</ele><time>2026-03-27T13:49:30.998Z</time></trkpt><trkpt lat="45.54871293526738" lon="10.213408205879277"><ele>155.0</ele><time>2026-03-27T13:49:31.998Z</time></trkpt><trkpt lat="45.548789087759424" lon="10.21333165450708"><ele>154.4</ele><time>2026-03-27T13:49:32.998Z</time></trkpt><trkpt lat="45.54886372318484" lon="10.213260460071686"><ele>153.8</ele><time>2026-03-27T13:49:33.998Z</time></trkpt><trkpt lat="45.54894347114165" lon="10.213184569479711"><ele>153.2</ele><time>2026-03-27T13:49:34.998Z</time></trkpt><trkpt lat="45.549038629497424" lon="10.213112093941561"><ele>152.6</ele><time>2026-03-27T13:49:35.998Z</time></trkpt><trkpt lat="45.5491520484278" lon="10.213039470479147"><ele>152.0</ele><time>2026-03-27T13:49:36.998Z</time></trkpt><trkpt lat="45.54926575267865" lon="10.212982150364999"><ele>152.0</ele><time>2026-03-27T13:49:37.999Z</time></trkpt><trkpt lat="45.54937780116912" lon="10.212938502845546"><ele>152.0</ele><time>2026-03-27T13:49:38.999Z</time></trkpt><trkpt lat="45.549486417093384" lon="10.212893186468687"><ele>152.0</ele><time>2026-03-27T13:49:39.999Z</time></trkpt><trkpt lat="45.549590168720705" lon="10.212854324181427"><ele>152.0</ele><time>2026-03-27T13:49:40.999Z</time></trkpt><trkpt lat="45.549696828385066" lon="10.212810059970387"><ele>152.0</ele><time>2026-03-27T13:49:41.999Z</time></trkpt><trkpt lat="45.5498003443941" lon="10.212772929938307"><ele>152.4</ele><time>2026-03-27T13:49:42.999Z</time></trkpt><trkpt lat="45.549898643519775" lon="10.212740847423957"><ele>152.79999999999998</ele><time>2026-03-27T13:49:43.999Z</time></trkpt><trkpt lat="45.54999574046871" lon="10.212705929765068"><ele>153.2</ele><time>2026-03-27T13:49:44.999Z</time></trkpt><trkpt lat="45.550092923239106" lon="10.212669111615778"><ele>153.6</ele><time>2026-03-27T13:49:45.999Z</time></trkpt><trkpt lat="45.550189149211825" lon="10.212630717261415"><ele>154.0</ele><time>2026-03-27T13:49:46.999Z</time></trkpt><trkpt lat="45.55028539101601" lon="10.21259356356081"><ele>154.0</ele><time>2026-03-27T13:49:47.999Z</time></trkpt><trkpt lat="45.55037605549647" lon="10.212556957187935"><ele>154.0</ele><time>2026-03-27T13:49:48.999Z</time></trkpt><trkpt lat="45.5504659526421" lon="10.212521561472903"><ele>154.0</ele><time>2026-03-27T13:49:49.999Z</time></trkpt><trkpt lat="45.550563831482656" lon="10.212483052973614"><ele>154.0</ele><time>2026-03-27T13:49:50.999Z</time></trkpt><trkpt lat="45.55066538303778" lon="10.212445978628521"><ele>154.0</ele><time>2026-03-27T13:49:51.999Z</time></trkpt><trkpt lat="45.55077102539086" lon="10.212403592631485"><ele>154.0</ele><time>2026-03-27T13:49:52.999Z</time></trkpt><trkpt lat="45.550875654265155" lon="10.212361856379703"><ele>154.0</ele><time>2026-03-27T13:49:53.999Z</time></trkpt><trkpt lat="45.55096578569975" lon="10.212330941283929"><ele>154.0</ele><time>2026-03-27T13:49:54.999Z</time></trkpt><trkpt lat="45.5510486638547" lon="10.212298855911763"><ele>154.0</ele><time>2026-03-27T13:49:55.999Z</time></trkpt><trkpt lat="45.55112962058132" lon="10.212275828894372"><ele>154.0</ele><time>2026-03-27T13:49:56.999Z</time></trkpt><trkpt lat="45.55120384313077" lon="10.212249722318937"><ele>154.0</ele><time>2026-03-27T13:49:57.999Z</time></trkpt><trkpt lat="45.55127047549092" lon="10.212225702788785"><ele>154.0</ele><time>2026-03-27T13:49:58.999Z</time></trkpt><trkpt lat="45.551370315161556" lon="10.212193225303695"><ele>154.0</ele><time>2026-03-27T13:50:00.999Z</time></trkpt><trkpt lat="45.5514347307048" lon="10.212175814096435"><ele>154.0</ele><time>2026-03-27T13:50:05.999Z</time></trkpt><trkpt lat="45.55153847404404" lon="10.212137428502809"><ele>154.0</ele><time>2026-03-27T13:50:09.999Z</time></trkpt><trkpt lat="45.55160073071649" lon="10.212120522849778"><ele>154.0</ele><time>2026-03-27T13:50:10.999Z</time></trkpt><trkpt lat="45.551667825185966" lon="10.21208246049589"><ele>154.0</ele><time>2026-03-27T13:50:11.999Z</time></trkpt><trkpt lat="45.55173724044673" lon="10.212037190022933"><ele>154.0</ele><time>2026-03-27T13:50:12.999Z</time></trkpt><trkpt lat="45.55181064090212" lon="10.211996437049415"><ele>154.0</ele><time>2026-03-27T13:50:13.999Z</time></trkpt><trkpt lat="45.55188136876776" lon="10.211962415144066"><ele>154.0</ele><time>2026-03-27T13:50:14.999Z</time></trkpt><trkpt lat="45.55195487009502" lon="10.21193179665445"><ele>154.0</ele><time>2026-03-27T13:50:15.999Z</time></trkpt><trkpt lat="45.552023875890754" lon="10.211871791942004"><ele>154.0</ele><time>2026-03-27T13:50:16.999Z</time></trkpt><trkpt lat="45.552124273393794" lon="10.211871470795073"><ele>154.0</ele><time>2026-03-27T13:50:17.999Z</time></trkpt><trkpt lat="45.55220533314795" lon="10.211852305935185"><ele>154.33333333333334</ele><time>2026-03-27T13:50:18.999Z</time></trkpt><trkpt lat="45.55228273943842" lon="10.211838792656193"><ele>154.66666666666669</ele><time>2026-03-27T13:50:19.999Z</time></trkpt><trkpt lat="45.55236260212767" lon="10.211827787352016"><ele>155.0</ele><time>2026-03-27T13:50:20.999Z</time></trkpt><trkpt lat="45.55243691296049" lon="10.211819910817958"><ele>155.33333333333334</ele><time>2026-03-27T13:50:21.999Z</time></trkpt><trkpt lat="45.552506299876335" lon="10.211819514929399"><ele>155.66666666666666</ele><time>2026-03-27T13:50:22.999Z</time></trkpt><trkpt lat="45.55257079696564" lon="10.211816374717525"><ele>156.0</ele><time>2026-03-27T13:50:23.999Z</time></trkpt><trkpt lat="45.55268096966689" lon="10.211807331039195"><ele>156.0</ele><time>2026-03-27T13:50:25.999Z</time></trkpt><trkpt lat="45.552754477615075" lon="10.2117982283775"><ele>156.0</ele><time>2026-03-27T13:50:27.999Z</time></trkpt><trkpt lat="45.55285017398784" lon="10.21179764075872"><ele>156.0</ele><time>2026-03-27T13:50:31.999Z</time></trkpt><trkpt lat="45.55293668490133" lon="10.211796099228135"><ele>156.0</ele><time>2026-03-27T13:50:33.999Z</time></trkpt><trkpt lat="45.55304119201733" lon="10.211787491526298"><ele>156.0</ele><time>2026-03-27T13:50:35.999Z</time></trkpt><trkpt lat="45.55315664135357" lon="10.211788470910818"><ele>156.42857142857144</ele><time>2026-03-27T13:50:37.999Z</time></trkpt><trkpt lat="45.553220186708586" lon="10.211787551317475"><ele>156.85714285714283</ele><time>2026-03-27T13:50:38.999Z</time></trkpt><trkpt lat="45.55328925393753" lon="10.211790333089548"><ele>157.28571428571428</ele><time>2026-03-27T13:50:39.999Z</time></trkpt><trkpt lat="45.55339771198349" lon="10.211805332013247"><ele>157.71428571428572</ele><time>2026-03-27T13:50:41.999Z</time></trkpt><trkpt lat="45.55346097970726" lon="10.211804039694796"><ele>158.14285714285717</ele><time>2026-03-27T13:50:43.999Z</time></trkpt><trkpt lat="45.55352321643902" lon="10.211772500062363"><ele>158.57142857142856</ele><time>2026-03-27T13:51:31.998Z</time></trkpt><trkpt lat="45.55358653332794" lon="10.211783012750814"><ele>159.0</ele><time>2026-03-27T13:51:56.999Z</time></trkpt><trkpt lat="45.55363192465073" lon="10.211599917521553"><ele>158.8</ele><time>2026-03-27T13:51:59.999Z</time></trkpt><trkpt lat="45.55365084434255" lon="10.211443115763997"><ele>158.60000000000002</ele><time>2026-03-27T13:52:01.999Z</time></trkpt><trkpt lat="45.55368697610044" lon="10.211272895264129"><ele>158.4</ele><time>2026-03-27T13:52:03.999Z</time></trkpt><trkpt lat="45.55371470367749" lon="10.211157349299524"><ele>158.20000000000002</ele><time>2026-03-27T13:52:04.999Z</time></trkpt><trkpt lat="45.553742991232326" lon="10.2110364190185"><ele>158.0</ele><time>2026-03-27T13:52:05.999Z</time></trkpt><trkpt lat="45.55377440740975" lon="10.210911712879003"><ele>158.0</ele><time>2026-03-27T13:52:06.999Z</time></trkpt><trkpt lat="45.55380574679867" lon="10.210778761650575"><ele>158.0</ele><time>2026-03-27T13:52:07.999Z</time></trkpt><trkpt lat="45.55383898496325" lon="10.210642005523622"><ele>158.0</ele><time>2026-03-27T13:52:08.999Z</time></trkpt><trkpt lat="45.553872749128836" lon="10.210503761132449"><ele>158.0</ele><time>2026-03-27T13:52:09.999Z</time></trkpt><trkpt lat="45.55391273273397" lon="10.210351523942263"><ele>158.0</ele><time>2026-03-27T13:52:10.999Z</time></trkpt><trkpt lat="45.553950119976555" lon="10.210195586203067"><ele>157.75</ele><time>2026-03-27T13:52:11.999Z</time></trkpt><trkpt lat="45.55398648490616" lon="10.210032913863197"><ele>157.5</ele><time>2026-03-27T13:52:12.999Z</time></trkpt><trkpt lat="45.55402709096679" lon="10.209872716773525"><ele>157.25</ele><time>2026-03-27T13:52:13.999Z</time></trkpt><trkpt lat="45.55406757957862" lon="10.209703907497829"><ele>157.0</ele><time>2026-03-27T13:52:14.999Z</time></trkpt><trkpt lat="45.554107876001545" lon="10.209536460284005"><ele>157.0</ele><time>2026-03-27T13:52:15.999Z</time></trkpt><trkpt lat="45.554146659867136" lon="10.209370592255592"><ele>157.0</ele><time>2026-03-27T13:52:16.999Z</time></trkpt><trkpt lat="45.55418810575386" lon="10.209205076112708"><ele>157.0</ele><time>2026-03-27T13:52:17.999Z</time></trkpt><trkpt lat="45.55422485313786" lon="10.209040979503907"><ele>157.0</ele><time>2026-03-27T13:52:18.999Z</time></trkpt><trkpt lat="45.554264208305824" lon="10.208883583285877"><ele>157.25</ele><time>2026-03-27T13:52:19.999Z</time></trkpt><trkpt lat="45.55430136798597" lon="10.208707619894342"><ele>157.5</ele><time>2026-03-27T13:52:20.999Z</time></trkpt><trkpt lat="45.55434492598838" lon="10.208543159588318"><ele>157.75</ele><time>2026-03-27T13:52:21.999Z</time></trkpt><trkpt lat="45.554386733434434" lon="10.208358505949858"><ele>158.0</ele><time>2026-03-27T13:52:22.999Z</time></trkpt><trkpt lat="45.554435711878384" lon="10.208153014506212"><ele>158.33333333333331</ele><time>2026-03-27T13:52:23.999Z</time></trkpt><trkpt lat="45.55449001207714" lon="10.207909756413526"><ele>158.66666666666666</ele><time>2026-03-27T13:52:24.999Z</time></trkpt><trkpt lat="45.55455309845307" lon="10.20763859325017"><ele>159.0</ele><time>2026-03-27T13:52:25.999Z</time></trkpt><trkpt lat="45.5546161532149" lon="10.207363056752461"><ele>158.0</ele><time>2026-03-27T13:52:26.999Z</time></trkpt><trkpt lat="45.55467411614206" lon="10.207106507550241"><ele>157.0</ele><time>2026-03-27T13:52:27.999Z</time></trkpt><trkpt lat="45.55473333314462" lon="10.206878825544512"><ele>156.0</ele><time>2026-03-27T13:52:28.999Z</time></trkpt><trkpt lat="45.55478011042269" lon="10.20665789548186"><ele>155.33333333333334</ele><time>2026-03-27T13:52:29.999Z</time></trkpt><trkpt lat="45.554831322975865" lon="10.206440424557936"><ele>154.66666666666669</ele><time>2026-03-27T13:52:30.999Z</time></trkpt><trkpt lat="45.554879823251405" lon="10.206231028324723"><ele>154.0</ele><time>2026-03-27T13:52:31.999Z</time></trkpt><trkpt lat="45.55492513815279" lon="10.206041010931974"><ele>154.0</ele><time>2026-03-27T13:52:32.999Z</time></trkpt><trkpt lat="45.554969009763134" lon="10.205841521814921"><ele>154.0</ele><time>2026-03-27T13:52:33.999Z</time></trkpt><trkpt lat="45.555017224858865" lon="10.205645684633744"><ele>154.0</ele><time>2026-03-27T13:52:34.999Z</time></trkpt><trkpt lat="45.55506847935158" lon="10.205429963442212"><ele>154.0</ele><time>2026-03-27T13:52:35.999Z</time></trkpt><trkpt lat="45.5551134752823" lon="10.205242583983944"><ele>154.0</ele><time>2026-03-27T13:52:36.999Z</time></trkpt><trkpt lat="45.5551527360309" lon="10.205076075761207"><ele>154.0</ele><time>2026-03-27T13:52:37.999Z</time></trkpt><trkpt lat="45.55519019361788" lon="10.204920805514133"><ele>154.0</ele><time>2026-03-27T13:52:38.999Z</time></trkpt><trkpt lat="45.55522885363617" lon="10.20477072916963"><ele>153.8</ele><time>2026-03-27T13:52:39.999Z</time></trkpt><trkpt lat="45.55525612962453" lon="10.204638434253123"><ele>153.60000000000002</ele><time>2026-03-27T13:52:40.999Z</time></trkpt><trkpt lat="45.5552896677685" lon="10.204510675707656"><ele>153.4</ele><time>2026-03-27T13:52:41.999Z</time></trkpt><trkpt lat="45.55532441339651" lon="10.204374913186388"><ele>153.20000000000002</ele><time>2026-03-27T13:52:42.999Z</time></trkpt><trkpt lat="45.555358390282215" lon="10.204248216774724"><ele>153.0</ele><time>2026-03-27T13:52:43.999Z</time></trkpt><trkpt lat="45.55538464907592" lon="10.204125695411726"><ele>153.57142857142856</ele><time>2026-03-27T13:52:44.999Z</time></trkpt><trkpt lat="45.555410655979024" lon="10.204015967702704"><ele>154.14285714285714</ele><time>2026-03-27T13:52:45.999Z</time></trkpt><trkpt lat="45.555434499845944" lon="10.203919987347305"><ele>154.71428571428572</ele><time>2026-03-27T13:52:46.999Z</time></trkpt><trkpt lat="45.555463043612875" lon="10.203820257710486"><ele>155.28571428571428</ele><time>2026-03-27T13:52:47.999Z</time></trkpt><trkpt lat="45.55548643821453" lon="10.203728535946494"><ele>155.85714285714286</ele><time>2026-03-27T13:52:48.999Z</time></trkpt><trkpt lat="45.55551208361106" lon="10.203638698162482"><ele>156.42857142857142</ele><time>2026-03-27T13:52:49.999Z</time></trkpt><trkpt lat="45.555533175688154" lon="10.203539511215233"><ele>157.0</ele><time>2026-03-27T13:52:50.999Z</time></trkpt><trkpt lat="45.55555833052899" lon="10.203431573635065"><ele>157.25</ele><time>2026-03-27T13:52:51.999Z</time></trkpt><trkpt lat="45.555591481015114" lon="10.203295034470894"><ele>157.5</ele><time>2026-03-27T13:52:52.999Z</time></trkpt><trkpt lat="45.55562745432304" lon="10.203114719705185"><ele>157.75</ele><time>2026-03-27T13:52:53.999Z</time></trkpt><trkpt lat="45.55567719703019" lon="10.202907975906035"><ele>158.0</ele><time>2026-03-27T13:52:54.999Z</time></trkpt><trkpt lat="45.55572099104657" lon="10.202716488966718"><ele>158.0</ele><time>2026-03-27T13:52:55.999Z</time></trkpt><trkpt lat="45.5557591893962" lon="10.202553154251119"><ele>158.0</ele><time>2026-03-27T13:52:56.999Z</time></trkpt><trkpt lat="45.55579732309948" lon="10.20239323785255"><ele>158.0</ele><time>2026-03-27T13:52:57.999Z</time></trkpt><trkpt lat="45.55583154071193" lon="10.202243914234112"><ele>158.0</ele><time>2026-03-27T13:52:58.999Z</time></trkpt><trkpt lat="45.555865726115584" lon="10.202115539764186"><ele>158.0</ele><time>2026-03-27T13:52:59.999Z</time></trkpt><trkpt lat="45.55588926042636" lon="10.202015584684029"><ele>156.8</ele><time>2026-03-27T13:53:00.999Z</time></trkpt><trkpt lat="45.55591387144751" lon="10.201858661571405"><ele>155.60000000000002</ele><time>2026-03-27T13:53:02.999Z</time></trkpt><trkpt lat="45.55593362503849" lon="10.201705002841695"><ele>154.39999999999998</ele><time>2026-03-27T13:53:04.999Z</time></trkpt><trkpt lat="45.55598217960184" lon="10.201520103290779"><ele>153.2</ele><time>2026-03-27T13:53:06.999Z</time></trkpt><trkpt lat="45.55601075451311" lon="10.201438390777062"><ele>152.0</ele><time>2026-03-27T13:53:07.999Z</time></trkpt><trkpt lat="45.55604527204656" lon="10.201288950805203"><ele>152.0</ele><time>2026-03-27T13:53:08.999Z</time></trkpt><trkpt lat="45.556078623694034" lon="10.2011805010359"><ele>152.0</ele><time>2026-03-27T13:53:09.999Z</time></trkpt><trkpt lat="45.55610902327151" lon="10.201072507115292"><ele>152.0</ele><time>2026-03-27T13:53:10.999Z</time></trkpt><trkpt lat="45.556141091749545" lon="10.200974029388142"><ele>152.0</ele><time>2026-03-27T13:53:11.999Z</time></trkpt><trkpt lat="45.55617834493597" lon="10.200873448119756"><ele>152.0</ele><time>2026-03-27T13:53:12.999Z</time></trkpt><trkpt lat="45.55622292044647" lon="10.200772116594905"><ele>152.0</ele><time>2026-03-27T13:53:13.998Z</time></trkpt><trkpt lat="45.55626705272582" lon="10.200656663484839"><ele>152.6</ele><time>2026-03-27T13:53:14.998Z</time></trkpt><trkpt lat="45.556322132516826" lon="10.200543997468877"><ele>153.2</ele><time>2026-03-27T13:53:15.998Z</time></trkpt><trkpt lat="45.556381233866716" lon="10.200421506078191"><ele>153.8</ele><time>2026-03-27T13:53:16.998Z</time></trkpt><trkpt lat="45.55644692913706" lon="10.200286292228245"><ele>154.4</ele><time>2026-03-27T13:53:17.998Z</time></trkpt><trkpt lat="45.556513424463624" lon="10.200144763358443"><ele>155.0</ele><time>2026-03-27T13:53:18.998Z</time></trkpt><trkpt lat="45.556577577386186" lon="10.200008610146659"><ele>155.0</ele><time>2026-03-27T13:53:19.998Z</time></trkpt><trkpt lat="45.55663781959927" lon="10.199867855072508"><ele>155.0</ele><time>2026-03-27T13:53:20.998Z</time></trkpt><trkpt lat="45.556693681003374" lon="10.199732700117632"><ele>155.0</ele><time>2026-03-27T13:53:21.998Z</time></trkpt><trkpt lat="45.55675017441821" lon="10.199605841898794"><ele>155.0</ele><time>2026-03-27T13:53:22.998Z</time></trkpt><trkpt lat="45.55679859652815" lon="10.19948063300091"><ele>155.0</ele><time>2026-03-27T13:53:23.998Z</time></trkpt><trkpt lat="45.55684579674055" lon="10.199358582663073"><ele>155.0</ele><time>2026-03-27T13:53:24.998Z</time></trkpt><trkpt lat="45.55688702408535" lon="10.19923883050134"><ele>155.0</ele><time>2026-03-27T13:53:25.998Z</time></trkpt><trkpt lat="45.55692441854839" lon="10.199124859151247"><ele>155.0</ele><time>2026-03-27T13:53:26.998Z</time></trkpt><trkpt lat="45.55696177925972" lon="10.199020523805697"><ele>155.0</ele><time>2026-03-27T13:53:27.998Z</time></trkpt><trkpt lat="45.556993189545175" lon="10.198911714839616"><ele>155.0</ele><time>2026-03-27T13:53:28.998Z</time></trkpt><trkpt lat="45.557029326096874" lon="10.198803357759093"><ele>155.0</ele><time>2026-03-27T13:53:29.998Z</time></trkpt><trkpt lat="45.55705910549561" lon="10.198688515251648"><ele>155.0</ele><time>2026-03-27T13:53:30.998Z</time></trkpt><trkpt lat="45.557093413144976" lon="10.198565710557183"><ele>155.0</ele><time>2026-03-27T13:53:31.998Z</time></trkpt><trkpt lat="45.55713029684178" lon="10.198460197552649"><ele>155.0</ele><time>2026-03-27T13:53:32.998Z</time></trkpt><trkpt lat="45.55715888831655" lon="10.198365945131192"><ele>155.0</ele><time>2026-03-27T13:53:33.998Z</time></trkpt><trkpt lat="45.55720119547974" lon="10.19821344638569"><ele>155.0</ele><time>2026-03-27T13:53:35.998Z</time></trkpt><trkpt lat="45.55721893129102" lon="10.198120147525172"><ele>155.0</ele><time>2026-03-27T13:53:53.999Z</time></trkpt><trkpt lat="45.55727188665612" lon="10.197986651556617"><ele>154.83333333333331</ele><time>2026-03-27T13:53:56.999Z</time></trkpt><trkpt lat="45.55730725037935" lon="10.197871069875568"><ele>154.66666666666666</ele><time>2026-03-27T13:53:57.999Z</time></trkpt><trkpt lat="45.55732953253659" lon="10.197749089010049"><ele>154.5</ele><time>2026-03-27T13:53:58.999Z</time></trkpt><trkpt lat="45.55736463600921" lon="10.197637973395915"><ele>154.33333333333334</ele><time>2026-03-27T13:53:59.999Z</time></trkpt><trkpt lat="45.55739262608227" lon="10.197542633100891"><ele>154.16666666666669</ele><time>2026-03-27T13:54:00.999Z</time></trkpt><trkpt lat="45.55742349672125" lon="10.197429468897324"><ele>154.0</ele><time>2026-03-27T13:54:01.999Z</time></trkpt><trkpt lat="45.5574735569253" lon="10.197306785453772"><ele>154.0</ele><time>2026-03-27T13:54:02.999Z</time></trkpt><trkpt lat="45.55751503977615" lon="10.197166626979955"><ele>154.0</ele><time>2026-03-27T13:54:03.999Z</time></trkpt><trkpt lat="45.557550512277636" lon="10.197047037193585"><ele>154.0</ele><time>2026-03-27T13:54:04.999Z</time></trkpt><trkpt lat="45.55758509487725" lon="10.19693045802514"><ele>154.0</ele><time>2026-03-27T13:54:05.999Z</time></trkpt><trkpt lat="45.55761273074237" lon="10.196837296538774"><ele>154.0</ele><time>2026-03-27T13:54:06.999Z</time></trkpt><trkpt lat="45.55766021794165" lon="10.196677215527323"><ele>154.0</ele><time>2026-03-27T13:54:08.999Z</time></trkpt><trkpt lat="45.55769522810236" lon="10.196559195254785"><ele>154.0</ele><time>2026-03-27T13:54:09.999Z</time></trkpt><trkpt lat="45.557728700727296" lon="10.196445301815512"><ele>154.0</ele><time>2026-03-27T13:54:10.999Z</time></trkpt><trkpt lat="45.55775951871151" lon="10.196340692784453"><ele>154.0</ele><time>2026-03-27T13:54:11.999Z</time></trkpt><trkpt lat="45.55777428803374" lon="10.196229864491238"><ele>154.0</ele><time>2026-03-27T13:54:12.999Z</time></trkpt><trkpt lat="45.557804370711125" lon="10.196138930895765"><ele>154.0</ele><time>2026-03-27T13:54:13.999Z</time></trkpt><trkpt lat="45.55783606625477" lon="10.196053630877886"><ele>154.0</ele><time>2026-03-27T13:54:14.999Z</time></trkpt><trkpt lat="45.5578724655112" lon="10.195976523615064"><ele>154.0</ele><time>2026-03-27T13:54:15.999Z</time></trkpt><trkpt lat="45.55791781418586" lon="10.195905305143963"><ele>154.0</ele><time>2026-03-27T13:54:16.999Z</time></trkpt><trkpt lat="45.55795377175649" lon="10.195826221370812"><ele>154.0</ele><time>2026-03-27T13:54:17.999Z</time></trkpt><trkpt lat="45.55797959113689" lon="10.195731129662287"><ele>154.0</ele><time>2026-03-27T13:54:18.999Z</time></trkpt><trkpt lat="45.55800028529186" lon="10.195611204745887"><ele>154.0</ele><time>2026-03-27T13:54:19.999Z</time></trkpt><trkpt lat="45.55802630192071" lon="10.195484297553064"><ele>154.0</ele><time>2026-03-27T13:54:20.999Z</time></trkpt><trkpt lat="45.55806625152647" lon="10.195353545910642"><ele>154.0</ele><time>2026-03-27T13:54:21.999Z</time></trkpt><trkpt lat="45.558106790912895" lon="10.195226557278065"><ele>154.0</ele><time>2026-03-27T13:54:22.999Z</time></trkpt><trkpt lat="45.55814522679126" lon="10.195107916995395"><ele>154.0</ele><time>2026-03-27T13:54:23.999Z</time></trkpt><trkpt lat="45.55818439549452" lon="10.195011632292205"><ele>154.0</ele><time>2026-03-27T13:54:24.999Z</time></trkpt><trkpt lat="45.55822032434612" lon="10.194921399271127"><ele>154.0</ele><time>2026-03-27T13:54:25.999Z</time></trkpt><trkpt lat="45.55825675512849" lon="10.194819077510022"><ele>154.0</ele><time>2026-03-27T13:54:26.999Z</time></trkpt><trkpt lat="45.55829574069064" lon="10.19471225318219"><ele>154.0</ele><time>2026-03-27T13:54:27.999Z</time></trkpt><trkpt lat="45.5583320213915" lon="10.194610905471576"><ele>154.0</ele><time>2026-03-27T13:54:28.999Z</time></trkpt><trkpt lat="45.558366550058295" lon="10.194518876766075"><ele>154.0</ele><time>2026-03-27T13:54:29.999Z</time></trkpt><trkpt lat="45.558406252342756" lon="10.194412758916743"><ele>154.0</ele><time>2026-03-27T13:54:30.999Z</time></trkpt><trkpt lat="45.55845010213647" lon="10.194296171785135"><ele>154.0</ele><time>2026-03-27T13:54:31.999Z</time></trkpt><trkpt lat="45.558508793022334" lon="10.194179477925134"><ele>154.0</ele><time>2026-03-27T13:54:32.999Z</time></trkpt><trkpt lat="45.55856774969697" lon="10.194061859739495"><ele>154.0</ele><time>2026-03-27T13:54:33.999Z</time></trkpt><trkpt lat="45.55863644991548" lon="10.193939264294"><ele>154.0</ele><time>2026-03-27T13:54:34.999Z</time></trkpt><trkpt lat="45.558707571033075" lon="10.193818255797629"><ele>154.0</ele><time>2026-03-27T13:54:35.999Z</time></trkpt><trkpt lat="45.558767331640404" lon="10.193712332717467"><ele>154.0</ele><time>2026-03-27T13:54:36.999Z</time></trkpt><trkpt lat="45.558823913125586" lon="10.19361485154037"><ele>154.0</ele><time>2026-03-27T13:54:37.999Z</time></trkpt><trkpt lat="45.55887774164377" lon="10.193531957264332"><ele>154.0</ele><time>2026-03-27T13:54:38.999Z</time></trkpt><trkpt lat="45.55892907410948" lon="10.193468854021324"><ele>154.0</ele><time>2026-03-27T13:54:39.999Z</time></trkpt><trkpt lat="45.55901907387102" lon="10.193411166694025"><ele>154.0</ele><time>2026-03-27T13:54:41.999Z</time></trkpt><trkpt lat="45.55912882365254" lon="10.193357079408484"><ele>154.0</ele><time>2026-03-27T13:54:43.999Z</time></trkpt><trkpt lat="45.55916047224779" lon="10.193181856337425"><ele>154.0</ele><time>2026-03-27T13:54:45.999Z</time></trkpt><trkpt lat="45.559184578140496" lon="10.193088708497337"><ele>154.0</ele><time>2026-03-27T13:54:46.999Z</time></trkpt><trkpt lat="45.55923296644656" lon="10.19299304889683"><ele>154.0</ele><time>2026-03-27T13:54:47.999Z</time></trkpt><trkpt lat="45.55929936211635" lon="10.192906661059082"><ele>154.0</ele><time>2026-03-27T13:54:48.999Z</time></trkpt><trkpt lat="45.55937849004797" lon="10.192812515148617"><ele>154.0</ele><time>2026-03-27T13:54:49.999Z</time></trkpt><trkpt lat="45.559466882510854" lon="10.192717480076148"><ele>154.0</ele><time>2026-03-27T13:54:50.999Z</time></trkpt><trkpt lat="45.55956506163713" lon="10.192629711526997"><ele>154.0</ele><time>2026-03-27T13:54:51.999Z</time></trkpt><trkpt lat="45.55966691174297" lon="10.192538222171603"><ele>154.0</ele><time>2026-03-27T13:54:52.999Z</time></trkpt><trkpt lat="45.55977257185667" lon="10.192438950487299"><ele>154.0</ele><time>2026-03-27T13:54:53.999Z</time></trkpt><trkpt lat="45.55987574148437" lon="10.19234113034195"><ele>154.0</ele><time>2026-03-27T13:54:54.999Z</time></trkpt><trkpt lat="45.55998068516116" lon="10.192245027195604"><ele>153.75</ele><time>2026-03-27T13:54:55.999Z</time></trkpt><trkpt lat="45.560085609115895" lon="10.192147064506894"><ele>153.5</ele><time>2026-03-27T13:54:56.999Z</time></trkpt><trkpt lat="45.560190740723414" lon="10.192043923872294"><ele>153.25</ele><time>2026-03-27T13:54:57.999Z</time></trkpt><trkpt lat="45.560290377614265" lon="10.1919422220208"><ele>153.0</ele><time>2026-03-27T13:54:58.999Z</time></trkpt><trkpt lat="45.5603926237146" lon="10.191826267050857"><ele>152.5</ele><time>2026-03-27T13:54:59.999Z</time></trkpt><trkpt lat="45.560486413200444" lon="10.19169708027544"><ele>152.0</ele><time>2026-03-27T13:55:00.999Z</time></trkpt><trkpt lat="45.56059046998787" lon="10.191551958912225"><ele>151.5</ele><time>2026-03-27T13:55:01.999Z</time></trkpt><trkpt lat="45.56068249178302" lon="10.191412453384844"><ele>151.0</ele><time>2026-03-27T13:55:02.999Z</time></trkpt><trkpt lat="45.560781996578655" lon="10.191260260817996"><ele>151.0</ele><time>2026-03-27T13:55:03.999Z</time></trkpt><trkpt lat="45.560885307529105" lon="10.191105939134156"><ele>151.0</ele><time>2026-03-27T13:55:04.999Z</time></trkpt><trkpt lat="45.56098719368616" lon="10.190950097128841"><ele>151.0</ele><time>2026-03-27T13:55:05.999Z</time></trkpt><trkpt lat="45.56107939402316" lon="10.190774386257283"><ele>151.0</ele><time>2026-03-27T13:55:06.999Z</time></trkpt><trkpt lat="45.56116152428171" lon="10.190574589957668"><ele>151.0</ele><time>2026-03-27T13:55:07.999Z</time></trkpt><trkpt lat="45.56123931131732" lon="10.190374963026292"><ele>151.0</ele><time>2026-03-27T13:55:08.999Z</time></trkpt><trkpt lat="45.56131254235493" lon="10.190181837134878"><ele>151.0</ele><time>2026-03-27T13:55:09.999Z</time></trkpt><trkpt lat="45.561386315870294" lon="10.189995745461024"><ele>151.0</ele><time>2026-03-27T13:55:10.999Z</time></trkpt><trkpt lat="45.56145940130618" lon="10.189825113556465"><ele>151.0</ele><time>2026-03-27T13:55:11.999Z</time></trkpt><trkpt lat="45.56153533734585" lon="10.189666887699024"><ele>151.0</ele><time>2026-03-27T13:55:12.999Z</time></trkpt><trkpt lat="45.561610185547664" lon="10.189499177785454"><ele>151.0</ele><time>2026-03-27T13:55:13.999Z</time></trkpt><trkpt lat="45.56168033754613" lon="10.189336171985062"><ele>151.0</ele><time>2026-03-27T13:55:14.999Z</time></trkpt><trkpt lat="45.56174676776502" lon="10.18918385288028"><ele>151.0</ele><time>2026-03-27T13:55:15.999Z</time></trkpt><trkpt lat="45.561806352304146" lon="10.189045619206885"><ele>151.0</ele><time>2026-03-27T13:55:16.999Z</time></trkpt><trkpt lat="45.56186494035089" lon="10.188917977322188"><ele>151.2</ele><time>2026-03-27T13:55:17.999Z</time></trkpt><trkpt lat="45.5619147725964" lon="10.188806100068184"><ele>151.39999999999998</ele><time>2026-03-27T13:55:18.999Z</time></trkpt><trkpt lat="45.561959211654575" lon="10.18870506171466"><ele>151.6</ele><time>2026-03-27T13:55:19.999Z</time></trkpt><trkpt lat="45.56200006813188" lon="10.188606725775216"><ele>151.79999999999998</ele><time>2026-03-27T13:55:20.999Z</time></trkpt><trkpt lat="45.56204641550961" lon="10.188497174552653"><ele>152.0</ele><time>2026-03-27T13:55:21.999Z</time></trkpt><trkpt lat="45.56210375247324" lon="10.188370895505006"><ele>151.5</ele><time>2026-03-27T13:55:22.999Z</time></trkpt><trkpt lat="45.56215919195544" lon="10.188221906218478"><ele>151.0</ele><time>2026-03-27T13:55:23.999Z</time></trkpt><trkpt lat="45.56223018915173" lon="10.188060460678106"><ele>150.5</ele><time>2026-03-27T13:55:24.999Z</time></trkpt><trkpt lat="45.562308858782096" lon="10.187898455308575"><ele>150.0</ele><time>2026-03-27T13:55:25.999Z</time></trkpt><trkpt lat="45.56238719095409" lon="10.187732908784868"><ele>150.0</ele><time>2026-03-27T13:55:26.999Z</time></trkpt><trkpt lat="45.562462883700356" lon="10.187564456986607"><ele>150.0</ele><time>2026-03-27T13:55:27.998Z</time></trkpt><trkpt lat="45.56253637912915" lon="10.187400869079834"><ele>150.0</ele><time>2026-03-27T13:55:28.998Z</time></trkpt><trkpt lat="45.56260989869007" lon="10.187237296979871"><ele>150.0</ele><time>2026-03-27T13:55:29.998Z</time></trkpt><trkpt lat="45.562683309944624" lon="10.187082228586434"><ele>150.0</ele><time>2026-03-27T13:55:30.998Z</time></trkpt><trkpt lat="45.56275188334396" lon="10.186934783952415"><ele>150.0</ele><time>2026-03-27T13:55:31.998Z</time></trkpt><trkpt lat="45.562817497192846" lon="10.186786050560146"><ele>150.0</ele><time>2026-03-27T13:55:32.998Z</time></trkpt><trkpt lat="45.562884334421994" lon="10.186637744339402"><ele>150.0</ele><time>2026-03-27T13:55:33.998Z</time></trkpt><trkpt lat="45.56295254276849" lon="10.186496507455137"><ele>149.5</ele><time>2026-03-27T13:55:34.998Z</time></trkpt><trkpt lat="45.56303511165998" lon="10.1863543851134"><ele>149.0</ele><time>2026-03-27T13:55:35.998Z</time></trkpt><trkpt lat="45.56316115640886" lon="10.186263092893443"><ele>148.5</ele><time>2026-03-27T13:55:36.998Z</time></trkpt><trkpt lat="45.56328722300135" lon="10.18609668151385"><ele>148.0</ele><time>2026-03-27T13:55:37.998Z</time></trkpt><trkpt lat="45.563425611525815" lon="10.185948512864067"><ele>148.0</ele><time>2026-03-27T13:55:38.998Z</time></trkpt><trkpt lat="45.56356691161457" lon="10.185781226287615"><ele>148.0</ele><time>2026-03-27T13:55:39.998Z</time></trkpt><trkpt lat="45.5637004362244" lon="10.18560785859033"><ele>148.0</ele><time>2026-03-27T13:55:40.998Z</time></trkpt><trkpt lat="45.56381836844607" lon="10.185436221905523"><ele>150.0</ele><time>2026-03-27T13:55:41.998Z</time></trkpt><trkpt lat="45.563915428698294" lon="10.185250319600213"><ele>152.0</ele><time>2026-03-27T13:55:42.998Z</time></trkpt><trkpt lat="45.56399857357385" lon="10.185062758734867"><ele>154.0</ele><time>2026-03-27T13:55:43.998Z</time></trkpt><trkpt lat="45.56406782309583" lon="10.184873447589409"><ele>154.0</ele><time>2026-03-27T13:55:44.998Z</time></trkpt><trkpt lat="45.56412324707241" lon="10.184680254675397"><ele>154.0</ele><time>2026-03-27T13:55:45.998Z</time></trkpt><trkpt lat="45.56416184127985" lon="10.18447549848151"><ele>154.0</ele><time>2026-03-27T13:55:46.998Z</time></trkpt><trkpt lat="45.56419038823321" lon="10.184252852284525"><ele>154.0</ele><time>2026-03-27T13:55:47.998Z</time></trkpt><trkpt lat="45.56422443933514" lon="10.184033204381619"><ele>154.0</ele><time>2026-03-27T13:55:48.998Z</time></trkpt><trkpt lat="45.564260064706076" lon="10.18382668431147"><ele>154.0</ele><time>2026-03-27T13:55:49.998Z</time></trkpt><trkpt lat="45.56429292799252" lon="10.183628085475098"><ele>154.0</ele><time>2026-03-27T13:55:50.998Z</time></trkpt><trkpt lat="45.56432503619337" lon="10.183422979371045"><ele>154.5</ele><time>2026-03-27T13:55:51.998Z</time></trkpt><trkpt lat="45.56435703371442" lon="10.183243012335183"><ele>155.0</ele><time>2026-03-27T13:55:52.998Z</time></trkpt><trkpt lat="45.56438880787297" lon="10.183079489723807"><ele>155.5</ele><time>2026-03-27T13:55:53.998Z</time></trkpt><trkpt lat="45.564434848879344" lon="10.182925048425266"><ele>156.0</ele><time>2026-03-27T13:55:54.998Z</time></trkpt><trkpt lat="45.56449818326991" lon="10.182776688161113"><ele>156.75</ele><time>2026-03-27T13:55:55.999Z</time></trkpt><trkpt lat="45.56457007933549" lon="10.182633232899462"><ele>157.5</ele><time>2026-03-27T13:55:56.999Z</time></trkpt><trkpt lat="45.56466312196043" lon="10.182503611341424"><ele>158.25</ele><time>2026-03-27T13:55:57.999Z</time></trkpt><trkpt lat="45.56478180640214" lon="10.182370925758246"><ele>159.0</ele><time>2026-03-27T13:55:58.999Z</time></trkpt><trkpt lat="45.56491742500782" lon="10.182260990360788"><ele>155.66666666666666</ele><time>2026-03-27T13:55:59.999Z</time></trkpt><trkpt lat="45.56506395452412" lon="10.182152288677306"><ele>152.33333333333331</ele><time>2026-03-27T13:56:00.999Z</time></trkpt><trkpt lat="45.56522052192704" lon="10.182024007774048"><ele>149.0</ele><time>2026-03-27T13:56:01.999Z</time></trkpt><trkpt lat="45.56540434223675" lon="10.181908548747439"><ele>148.33333333333331</ele><time>2026-03-27T13:56:02.999Z</time></trkpt><trkpt lat="45.56556646974091" lon="10.18177598867664"><ele>147.66666666666666</ele><time>2026-03-27T13:56:03.999Z</time></trkpt><trkpt lat="45.56573556441451" lon="10.181655095381975"><ele>147.0</ele><time>2026-03-27T13:56:04.999Z</time></trkpt><trkpt lat="45.565909161526314" lon="10.181553662858219"><ele>144.33333333333334</ele><time>2026-03-27T13:56:05.999Z</time></trkpt><trkpt lat="45.56609318618024" lon="10.18146885022634"><ele>141.66666666666669</ele><time>2026-03-27T13:56:06.999Z</time></trkpt><trkpt lat="45.56627350265253" lon="10.181386486741927"><ele>139.0</ele><time>2026-03-27T13:56:07.999Z</time></trkpt><trkpt lat="45.566448311623446" lon="10.181304282198846"><ele>139.0</ele><time>2026-03-27T13:56:08.999Z</time></trkpt><trkpt lat="45.56661478994097" lon="10.181237757292605"><ele>139.0</ele><time>2026-03-27T13:56:09.999Z</time></trkpt><trkpt lat="45.56677642876853" lon="10.181178841935555"><ele>139.0</ele><time>2026-03-27T13:56:10.999Z</time></trkpt><trkpt lat="45.56693264658021" lon="10.181109837437921"><ele>138.66666666666669</ele><time>2026-03-27T13:56:11.999Z</time></trkpt><trkpt lat="45.56709098194839" lon="10.181038648827068"><ele>138.33333333333334</ele><time>2026-03-27T13:56:12.999Z</time></trkpt><trkpt lat="45.5672507682121" lon="10.1809708357124"><ele>138.0</ele><time>2026-03-27T13:56:13.999Z</time></trkpt><trkpt lat="45.56741398527104" lon="10.180898420483587"><ele>138.0</ele><time>2026-03-27T13:56:14.999Z</time></trkpt><trkpt lat="45.56757640010938" lon="10.1808300138535"><ele>138.0</ele><time>2026-03-27T13:56:15.999Z</time></trkpt><trkpt lat="45.56773819498894" lon="10.180766018093994"><ele>138.0</ele><time>2026-03-27T13:56:16.999Z</time></trkpt><trkpt lat="45.567901303671704" lon="10.180702738665447"><ele>137.33333333333334</ele><time>2026-03-27T13:56:17.999Z</time></trkpt><trkpt lat="45.56806517383878" lon="10.180641684606186"><ele>136.66666666666669</ele><time>2026-03-27T13:56:18.999Z</time></trkpt><trkpt lat="45.56823207421689" lon="10.180579832843167"><ele>136.0</ele><time>2026-03-27T13:56:19.999Z</time></trkpt><trkpt lat="45.568398204642534" lon="10.18050566823795"><ele>136.0</ele><time>2026-03-27T13:56:20.999Z</time></trkpt><trkpt lat="45.56855806278153" lon="10.180433516813554"><ele>136.0</ele><time>2026-03-27T13:56:21.999Z</time></trkpt><trkpt lat="45.56873067288787" lon="10.180365842275297"><ele>136.0</ele><time>2026-03-27T13:56:22.999Z</time></trkpt><trkpt lat="45.56892463281036" lon="10.180301094122795"><ele>136.5</ele><time>2026-03-27T13:56:23.999Z</time></trkpt><trkpt lat="45.56914835592212" lon="10.180235563687003"><ele>137.0</ele><time>2026-03-27T13:56:24.999Z</time></trkpt><trkpt lat="45.56937456576022" lon="10.180175687059899"><ele>138.0</ele><time>2026-03-27T13:56:25.999Z</time></trkpt><trkpt lat="45.56960303326884" lon="10.180100951446732"><ele>139.0</ele><time>2026-03-27T13:56:26.999Z</time></trkpt><trkpt lat="45.56984493860432" lon="10.180018560004052"><ele>139.0</ele><time>2026-03-27T13:56:27.999Z</time></trkpt><trkpt lat="45.57008035131489" lon="10.17993985647573"><ele>139.0</ele><time>2026-03-27T13:56:28.999Z</time></trkpt><trkpt lat="45.57030308553871" lon="10.179864405442487"><ele>139.0</ele><time>2026-03-27T13:56:29.999Z</time></trkpt><trkpt lat="45.570506741977795" lon="10.17979116785736"><ele>139.0</ele><time>2026-03-27T13:56:30.999Z</time></trkpt><trkpt lat="45.570693113440605" lon="10.179724628203289"><ele>139.0</ele><time>2026-03-27T13:56:31.999Z</time></trkpt><trkpt lat="45.57087252500335" lon="10.17966206500762"><ele>139.0</ele><time>2026-03-27T13:56:32.999Z</time></trkpt><trkpt lat="45.57104430734918" lon="10.179600646532586"><ele>139.0</ele><time>2026-03-27T13:56:33.999Z</time></trkpt><trkpt lat="45.57120225353435" lon="10.179534675801134"><ele>139.0</ele><time>2026-03-27T13:56:34.999Z</time></trkpt><trkpt lat="45.571350040961214" lon="10.179465049922442"><ele>140.66666666666669</ele><time>2026-03-27T13:56:35.999Z</time></trkpt><trkpt lat="45.57149881773379" lon="10.179374268102755"><ele>142.33333333333334</ele><time>2026-03-27T13:56:36.999Z</time></trkpt><trkpt lat="45.57163383394361" lon="10.179257476777762"><ele>144.0</ele><time>2026-03-27T13:56:37.999Z</time></trkpt><trkpt lat="45.57177853706756" lon="10.179120125325298"><ele>142.66666666666666</ele><time>2026-03-27T13:56:38.999Z</time></trkpt><trkpt lat="45.57191721914117" lon="10.179000558613419"><ele>141.33333333333331</ele><time>2026-03-27T13:56:39.999Z</time></trkpt><trkpt lat="45.57206357038336" lon="10.178915120940484"><ele>140.0</ele><time>2026-03-27T13:56:40.999Z</time></trkpt><trkpt lat="45.572224042224946" lon="10.178914806248134"><ele>140.0</ele><time>2026-03-27T13:56:41.999Z</time></trkpt><trkpt lat="45.5723828488049" lon="10.178940509799085"><ele>140.0</ele><time>2026-03-27T13:56:42.999Z</time></trkpt><trkpt lat="45.57254712226901" lon="10.178974733621276"><ele>140.0</ele><time>2026-03-27T13:56:43.999Z</time></trkpt><trkpt lat="45.57270275712145" lon="10.179058841099108"><ele>140.33333333333331</ele><time>2026-03-27T13:56:44.999Z</time></trkpt><trkpt lat="45.5728541461828" lon="10.179142648635263"><ele>140.66666666666666</ele><time>2026-03-27T13:56:45.999Z</time></trkpt><trkpt lat="45.57301255884075" lon="10.179213996304659"><ele>141.0</ele><time>2026-03-27T13:56:46.999Z</time></trkpt><trkpt lat="45.573175257975926" lon="10.179294207725096"><ele>141.0</ele><time>2026-03-27T13:56:47.999Z</time></trkpt><trkpt lat="45.57334632598469" lon="10.179365242501152"><ele>141.0</ele><time>2026-03-27T13:56:48.999Z</time></trkpt><trkpt lat="45.57352705697915" lon="10.179436293582098"><ele>141.0</ele><time>2026-03-27T13:56:49.999Z</time></trkpt><trkpt lat="45.57371148757512" lon="10.179488830395849"><ele>141.33333333333334</ele><time>2026-03-27T13:56:50.999Z</time></trkpt><trkpt lat="45.57390670623327" lon="10.179518630605303"><ele>141.66666666666669</ele><time>2026-03-27T13:56:51.999Z</time></trkpt><trkpt lat="45.57410379796422" lon="10.179527994886891"><ele>142.0</ele><time>2026-03-27T13:56:52.999Z</time></trkpt><trkpt lat="45.57429465663855" lon="10.179517280384264"><ele>142.0</ele><time>2026-03-27T13:56:53.999Z</time></trkpt><trkpt lat="45.57447799637286" lon="10.179488961757519"><ele>142.0</ele><time>2026-03-27T13:56:54.999Z</time></trkpt><trkpt lat="45.57466259169745" lon="10.17944745535237"><ele>142.0</ele><time>2026-03-27T13:56:55.999Z</time></trkpt><trkpt lat="45.574848527041006" lon="10.179394974667773"><ele>142.33333333333334</ele><time>2026-03-27T13:56:56.999Z</time></trkpt><trkpt lat="45.57503467516938" lon="10.179344315465523"><ele>142.66666666666666</ele><time>2026-03-27T13:56:57.999Z</time></trkpt><trkpt lat="45.57523720027162" lon="10.179280745926839"><ele>143.0</ele><time>2026-03-27T13:56:58.999Z</time></trkpt><trkpt lat="45.57544590666099" lon="10.17922368433364"><ele>143.5</ele><time>2026-03-27T13:56:59.999Z</time></trkpt><trkpt lat="45.57565860474695" lon="10.179164735071256"><ele>144.0</ele><time>2026-03-27T13:57:00.999Z</time></trkpt><trkpt lat="45.57590050257061" lon="10.179095180802156"><ele>144.0</ele><time>2026-03-27T13:57:01.999Z</time></trkpt><trkpt lat="45.57614798234374" lon="10.179022271368613"><ele>144.0</ele><time>2026-03-27T13:57:02.999Z</time></trkpt><trkpt lat="45.57638015882962" lon="10.178950177566527"><ele>143.66666666666666</ele><time>2026-03-27T13:57:03.999Z</time></trkpt><trkpt lat="45.57659367618051" lon="10.178880459419096"><ele>143.33333333333331</ele><time>2026-03-27T13:57:04.999Z</time></trkpt><trkpt lat="45.576796050003175" lon="10.178814116408253"><ele>143.0</ele><time>2026-03-27T13:57:05.999Z</time></trkpt><trkpt lat="45.576993501473304" lon="10.178753342628847"><ele>144.0</ele><time>2026-03-27T13:57:06.999Z</time></trkpt><trkpt lat="45.577177272518036" lon="10.17869908251261"><ele>145.0</ele><time>2026-03-27T13:57:07.999Z</time></trkpt><trkpt lat="45.57735697794809" lon="10.178645203800222"><ele>146.0</ele><time>2026-03-27T13:57:08.999Z</time></trkpt><trkpt lat="45.57752967467977" lon="10.17858990076673"><ele>146.0</ele><time>2026-03-27T13:57:09.999Z</time></trkpt><trkpt lat="45.57769575161246" lon="10.178534409503223"><ele>146.0</ele><time>2026-03-27T13:57:10.999Z</time></trkpt><trkpt lat="45.57784713847907" lon="10.17848796284847"><ele>146.0</ele><time>2026-03-27T13:57:11.999Z</time></trkpt><trkpt lat="45.5779859842191" lon="10.178443475786725"><ele>146.0</ele><time>2026-03-27T13:57:12.999Z</time></trkpt><trkpt lat="45.578107873396654" lon="10.178402291274447"><ele>146.0</ele><time>2026-03-27T13:57:13.999Z</time></trkpt><trkpt lat="45.57821380253867" lon="10.17837693488245"><ele>146.0</ele><time>2026-03-27T13:57:14.999Z</time></trkpt><trkpt lat="45.57830869569438" lon="10.178391163201724"><ele>146.0</ele><time>2026-03-27T13:57:15.999Z</time></trkpt><trkpt lat="45.57839826411909" lon="10.178446853402482"><ele>146.0</ele><time>2026-03-27T13:57:16.999Z</time></trkpt><trkpt lat="45.57848526979054" lon="10.178471237653046"><ele>146.0</ele><time>2026-03-27T13:57:17.999Z</time></trkpt><trkpt lat="45.57858131724218" lon="10.17843512759322"><ele>146.0</ele><time>2026-03-27T13:57:18.999Z</time></trkpt><trkpt lat="45.57863549625388" lon="10.178336696309481"><ele>146.0</ele><time>2026-03-27T13:57:19.999Z</time></trkpt><trkpt lat="45.57868808736249" lon="10.178199289407297"><ele>146.0</ele><time>2026-03-27T13:57:20.999Z</time></trkpt><trkpt lat="45.578758131589034" lon="10.178103409582244"><ele>146.0</ele><time>2026-03-27T13:57:21.999Z</time></trkpt><trkpt lat="45.57886671519267" lon="10.178025819422126"><ele>146.66666666666666</ele><time>2026-03-27T13:57:22.999Z</time></trkpt><trkpt lat="45.578990168869" lon="10.177950763676003"><ele>147.33333333333334</ele><time>2026-03-27T13:57:23.999Z</time></trkpt><trkpt lat="45.579149906341165" lon="10.177853341313329"><ele>148.0</ele><time>2026-03-27T13:57:24.999Z</time></trkpt><trkpt lat="45.57935433215621" lon="10.177731266363672"><ele>148.0</ele><time>2026-03-27T13:57:25.999Z</time></trkpt><trkpt lat="45.57959335720838" lon="10.177606155506147"><ele>148.0</ele><time>2026-03-27T13:57:26.999Z</time></trkpt><trkpt lat="45.57984520437747" lon="10.177484050285543"><ele>147.5</ele><time>2026-03-27T13:57:27.999Z</time></trkpt><trkpt lat="45.5800974978311" lon="10.177344380618377"><ele>147.0</ele><time>2026-03-27T13:57:28.998Z</time></trkpt><trkpt lat="45.580359317050096" lon="10.177195131892647"><ele>148.5</ele><time>2026-03-27T13:57:29.998Z</time></trkpt><trkpt lat="45.58063329684863" lon="10.177031063083412"><ele>150.0</ele><time>2026-03-27T13:57:30.998Z</time></trkpt><trkpt lat="45.58087172252523" lon="10.176886685448567"><ele>150.0</ele><time>2026-03-27T13:57:31.998Z</time></trkpt><trkpt lat="45.581083400723685" lon="10.17673916430139"><ele>150.0</ele><time>2026-03-27T13:57:32.998Z</time></trkpt><trkpt lat="45.581279978570734" lon="10.176587049159371"><ele>150.66666666666666</ele><time>2026-03-27T13:57:33.998Z</time></trkpt><trkpt lat="45.581479659473" lon="10.176429529925292"><ele>151.33333333333331</ele><time>2026-03-27T13:57:34.998Z</time></trkpt><trkpt lat="45.581662943446084" lon="10.176275877817739"><ele>152.0</ele><time>2026-03-27T13:57:35.998Z</time></trkpt><trkpt lat="45.581822409750906" lon="10.176135149301308"><ele>152.0</ele><time>2026-03-27T13:57:36.998Z</time></trkpt><trkpt lat="45.58195800064839" lon="10.175993294575301"><ele>152.0</ele><time>2026-03-27T13:57:37.998Z</time></trkpt><trkpt lat="45.58206647958793" lon="10.175849473525254"><ele>152.0</ele><time>2026-03-27T13:57:38.998Z</time></trkpt><trkpt lat="45.5821633933658" lon="10.175701055732608"><ele>151.75</ele><time>2026-03-27T13:57:39.998Z</time></trkpt><trkpt lat="45.582248110309884" lon="10.175541343691267"><ele>151.5</ele><time>2026-03-27T13:57:40.998Z</time></trkpt><trkpt lat="45.58232357116884" lon="10.17538119399813"><ele>151.25</ele><time>2026-03-27T13:57:41.998Z</time></trkpt><trkpt lat="45.58238642760495" lon="10.175232395382158"><ele>151.0</ele><time>2026-03-27T13:57:42.998Z</time></trkpt><trkpt lat="45.58243800729647" lon="10.17508779133635"><ele>151.0</ele><time>2026-03-27T13:57:43.998Z</time></trkpt><trkpt lat="45.582483956777835" lon="10.174946854087906"><ele>151.0</ele><time>2026-03-27T13:57:44.998Z</time></trkpt><trkpt lat="45.58252795853353" lon="10.174831913192216"><ele>151.0</ele><time>2026-03-27T13:57:45.998Z</time></trkpt><trkpt lat="45.582570117091414" lon="10.174721420856809"><ele>151.0</ele><time>2026-03-27T13:57:46.998Z</time></trkpt><trkpt lat="45.58260756081101" lon="10.17462114375984"><ele>151.0</ele><time>2026-03-27T13:57:47.998Z</time></trkpt><trkpt lat="45.58264746897052" lon="10.1744941390845"><ele>150.6</ele><time>2026-03-27T13:57:49.998Z</time></trkpt><trkpt lat="45.58266034083889" lon="10.174401408986595"><ele>150.2</ele><time>2026-03-27T13:58:34.999Z</time></trkpt><trkpt lat="45.582689423002165" lon="10.174305053743677"><ele>149.8</ele><time>2026-03-27T13:58:35.999Z</time></trkpt><trkpt lat="45.582718302373976" lon="10.174172505123103"><ele>149.4</ele><time>2026-03-27T13:58:36.999Z</time></trkpt><trkpt lat="45.58276656442102" lon="10.17398037273409"><ele>149.0</ele><time>2026-03-27T13:58:37.999Z</time></trkpt><trkpt lat="45.58281342843217" lon="10.1737149008946"><ele>148.5</ele><time>2026-03-27T13:58:38.999Z</time></trkpt><trkpt lat="45.58285215792692" lon="10.17338649636464"><ele>148.0</ele><time>2026-03-27T13:58:39.999Z</time></trkpt><trkpt lat="45.582886657322945" lon="10.17300851618418"><ele>148.0</ele><time>2026-03-27T13:58:40.999Z</time></trkpt><trkpt lat="45.58291646850288" lon="10.17263026738918"><ele>148.0</ele><time>2026-03-27T13:58:41.999Z</time></trkpt><trkpt lat="45.58294592888508" lon="10.172295934608591"><ele>148.33333333333334</ele><time>2026-03-27T13:58:42.999Z</time></trkpt><trkpt lat="45.5829667474922" lon="10.171993041278599"><ele>148.66666666666666</ele><time>2026-03-27T13:58:43.999Z</time></trkpt><trkpt lat="45.58298193959303" lon="10.171695179556307"><ele>149.0</ele><time>2026-03-27T13:58:44.999Z</time></trkpt><trkpt lat="45.582999836258345" lon="10.17140595319516"><ele>149.33333333333331</ele><time>2026-03-27T13:58:45.999Z</time></trkpt><trkpt lat="45.583021626730066" lon="10.171122285502358"><ele>149.66666666666666</ele><time>2026-03-27T13:58:46.999Z</time></trkpt><trkpt lat="45.583036524380155" lon="10.170824062875678"><ele>150.0</ele><time>2026-03-27T13:58:47.999Z</time></trkpt><trkpt lat="45.58304555007872" lon="10.1704804085709"><ele>149.0</ele><time>2026-03-27T13:58:48.999Z</time></trkpt><trkpt lat="45.58304910100573" lon="10.170084558238536"><ele>148.0</ele><time>2026-03-27T13:58:49.999Z</time></trkpt><trkpt lat="45.58304691066708" lon="10.169676566913525"><ele>148.0</ele><time>2026-03-27T13:58:50.999Z</time></trkpt><trkpt lat="45.583040546645975" lon="10.16929943510226"><ele>148.0</ele><time>2026-03-27T13:58:51.999Z</time></trkpt><trkpt lat="45.583034554441625" lon="10.168948951817303"><ele>148.0</ele><time>2026-03-27T13:58:52.999Z</time></trkpt><trkpt lat="45.583036218871435" lon="10.168616008901875"><ele>148.0</ele><time>2026-03-27T13:58:53.999Z</time></trkpt><trkpt lat="45.58304001315172" lon="10.168290932702465"><ele>147.66666666666669</ele><time>2026-03-27T13:58:54.999Z</time></trkpt><trkpt lat="45.5830386324517" lon="10.167994609341635"><ele>147.33333333333334</ele><time>2026-03-27T13:58:55.999Z</time></trkpt><trkpt lat="45.58303109745449" lon="10.167749008434088"><ele>147.0</ele><time>2026-03-27T13:58:56.999Z</time></trkpt><trkpt lat="45.583021390170295" lon="10.167551381801063"><ele>147.0</ele><time>2026-03-27T13:58:57.999Z</time></trkpt><trkpt lat="45.583013328312504" lon="10.167397108414093"><ele>147.0</ele><time>2026-03-27T13:58:58.999Z</time></trkpt><trkpt lat="45.58301632541893" lon="10.167271197283386"><ele>147.0</ele><time>2026-03-27T13:58:59.999Z</time></trkpt><trkpt lat="45.5830167102072" lon="10.167132418231798"><ele>147.0</ele><time>2026-03-27T13:59:00.999Z</time></trkpt><trkpt lat="45.58298324132387" lon="10.166948597350684"><ele>147.0</ele><time>2026-03-27T13:59:01.999Z</time></trkpt><trkpt lat="45.58290480522463" lon="10.166704204534689"><ele>148.0</ele><time>2026-03-27T13:59:02.999Z</time></trkpt><trkpt lat="45.582849325678325" lon="10.166454106938643"><ele>149.0</ele><time>2026-03-27T13:59:03.999Z</time></trkpt><trkpt lat="45.58280626069548" lon="10.166253658670119"><ele>150.0</ele><time>2026-03-27T13:59:04.999Z</time></trkpt><trkpt lat="45.58276240791461" lon="10.166082942344197"><ele>150.0</ele><time>2026-03-27T13:59:05.999Z</time></trkpt><trkpt lat="45.582728692746244" lon="10.16593946757767"><ele>150.0</ele><time>2026-03-27T13:59:06.999Z</time></trkpt><trkpt lat="45.5826984484901" lon="10.165812782508217"><ele>150.0</ele><time>2026-03-27T13:59:07.999Z</time></trkpt><trkpt lat="45.582679769031984" lon="10.165700394966564"><ele>150.0</ele><time>2026-03-27T13:59:08.999Z</time></trkpt><trkpt lat="45.58265735792316" lon="10.165581470704023"><ele>150.0</ele><time>2026-03-27T13:59:09.999Z</time></trkpt><trkpt lat="45.58261865793655" lon="10.16544591655167"><ele>150.0</ele><time>2026-03-27T13:59:10.999Z</time></trkpt><trkpt lat="45.58256450560583" lon="10.16529610526621"><ele>150.0</ele><time>2026-03-27T13:59:11.999Z</time></trkpt><trkpt lat="45.58251439312955" lon="10.16513345009559"><ele>150.0</ele><time>2026-03-27T13:59:12.999Z</time></trkpt><trkpt lat="45.58246938396073" lon="10.164961411898554"><ele>150.0</ele><time>2026-03-27T13:59:13.999Z</time></trkpt><trkpt lat="45.58242239847819" lon="10.164780862606623"><ele>150.5</ele><time>2026-03-27T13:59:14.999Z</time></trkpt><trkpt lat="45.58237602256302" lon="10.164592688000415"><ele>151.0</ele><time>2026-03-27T13:59:15.999Z</time></trkpt><trkpt lat="45.582333987927484" lon="10.16439977361075"><ele>151.5</ele><time>2026-03-27T13:59:16.999Z</time></trkpt><trkpt lat="45.58229212982498" lon="10.164214855281923"><ele>152.0</ele><time>2026-03-27T13:59:17.999Z</time></trkpt><trkpt lat="45.58227314404591" lon="10.164053914513323"><ele>152.16666666666666</ele><time>2026-03-27T13:59:18.999Z</time></trkpt><trkpt lat="45.58226404450949" lon="10.163903557254422"><ele>152.33333333333331</ele><time>2026-03-27T13:59:19.999Z</time></trkpt><trkpt lat="45.58226010283211" lon="10.16376209163627"><ele>152.5</ele><time>2026-03-27T13:59:20.999Z</time></trkpt><trkpt lat="45.582270327433164" lon="10.163644664023055"><ele>152.66666666666666</ele><time>2026-03-27T13:59:21.999Z</time></trkpt><trkpt lat="45.58228427158256" lon="10.163536360212618"><ele>152.83333333333334</ele><time>2026-03-27T13:59:22.999Z</time></trkpt><trkpt lat="45.58230823278536" lon="10.163443041214729"><ele>153.0</ele><time>2026-03-27T13:59:23.999Z</time></trkpt><trkpt lat="45.582345842913064" lon="10.163331992138032"><ele>153.0</ele><time>2026-03-27T13:59:24.999Z</time></trkpt><trkpt lat="45.58239114887062" lon="10.163235536877817"><ele>153.0</ele><time>2026-03-27T13:59:25.999Z</time></trkpt><trkpt lat="45.582473232085576" lon="10.163185561274656"><ele>153.0</ele><time>2026-03-27T13:59:26.999Z</time></trkpt><trkpt lat="45.58254405364806" lon="10.163079725965467"><ele>153.0</ele><time>2026-03-27T13:59:27.999Z</time></trkpt><trkpt lat="45.58267777799921" lon="10.163065735904414"><ele>153.0</ele><time>2026-03-27T13:59:28.999Z</time></trkpt><trkpt lat="45.58282462609489" lon="10.16313436421529"><ele>153.33333333333334</ele><time>2026-03-27T13:59:29.999Z</time></trkpt><trkpt lat="45.582996155470056" lon="10.163137873661872"><ele>153.66666666666669</ele><time>2026-03-27T13:59:30.999Z</time></trkpt><trkpt lat="45.58315614831503" lon="10.163145991515057"><ele>154.0</ele><time>2026-03-27T13:59:31.999Z</time></trkpt><trkpt lat="45.583315223278404" lon="10.163129743918601"><ele>154.0</ele><time>2026-03-27T13:59:32.999Z</time></trkpt><trkpt lat="45.58346590692367" lon="10.163115300129729"><ele>154.0</ele><time>2026-03-27T13:59:33.999Z</time></trkpt><trkpt lat="45.58361045177528" lon="10.163088823510241"><ele>154.0</ele><time>2026-03-27T13:59:34.999Z</time></trkpt><trkpt lat="45.58374923848394" lon="10.163058692044714"><ele>154.0</ele><time>2026-03-27T13:59:35.999Z</time></trkpt><trkpt lat="45.58387638624749" lon="10.163030138460703"><ele>154.75</ele><time>2026-03-27T13:59:36.999Z</time></trkpt><trkpt lat="45.5840091622098" lon="10.163004841166517"><ele>155.5</ele><time>2026-03-27T13:59:37.999Z</time></trkpt><trkpt lat="45.5841454625475" lon="10.162979427629663"><ele>156.25</ele><time>2026-03-27T13:59:38.999Z</time></trkpt><trkpt lat="45.58427849948736" lon="10.162960401971082"><ele>157.0</ele><time>2026-03-27T13:59:39.999Z</time></trkpt><trkpt lat="45.584406268117945" lon="10.162941370522176"><ele>158.0</ele><time>2026-03-27T13:59:40.999Z</time></trkpt><trkpt lat="45.584564847260225" lon="10.16291159754161"><ele>159.0</ele><time>2026-03-27T13:59:41.999Z</time></trkpt><trkpt lat="45.58473432501124" lon="10.162871155534654"><ele>160.0</ele><time>2026-03-27T13:59:42.999Z</time></trkpt><trkpt lat="45.58491253747563" lon="10.162839099856177"><ele>160.0</ele><time>2026-03-27T13:59:43.999Z</time></trkpt><trkpt lat="45.585096746197586" lon="10.162839606897233"><ele>160.0</ele><time>2026-03-27T13:59:44.999Z</time></trkpt><trkpt lat="45.58526149084945" lon="10.162907758166387"><ele>160.0</ele><time>2026-03-27T13:59:45.998Z</time></trkpt><trkpt lat="45.58542144559537" lon="10.163029241618228"><ele>159.66666666666669</ele><time>2026-03-27T13:59:46.998Z</time></trkpt><trkpt lat="45.58559537793474" lon="10.16316554957088"><ele>159.33333333333334</ele><time>2026-03-27T13:59:47.998Z</time></trkpt><trkpt lat="45.58575073406564" lon="10.163279753389027"><ele>159.0</ele><time>2026-03-27T13:59:48.998Z</time></trkpt><trkpt lat="45.5859004900825" lon="10.16334825990076"><ele>160.0</ele><time>2026-03-27T13:59:49.998Z</time></trkpt><trkpt lat="45.586056113614866" lon="10.163412485227578"><ele>161.0</ele><time>2026-03-27T13:59:50.998Z</time></trkpt><trkpt lat="45.58622630703942" lon="10.16343785589013"><ele>162.0</ele><time>2026-03-27T13:59:51.998Z</time></trkpt><trkpt lat="45.58640112747563" lon="10.16345779342988"><ele>162.0</ele><time>2026-03-27T13:59:52.998Z</time></trkpt><trkpt lat="45.586592934891755" lon="10.163470702701634"><ele>162.0</ele><time>2026-03-27T13:59:53.998Z</time></trkpt><trkpt lat="45.58678711630394" lon="10.163482159889424"><ele>162.0</ele><time>2026-03-27T13:59:54.998Z</time></trkpt><trkpt lat="45.58700446870103" lon="10.163505008750011"><ele>162.33333333333334</ele><time>2026-03-27T13:59:55.998Z</time></trkpt><trkpt lat="45.58721979206923" lon="10.163530258743448"><ele>162.66666666666669</ele><time>2026-03-27T13:59:56.998Z</time></trkpt><trkpt lat="45.587405122507555" lon="10.163551441238022"><ele>163.0</ele><time>2026-03-27T13:59:57.998Z</time></trkpt><trkpt lat="45.58759249956695" lon="10.16358397947696"><ele>163.0</ele><time>2026-03-27T13:59:58.998Z</time></trkpt><trkpt lat="45.587807393624864" lon="10.163656856944375"><ele>163.0</ele><time>2026-03-27T13:59:59.998Z</time></trkpt><trkpt lat="45.58799365574387" lon="10.163757976948336"><ele>163.0</ele><time>2026-03-27T14:00:00.998Z</time></trkpt><trkpt lat="45.588166634941246" lon="10.163864848336567"><ele>163.66666666666669</ele><time>2026-03-27T14:00:01.998Z</time></trkpt><trkpt lat="45.58834445763135" lon="10.163947157961264"><ele>164.33333333333334</ele><time>2026-03-27T14:00:02.998Z</time></trkpt><trkpt lat="45.58853035474213" lon="10.164008186052477"><ele>165.0</ele><time>2026-03-27T14:00:03.998Z</time></trkpt><trkpt lat="45.588713747250075" lon="10.164034753349242"><ele>165.5</ele><time>2026-03-27T14:00:04.998Z</time></trkpt><trkpt lat="45.58887349331925" lon="10.164050503714012"><ele>166.0</ele><time>2026-03-27T14:00:05.998Z</time></trkpt><trkpt lat="45.58902534934494" lon="10.16406439030175"><ele>166.5</ele><time>2026-03-27T14:00:06.998Z</time></trkpt><trkpt lat="45.58916023892478" lon="10.164079110441932"><ele>167.0</ele><time>2026-03-27T14:00:07.999Z</time></trkpt><trkpt lat="45.58927982463945" lon="10.164096847854221"><ele>167.0</ele><time>2026-03-27T14:00:08.999Z</time></trkpt><trkpt lat="45.58939146668327" lon="10.164112223219776"><ele>167.0</ele><time>2026-03-27T14:00:09.999Z</time></trkpt><trkpt lat="45.58948574342287" lon="10.164120027791693"><ele>167.0</ele><time>2026-03-27T14:00:10.999Z</time></trkpt><trkpt lat="45.58957016909257" lon="10.164124515811231"><ele>167.0</ele><time>2026-03-27T14:00:11.999Z</time></trkpt><trkpt lat="45.58968295609413" lon="10.164161321957248"><ele>167.0</ele><time>2026-03-27T14:00:13.999Z</time></trkpt><trkpt lat="45.589753245784294" lon="10.16412930037509"><ele>167.75</ele><time>2026-03-27T14:00:14.999Z</time></trkpt><trkpt lat="45.58984874389485" lon="10.164105853655796"><ele>168.5</ele><time>2026-03-27T14:00:15.999Z</time></trkpt><trkpt lat="45.58993767513821" lon="10.164171030025313"><ele>169.25</ele><time>2026-03-27T14:00:16.999Z</time></trkpt><trkpt lat="45.59007206015378" lon="10.16425276906259"><ele>170.0</ele><time>2026-03-27T14:00:17.999Z</time></trkpt><trkpt lat="45.59018977463934" lon="10.164316047872788"><ele>170.0</ele><time>2026-03-27T14:00:18.999Z</time></trkpt><trkpt lat="45.59028244243008" lon="10.164361518328015"><ele>170.0</ele><time>2026-03-27T14:00:19.999Z</time></trkpt><trkpt lat="45.59035996700435" lon="10.164404611737258"><ele>170.0</ele><time>2026-03-27T14:00:20.999Z</time></trkpt><trkpt lat="45.59042809289124" lon="10.164443108102963"><ele>170.0</ele><time>2026-03-27T14:00:21.999Z</time></trkpt><trkpt lat="45.59052496144196" lon="10.164422544069248"><ele>170.0</ele><time>2026-03-27T14:00:23.999Z</time></trkpt><trkpt lat="45.590597277781384" lon="10.164416176225886"><ele>170.0</ele><time>2026-03-27T14:00:24.999Z</time></trkpt><trkpt lat="45.59068995800446" lon="10.164514113169954"><ele>170.4</ele><time>2026-03-27T14:00:25.999Z</time></trkpt><trkpt lat="45.59075405081902" lon="10.164419767647423"><ele>170.8</ele><time>2026-03-27T14:00:27.999Z</time></trkpt><trkpt lat="45.59082753520494" lon="10.164309584303776"><ele>171.2</ele><time>2026-03-27T14:00:29.999Z</time></trkpt><trkpt lat="45.590898500595024" lon="10.164378571680098"><ele>171.6</ele><time>2026-03-27T14:00:31.999Z</time></trkpt><trkpt lat="45.59095365069507" lon="10.164427660548544"><ele>172.0</ele><time>2026-03-27T14:00:32.999Z</time></trkpt><trkpt lat="45.591040634909106" lon="10.164511527464027"><ele>172.0</ele><time>2026-03-27T14:00:33.999Z</time></trkpt><trkpt lat="45.59109991563339" lon="10.16464719053618"><ele>172.0</ele><time>2026-03-27T14:00:35.999Z</time></trkpt><trkpt lat="45.591107330772" lon="10.164737905502205"><ele>172.0</ele><time>2026-03-27T14:00:36.999Z</time></trkpt><trkpt lat="45.59106733457562" lon="10.164810030249896"><ele>172.0</ele><time>2026-03-27T14:00:37.999Z</time></trkpt><trkpt lat="45.59105158167518" lon="10.164914428974212"><ele>172.0</ele><time>2026-03-27T14:00:38.999Z</time></trkpt><trkpt lat="45.59103063005482" lon="10.165052895965287"><ele>172.0</ele><time>2026-03-27T14:00:39.999Z</time></trkpt><trkpt lat="45.59101579418443" lon="10.165220763288724"><ele>173.75</ele><time>2026-03-27T14:00:40.999Z</time></trkpt><trkpt lat="45.590999150632136" lon="10.165412028626765"><ele>175.5</ele><time>2026-03-27T14:00:41.999Z</time></trkpt><trkpt lat="45.59098953042297" lon="10.165602420849236"><ele>177.25</ele><time>2026-03-27T14:00:42.999Z</time></trkpt><trkpt lat="45.59098674795928" lon="10.165811840931221"><ele>179.0</ele><time>2026-03-27T14:00:43.999Z</time></trkpt><trkpt lat="45.590990707525" lon="10.16603200209623"><ele>181.0</ele><time>2026-03-27T14:00:44.999Z</time></trkpt><trkpt lat="45.59099268351895" lon="10.16623097971102"><ele>183.0</ele><time>2026-03-27T14:00:45.999Z</time></trkpt><trkpt lat="45.59099141996988" lon="10.166360811087356"><ele>185.0</ele><time>2026-03-27T14:00:46.999Z</time></trkpt><trkpt lat="45.590972010188885" lon="10.1665246152717"><ele>187.0</ele><time>2026-03-27T14:00:47.999Z</time></trkpt><trkpt lat="45.590946206916456" lon="10.166657846909496"><ele>189.0</ele><time>2026-03-27T14:00:48.999Z</time></trkpt><trkpt lat="45.590945246357556" lon="10.166798750246231"><ele>190.6</ele><time>2026-03-27T14:00:49.999Z</time></trkpt><trkpt lat="45.59097912501373" lon="10.166889689452928"><ele>192.2</ele><time>2026-03-27T14:00:50.999Z</time></trkpt><trkpt lat="45.59107795555817" lon="10.166924887503015"><ele>193.79999999999998</ele><time>2026-03-27T14:00:51.999Z</time></trkpt><trkpt lat="45.59115910355292" lon="10.166947170207619"><ele>195.39999999999998</ele><time>2026-03-27T14:00:52.999Z</time></trkpt><trkpt lat="45.591245970720415" lon="10.16700811679042"><ele>197.0</ele><time>2026-03-27T14:00:53.999Z</time></trkpt><trkpt lat="45.59136092265211" lon="10.167054238380171"><ele>199.50000000000003</ele><time>2026-03-27T14:00:54.999Z</time></trkpt><trkpt lat="45.59144861909758" lon="10.167111175119311"><ele>202.0</ele><time>2026-03-27T14:00:55.999Z</time></trkpt><trkpt lat="45.59152419481936" lon="10.167158607589867"><ele>204.5</ele><time>2026-03-27T14:00:56.999Z</time></trkpt><trkpt lat="45.59159042606701" lon="10.16722278067509"><ele>207.0</ele><time>2026-03-27T14:00:57.999Z</time></trkpt><trkpt lat="45.59161744973582" lon="10.167343652231708"><ele>209.50000000000003</ele><time>2026-03-27T14:00:58.999Z</time></trkpt><trkpt lat="45.59167325315271" lon="10.167413078603587"><ele>212.0</ele><time>2026-03-27T14:00:59.999Z</time></trkpt><trkpt lat="45.59170421026676" lon="10.167500291527174"><ele>212.50000000000003</ele><time>2026-03-27T14:01:00.999Z</time></trkpt><trkpt lat="45.59178215468799" lon="10.167594395633273"><ele>213.0</ele><time>2026-03-27T14:01:02.999Z</time></trkpt><trkpt lat="45.59186070938238" lon="10.167602589227576"><ele>213.5</ele><time>2026-03-27T14:01:04.999Z</time></trkpt><trkpt lat="45.59193300328103" lon="10.167573417746393"><ele>214.0</ele><time>2026-03-27T14:02:09.999Z</time></trkpt><trkpt lat="45.59204933280935" lon="10.167573307138484"><ele>214.50000000000003</ele><time>2026-03-27T14:02:11.999Z</time></trkpt><trkpt lat="45.592121328851896" lon="10.167552193649854"><ele>215.0</ele><time>2026-03-27T14:02:12.999Z</time></trkpt><trkpt lat="45.59222207152805" lon="10.16755997421306"><ele>219.5</ele><time>2026-03-27T14:02:13.999Z</time></trkpt><trkpt lat="45.59233067515543" lon="10.167564658178465"><ele>224.0</ele><time>2026-03-27T14:02:14.999Z</time></trkpt><trkpt lat="45.592443904343334" lon="10.167569460319156"><ele>228.5</ele><time>2026-03-27T14:02:15.999Z</time></trkpt><trkpt lat="45.59256475993539" lon="10.167573505138751"><ele>233.0</ele><time>2026-03-27T14:02:16.999Z</time></trkpt><trkpt lat="45.59267607419726" lon="10.16757164373022"><ele>233.0</ele><time>2026-03-27T14:02:17.999Z</time></trkpt><trkpt lat="45.592780698063734" lon="10.167572909837299"><ele>233.0</ele><time>2026-03-27T14:02:18.999Z</time></trkpt><trkpt lat="45.59289834275627" lon="10.167599649290842"><ele>233.0</ele><time>2026-03-27T14:02:19.999Z</time></trkpt><trkpt lat="45.59300330145259" lon="10.167632972713877"><ele>233.0</ele><time>2026-03-27T14:02:20.999Z</time></trkpt><trkpt lat="45.593115704544545" lon="10.167712412155003"><ele>237.0</ele><time>2026-03-27T14:02:21.999Z</time></trkpt><trkpt lat="45.59321962587573" lon="10.167779740146637"><ele>241.0</ele><time>2026-03-27T14:02:22.999Z</time></trkpt><trkpt lat="45.593319940487106" lon="10.167837210013092"><ele>245.0</ele><time>2026-03-27T14:02:23.999Z</time></trkpt><trkpt lat="45.5934056208643" lon="10.167899136421543"><ele>249.0</ele><time>2026-03-27T14:02:24.999Z</time></trkpt><trkpt lat="45.5934684993447" lon="10.167962643281804"><ele>253.0</ele><time>2026-03-27T14:02:25.999Z</time></trkpt><trkpt lat="45.5935530487158" lon="10.16800444157829"><ele>253.0</ele><time>2026-03-27T14:02:26.999Z</time></trkpt><trkpt lat="45.593641259914186" lon="10.168014736220014"><ele>253.0</ele><time>2026-03-27T14:02:27.999Z</time></trkpt><trkpt lat="45.593720705040255" lon="10.168015177969444"><ele>253.0</ele><time>2026-03-27T14:02:28.999Z</time></trkpt><trkpt lat="45.5938343071853" lon="10.168020831161922"><ele>253.0</ele><time>2026-03-27T14:02:29.999Z</time></trkpt><trkpt lat="45.5939189823964" lon="10.168077460309405"><ele>253.0</ele><time>2026-03-27T14:02:30.999Z</time></trkpt><trkpt lat="45.593998141192365" lon="10.168111323542309"><ele>256.66666666666663</ele><time>2026-03-27T14:02:31.999Z</time></trkpt><trkpt lat="45.594100636480825" lon="10.16814886777501"><ele>260.3333333333333</ele><time>2026-03-27T14:02:32.999Z</time></trkpt><trkpt lat="45.594186498240205" lon="10.168187137759173"><ele>264.0</ele><time>2026-03-27T14:02:33.999Z</time></trkpt><trkpt lat="45.59426068362276" lon="10.168207757951869"><ele>267.6666666666667</ele><time>2026-03-27T14:02:34.999Z</time></trkpt><trkpt lat="45.59431536136835" lon="10.168285697777103"><ele>271.33333333333337</ele><time>2026-03-27T14:02:35.999Z</time></trkpt><trkpt lat="45.59437626665357" lon="10.168365890459059"><ele>275.0</ele><time>2026-03-27T14:02:36.999Z</time></trkpt><trkpt lat="45.5944315078469" lon="10.168469056006478"><ele>277.2</ele><time>2026-03-27T14:02:37.999Z</time></trkpt><trkpt lat="45.594494531085" lon="10.1685775719657"><ele>279.4</ele><time>2026-03-27T14:02:38.999Z</time></trkpt><trkpt lat="45.59454988179504" lon="10.168689040421745"><ele>281.6</ele><time>2026-03-27T14:02:39.999Z</time></trkpt><trkpt lat="45.594611755519225" lon="10.16879756024534"><ele>283.8</ele><time>2026-03-27T14:02:40.999Z</time></trkpt><trkpt lat="45.59466322058194" lon="10.168913365123903"><ele>286.0</ele><time>2026-03-27T14:02:41.999Z</time></trkpt><trkpt lat="45.59472516286784" lon="10.169030743961201"><ele>287.8333333333333</ele><time>2026-03-27T14:02:42.999Z</time></trkpt><trkpt lat="45.59477806845784" lon="10.16913844295902"><ele>289.66666666666663</ele><time>2026-03-27T14:02:43.999Z</time></trkpt><trkpt lat="45.59483013851904" lon="10.169244835005536"><ele>291.5</ele><time>2026-03-27T14:02:44.999Z</time></trkpt><trkpt lat="45.59487063953787" lon="10.169319611428614"><ele>293.3333333333333</ele><time>2026-03-27T14:02:45.999Z</time></trkpt><trkpt lat="45.59490472717928" lon="10.169410925524303"><ele>295.1666666666667</ele><time>2026-03-27T14:02:46.999Z</time></trkpt><trkpt lat="45.59492181595743" lon="10.169520220771401"><ele>297.0</ele><time>2026-03-27T14:02:47.999Z</time></trkpt><trkpt lat="45.594879782756216" lon="10.169623569759576"><ele>297.0</ele><time>2026-03-27T14:02:48.999Z</time></trkpt><trkpt lat="45.59485141648373" lon="10.169752253663287"><ele>297.0</ele><time>2026-03-27T14:02:49.999Z</time></trkpt><trkpt lat="45.59480928610839" lon="10.169872562249274"><ele>297.0</ele><time>2026-03-27T14:02:50.999Z</time></trkpt><trkpt lat="45.594778425837056" lon="10.169963106871135"><ele>297.0</ele><time>2026-03-27T14:02:51.999Z</time></trkpt><trkpt lat="45.59473788529803" lon="10.170079163990353"><ele>297.0</ele><time>2026-03-27T14:02:53.999Z</time></trkpt><trkpt lat="45.59486944112101" lon="10.170310163712896"><ele>297.0</ele><time>2026-03-27T14:02:55.999Z</time></trkpt><trkpt lat="45.59489510972094" lon="10.170423017546309"><ele>297.0</ele><time>2026-03-27T14:02:56.999Z</time></trkpt><trkpt lat="45.59492170537164" lon="10.17052532172275"><ele>297.0</ele><time>2026-03-27T14:02:57.999Z</time></trkpt><trkpt lat="45.594963805371435" lon="10.170616369700703"><ele>297.0</ele><time>2026-03-27T14:02:58.999Z</time></trkpt><trkpt lat="45.59501377120676" lon="10.170674921068228"><ele>297.0</ele><time>2026-03-27T14:02:59.999Z</time></trkpt><trkpt lat="45.59509009209491" lon="10.170741148732674"><ele>297.0</ele><time>2026-03-27T14:03:00.999Z</time></trkpt><trkpt lat="45.595175496135916" lon="10.17078816883394"><ele>298.6</ele><time>2026-03-27T14:03:01.999Z</time></trkpt><trkpt lat="45.59523593198265" lon="10.17084490095464"><ele>300.2</ele><time>2026-03-27T14:03:02.999Z</time></trkpt><trkpt lat="45.595318960405514" lon="10.170985925925729"><ele>301.8</ele><time>2026-03-27T14:03:04.999Z</time></trkpt><trkpt lat="45.59535018259481" lon="10.171083531048339"><ele>303.4</ele><time>2026-03-27T14:03:05.999Z</time></trkpt><trkpt lat="45.595378920272694" lon="10.171193168414352"><ele>305.0</ele><time>2026-03-27T14:03:06.999Z</time></trkpt><trkpt lat="45.595416018929185" lon="10.171312646212252"><ele>304.0</ele><time>2026-03-27T14:03:07.999Z</time></trkpt><trkpt lat="45.59546040948109" lon="10.171434666047212"><ele>303.0</ele><time>2026-03-27T14:03:08.999Z</time></trkpt><trkpt lat="45.59552057671472" lon="10.17154187468555"><ele>302.0</ele><time>2026-03-27T14:03:09.999Z</time></trkpt><trkpt lat="45.59559824357351" lon="10.171642787756893"><ele>301.0</ele><time>2026-03-27T14:03:10.999Z</time></trkpt><trkpt lat="45.59569383804051" lon="10.171709411600768"><ele>300.0</ele><time>2026-03-27T14:03:11.999Z</time></trkpt><trkpt lat="45.59579074438573" lon="10.171776839054784"><ele>300.0</ele><time>2026-03-27T14:03:12.999Z</time></trkpt><trkpt lat="45.595883975054605" lon="10.171857172649561"><ele>300.0</ele><time>2026-03-27T14:03:13.999Z</time></trkpt><trkpt lat="45.59597556137217" lon="10.171928486205625"><ele>300.0</ele><time>2026-03-27T14:03:14.999Z</time></trkpt><trkpt lat="45.59606419168138" lon="10.171998223421024"><ele>300.0</ele><time>2026-03-27T14:03:15.999Z</time></trkpt><trkpt lat="45.59614725663575" lon="10.17206051283737"><ele>300.0</ele><time>2026-03-27T14:03:16.999Z</time></trkpt><trkpt lat="45.59622029992765" lon="10.1721302047957"><ele>299.2</ele><time>2026-03-27T14:03:17.999Z</time></trkpt><trkpt lat="45.596287431254275" lon="10.172231329719851"><ele>298.4</ele><time>2026-03-27T14:03:18.999Z</time></trkpt><trkpt lat="45.596354740343195" lon="10.172307836326423"><ele>297.6</ele><time>2026-03-27T14:03:19.999Z</time></trkpt><trkpt lat="45.59643798548776" lon="10.172385853285249"><ele>296.8</ele><time>2026-03-27T14:03:20.999Z</time></trkpt><trkpt lat="45.59649874648942" lon="10.172476049570877"><ele>296.0</ele><time>2026-03-27T14:03:21.999Z</time></trkpt><trkpt lat="45.596556322131946" lon="10.172572429867781"><ele>296.0</ele><time>2026-03-27T14:03:22.999Z</time></trkpt><trkpt lat="45.59663587848535" lon="10.172674471496975"><ele>296.0</ele><time>2026-03-27T14:03:23.999Z</time></trkpt><trkpt lat="45.59669936515865" lon="10.17277441582136"><ele>296.0</ele><time>2026-03-27T14:03:24.999Z</time></trkpt><trkpt lat="45.59672860907519" lon="10.172894696093993"><ele>296.0</ele><time>2026-03-27T14:03:25.999Z</time></trkpt><trkpt lat="45.59674328614687" lon="10.17300989537487"><ele>296.0</ele><time>2026-03-27T14:03:26.999Z</time></trkpt><trkpt lat="45.596751093961466" lon="10.173126741666831"><ele>298.25</ele><time>2026-03-27T14:03:27.999Z</time></trkpt><trkpt lat="45.59674897249033" lon="10.173255333924075"><ele>300.5</ele><time>2026-03-27T14:03:28.999Z</time></trkpt><trkpt lat="45.59674118929935" lon="10.173418136312707"><ele>302.75</ele><time>2026-03-27T14:03:29.999Z</time></trkpt><trkpt lat="45.5967271651774" lon="10.173612424837115"><ele>305.0</ele><time>2026-03-27T14:03:30.999Z</time></trkpt><trkpt lat="45.59672017251917" lon="10.173775927336631"><ele>305.0</ele><time>2026-03-27T14:03:31.999Z</time></trkpt><trkpt lat="45.596703108017785" lon="10.173946025673569"><ele>305.0</ele><time>2026-03-27T14:03:32.999Z</time></trkpt><trkpt lat="45.596686662371035" lon="10.174111107287327"><ele>305.0</ele><time>2026-03-27T14:03:33.999Z</time></trkpt><trkpt lat="45.5966638993485" lon="10.174260429747857"><ele>305.0</ele><time>2026-03-27T14:03:34.999Z</time></trkpt><trkpt lat="45.5966260916433" lon="10.17437831862412"><ele>305.0</ele><time>2026-03-27T14:03:35.999Z</time></trkpt><trkpt lat="45.596606814478626" lon="10.174534352981393"><ele>304.2</ele><time>2026-03-27T14:03:36.999Z</time></trkpt><trkpt lat="45.59656304808963" lon="10.17466283015616"><ele>303.4</ele><time>2026-03-27T14:03:37.999Z</time></trkpt><trkpt lat="45.596518190311734" lon="10.174769809003056"><ele>302.6</ele><time>2026-03-27T14:03:38.999Z</time></trkpt><trkpt lat="45.59649841079327" lon="10.17490209921179"><ele>301.8</ele><time>2026-03-27T14:03:39.999Z</time></trkpt><trkpt lat="45.59651676057025" lon="10.17505680402397"><ele>301.0</ele><time>2026-03-27T14:03:40.999Z</time></trkpt><trkpt lat="45.59650621508218" lon="10.175187199473221"><ele>300.6</ele><time>2026-03-27T14:03:41.999Z</time></trkpt><trkpt lat="45.59650763248204" lon="10.175320282432773"><ele>300.20000000000005</ele><time>2026-03-27T14:03:42.999Z</time></trkpt><trkpt lat="45.596497536498205" lon="10.175459492279467"><ele>299.79999999999995</ele><time>2026-03-27T14:03:43.999Z</time></trkpt><trkpt lat="45.596493397628265" lon="10.175584462071912"><ele>299.4</ele><time>2026-03-27T14:03:44.999Z</time></trkpt><trkpt lat="45.596501611552284" lon="10.17571143238073"><ele>299.0</ele><time>2026-03-27T14:03:45.999Z</time></trkpt><trkpt lat="45.596541310542406" lon="10.175828605815342"><ele>302.2</ele><time>2026-03-27T14:03:46.999Z</time></trkpt><trkpt lat="45.596606587651216" lon="10.175936627931138"><ele>305.4</ele><time>2026-03-27T14:03:47.999Z</time></trkpt><trkpt lat="45.59669004750623" lon="10.176011292081682"><ele>308.6</ele><time>2026-03-27T14:03:48.999Z</time></trkpt><trkpt lat="45.59678180676604" lon="10.176103311942157"><ele>311.8</ele><time>2026-03-27T14:03:49.999Z</time></trkpt><trkpt lat="45.59686187695195" lon="10.176220053758037"><ele>315.0</ele><time>2026-03-27T14:03:50.999Z</time></trkpt><trkpt lat="45.59692593458761" lon="10.176322456525469"><ele>315.6</ele><time>2026-03-27T14:03:51.999Z</time></trkpt><trkpt lat="45.59700828688301" lon="10.176410786328557"><ele>316.2</ele><time>2026-03-27T14:03:52.999Z</time></trkpt><trkpt lat="45.59710072253255" lon="10.176472079524334"><ele>316.8</ele><time>2026-03-27T14:03:53.999Z</time></trkpt><trkpt lat="45.59719742534114" lon="10.176527860858657"><ele>317.4</ele><time>2026-03-27T14:03:54.999Z</time></trkpt><trkpt lat="45.59730351946882" lon="10.176544696293831"><ele>318.0</ele><time>2026-03-27T14:03:55.999Z</time></trkpt><trkpt lat="45.59740516116788" lon="10.176548979331727"><ele>318.0</ele><time>2026-03-27T14:03:56.999Z</time></trkpt><trkpt lat="45.59748773776928" lon="10.176553253221032"><ele>318.0</ele><time>2026-03-27T14:03:57.999Z</time></trkpt><trkpt lat="45.597551998315865" lon="10.176591702397218"><ele>318.0</ele><time>2026-03-27T14:04:00.999Z</time></trkpt><trkpt lat="45.59767922925332" lon="10.176614532216465"><ele>318.0</ele><time>2026-03-27T14:04:02.999Z</time></trkpt><trkpt lat="45.597761369558576" lon="10.17667037241779"><ele>318.0</ele><time>2026-03-27T14:04:03.999Z</time></trkpt><trkpt lat="45.59781692507556" lon="10.176781056515525"><ele>318.0</ele><time>2026-03-27T14:04:04.999Z</time></trkpt><trkpt lat="45.59787913582588" lon="10.17687919692606"><ele>318.0</ele><time>2026-03-27T14:04:05.999Z</time></trkpt><trkpt lat="45.59793128391106" lon="10.17697869844602"><ele>318.0</ele><time>2026-03-27T14:04:06.999Z</time></trkpt><trkpt lat="45.597919131374326" lon="10.177110003958209"><ele>318.0</ele><time>2026-03-27T14:04:07.999Z</time></trkpt><trkpt lat="45.597939252683894" lon="10.177216235422126"><ele>318.0</ele><time>2026-03-27T14:04:09.999Z</time></trkpt><trkpt lat="45.597986123641235" lon="10.177344995366164"><ele>318.5</ele><time>2026-03-27T14:04:12.999Z</time></trkpt><trkpt lat="45.59800351814267" lon="10.1774780782899"><ele>319.0</ele><time>2026-03-27T14:04:13.999Z</time></trkpt><trkpt lat="45.5980366754169" lon="10.177621298753873"><ele>319.5</ele><time>2026-03-27T14:04:14.999Z</time></trkpt><trkpt lat="45.59808560731678" lon="10.177791658239647"><ele>320.0</ele><time>2026-03-27T14:04:15.999Z</time></trkpt><trkpt lat="45.59815252499457" lon="10.177986874179322"><ele>320.0</ele><time>2026-03-27T14:04:16.999Z</time></trkpt><trkpt lat="45.59823620688601" lon="10.178159671980165"><ele>320.0</ele><time>2026-03-27T14:04:17.999Z</time></trkpt><trkpt lat="45.59827874756244" lon="10.178352847417624"><ele>320.0</ele><time>2026-03-27T14:04:18.999Z</time></trkpt><trkpt lat="45.59831006400797" lon="10.17853674138557"><ele>320.0</ele><time>2026-03-27T14:04:19.999Z</time></trkpt><trkpt lat="45.59832908747906" lon="10.178742397511824"><ele>317.25</ele><time>2026-03-27T14:04:20.999Z</time></trkpt><trkpt lat="45.59833955085288" lon="10.17894362065869"><ele>314.5</ele><time>2026-03-27T14:04:21.999Z</time></trkpt><trkpt lat="45.59835722476216" lon="10.17914106537512"><ele>311.75</ele><time>2026-03-27T14:04:22.999Z</time></trkpt><trkpt lat="45.59838582208563" lon="10.179344453716933"><ele>309.0</ele><time>2026-03-27T14:04:23.999Z</time></trkpt><trkpt lat="45.598434001670775" lon="10.179564068476658"><ele>307.0</ele><time>2026-03-27T14:04:24.999Z</time></trkpt><trkpt lat="45.598501375757444" lon="10.179795953437095"><ele>305.0</ele><time>2026-03-27T14:04:25.999Z</time></trkpt><trkpt lat="45.59858405816868" lon="10.180009327414249"><ele>303.0</ele><time>2026-03-27T14:04:26.999Z</time></trkpt><trkpt lat="45.59867955662754" lon="10.180215705301562"><ele>303.0</ele><time>2026-03-27T14:04:27.999Z</time></trkpt><trkpt lat="45.59878672495929" lon="10.180404115785215"><ele>303.0</ele><time>2026-03-27T14:04:28.999Z</time></trkpt><trkpt lat="45.598891748158" lon="10.180580413587236"><ele>303.0</ele><time>2026-03-27T14:04:29.999Z</time></trkpt><trkpt lat="45.598988096501714" lon="10.180764100702806"><ele>296.5</ele><time>2026-03-27T14:04:30.999Z</time></trkpt><trkpt lat="45.599075980193724" lon="10.180933405120232"><ele>290.0</ele><time>2026-03-27T14:04:31.999Z</time></trkpt><trkpt lat="45.59916659696454" lon="10.181078834589256"><ele>283.5</ele><time>2026-03-27T14:04:32.999Z</time></trkpt><trkpt lat="45.59923718230556" lon="10.181231739446446"><ele>277.0</ele><time>2026-03-27T14:04:33.999Z</time></trkpt><trkpt lat="45.59929202013268" lon="10.181378644747214"><ele>274.25</ele><time>2026-03-27T14:04:34.999Z</time></trkpt><trkpt lat="45.59930810128266" lon="10.181531677245165"><ele>271.5</ele><time>2026-03-27T14:04:35.999Z</time></trkpt><trkpt lat="45.59932916650801" lon="10.181714087748867"><ele>268.75</ele><time>2026-03-27T14:04:36.999Z</time></trkpt><trkpt lat="45.599333872023834" lon="10.181944366468523"><ele>266.0</ele><time>2026-03-27T14:04:37.999Z</time></trkpt><trkpt lat="45.59935752272434" lon="10.18222847486764"><ele>265.33333333333337</ele><time>2026-03-27T14:04:38.999Z</time></trkpt><trkpt lat="45.59936260676658" lon="10.182475165662185"><ele>264.6666666666667</ele><time>2026-03-27T14:04:39.999Z</time></trkpt><trkpt lat="45.59940100389675" lon="10.182698356782684"><ele>264.0</ele><time>2026-03-27T14:04:40.999Z</time></trkpt><trkpt lat="45.59945252502917" lon="10.182932723911"><ele>267.0</ele><time>2026-03-27T14:04:41.999Z</time></trkpt><trkpt lat="45.5995187730221" lon="10.18317435954506"><ele>270.0</ele><time>2026-03-27T14:04:42.999Z</time></trkpt><trkpt lat="45.5995746311563" lon="10.183387554241119"><ele>273.0</ele><time>2026-03-27T14:04:43.999Z</time></trkpt><trkpt lat="45.59962657648251" lon="10.18358048620855"><ele>273.0</ele><time>2026-03-27T14:04:44.999Z</time></trkpt><trkpt lat="45.5996731212339" lon="10.183769467520799"><ele>273.0</ele><time>2026-03-27T14:04:45.999Z</time></trkpt><trkpt lat="45.599704956515666" lon="10.183944864080825"><ele>273.0</ele><time>2026-03-27T14:04:46.999Z</time></trkpt><trkpt lat="45.59972854044999" lon="10.184103622746086"><ele>273.0</ele><time>2026-03-27T14:04:47.999Z</time></trkpt><trkpt lat="45.59974157990618" lon="10.184280800364343"><ele>270.5</ele><time>2026-03-27T14:04:48.999Z</time></trkpt><trkpt lat="45.59974186608308" lon="10.18446659141405"><ele>268.0</ele><time>2026-03-27T14:04:49.999Z</time></trkpt><trkpt lat="45.5997598972792" lon="10.184662132046359"><ele>265.5</ele><time>2026-03-27T14:04:50.999Z</time></trkpt><trkpt lat="45.5997959233996" lon="10.184844812691683"><ele>263.0</ele><time>2026-03-27T14:04:51.999Z</time></trkpt><trkpt lat="45.59984607601351" lon="10.185020355565731"><ele>261.0</ele><time>2026-03-27T14:04:52.999Z</time></trkpt><trkpt lat="45.59990434440607" lon="10.185179348001036"><ele>259.0</ele><time>2026-03-27T14:04:53.999Z</time></trkpt><trkpt lat="45.599958388648496" lon="10.1853627813579"><ele>257.0</ele><time>2026-03-27T14:04:54.999Z</time></trkpt><trkpt lat="45.60003612813516" lon="10.18560947022547"><ele>254.66666666666669</ele><time>2026-03-27T14:04:55.999Z</time></trkpt><trkpt lat="45.6001187688452" lon="10.18587757377489"><ele>252.33333333333331</ele><time>2026-03-27T14:04:56.999Z</time></trkpt><trkpt lat="45.60020837732096" lon="10.186132570289846"><ele>250.0</ele><time>2026-03-27T14:04:57.999Z</time></trkpt><trkpt lat="45.60027475878605" lon="10.186367446990223"><ele>249.5</ele><time>2026-03-27T14:04:58.999Z</time></trkpt><trkpt lat="45.600338269463776" lon="10.186576187583407"><ele>249.0</ele><time>2026-03-27T14:04:59.999Z</time></trkpt><trkpt lat="45.60040024818158" lon="10.186755828624971"><ele>248.5</ele><time>2026-03-27T14:05:00.999Z</time></trkpt><trkpt lat="45.600476156851435" lon="10.186922161645489"><ele>248.0</ele><time>2026-03-27T14:05:01.999Z</time></trkpt><trkpt lat="45.60058351536438" lon="10.18707352568186"><ele>248.0</ele><time>2026-03-27T14:05:02.999Z</time></trkpt><trkpt lat="45.60070180291346" lon="10.187197049419733"><ele>248.0</ele><time>2026-03-27T14:05:03.999Z</time></trkpt><trkpt lat="45.60079753083854" lon="10.187276708325244"><ele>248.0</ele><time>2026-03-27T14:05:04.999Z</time></trkpt><trkpt lat="45.600863200140545" lon="10.187335727104015"><ele>248.0</ele><time>2026-03-27T14:05:05.999Z</time></trkpt><trkpt lat="45.60091830704101" lon="10.187390865264554"><ele>248.0</ele><time>2026-03-27T14:05:06.999Z</time></trkpt><trkpt lat="45.60082246361921" lon="10.187618695411539"><ele>248.00000000000003</ele><time>2026-03-27T14:05:10.999Z</time></trkpt><trkpt lat="45.60074860357355" lon="10.187601112098763"><ele>248.0</ele><time>2026-03-27T14:05:11.999Z</time></trkpt><trkpt lat="45.600671894454265" lon="10.187555008012861"><ele>248.0</ele><time>2026-03-27T14:05:12.999Z</time></trkpt><trkpt lat="45.60062033969723" lon="10.187495014390194"><ele>248.0</ele><time>2026-03-27T14:05:13.999Z</time></trkpt><trkpt lat="45.6005617327563" lon="10.187414457351833"><ele>248.00000000000003</ele><time>2026-03-27T14:05:14.999Z</time></trkpt><trkpt lat="45.60049234940402" lon="10.18734304595652"><ele>248.0</ele><time>2026-03-27T14:05:15.999Z</time></trkpt><trkpt lat="45.60044706158685" lon="10.187159510789193"><ele>248.0</ele><time>2026-03-27T14:05:16.999Z</time></trkpt><trkpt lat="45.60039585813387" lon="10.186986051070743"><ele>248.0</ele><time>2026-03-27T14:05:17.999Z</time></trkpt><trkpt lat="45.6003449707147" lon="10.186817506472867"><ele>248.0</ele><time>2026-03-27T14:05:18.999Z</time></trkpt><trkpt lat="45.60028887897932" lon="10.186648840179739"><ele>248.0</ele><time>2026-03-27T14:05:19.999Z</time></trkpt><trkpt lat="45.60023293950719" lon="10.186467192778254"><ele>248.5</ele><time>2026-03-27T14:05:20.999Z</time></trkpt><trkpt lat="45.60018256948291" lon="10.186291207653008"><ele>249.0</ele><time>2026-03-27T14:05:21.999Z</time></trkpt><trkpt lat="45.60013524471519" lon="10.186141498347073"><ele>249.5</ele><time>2026-03-27T14:05:22.999Z</time></trkpt><trkpt lat="45.60008871432751" lon="10.185998367003766"><ele>250.0</ele><time>2026-03-27T14:05:23.999Z</time></trkpt><trkpt lat="45.600039729400294" lon="10.18583529572919"><ele>250.0</ele><time>2026-03-27T14:05:24.999Z</time></trkpt><trkpt lat="45.599996848465395" lon="10.185696543389668"><ele>250.0</ele><time>2026-03-27T14:05:25.999Z</time></trkpt><trkpt lat="45.59995930310116" lon="10.185562017489872"><ele>250.0</ele><time>2026-03-27T14:05:26.999Z</time></trkpt><trkpt lat="45.599920261195116" lon="10.185428108948884"><ele>250.0</ele><time>2026-03-27T14:05:27.999Z</time></trkpt><trkpt lat="45.599880499718964" lon="10.185291043528569"><ele>250.0</ele><time>2026-03-27T14:05:28.999Z</time></trkpt><trkpt lat="45.59983066395049" lon="10.18513906532272"><ele>251.75</ele><time>2026-03-27T14:05:29.999Z</time></trkpt><trkpt lat="45.599781529712075" lon="10.184989162431757"><ele>253.5</ele><time>2026-03-27T14:05:30.999Z</time></trkpt><trkpt lat="45.5997307914063" lon="10.184828023922956"><ele>255.25</ele><time>2026-03-27T14:05:31.999Z</time></trkpt><trkpt lat="45.599681254802654" lon="10.184676290354082"><ele>257.0</ele><time>2026-03-27T14:05:32.999Z</time></trkpt><trkpt lat="45.59963256960648" lon="10.184526520784837"><ele>256.75</ele><time>2026-03-27T14:05:33.999Z</time></trkpt><trkpt lat="45.59958998623972" lon="10.184388529150203"><ele>256.5</ele><time>2026-03-27T14:05:34.999Z</time></trkpt><trkpt lat="45.59952510123944" lon="10.184138072296992"><ele>256.25</ele><time>2026-03-27T14:05:35.999Z</time></trkpt><trkpt lat="45.5994785565945" lon="10.183984932243686"><ele>256.0</ele><time>2026-03-27T14:05:36.999Z</time></trkpt><trkpt lat="45.59943381365093" lon="10.18384077558443"><ele>256.0</ele><time>2026-03-27T14:05:37.999Z</time></trkpt><trkpt lat="45.59938830190221" lon="10.183692182827336"><ele>256.0</ele><time>2026-03-27T14:05:38.999Z</time></trkpt><trkpt lat="45.599341254991614" lon="10.18353579598352"><ele>256.0</ele><time>2026-03-27T14:05:39.999Z</time></trkpt><trkpt lat="45.599292029222525" lon="10.183378590147695"><ele>256.0</ele><time>2026-03-27T14:05:40.999Z</time></trkpt><trkpt lat="45.59924069308793" lon="10.183218149168964"><ele>258.0</ele><time>2026-03-27T14:05:41.999Z</time></trkpt><trkpt lat="45.599189421331715" lon="10.183056754360663"><ele>260.0</ele><time>2026-03-27T14:05:42.999Z</time></trkpt><trkpt lat="45.59914183820604" lon="10.182893518862693"><ele>262.0</ele><time>2026-03-27T14:05:43.999Z</time></trkpt><trkpt lat="45.59909631420985" lon="10.182734371951431"><ele>264.0</ele><time>2026-03-27T14:05:44.999Z</time></trkpt><trkpt lat="45.59904530987812" lon="10.182579178942207"><ele>264.0</ele><time>2026-03-27T14:05:45.999Z</time></trkpt><trkpt lat="45.59899541732006" lon="10.182419653264468"><ele>264.0</ele><time>2026-03-27T14:05:46.999Z</time></trkpt><trkpt lat="45.598948111313554" lon="10.182259137753006"><ele>264.0</ele><time>2026-03-27T14:05:47.999Z</time></trkpt><trkpt lat="45.59890200323007" lon="10.182101497226164"><ele>264.0</ele><time>2026-03-27T14:05:48.999Z</time></trkpt><trkpt lat="45.59885083822666" lon="10.181948455475617"><ele>264.5</ele><time>2026-03-27T14:05:49.999Z</time></trkpt><trkpt lat="45.5988026230807" lon="10.1817854072583"><ele>265.0</ele><time>2026-03-27T14:05:50.999Z</time></trkpt><trkpt lat="45.59875490433808" lon="10.181631424587152"><ele>265.5</ele><time>2026-03-27T14:05:51.999Z</time></trkpt><trkpt lat="45.59870645266842" lon="10.181476044536065"><ele>266.0</ele><time>2026-03-27T14:05:52.999Z</time></trkpt><trkpt lat="45.598663479661525" lon="10.181340318808292"><ele>265.0</ele><time>2026-03-27T14:05:53.999Z</time></trkpt><trkpt lat="45.59862833681038" lon="10.18120786342328"><ele>264.0</ele><time>2026-03-27T14:05:54.999Z</time></trkpt><trkpt lat="45.598593631357446" lon="10.181080106137337"><ele>263.0</ele><time>2026-03-27T14:05:55.999Z</time></trkpt><trkpt lat="45.59855728604547" lon="10.180955621823932"><ele>262.0</ele><time>2026-03-27T14:05:56.999Z</time></trkpt><trkpt lat="45.59852001850625" lon="10.180830591841037"><ele>261.0</ele><time>2026-03-27T14:05:57.999Z</time></trkpt><trkpt lat="45.59847838469987" lon="10.180708707878246"><ele>264.2</ele><time>2026-03-27T14:05:58.999Z</time></trkpt><trkpt lat="45.59844871554864" lon="10.180583317128049"><ele>267.40000000000003</ele><time>2026-03-27T14:05:59.999Z</time></trkpt><trkpt lat="45.59841673843482" lon="10.18045364431051"><ele>270.6</ele><time>2026-03-27T14:06:00.999Z</time></trkpt><trkpt lat="45.59838540921854" lon="10.180316682757107"><ele>273.8</ele><time>2026-03-27T14:06:01.999Z</time></trkpt><trkpt lat="45.59835149626808" lon="10.180178465769329"><ele>277.0</ele><time>2026-03-27T14:06:02.999Z</time></trkpt><trkpt lat="45.59831452157798" lon="10.180035756063432"><ele>277.0</ele><time>2026-03-27T14:06:03.999Z</time></trkpt><trkpt lat="45.598280622318825" lon="10.179888981682632"><ele>277.0</ele><time>2026-03-27T14:06:04.999Z</time></trkpt><trkpt lat="45.59825325219141" lon="10.17973955857608"><ele>277.0</ele><time>2026-03-27T14:06:05.999Z</time></trkpt><trkpt lat="45.59822320892459" lon="10.179588570464013"><ele>277.0</ele><time>2026-03-27T14:06:06.999Z</time></trkpt><trkpt lat="45.59819202317426" lon="10.179432294052239"><ele>277.0</ele><time>2026-03-27T14:06:07.999Z</time></trkpt><trkpt lat="45.59816241515048" lon="10.179270698800831"><ele>281.25</ele><time>2026-03-27T14:06:08.999Z</time></trkpt><trkpt lat="45.598126250501736" lon="10.17910008229403"><ele>285.5</ele><time>2026-03-27T14:06:09.999Z</time></trkpt><trkpt lat="45.59809387430417" lon="10.178932216807587"><ele>289.75</ele><time>2026-03-27T14:06:10.999Z</time></trkpt><trkpt lat="45.59806259537173" lon="10.178766565096577"><ele>294.0</ele><time>2026-03-27T14:06:11.999Z</time></trkpt><trkpt lat="45.59803461453496" lon="10.178610800946315"><ele>297.75</ele><time>2026-03-27T14:06:12.999Z</time></trkpt><trkpt lat="45.59802524111751" lon="10.17842968229954"><ele>301.5</ele><time>2026-03-27T14:06:13.999Z</time></trkpt><trkpt lat="45.59803529132432" lon="10.178263477245949"><ele>305.25</ele><time>2026-03-27T14:06:15.072Z</time></trkpt><trkpt lat="45.59801364076694" lon="10.178105244977615"><ele>309.0</ele><time>2026-03-27T14:06:16.07Z</time></trkpt><trkpt lat="45.597982914967375" lon="10.17793982500023"><ele>310.8</ele><time>2026-03-27T14:06:17.065Z</time></trkpt><trkpt lat="45.597962296442034" lon="10.177780639989615"><ele>312.59999999999997</ele><time>2026-03-27T14:06:18.061Z</time></trkpt><trkpt lat="45.59794701260592" lon="10.177640796809724"><ele>314.4</ele><time>2026-03-27T14:06:19.053Z</time></trkpt><trkpt lat="45.59794983759731" lon="10.177479091917743"><ele>316.2</ele><time>2026-03-27T14:06:20.046Z</time></trkpt><trkpt lat="45.597941680161604" lon="10.177322675179044"><ele>318.0</ele><time>2026-03-27T14:06:21.032Z</time></trkpt><trkpt lat="45.59794465747437" lon="10.177150603977164"><ele>318.0</ele><time>2026-03-27T14:06:22.029Z</time></trkpt><trkpt lat="45.597932849200205" lon="10.176988233901854"><ele>318.0</ele><time>2026-03-27T14:06:23.028Z</time></trkpt><trkpt lat="45.59792179554701" lon="10.176827650208049"><ele>318.0</ele><time>2026-03-27T14:06:24.028Z</time></trkpt><trkpt lat="45.597937142928764" lon="10.176612529375875"><ele>318.0</ele><time>2026-03-27T14:06:25.029Z</time></trkpt><trkpt lat="45.597963248581856" lon="10.176296009705407"><ele>297.0</ele><time>2026-03-27T14:06:26.03Z</time></trkpt><trkpt lat="45.598113577819916" lon="10.174347511038727"><ele>297.0</ele><time>2026-03-27T14:06:37.999Z</time></trkpt><trkpt lat="45.598149008329266" lon="10.174186735870505"><ele>297.0</ele><time>2026-03-27T14:06:38.999Z</time></trkpt><trkpt lat="45.598029265975406" lon="10.173798435707804"><ele>297.0</ele><time>2026-03-27T14:06:39.999Z</time></trkpt><trkpt lat="45.598051273690295" lon="10.173603415535611"><ele>294.0</ele><time>2026-03-27T14:06:40.999Z</time></trkpt><trkpt lat="45.59807316701146" lon="10.17341551807414"><ele>291.0</ele><time>2026-03-27T14:06:41.999Z</time></trkpt><trkpt lat="45.59809669118436" lon="10.173240717804902"><ele>288.0</ele><time>2026-03-27T14:06:42.999Z</time></trkpt><trkpt lat="45.59806023704648" lon="10.172982800922927"><ele>285.0</ele><time>2026-03-27T14:06:43.999Z</time></trkpt><trkpt lat="45.59809830190311" lon="10.172815622271399"><ele>281.25</ele><time>2026-03-27T14:06:44.999Z</time></trkpt><trkpt lat="45.59812476420479" lon="10.172636191247713"><ele>277.5</ele><time>2026-03-27T14:06:45.999Z</time></trkpt><trkpt lat="45.598144323189715" lon="10.17244849553468"><ele>273.75</ele><time>2026-03-27T14:06:46.999Z</time></trkpt><trkpt lat="45.598162432026314" lon="10.172266549664696"><ele>270.0</ele><time>2026-03-27T14:06:47.999Z</time></trkpt><trkpt lat="45.598178275620754" lon="10.17208550748014"><ele>270.0</ele><time>2026-03-27T14:06:48.999Z</time></trkpt><trkpt lat="45.5981932029493" lon="10.171899532938351"><ele>270.0</ele><time>2026-03-27T14:06:49.999Z</time></trkpt><trkpt lat="45.59820217343598" lon="10.171720266644131"><ele>270.0</ele><time>2026-03-27T14:06:50.999Z</time></trkpt><trkpt lat="45.59820810959551" lon="10.17154491633987"><ele>270.0</ele><time>2026-03-27T14:06:51.999Z</time></trkpt><trkpt lat="45.598214217108115" lon="10.171400525200093"><ele>270.0</ele><time>2026-03-27T14:06:52.999Z</time></trkpt><trkpt lat="45.59822026577763" lon="10.1712770298153"><ele>270.0</ele><time>2026-03-27T14:06:53.999Z</time></trkpt><trkpt lat="45.59822817612739" lon="10.171140268629086"><ele>270.0</ele><time>2026-03-27T14:06:55.999Z</time></trkpt><trkpt lat="45.59827056998018" lon="10.171264928464419"><ele>270.0</ele><time>2026-03-27T14:07:01.998Z</time></trkpt><trkpt lat="45.59827768830042" lon="10.171411702840647"><ele>270.0</ele><time>2026-03-27T14:07:02.998Z</time></trkpt><trkpt lat="45.598278810439744" lon="10.171551281558145"><ele>270.0</ele><time>2026-03-27T14:07:03.997Z</time></trkpt><trkpt lat="45.5982946187934" lon="10.171704751971095"><ele>270.0</ele><time>2026-03-27T14:07:04.997Z</time></trkpt><trkpt lat="45.598304458346036" lon="10.171879919137707"><ele>270.0</ele><time>2026-03-27T14:07:05.997Z</time></trkpt><trkpt lat="45.598323551978034" lon="10.172051663035935"><ele>270.0</ele><time>2026-03-27T14:07:06.996Z</time></trkpt><trkpt lat="45.598325509462114" lon="10.172226351512402"><ele>269.75</ele><time>2026-03-27T14:07:07.996Z</time></trkpt><trkpt lat="45.59832272295893" lon="10.172422844746835"><ele>269.5</ele><time>2026-03-27T14:07:08.996Z</time></trkpt><trkpt lat="45.59831139403962" lon="10.172610218428728"><ele>269.25</ele><time>2026-03-27T14:07:09.996Z</time></trkpt><trkpt lat="45.598300900812696" lon="10.17279460649198"><ele>269.0</ele><time>2026-03-27T14:07:10.996Z</time></trkpt><trkpt lat="45.598286330085664" lon="10.172958877727782"><ele>269.0</ele><time>2026-03-27T14:07:11.996Z</time></trkpt><trkpt lat="45.5982782897181" lon="10.17310018220577"><ele>269.0</ele><time>2026-03-27T14:07:12.995Z</time></trkpt><trkpt lat="45.5982640962229" lon="10.173210209387026"><ele>269.0</ele><time>2026-03-27T14:07:13.995Z</time></trkpt><trkpt lat="45.598285818178574" lon="10.173308659153982"><ele>269.0</ele><time>2026-03-27T14:07:15.995Z</time></trkpt><trkpt lat="45.59837831768643" lon="10.17316092820796"><ele>269.0</ele><time>2026-03-27T14:07:18.995Z</time></trkpt><trkpt lat="45.59838496143167" lon="10.173035231135042"><ele>269.0</ele><time>2026-03-27T14:07:19.994Z</time></trkpt><trkpt lat="45.59840359834017" lon="10.172916510613819"><ele>269.0</ele><time>2026-03-27T14:07:20.994Z</time></trkpt><trkpt lat="45.598436148401355" lon="10.172786881776977"><ele>269.0</ele><time>2026-03-27T14:07:21.994Z</time></trkpt><trkpt lat="45.59848803426979" lon="10.172651624173906"><ele>269.0</ele><time>2026-03-27T14:07:22.994Z</time></trkpt><trkpt lat="45.59855856222899" lon="10.172504594916683"><ele>269.0</ele><time>2026-03-27T14:07:23.994Z</time></trkpt><trkpt lat="45.598630413476194" lon="10.172352427732516"><ele>283.0</ele><time>2026-03-27T14:07:24.994Z</time></trkpt><trkpt lat="45.598698786844" lon="10.172188448352529"><ele>297.0</ele><time>2026-03-27T14:07:25.994Z</time></trkpt><trkpt lat="45.59874749217115" lon="10.172005626046673"><ele>311.0</ele><time>2026-03-27T14:07:26.994Z</time></trkpt><trkpt lat="45.59877280313533" lon="10.171785084204329"><ele>325.0</ele><time>2026-03-27T14:07:27.994Z</time></trkpt><trkpt lat="45.59879167930067" lon="10.17152841874417"><ele>323.3333333333333</ele><time>2026-03-27T14:07:28.994Z</time></trkpt><trkpt lat="45.598823252628385" lon="10.171262095960426"><ele>321.6666666666667</ele><time>2026-03-27T14:07:29.994Z</time></trkpt><trkpt lat="45.59886860227137" lon="10.171003926057343"><ele>320.0</ele><time>2026-03-27T14:07:30.994Z</time></trkpt><trkpt lat="45.59890558558102" lon="10.170749476097642"><ele>319.6666666666667</ele><time>2026-03-27T14:07:31.994Z</time></trkpt><trkpt lat="45.59894844977205" lon="10.170484800098565"><ele>319.3333333333333</ele><time>2026-03-27T14:07:32.994Z</time></trkpt><trkpt lat="45.59899395918478" lon="10.170212640563271"><ele>319.0</ele><time>2026-03-27T14:07:33.994Z</time></trkpt><trkpt lat="45.59903666001048" lon="10.169966841419903"><ele>317.0</ele><time>2026-03-27T14:07:34.993Z</time></trkpt><trkpt lat="45.599080087495544" lon="10.169734357256536"><ele>315.0</ele><time>2026-03-27T14:07:35.993Z</time></trkpt><trkpt lat="45.599123194106355" lon="10.169489109274842"><ele>313.0</ele><time>2026-03-27T14:07:36.993Z</time></trkpt><trkpt lat="45.59917495002881" lon="10.169256524632544"><ele>308.3333333333333</ele><time>2026-03-27T14:07:37.993Z</time></trkpt><trkpt lat="45.599257287255654" lon="10.169018400275649"><ele>303.6666666666667</ele><time>2026-03-27T14:07:38.993Z</time></trkpt><trkpt lat="45.59934262361816" lon="10.16876136020385"><ele>299.0</ele><time>2026-03-27T14:07:39.993Z</time></trkpt><trkpt lat="45.5994174764618" lon="10.168480057848944"><ele>312.0</ele><time>2026-03-27T14:07:40.993Z</time></trkpt><trkpt lat="45.59951357180018" lon="10.168194041501451"><ele>325.0</ele><time>2026-03-27T14:07:41.993Z</time></trkpt><trkpt lat="45.599609486216224" lon="10.167965511693962"><ele>338.0</ele><time>2026-03-27T14:07:42.993Z</time></trkpt><trkpt lat="45.59966309761236" lon="10.16774966699957"><ele>338.0</ele><time>2026-03-27T14:07:43.993Z</time></trkpt><trkpt lat="45.59968398469417" lon="10.167576042419045"><ele>338.0</ele><time>2026-03-27T14:07:44.993Z</time></trkpt><trkpt lat="45.599731870171944" lon="10.16746308919279"><ele>338.0</ele><time>2026-03-27T14:07:45.993Z</time></trkpt><trkpt lat="45.599759339532994" lon="10.167369018507046"><ele>338.0</ele><time>2026-03-27T14:07:46.993Z</time></trkpt><trkpt lat="45.59979450335641" lon="10.167276632756819"><ele>338.0</ele><time>2026-03-27T14:07:48.993Z</time></trkpt><trkpt lat="45.59983497876353" lon="10.167391921085224"><ele>338.0</ele><time>2026-03-27T14:07:52.993Z</time></trkpt><trkpt lat="45.59978346822852" lon="10.167491992717546"><ele>338.0</ele><time>2026-03-27T14:07:53.993Z</time></trkpt><trkpt lat="45.59977455733062" lon="10.167618357806214"><ele>338.0</ele><time>2026-03-27T14:07:54.993Z</time></trkpt><trkpt lat="45.59976434894084" lon="10.16773007976348"><ele>338.0</ele><time>2026-03-27T14:07:55.993Z</time></trkpt><trkpt lat="45.599748258922546" lon="10.167849041420638"><ele>338.0</ele><time>2026-03-27T14:07:56.993Z</time></trkpt><trkpt lat="45.5997471291986" lon="10.167969599186973"><ele>338.0</ele><time>2026-03-27T14:07:57.993Z</time></trkpt><trkpt lat="45.59974147274679" lon="10.168080610817853"><ele>338.0</ele><time>2026-03-27T14:07:58.993Z</time></trkpt><trkpt lat="45.599736928378825" lon="10.168190980432655"><ele>338.0</ele><time>2026-03-27T14:07:59.993Z</time></trkpt><trkpt lat="45.59972724054858" lon="10.168288799768494"><ele>338.0</ele><time>2026-03-27T14:08:00.993Z</time></trkpt><trkpt lat="45.59972197476849" lon="10.168397075727265"><ele>338.0</ele><time>2026-03-27T14:08:01.993Z</time></trkpt><trkpt lat="45.599720558613924" lon="10.168513891881"><ele>338.0</ele><time>2026-03-27T14:08:02.993Z</time></trkpt><trkpt lat="45.59971690888984" lon="10.168629678389019"><ele>338.0</ele><time>2026-03-27T14:08:03.993Z</time></trkpt><trkpt lat="45.599716991876136" lon="10.168770773530202"><ele>341.59999999999997</ele><time>2026-03-27T14:08:04.993Z</time></trkpt><trkpt lat="45.59972078971192" lon="10.168907842840323"><ele>345.2</ele><time>2026-03-27T14:08:05.993Z</time></trkpt><trkpt lat="45.59972253208712" lon="10.169058732805702"><ele>348.8</ele><time>2026-03-27T14:08:06.993Z</time></trkpt><trkpt lat="45.59971806145716" lon="10.169221892933265"><ele>352.4</ele><time>2026-03-27T14:08:07.993Z</time></trkpt><trkpt lat="45.59971430670141" lon="10.169400601196868"><ele>356.0</ele><time>2026-03-27T14:08:08.993Z</time></trkpt><trkpt lat="45.59971028912223" lon="10.169597117450603"><ele>358.6666666666667</ele><time>2026-03-27T14:08:09.993Z</time></trkpt><trkpt lat="45.59971300589678" lon="10.169816211375107"><ele>361.3333333333333</ele><time>2026-03-27T14:08:10.993Z</time></trkpt><trkpt lat="45.5997260243999" lon="10.170077674878769"><ele>364.0</ele><time>2026-03-27T14:08:11.993Z</time></trkpt><trkpt lat="45.59973030364069" lon="10.17036091081884"><ele>366.66666666666663</ele><time>2026-03-27T14:08:12.993Z</time></trkpt><trkpt lat="45.59975271788308" lon="10.170652616637856"><ele>369.3333333333333</ele><time>2026-03-27T14:08:13.993Z</time></trkpt><trkpt lat="45.59977026957651" lon="10.170924681087342"><ele>372.0</ele><time>2026-03-27T14:08:14.993Z</time></trkpt><trkpt lat="45.599790009720714" lon="10.171169223665155"><ele>374.3333333333333</ele><time>2026-03-27T14:08:15.993Z</time></trkpt><trkpt lat="45.59981388031296" lon="10.171387772722438"><ele>376.66666666666663</ele><time>2026-03-27T14:08:16.993Z</time></trkpt><trkpt lat="45.59984792253646" lon="10.171579702678333"><ele>379.0</ele><time>2026-03-27T14:08:17.993Z</time></trkpt><trkpt lat="45.599899549474024" lon="10.17179519355577"><ele>379.0</ele><time>2026-03-27T14:08:18.993Z</time></trkpt><trkpt lat="45.599957894778086" lon="10.17202903683395"><ele>379.0</ele><time>2026-03-27T14:08:19.993Z</time></trkpt><trkpt lat="45.59999760925488" lon="10.17223932455598"><ele>379.0</ele><time>2026-03-27T14:08:20.993Z</time></trkpt><trkpt lat="45.59998635585657" lon="10.17244164892525"><ele>379.3333333333333</ele><time>2026-03-27T14:08:21.993Z</time></trkpt><trkpt lat="45.59998008328443" lon="10.172650530530442"><ele>379.6666666666667</ele><time>2026-03-27T14:08:22.993Z</time></trkpt><trkpt lat="45.59997542211889" lon="10.172901268542097"><ele>380.0</ele><time>2026-03-27T14:08:23.993Z</time></trkpt><trkpt lat="45.599952191041574" lon="10.173185685671328"><ele>384.0</ele><time>2026-03-27T14:08:24.993Z</time></trkpt><trkpt lat="45.59992235082026" lon="10.173467908853146"><ele>388.0</ele><time>2026-03-27T14:08:25.993Z</time></trkpt><trkpt lat="45.59989581763409" lon="10.17373256479204"><ele>392.0</ele><time>2026-03-27T14:08:26.993Z</time></trkpt><trkpt lat="45.599871163928704" lon="10.173986100269726"><ele>395.66666666666663</ele><time>2026-03-27T14:08:27.993Z</time></trkpt><trkpt lat="45.59985329820719" lon="10.174222122607292"><ele>399.33333333333337</ele><time>2026-03-27T14:08:28.993Z</time></trkpt><trkpt lat="45.599846516053454" lon="10.174427551777768"><ele>403.0</ele><time>2026-03-27T14:08:29.993Z</time></trkpt><trkpt lat="45.599856360538396" lon="10.174635582712565"><ele>403.0</ele><time>2026-03-27T14:08:30.993Z</time></trkpt><trkpt lat="45.59988352517973" lon="10.174820827816044"><ele>403.0</ele><time>2026-03-27T14:08:31.993Z</time></trkpt><trkpt lat="45.59992426571591" lon="10.174991971195885"><ele>403.0</ele><time>2026-03-27T14:08:32.993Z</time></trkpt><trkpt lat="45.6000044475935" lon="10.175160839462741"><ele>403.0</ele><time>2026-03-27T14:08:33.993Z</time></trkpt><trkpt lat="45.60010924496714" lon="10.175321127000805"><ele>402.75</ele><time>2026-03-27T14:08:34.993Z</time></trkpt><trkpt lat="45.60022101319984" lon="10.175462543548337"><ele>402.5</ele><time>2026-03-27T14:08:35.993Z</time></trkpt><trkpt lat="45.60031372764005" lon="10.175583763473059"><ele>402.25</ele><time>2026-03-27T14:08:36.993Z</time></trkpt><trkpt lat="45.600390339279585" lon="10.1756839139242"><ele>402.0</ele><time>2026-03-27T14:08:37.993Z</time></trkpt><trkpt lat="45.60044907612043" lon="10.175769051379495"><ele>406.8</ele><time>2026-03-27T14:08:38.993Z</time></trkpt><trkpt lat="45.600524334925645" lon="10.175862097726158"><ele>411.6</ele><time>2026-03-27T14:08:40.993Z</time></trkpt><trkpt lat="45.6005904369027" lon="10.175777240927856"><ele>416.40000000000003</ele><time>2026-03-27T14:08:42.993Z</time></trkpt><trkpt lat="45.60054952306798" lon="10.17566695803654"><ele>421.20000000000005</ele><time>2026-03-27T14:08:43.993Z</time></trkpt><trkpt lat="45.60045722977817" lon="10.175533829366815"><ele>426.0</ele><time>2026-03-27T14:08:44.993Z</time></trkpt><trkpt lat="45.600384143746176" lon="10.175395518485738"><ele>420.25</ele><time>2026-03-27T14:08:45.993Z</time></trkpt><trkpt lat="45.60031716475953" lon="10.175220398725562"><ele>414.5</ele><time>2026-03-27T14:08:46.993Z</time></trkpt><trkpt lat="45.6002577125616" lon="10.17504045762262"><ele>408.75</ele><time>2026-03-27T14:08:47.993Z</time></trkpt><trkpt lat="45.60022940258625" lon="10.174875870724554"><ele>403.0</ele><time>2026-03-27T14:08:48.993Z</time></trkpt><trkpt lat="45.6002239616303" lon="10.174701618215442"><ele>403.0</ele><time>2026-03-27T14:08:49.993Z</time></trkpt><trkpt lat="45.60022533682399" lon="10.174508457392816"><ele>403.0</ele><time>2026-03-27T14:08:50.993Z</time></trkpt><trkpt lat="45.60027546378426" lon="10.174288883322223"><ele>403.0</ele><time>2026-03-27T14:08:51.993Z</time></trkpt><trkpt lat="45.600342122991115" lon="10.174074750778535"><ele>417.33333333333337</ele><time>2026-03-27T14:08:52.994Z</time></trkpt><trkpt lat="45.60042272348631" lon="10.173844735654088"><ele>431.66666666666663</ele><time>2026-03-27T14:08:53.994Z</time></trkpt><trkpt lat="45.60050649824226" lon="10.173605560699382"><ele>446.0</ele><time>2026-03-27T14:08:54.995Z</time></trkpt><trkpt lat="45.60059668003115" lon="10.173380468040735"><ele>444.0</ele><time>2026-03-27T14:08:55.995Z</time></trkpt><trkpt lat="45.600666404464654" lon="10.173144036873536"><ele>442.0</ele><time>2026-03-27T14:08:56.995Z</time></trkpt><trkpt lat="45.60075467830078" lon="10.172917151829994"><ele>440.0</ele><time>2026-03-27T14:08:57.996Z</time></trkpt><trkpt lat="45.60081703204202" lon="10.172688457046082"><ele>440.0</ele><time>2026-03-27T14:08:58.996Z</time></trkpt><trkpt lat="45.60086464553967" lon="10.17244931124373"><ele>440.0</ele><time>2026-03-27T14:08:59.996Z</time></trkpt><trkpt lat="45.60089806667209" lon="10.172203697360475"><ele>440.0</ele><time>2026-03-27T14:09:00.996Z</time></trkpt><trkpt lat="45.600912109454356" lon="10.171972966098977"><ele>440.5</ele><time>2026-03-27T14:09:01.997Z</time></trkpt><trkpt lat="45.60091230306719" lon="10.171761857727132"><ele>441.0</ele><time>2026-03-27T14:09:02.997Z</time></trkpt><trkpt lat="45.60092485253043" lon="10.171594330855266"><ele>441.5</ele><time>2026-03-27T14:09:03.997Z</time></trkpt><trkpt lat="45.600902461106166" lon="10.171472157715526"><ele>442.0</ele><time>2026-03-27T14:09:04.997Z</time></trkpt><trkpt lat="45.60092550815437" lon="10.171328003207005"><ele>440.25</ele><time>2026-03-27T14:09:06.998Z</time></trkpt><trkpt lat="45.60095795239861" lon="10.171180757450733"><ele>438.5</ele><time>2026-03-27T14:09:08.998Z</time></trkpt><trkpt lat="45.60101711021023" lon="10.170988913136338"><ele>436.75</ele><time>2026-03-27T14:09:10.998Z</time></trkpt><trkpt lat="45.60105819630519" lon="10.170893742875403"><ele>435.0</ele><time>2026-03-27T14:09:11.998Z</time></trkpt><trkpt lat="45.60116328191572" lon="10.17076996027346"><ele>432.8</ele><time>2026-03-27T14:09:13.999Z</time></trkpt><trkpt lat="45.60122110057293" lon="10.170725160301313"><ele>430.6</ele><time>2026-03-27T14:09:14.999Z</time></trkpt><trkpt lat="45.60130867292716" lon="10.17067187656954"><ele>428.4</ele><time>2026-03-27T14:09:15.999Z</time></trkpt><trkpt lat="45.601413300467506" lon="10.170686928230277"><ele>426.2</ele><time>2026-03-27T14:09:17.999Z</time></trkpt><trkpt lat="45.60151916036386" lon="10.170732114442643"><ele>424.0</ele><time>2026-03-27T14:09:19.999Z</time></trkpt><trkpt lat="45.60158905068818" lon="10.170783978154033"><ele>432.0</ele><time>2026-03-27T14:09:20.999Z</time></trkpt><trkpt lat="45.60167622382152" lon="10.17087183831354"><ele>440.0</ele><time>2026-03-27T14:09:22.999Z</time></trkpt><trkpt lat="45.60176929547775" lon="10.170988907666379"><ele>448.0</ele><time>2026-03-27T14:09:24.999Z</time></trkpt><trkpt lat="45.60185716621502" lon="10.171099874083568"><ele>456.0</ele><time>2026-03-27T14:09:26.999Z</time></trkpt><trkpt lat="45.601915211187645" lon="10.17117246473914"><ele>464.0</ele><time>2026-03-27T14:09:27.999Z</time></trkpt><trkpt lat="45.60195479538784" lon="10.171265041773616"><ele>466.6</ele><time>2026-03-27T14:09:28.999Z</time></trkpt><trkpt lat="45.602002569852814" lon="10.171334638481826"><ele>469.2</ele><time>2026-03-27T14:09:29.999Z</time></trkpt><trkpt lat="45.602070851824244" lon="10.17141390124371"><ele>471.80000000000007</ele><time>2026-03-27T14:09:31Z</time></trkpt><trkpt lat="45.60215385764646" lon="10.171529564829205"><ele>474.40000000000003</ele><time>2026-03-27T14:09:33Z</time></trkpt><trkpt lat="45.60219661792256" lon="10.171604469365818"><ele>477.0</ele><time>2026-03-27T14:09:34Z</time></trkpt><trkpt lat="45.60229207674712" lon="10.171710901603864"><ele>477.0</ele><time>2026-03-27T14:09:36Z</time></trkpt><trkpt lat="45.60234723294705" lon="10.171783391079032"><ele>477.0</ele><time>2026-03-27T14:09:37Z</time></trkpt><trkpt lat="45.602397438208136" lon="10.171851338397152"><ele>477.0</ele><time>2026-03-27T14:09:38Z</time></trkpt><trkpt lat="45.602456109032744" lon="10.171904927863547"><ele>477.0</ele><time>2026-03-27T14:09:39Z</time></trkpt><trkpt lat="45.602574326257304" lon="10.172030702367069"><ele>477.0</ele><time>2026-03-27T14:09:41Z</time></trkpt><trkpt lat="45.60264966039324" lon="10.172073176076717"><ele>477.0</ele><time>2026-03-27T14:09:42Z</time></trkpt><trkpt lat="45.60273645548857" lon="10.172102664282006"><ele>477.0</ele><time>2026-03-27T14:09:43Z</time></trkpt><trkpt lat="45.60281164208768" lon="10.172157793440755"><ele>477.0</ele><time>2026-03-27T14:09:44Z</time></trkpt><trkpt lat="45.60289240021785" lon="10.172214911799074"><ele>477.0</ele><time>2026-03-27T14:09:45Z</time></trkpt><trkpt lat="45.60297552073385" lon="10.172272535564854"><ele>477.0</ele><time>2026-03-27T14:09:46Z</time></trkpt><trkpt lat="45.60305621487165" lon="10.172328694040047"><ele>477.0</ele><time>2026-03-27T14:09:47Z</time></trkpt><trkpt lat="45.603130812975955" lon="10.172378191085414"><ele>477.0</ele><time>2026-03-27T14:09:48Z</time></trkpt><trkpt lat="45.603209611546134" lon="10.172428791455113"><ele>480.0</ele><time>2026-03-27T14:09:49Z</time></trkpt><trkpt lat="45.60328078773765" lon="10.172482219977445"><ele>483.0</ele><time>2026-03-27T14:09:50Z</time></trkpt><trkpt lat="45.603365529639504" lon="10.172534895132298"><ele>486.0</ele><time>2026-03-27T14:09:51Z</time></trkpt><trkpt lat="45.60344236928302" lon="10.172597677244582"><ele>489.0</ele><time>2026-03-27T14:09:52Z</time></trkpt><trkpt lat="45.60351225265164" lon="10.17262369784963"><ele>492.0</ele><time>2026-03-27T14:09:53Z</time></trkpt><trkpt lat="45.603599421389674" lon="10.172658895540625"><ele>495.0</ele><time>2026-03-27T14:09:54Z</time></trkpt><trkpt lat="45.60370383242788" lon="10.172670369958123"><ele>496.2</ele><time>2026-03-27T14:09:55Z</time></trkpt><trkpt lat="45.60380550205169" lon="10.172673668521256"><ele>497.4</ele><time>2026-03-27T14:09:56Z</time></trkpt><trkpt lat="45.60391346692022" lon="10.172647450545403"><ele>498.6</ele><time>2026-03-27T14:09:57Z</time></trkpt><trkpt lat="45.60401548155942" lon="10.172644953771966"><ele>499.8</ele><time>2026-03-27T14:09:58Z</time></trkpt><trkpt lat="45.60412490496721" lon="10.172641738989784"><ele>501.0</ele><time>2026-03-27T14:09:59Z</time></trkpt><trkpt lat="45.60421865877052" lon="10.172663741195091"><ele>501.0</ele><time>2026-03-27T14:10:00Z</time></trkpt><trkpt lat="45.60429606273916" lon="10.17266577642542"><ele>501.0</ele><time>2026-03-27T14:10:01Z</time></trkpt><trkpt lat="45.604421919610544" lon="10.172650443037178"><ele>501.0</ele><time>2026-03-27T14:10:03Z</time></trkpt><trkpt lat="45.60453992810807" lon="10.172641715305522"><ele>501.0</ele><time>2026-03-27T14:10:05Z</time></trkpt><trkpt lat="45.60460421339814" lon="10.17265038459233"><ele>501.0</ele><time>2026-03-27T14:10:06Z</time></trkpt><trkpt lat="45.60471496072921" lon="10.172667506708017"><ele>505.0</ele><time>2026-03-27T14:10:08Z</time></trkpt><trkpt lat="45.604700312857275" lon="10.17276147410107"><ele>509.0</ele><time>2026-03-27T14:10:10Z</time></trkpt><trkpt lat="45.60463958486655" lon="10.172826907050172"><ele>513.0</ele><time>2026-03-27T14:10:13Z</time></trkpt><trkpt lat="45.60459184811031" lon="10.172924374408321"><ele>517.0</ele><time>2026-03-27T14:10:15Z</time></trkpt><trkpt lat="45.60465159292014" lon="10.173052616063398"><ele>521.0</ele><time>2026-03-27T14:10:17Z</time></trkpt><trkpt lat="45.6047674437665" lon="10.173057551759507"><ele>521.0</ele><time>2026-03-27T14:10:19Z</time></trkpt><trkpt lat="45.604844222315116" lon="10.173117687637271"><ele>521.0</ele><time>2026-03-27T14:10:21Z</time></trkpt><trkpt lat="45.60492292873693" lon="10.17315862620724"><ele>521.0</ele><time>2026-03-27T14:10:23Z</time></trkpt><trkpt lat="45.60498475054443" lon="10.173186425915269"><ele>521.0</ele><time>2026-03-27T14:10:25Z</time></trkpt><trkpt lat="45.60507395305766" lon="10.173239790722857"><ele>521.0</ele><time>2026-03-27T14:10:27Z</time></trkpt><trkpt lat="45.60516533911456" lon="10.173296693912215"><ele>521.0</ele><time>2026-03-27T14:10:29Z</time></trkpt><trkpt lat="45.60524709643581" lon="10.17335563363611"><ele>522.4</ele><time>2026-03-27T14:10:31Z</time></trkpt><trkpt lat="45.605326783452405" lon="10.173389303745912"><ele>523.8</ele><time>2026-03-27T14:10:33Z</time></trkpt><trkpt lat="45.60542605810318" lon="10.1734010878726"><ele>525.1999999999999</ele><time>2026-03-27T14:10:35Z</time></trkpt><trkpt lat="45.60549248351521" lon="10.173338251981038"><ele>526.6</ele><time>2026-03-27T14:10:37Z</time></trkpt><trkpt lat="45.60556292038456" lon="10.173262176255301"><ele>528.0</ele><time>2026-03-27T14:10:39Z</time></trkpt><trkpt lat="45.605467068861984" lon="10.172906496799177"><ele>532.0</ele><time>2026-03-27T14:10:42Z</time></trkpt><trkpt lat="45.605518344223775" lon="10.17281722308548"><ele>536.0</ele><time>2026-03-27T14:10:45Z</time></trkpt><trkpt lat="45.60558594011411" lon="10.172849844692303"><ele>540.0</ele><time>2026-03-27T14:10:48Z</time></trkpt><trkpt lat="45.60562148170686" lon="10.172957222613048"><ele>544.0</ele><time>2026-03-27T14:10:50Z</time></trkpt><trkpt lat="45.605647925005364" lon="10.173051882337711"><ele>548.0</ele><time>2026-03-27T14:10:52Z</time></trkpt><trkpt lat="45.605713121070615" lon="10.173160245152998"><ele>552.0</ele><time>2026-03-27T14:10:54Z</time></trkpt><trkpt lat="45.6057989241561" lon="10.173240942620863"><ele>552.6</ele><time>2026-03-27T14:10:56Z</time></trkpt><trkpt lat="45.60585958684832" lon="10.173344116167707"><ele>553.2</ele><time>2026-03-27T14:10:58Z</time></trkpt><trkpt lat="45.6059649541279" lon="10.173450923793428"><ele>553.8</ele><time>2026-03-27T14:11:00Z</time></trkpt><trkpt lat="45.6060480540332" lon="10.173517385973605"><ele>554.4</ele><time>2026-03-27T14:11:02Z</time></trkpt><trkpt lat="45.60609954609962" lon="10.173574090834448"><ele>555.0</ele><time>2026-03-27T14:11:03Z</time></trkpt><trkpt lat="45.60619652343944" lon="10.173637123400095"><ele>559.0</ele><time>2026-03-27T14:11:05Z</time></trkpt><trkpt lat="45.60628851446281" lon="10.173650326556992"><ele>563.0</ele><time>2026-03-27T14:11:07Z</time></trkpt><trkpt lat="45.606351323939045" lon="10.1736647601773"><ele>567.0</ele><time>2026-03-27T14:11:08Z</time></trkpt><trkpt lat="45.60641901047209" lon="10.173702763323568"><ele>571.0</ele><time>2026-03-27T14:11:10Z</time></trkpt><trkpt lat="45.6064836437589" lon="10.173799642235277"><ele>575.0</ele><time>2026-03-27T14:11:12Z</time></trkpt><trkpt lat="45.60653699989178" lon="10.173847909555713"><ele>579.0</ele><time>2026-03-27T14:11:13Z</time></trkpt><trkpt lat="45.60665318265203" lon="10.173877951905673"><ele>579.0</ele><time>2026-03-27T14:11:15Z</time></trkpt><trkpt lat="45.60675683659636" lon="10.17384544110148"><ele>579.0</ele><time>2026-03-27T14:11:17Z</time></trkpt><trkpt lat="45.60681275133959" lon="10.1737973361056"><ele>579.0</ele><time>2026-03-27T14:11:18Z</time></trkpt><trkpt lat="45.606923618147704" lon="10.173733396672697"><ele>579.0</ele><time>2026-03-27T14:11:20Z</time></trkpt><trkpt lat="45.60698284390052" lon="10.1736373809014"><ele>579.0</ele><time>2026-03-27T14:11:22Z</time></trkpt><trkpt lat="45.60694193770993" lon="10.173497944192452"><ele>579.0</ele><time>2026-03-27T14:11:24Z</time></trkpt><trkpt lat="45.606910146673535" lon="10.173395580174772"><ele>579.0</ele><time>2026-03-27T14:11:25Z</time></trkpt><trkpt lat="45.606898771325824" lon="10.173305640863413"><ele>579.0</ele><time>2026-03-27T14:11:26Z</time></trkpt><trkpt lat="45.60691543023018" lon="10.17312773775786"><ele>579.0</ele><time>2026-03-27T14:11:28Z</time></trkpt><trkpt lat="45.606901442307695" lon="10.172954713115704"><ele>579.0</ele><time>2026-03-27T14:11:30Z</time></trkpt><trkpt lat="45.60691062026391" lon="10.17278707356205"><ele>580.2</ele><time>2026-03-27T14:11:32Z</time></trkpt><trkpt lat="45.606940179896256" lon="10.172622780190192"><ele>581.4</ele><time>2026-03-27T14:11:34Z</time></trkpt><trkpt lat="45.606930027659196" lon="10.172468049345186"><ele>582.6</ele><time>2026-03-27T14:11:36Z</time></trkpt><trkpt lat="45.606935291785284" lon="10.17233408709529"><ele>583.8</ele><time>2026-03-27T14:11:38Z</time></trkpt><trkpt lat="45.60695246915473" lon="10.172229953124264"><ele>585.0</ele><time>2026-03-27T14:11:39Z</time></trkpt><trkpt lat="45.606968092656984" lon="10.172080932616872"><ele>585.0</ele><time>2026-03-27T14:11:41Z</time></trkpt><trkpt lat="45.606974789422814" lon="10.171986099566622"><ele>585.0</ele><time>2026-03-27T14:11:42Z</time></trkpt><trkpt lat="45.607004527425" lon="10.171844352858272"><ele>585.0</ele><time>2026-03-27T14:11:44Z</time></trkpt><trkpt lat="45.607038779271875" lon="10.171757280449562"><ele>585.0</ele><time>2026-03-27T14:11:45Z</time></trkpt><trkpt lat="45.60708684903254" lon="10.17161420193459"><ele>585.0</ele><time>2026-03-27T14:11:47Z</time></trkpt><trkpt lat="45.60713200702966" lon="10.171546413684114"><ele>585.0</ele><time>2026-03-27T14:11:48Z</time></trkpt><trkpt lat="45.60717053393734" lon="10.171458058338596"><ele>589.2</ele><time>2026-03-27T14:11:50Z</time></trkpt><trkpt lat="45.60719113973921" lon="10.171367952412368"><ele>593.4</ele><time>2026-03-27T14:11:52Z</time></trkpt><trkpt lat="45.607262696084376" lon="10.171316353618582"><ele>597.6</ele><time>2026-03-27T14:11:54Z</time></trkpt><trkpt lat="45.60737700650308" lon="10.171248338560558"><ele>601.8</ele><time>2026-03-27T14:11:56Z</time></trkpt><trkpt lat="45.60743974284857" lon="10.171164785460682"><ele>606.0</ele><time>2026-03-27T14:11:57Z</time></trkpt><trkpt lat="45.60751860250758" lon="10.171069636124772"><ele>606.0</ele><time>2026-03-27T14:11:59Z</time></trkpt><trkpt lat="45.60760096098545" lon="10.170923003142104"><ele>606.0</ele><time>2026-03-27T14:12:01Z</time></trkpt><trkpt lat="45.60767714190917" lon="10.170758469028229"><ele>606.0</ele><time>2026-03-27T14:12:03Z</time></trkpt><trkpt lat="45.60774729918011" lon="10.170696763935698"><ele>606.0</ele><time>2026-03-27T14:12:31Z</time></trkpt><trkpt lat="45.60782244069187" lon="10.170607752134865"><ele>611.0</ele><time>2026-03-27T14:12:33Z</time></trkpt><trkpt lat="45.60787077876651" lon="10.170537183775133"><ele>616.0</ele><time>2026-03-27T14:12:34Z</time></trkpt><trkpt lat="45.607918246958235" lon="10.170471745670453"><ele>621.0</ele><time>2026-03-27T14:12:35Z</time></trkpt><trkpt lat="45.608010610174766" lon="10.170338595538514"><ele>626.0</ele><time>2026-03-27T14:12:37Z</time></trkpt><trkpt lat="45.60805810819915" lon="10.170272994633335"><ele>631.0</ele><time>2026-03-27T14:12:38Z</time></trkpt><trkpt lat="45.60815029186503" lon="10.170145604431944"><ele>631.0</ele><time>2026-03-27T14:12:40Z</time></trkpt><trkpt lat="45.60819877476431" lon="10.170078246061463"><ele>631.0</ele><time>2026-03-27T14:12:41Z</time></trkpt><trkpt lat="45.60823817567785" lon="10.170006478789421"><ele>631.0</ele><time>2026-03-27T14:12:42Z</time></trkpt><trkpt lat="45.60828154790455" lon="10.169932415823006"><ele>631.0</ele><time>2026-03-27T14:12:43Z</time></trkpt><trkpt lat="45.608366083130264" lon="10.169799391114008"><ele>631.0</ele><time>2026-03-27T14:12:45Z</time></trkpt><trkpt lat="45.60840719074681" lon="10.169726712527437"><ele>631.0</ele><time>2026-03-27T14:12:46Z</time></trkpt><trkpt lat="45.60845395084172" lon="10.16965062609121"><ele>629.2</ele><time>2026-03-27T14:12:47Z</time></trkpt><trkpt lat="45.60851652860159" lon="10.169487562601821"><ele>627.4000000000001</ele><time>2026-03-27T14:12:49Z</time></trkpt><trkpt lat="45.60855814349899" lon="10.169340436230733"><ele>625.6</ele><time>2026-03-27T14:12:51Z</time></trkpt><trkpt lat="45.60859216471429" lon="10.169247913193091"><ele>623.8000000000001</ele><time>2026-03-27T14:12:52Z</time></trkpt><trkpt lat="45.6086303303323" lon="10.169161805094761"><ele>622.0</ele><time>2026-03-27T14:12:53Z</time></trkpt><trkpt lat="45.60864795047794" lon="10.169073763698485"><ele>626.5</ele><time>2026-03-27T14:12:54Z</time></trkpt><trkpt lat="45.60871915681983" lon="10.168922332510617"><ele>631.0</ele><time>2026-03-27T14:12:56Z</time></trkpt><trkpt lat="45.60877115391962" lon="10.168840981101736"><ele>635.5</ele><time>2026-03-27T14:12:57Z</time></trkpt><trkpt lat="45.6087964521708" lon="10.168752425956402"><ele>640.0</ele><time>2026-03-27T14:12:58Z</time></trkpt><trkpt lat="45.60878998831503" lon="10.168646376811525"><ele>644.5</ele><time>2026-03-27T14:12:59Z</time></trkpt><trkpt lat="45.608784317895484" lon="10.168556268645327"><ele>649.0</ele><time>2026-03-27T14:13:01Z</time></trkpt><trkpt lat="45.60883168323577" lon="10.168495738472856"><ele>649.0</ele><time>2026-03-27T14:13:04Z</time></trkpt><trkpt lat="45.60888247206247" lon="10.168606951435597"><ele>649.0</ele><time>2026-03-27T14:13:07Z</time></trkpt><trkpt lat="45.608890128896796" lon="10.168703508072033"><ele>649.0</ele><time>2026-03-27T14:13:08Z</time></trkpt><trkpt lat="45.60892182778328" lon="10.168881783633593"><ele>649.0</ele><time>2026-03-27T14:13:10Z</time></trkpt><trkpt lat="45.608906095260096" lon="10.169056165616729"><ele>649.0</ele><time>2026-03-27T14:13:12Z</time></trkpt><trkpt lat="45.608903417505374" lon="10.169146871933894"><ele>652.6</ele><time>2026-03-27T14:13:13Z</time></trkpt><trkpt lat="45.60894110859021" lon="10.169266188683181"><ele>656.2</ele><time>2026-03-27T14:13:15Z</time></trkpt><trkpt lat="45.60896220039195" lon="10.169439980249377"><ele>659.8000000000001</ele><time>2026-03-27T14:13:17Z</time></trkpt><trkpt lat="45.60896930120575" lon="10.169546705580617"><ele>663.4000000000001</ele><time>2026-03-27T14:13:18Z</time></trkpt><trkpt lat="45.6089510293568" lon="10.169733898854942"><ele>667.0</ele><time>2026-03-27T14:13:20Z</time></trkpt><trkpt lat="45.60893951727416" lon="10.169830114867986"><ele>668.6666666666667</ele><time>2026-03-27T14:13:21Z</time></trkpt><trkpt lat="45.608926643453316" lon="10.169920176805219"><ele>670.3333333333334</ele><time>2026-03-27T14:13:22Z</time></trkpt><trkpt lat="45.608919712177034" lon="10.170019716956292"><ele>672.0</ele><time>2026-03-27T14:13:23Z</time></trkpt><trkpt lat="45.60890934288007" lon="10.170133481480114"><ele>673.6666666666666</ele><time>2026-03-27T14:13:24Z</time></trkpt><trkpt lat="45.60887857040344" lon="10.170239151040363"><ele>675.3333333333333</ele><time>2026-03-27T14:13:25Z</time></trkpt><trkpt lat="45.608883262104754" lon="10.170343899643179"><ele>677.0</ele><time>2026-03-27T14:13:26Z</time></trkpt><trkpt lat="45.60886580303797" lon="10.170462206998875"><ele>677.0</ele><time>2026-03-27T14:13:27Z</time></trkpt><trkpt lat="45.6088472423773" lon="10.170570414701027"><ele>677.0</ele><time>2026-03-27T14:13:28Z</time></trkpt><trkpt lat="45.6088265288882" lon="10.170691236582867"><ele>677.0</ele><time>2026-03-27T14:13:29Z</time></trkpt><trkpt lat="45.60881502083391" lon="10.170810978728127"><ele>677.0</ele><time>2026-03-27T14:13:30Z</time></trkpt><trkpt lat="45.60880108106728" lon="10.170901685076984"><ele>677.0</ele><time>2026-03-27T14:13:31Z</time></trkpt><trkpt lat="45.608797357073136" lon="10.17114605929711"><ele>677.6666666666666</ele><time>2026-03-27T14:13:33Z</time></trkpt><trkpt lat="45.6088098140632" lon="10.171244032051355"><ele>678.3333333333333</ele><time>2026-03-27T14:13:34Z</time></trkpt><trkpt lat="45.608840662429756" lon="10.171353002712296"><ele>679.0</ele><time>2026-03-27T14:13:35Z</time></trkpt><trkpt lat="45.60887688041604" lon="10.171451720667434"><ele>679.6666666666666</ele><time>2026-03-27T14:13:36Z</time></trkpt><trkpt lat="45.60891582705845" lon="10.171547791125606"><ele>680.3333333333334</ele><time>2026-03-27T14:13:37Z</time></trkpt><trkpt lat="45.60901449572052" lon="10.171622586902297"><ele>681.0</ele><time>2026-03-27T14:13:39Z</time></trkpt><trkpt lat="45.60912534468836" lon="10.17168675056043"><ele>682.3333333333334</ele><time>2026-03-27T14:13:41Z</time></trkpt><trkpt lat="45.60921042790821" lon="10.171714655846959"><ele>683.6666666666666</ele><time>2026-03-27T14:13:42Z</time></trkpt><trkpt lat="45.60930994410833" lon="10.171718797781473"><ele>685.0</ele><time>2026-03-27T14:13:43Z</time></trkpt><trkpt lat="45.60939367290904" lon="10.17170520367019"><ele>686.3333333333333</ele><time>2026-03-27T14:13:44Z</time></trkpt><trkpt lat="45.60946532372051" lon="10.171662791884904"><ele>687.6666666666666</ele><time>2026-03-27T14:13:45Z</time></trkpt><trkpt lat="45.609546521424" lon="10.17163340605646"><ele>689.0</ele><time>2026-03-27T14:13:46Z</time></trkpt><trkpt lat="45.60961930579327" lon="10.171621621811218"><ele>689.0</ele><time>2026-03-27T14:13:47Z</time></trkpt><trkpt lat="45.609690936530164" lon="10.171619684498793"><ele>689.0</ele><time>2026-03-27T14:13:48Z</time></trkpt><trkpt lat="45.60975689390103" lon="10.171608468395494"><ele>689.0</ele><time>2026-03-27T14:13:49Z</time></trkpt><trkpt lat="45.609820926060166" lon="10.171611775485163"><ele>689.0</ele><time>2026-03-27T14:13:50Z</time></trkpt><trkpt lat="45.609885238915425" lon="10.171638694095437"><ele>689.0</ele><time>2026-03-27T14:13:52Z</time></trkpt><trkpt lat="45.60992445539076" lon="10.17171043949171"><ele>689.0</ele><time>2026-03-27T14:13:54Z</time></trkpt><trkpt lat="45.60994666710276" lon="10.171823257244721"><ele>689.0</ele><time>2026-03-27T14:13:56Z</time></trkpt><trkpt lat="45.60993276881442" lon="10.171911383189569"><ele>689.0</ele><time>2026-03-27T14:13:57Z</time></trkpt><trkpt lat="45.609877448521225" lon="10.172046521581864"><ele>689.0</ele><time>2026-03-27T14:13:58Z</time></trkpt><trkpt lat="45.609816804529906" lon="10.172176181162424"><ele>689.0</ele><time>2026-03-27T14:13:59Z</time></trkpt><trkpt lat="45.609758229176066" lon="10.17227179895538"><ele>689.0</ele><time>2026-03-27T14:14:00Z</time></trkpt><trkpt lat="45.60969550550977" lon="10.172400031712924"><ele>689.0</ele><time>2026-03-27T14:14:01Z</time></trkpt><trkpt lat="45.60961992471266" lon="10.172574597071746"><ele>689.8000000000001</ele><time>2026-03-27T14:14:02Z</time></trkpt><trkpt lat="45.60956202295685" lon="10.172741576121204"><ele>690.6</ele><time>2026-03-27T14:14:03Z</time></trkpt><trkpt lat="45.6095154945382" lon="10.172901164666666"><ele>691.4</ele><time>2026-03-27T14:14:04Z</time></trkpt><trkpt lat="45.60950738124464" lon="10.173020550393884"><ele>692.2</ele><time>2026-03-27T14:14:05Z</time></trkpt><trkpt lat="45.60950342531095" lon="10.173117144930071"><ele>693.0</ele><time>2026-03-27T14:14:06Z</time></trkpt><trkpt lat="45.609496778742276" lon="10.173222902829622"><ele>693.0</ele><time>2026-03-27T14:14:08Z</time></trkpt><trkpt lat="45.60956714005663" lon="10.173233248421145"><ele>693.0</ele><time>2026-03-27T14:14:12Z</time></trkpt><trkpt lat="45.60960239822561" lon="10.17310985183749"><ele>693.0</ele><time>2026-03-27T14:14:15Z</time></trkpt><trkpt lat="45.609640053830255" lon="10.173015977520366"><ele>693.0</ele><time>2026-03-27T14:14:17Z</time></trkpt><trkpt lat="45.60973205384895" lon="10.172942410199669"><ele>693.0</ele><time>2026-03-27T14:14:19Z</time></trkpt><trkpt lat="45.60980702697113" lon="10.172886261621178"><ele>693.0</ele><time>2026-03-27T14:14:21Z</time></trkpt><trkpt lat="45.609894760682856" lon="10.172782782415759"><ele>693.0</ele><time>2026-03-27T14:14:23Z</time></trkpt><trkpt lat="45.60994318513794" lon="10.17270695394179"><ele>693.0</ele><time>2026-03-27T14:14:25Z</time></trkpt><trkpt lat="45.61000806031599" lon="10.172700088062786"><ele>693.0</ele><time>2026-03-27T14:14:27Z</time></trkpt><trkpt lat="45.61002336544453" lon="10.172797954227262"><ele>693.0</ele><time>2026-03-27T14:14:30Z</time></trkpt><trkpt lat="45.609932303530464" lon="10.172908468161662"><ele>693.0</ele><time>2026-03-27T14:14:32Z</time></trkpt><trkpt lat="45.609877965905724" lon="10.172977233649908"><ele>693.0</ele><time>2026-03-27T14:14:33Z</time></trkpt><trkpt lat="45.60983572958559" lon="10.173055489156225"><ele>693.0</ele><time>2026-03-27T14:14:34Z</time></trkpt><trkpt lat="45.60979315063417" lon="10.173152195786448"><ele>693.0</ele><time>2026-03-27T14:14:35Z</time></trkpt><trkpt lat="45.60975738662837" lon="10.173266991217378"><ele>693.0</ele><time>2026-03-27T14:14:36Z</time></trkpt><trkpt lat="45.60972729693234" lon="10.173376930164698"><ele>693.0</ele><time>2026-03-27T14:14:37Z</time></trkpt><trkpt lat="45.6097108290241" lon="10.173516332192609"><ele>693.0</ele><time>2026-03-27T14:14:38Z</time></trkpt><trkpt lat="45.60969832198443" lon="10.173634900449938"><ele>693.0</ele><time>2026-03-27T14:14:39Z</time></trkpt><trkpt lat="45.609702009769634" lon="10.17374081869087"><ele>696.0</ele><time>2026-03-27T14:14:40Z</time></trkpt><trkpt lat="45.609718481208866" lon="10.173867255949396"><ele>699.0</ele><time>2026-03-27T14:14:41Z</time></trkpt><trkpt lat="45.60975514151234" lon="10.174030726978017"><ele>702.0</ele><time>2026-03-27T14:14:42Z</time></trkpt><trkpt lat="45.609793401436576" lon="10.174161153468656"><ele>705.0</ele><time>2026-03-27T14:14:43Z</time></trkpt><trkpt lat="45.60982447131125" lon="10.174263248709897"><ele>708.0</ele><time>2026-03-27T14:14:44Z</time></trkpt><trkpt lat="45.60986865478644" lon="10.17432903528179"><ele>707.8333333333334</ele><time>2026-03-27T14:14:45Z</time></trkpt><trkpt lat="45.60991367796546" lon="10.174422739104843"><ele>707.6666666666666</ele><time>2026-03-27T14:14:46Z</time></trkpt><trkpt lat="45.60994509028575" lon="10.174549445741155"><ele>707.5</ele><time>2026-03-27T14:14:47Z</time></trkpt><trkpt lat="45.60998670507976" lon="10.174669294076123"><ele>707.3333333333333</ele><time>2026-03-27T14:14:48Z</time></trkpt><trkpt lat="45.610070496424356" lon="10.17473180296707"><ele>707.1666666666666</ele><time>2026-03-27T14:14:49Z</time></trkpt><trkpt lat="45.61013241765733" lon="10.17480448687061"><ele>707.0</ele><time>2026-03-27T14:14:50Z</time></trkpt><trkpt lat="45.61017870870752" lon="10.174889530625627"><ele>707.0</ele><time>2026-03-27T14:14:51Z</time></trkpt><trkpt lat="45.610225223912046" lon="10.174958821480928"><ele>707.0</ele><time>2026-03-27T14:14:52Z</time></trkpt><trkpt lat="45.61029643731587" lon="10.1750905200254"><ele>707.0</ele><time>2026-03-27T14:14:54Z</time></trkpt><trkpt lat="45.61033137295985" lon="10.175171431132439"><ele>707.0</ele><time>2026-03-27T14:14:55Z</time></trkpt><trkpt lat="45.61039237928531" lon="10.17520153141981"><ele>707.0</ele><time>2026-03-27T14:14:58Z</time></trkpt><trkpt lat="45.61041110672796" lon="10.175094509586566"><ele>707.0</ele><time>2026-03-27T14:15:11Z</time></trkpt><trkpt lat="45.61037321487641" lon="10.174969293223638"><ele>707.8333333333333</ele><time>2026-03-27T14:15:16Z</time></trkpt><trkpt lat="45.61035131665108" lon="10.174880710894982"><ele>708.6666666666666</ele><time>2026-03-27T14:15:17Z</time></trkpt><trkpt lat="45.610326881734004" lon="10.174757483339958"><ele>709.5</ele><time>2026-03-27T14:15:18Z</time></trkpt><trkpt lat="45.61031294398546" lon="10.174656638805983"><ele>710.3333333333334</ele><time>2026-03-27T14:15:19Z</time></trkpt><trkpt lat="45.61030223412353" lon="10.174541169727567"><ele>711.1666666666667</ele><time>2026-03-27T14:15:20Z</time></trkpt><trkpt lat="45.61030614947166" lon="10.174411787520217"><ele>712.0</ele><time>2026-03-27T14:15:21Z</time></trkpt><trkpt lat="45.610308980742566" lon="10.174268210901323"><ele>712.0</ele><time>2026-03-27T14:15:22Z</time></trkpt><trkpt lat="45.61031798820488" lon="10.174153983862327"><ele>712.0</ele><time>2026-03-27T14:15:23Z</time></trkpt><trkpt lat="45.61031865867982" lon="10.174059305405827"><ele>712.0</ele><time>2026-03-27T14:15:24Z</time></trkpt><trkpt lat="45.6103169721023" lon="10.173960816060932"><ele>712.0</ele><time>2026-03-27T14:15:25Z</time></trkpt><trkpt lat="45.61031863882065" lon="10.173863747380695"><ele>712.0</ele><time>2026-03-27T14:15:26Z</time></trkpt><trkpt lat="45.61036475534385" lon="10.173714387322681"><ele>712.0</ele><time>2026-03-27T14:15:28Z</time></trkpt><trkpt lat="45.610412972975766" lon="10.173634138930685"><ele>714.8333333333334</ele><time>2026-03-27T14:15:29Z</time></trkpt><trkpt lat="45.6104738781725" lon="10.173589019465448"><ele>717.6666666666667</ele><time>2026-03-27T14:15:30Z</time></trkpt><trkpt lat="45.61054378762807" lon="10.17354532426427"><ele>720.5</ele><time>2026-03-27T14:15:31Z</time></trkpt><trkpt lat="45.610629206399565" lon="10.173473738178036"><ele>723.3333333333334</ele><time>2026-03-27T14:15:32Z</time></trkpt><trkpt lat="45.61069951812539" lon="10.173443855531483"><ele>726.1666666666666</ele><time>2026-03-27T14:15:33Z</time></trkpt><trkpt lat="45.610766552444794" lon="10.173389044248578"><ele>729.0</ele><time>2026-03-27T14:15:34Z</time></trkpt><trkpt lat="45.61084860618243" lon="10.173314722969911"><ele>729.0</ele><time>2026-03-27T14:15:35Z</time></trkpt><trkpt lat="45.6109353871279" lon="10.173246330844464"><ele>729.0</ele><time>2026-03-27T14:15:36Z</time></trkpt><trkpt lat="45.61102067382221" lon="10.173194375561495"><ele>729.0</ele><time>2026-03-27T14:15:37Z</time></trkpt><trkpt lat="45.611138968280684" lon="10.173095868104973"><ele>729.0</ele><time>2026-03-27T14:15:39Z</time></trkpt><trkpt lat="45.61120279379441" lon="10.173003184452387"><ele>729.0</ele><time>2026-03-27T14:15:40Z</time></trkpt><trkpt lat="45.61126455029276" lon="10.172905425565775"><ele>730.6666666666666</ele><time>2026-03-27T14:15:41Z</time></trkpt><trkpt lat="45.611334406357564" lon="10.172827678262514"><ele>732.3333333333334</ele><time>2026-03-27T14:15:42Z</time></trkpt><trkpt lat="45.61137900228991" lon="10.172762611471313"><ele>734.0</ele><time>2026-03-27T14:15:43Z</time></trkpt><trkpt lat="45.61144299989448" lon="10.172723730733287"><ele>735.6666666666667</ele><time>2026-03-27T14:15:44Z</time></trkpt><trkpt lat="45.61152416454287" lon="10.17268838896029"><ele>737.3333333333334</ele><time>2026-03-27T14:15:46Z</time></trkpt><trkpt lat="45.61160754198294" lon="10.172661045142629"><ele>739.0</ele><time>2026-03-27T14:15:48Z</time></trkpt><trkpt lat="45.61170453103568" lon="10.172649206746815"><ele>739.0</ele><time>2026-03-27T14:16:23Z</time></trkpt><trkpt lat="45.611792263536245" lon="10.172645151850485"><ele>739.0</ele><time>2026-03-27T14:16:25Z</time></trkpt><trkpt lat="45.61185272957037" lon="10.172618962822222"><ele>739.0</ele><time>2026-03-27T14:16:26Z</time></trkpt><trkpt lat="45.611946479666805" lon="10.172578295564596"><ele>739.0</ele><time>2026-03-27T14:16:28Z</time></trkpt><trkpt lat="45.612035163350136" lon="10.172540990182442"><ele>739.0</ele><time>2026-03-27T14:16:30Z</time></trkpt><trkpt lat="45.61212919733584" lon="10.172476475811456"><ele>739.0</ele><time>2026-03-27T14:16:32Z</time></trkpt><trkpt lat="45.612187300839366" lon="10.172386362820571"><ele>741.6666666666667</ele><time>2026-03-27T14:16:34Z</time></trkpt><trkpt lat="45.612253856505475" lon="10.172288262119979"><ele>744.3333333333334</ele><time>2026-03-27T14:16:37Z</time></trkpt><trkpt lat="45.61230733502126" lon="10.172240144124615"><ele>747.0</ele><time>2026-03-27T14:16:39Z</time></trkpt><trkpt lat="45.61227318174553" lon="10.17232276307788"><ele>749.6666666666666</ele><time>2026-03-27T14:17:01Z</time></trkpt><trkpt lat="45.6121973319223" lon="10.172383246893007"><ele>752.3333333333333</ele><time>2026-03-27T14:17:04Z</time></trkpt><trkpt lat="45.612143108083266" lon="10.17244647189643"><ele>755.0</ele><time>2026-03-27T14:17:06Z</time></trkpt><trkpt lat="45.61209091770205" lon="10.172511484737072"><ele>755.8</ele><time>2026-03-27T14:17:08Z</time></trkpt><trkpt lat="45.61200125364295" lon="10.17257716317377"><ele>756.6</ele><time>2026-03-27T14:17:10Z</time></trkpt><trkpt lat="45.61188049248725" lon="10.172631784348006"><ele>757.4000000000001</ele><time>2026-03-27T14:17:12Z</time></trkpt><trkpt lat="45.611772822218555" lon="10.172647193089256"><ele>758.2</ele><time>2026-03-27T14:17:14Z</time></trkpt><trkpt lat="45.61166532873402" lon="10.172650255160429"><ele>759.0</ele><time>2026-03-27T14:17:16Z</time></trkpt><trkpt lat="45.61154983549545" lon="10.172687488153072"><ele>755.0</ele><time>2026-03-27T14:17:18Z</time></trkpt><trkpt lat="45.611482957109914" lon="10.172713747447343"><ele>751.0</ele><time>2026-03-27T14:17:19Z</time></trkpt><trkpt lat="45.611385399664265" lon="10.1727803263592"><ele>747.0</ele><time>2026-03-27T14:17:21Z</time></trkpt><trkpt lat="45.611292117518815" lon="10.172868901269602"><ele>743.0</ele><time>2026-03-27T14:17:23Z</time></trkpt><trkpt lat="45.611222179723256" lon="10.172983319394387"><ele>739.0</ele><time>2026-03-27T14:17:25Z</time></trkpt><trkpt lat="45.61114827683308" lon="10.173076512140383"><ele>737.0</ele><time>2026-03-27T14:17:27Z</time></trkpt><trkpt lat="45.61110031594974" lon="10.173144822647089"><ele>735.0</ele><time>2026-03-27T14:17:29Z</time></trkpt><trkpt lat="45.611036946859755" lon="10.173217127109641"><ele>733.0</ele><time>2026-03-27T14:17:32Z</time></trkpt><trkpt lat="45.610956898838644" lon="10.17326423613936"><ele>731.0</ele><time>2026-03-27T14:17:34Z</time></trkpt><trkpt lat="45.61083432410864" lon="10.173347532019243"><ele>729.0</ele><time>2026-03-27T14:17:36Z</time></trkpt><trkpt lat="45.610765301661736" lon="10.173405857139832"><ele>729.0</ele><time>2026-03-27T14:17:37Z</time></trkpt><trkpt lat="45.610702417520535" lon="10.173458173936508"><ele>729.0</ele><time>2026-03-27T14:17:38Z</time></trkpt><trkpt lat="45.61063351925292" lon="10.173511996618762"><ele>729.0</ele><time>2026-03-27T14:17:39Z</time></trkpt><trkpt lat="45.610573753985236" lon="10.17354357105484"><ele>729.0</ele><time>2026-03-27T14:17:40Z</time></trkpt><trkpt lat="45.61049942647919" lon="10.173581808967953"><ele>729.0</ele><time>2026-03-27T14:17:41Z</time></trkpt><trkpt lat="45.61043922891935" lon="10.173631456583797"><ele>729.0</ele><time>2026-03-27T14:17:42Z</time></trkpt><trkpt lat="45.610380547823034" lon="10.173687959530474"><ele>729.0</ele><time>2026-03-27T14:17:43Z</time></trkpt><trkpt lat="45.61033319982878" lon="10.173754761253727"><ele>726.1666666666666</ele><time>2026-03-27T14:17:44Z</time></trkpt><trkpt lat="45.610307668456734" lon="10.173845159127605"><ele>723.3333333333334</ele><time>2026-03-27T14:17:45Z</time></trkpt><trkpt lat="45.61029194539322" lon="10.173932771240453"><ele>720.5</ele><time>2026-03-27T14:17:46Z</time></trkpt><trkpt lat="45.61028256719886" lon="10.174036561646883"><ele>717.6666666666667</ele><time>2026-03-27T14:17:47Z</time></trkpt><trkpt lat="45.610283731410554" lon="10.17415294101003"><ele>714.8333333333334</ele><time>2026-03-27T14:17:48Z</time></trkpt><trkpt lat="45.61028080117685" lon="10.174278726032815"><ele>712.0</ele><time>2026-03-27T14:17:49Z</time></trkpt><trkpt lat="45.610294516988084" lon="10.174416422819853"><ele>712.0</ele><time>2026-03-27T14:17:50Z</time></trkpt><trkpt lat="45.61029759756917" lon="10.174540342421942"><ele>712.0</ele><time>2026-03-27T14:17:51Z</time></trkpt><trkpt lat="45.61029707421726" lon="10.174656171138189"><ele>712.0</ele><time>2026-03-27T14:17:52Z</time></trkpt><trkpt lat="45.610300122745365" lon="10.17478473691408"><ele>712.0</ele><time>2026-03-27T14:17:53Z</time></trkpt><trkpt lat="45.61031425762395" lon="10.174875555296527"><ele>712.0</ele><time>2026-03-27T14:17:54Z</time></trkpt><trkpt lat="45.61034822542493" lon="10.174966472144488"><ele>712.0</ele><time>2026-03-27T14:17:55Z</time></trkpt><trkpt lat="45.61039122869952" lon="10.175077876104146"><ele>712.0</ele><time>2026-03-27T14:17:57Z</time></trkpt><trkpt lat="45.61039970475476" lon="10.17517346397975"><ele>712.0</ele><time>2026-03-27T14:18:00Z</time></trkpt><trkpt lat="45.61031446968617" lon="10.175150085623722"><ele>712.0</ele><time>2026-03-27T14:18:03Z</time></trkpt><trkpt lat="45.61023658638683" lon="10.175022699314377"><ele>712.0</ele><time>2026-03-27T14:18:05Z</time></trkpt><trkpt lat="45.6102032194676" lon="10.174930773626226"><ele>712.0</ele><time>2026-03-27T14:18:06Z</time></trkpt><trkpt lat="45.61012321382375" lon="10.174798043557312"><ele>712.0</ele><time>2026-03-27T14:18:08Z</time></trkpt><trkpt lat="45.610078945478755" lon="10.174726704455088"><ele>712.0</ele><time>2026-03-27T14:18:09Z</time></trkpt><trkpt lat="45.61002894619352" lon="10.174643652287267"><ele>712.0</ele><time>2026-03-27T14:18:10Z</time></trkpt><trkpt lat="45.60998312159608" lon="10.174572445628602"><ele>712.0</ele><time>2026-03-27T14:18:11Z</time></trkpt><trkpt lat="45.60993937946065" lon="10.174487338652511"><ele>712.0</ele><time>2026-03-27T14:18:12Z</time></trkpt><trkpt lat="45.60990088748681" lon="10.174411431757456"><ele>712.0</ele><time>2026-03-27T14:18:13Z</time></trkpt><trkpt lat="45.609825348890325" lon="10.174276622597084"><ele>712.0</ele><time>2026-03-27T14:18:15Z</time></trkpt><trkpt lat="45.609803001798426" lon="10.174178378643036"><ele>712.0</ele><time>2026-03-27T14:18:16Z</time></trkpt><trkpt lat="45.609775707565646" lon="10.17407576320478"><ele>712.0</ele><time>2026-03-27T14:18:17Z</time></trkpt><trkpt lat="45.60974851132496" lon="10.173977805807159"><ele>712.0</ele><time>2026-03-27T14:18:18Z</time></trkpt><trkpt lat="45.60972794713784" lon="10.173877938122255"><ele>712.0</ele><time>2026-03-27T14:18:19Z</time></trkpt><trkpt lat="45.609707247752624" lon="10.173768052152376"><ele>712.0</ele><time>2026-03-27T14:18:20Z</time></trkpt><trkpt lat="45.60969513596086" lon="10.17366071399381"><ele>711.3333333333334</ele><time>2026-03-27T14:18:21Z</time></trkpt><trkpt lat="45.609700889767105" lon="10.173547428308387"><ele>710.6666666666667</ele><time>2026-03-27T14:18:22Z</time></trkpt><trkpt lat="45.60972667944597" lon="10.17345149241821"><ele>710.0</ele><time>2026-03-27T14:18:23Z</time></trkpt><trkpt lat="45.60975149800788" lon="10.173339844522232"><ele>709.3333333333334</ele><time>2026-03-27T14:18:24Z</time></trkpt><trkpt lat="45.60976976200715" lon="10.173240336295253"><ele>708.6666666666666</ele><time>2026-03-27T14:18:25Z</time></trkpt><trkpt lat="45.60979917442904" lon="10.17315362043863"><ele>708.0</ele><time>2026-03-27T14:18:26Z</time></trkpt><trkpt lat="45.609838493993344" lon="10.173054369506945"><ele>705.5</ele><time>2026-03-27T14:18:27Z</time></trkpt><trkpt lat="45.60986990692634" lon="10.172959347732007"><ele>703.0</ele><time>2026-03-27T14:18:28Z</time></trkpt><trkpt lat="45.60991145403338" lon="10.172886345684812"><ele>700.5</ele><time>2026-03-27T14:18:29Z</time></trkpt><trkpt lat="45.609971610034734" lon="10.172821651082744"><ele>698.0</ele><time>2026-03-27T14:18:30Z</time></trkpt><trkpt lat="45.61003805192342" lon="10.172749342472613"><ele>695.5</ele><time>2026-03-27T14:18:32Z</time></trkpt><trkpt lat="45.60999384484385" lon="10.172672122270333"><ele>693.0</ele><time>2026-03-27T14:18:35Z</time></trkpt><trkpt lat="45.60989135541146" lon="10.17271887569657"><ele>693.0</ele><time>2026-03-27T14:18:37Z</time></trkpt><trkpt lat="45.60983859628947" lon="10.172828776039164"><ele>693.0</ele><time>2026-03-27T14:18:39Z</time></trkpt><trkpt lat="45.60973613081934" lon="10.172917508661563"><ele>693.0</ele><time>2026-03-27T14:18:41Z</time></trkpt><trkpt lat="45.60968161121174" lon="10.172966838979105"><ele>693.0</ele><time>2026-03-27T14:18:42Z</time></trkpt><trkpt lat="45.609602562939465" lon="10.173068850344164"><ele>693.0</ele><time>2026-03-27T14:18:44Z</time></trkpt><trkpt lat="45.60956465722355" lon="10.17314596477892"><ele>693.0</ele><time>2026-03-27T14:18:47Z</time></trkpt><trkpt lat="45.60951995398507" lon="10.173237027832078"><ele>693.0</ele><time>2026-03-27T14:18:51Z</time></trkpt><trkpt lat="45.60946197206517" lon="10.173177444165367"><ele>693.0</ele><time>2026-03-27T14:18:54Z</time></trkpt><trkpt lat="45.60948329959581" lon="10.173043043297088"><ele>693.0</ele><time>2026-03-27T14:18:57Z</time></trkpt><trkpt lat="45.60950242154367" lon="10.17294501161117"><ele>693.0</ele><time>2026-03-27T14:18:58Z</time></trkpt><trkpt lat="45.6095273330638" lon="10.172842849094758"><ele>693.0</ele><time>2026-03-27T14:18:59Z</time></trkpt><trkpt lat="45.609557357238465" lon="10.172720301309855"><ele>693.0</ele><time>2026-03-27T14:19:00Z</time></trkpt><trkpt lat="45.60960183381733" lon="10.172617895698126"><ele>693.0</ele><time>2026-03-27T14:19:01Z</time></trkpt><trkpt lat="45.60964018158982" lon="10.172504716154826"><ele>693.0</ele><time>2026-03-27T14:19:02Z</time></trkpt><trkpt lat="45.60967138917567" lon="10.172403709897266"><ele>693.0</ele><time>2026-03-27T14:19:03Z</time></trkpt><trkpt lat="45.609704954236975" lon="10.172319729944473"><ele>693.0</ele><time>2026-03-27T14:19:04Z</time></trkpt><trkpt lat="45.6097675947306" lon="10.172181969101924"><ele>693.0</ele><time>2026-03-27T14:19:06Z</time></trkpt><trkpt lat="45.60984135594627" lon="10.172051059269268"><ele>692.2</ele><time>2026-03-27T14:19:08Z</time></trkpt><trkpt lat="45.60989529956506" lon="10.171918259885333"><ele>691.4</ele><time>2026-03-27T14:19:10Z</time></trkpt><trkpt lat="45.60991939213691" lon="10.171774166840025"><ele>690.6</ele><time>2026-03-27T14:19:12Z</time></trkpt><trkpt lat="45.6098803453373" lon="10.17165161677192"><ele>689.8000000000001</ele><time>2026-03-27T14:19:14Z</time></trkpt><trkpt lat="45.60978832190089" lon="10.171598465548765"><ele>689.0</ele><time>2026-03-27T14:19:15.999Z</time></trkpt><trkpt lat="45.60971979688871" lon="10.171618763800792"><ele>689.0</ele><time>2026-03-27T14:19:16.999Z</time></trkpt><trkpt lat="45.60965696127738" lon="10.171630167723421"><ele>689.0</ele><time>2026-03-27T14:19:17.999Z</time></trkpt><trkpt lat="45.60958816553381" lon="10.171640030306813"><ele>689.0</ele><time>2026-03-27T14:19:19Z</time></trkpt><trkpt lat="45.60951581643655" lon="10.171651470454162"><ele>689.0</ele><time>2026-03-27T14:19:20Z</time></trkpt><trkpt lat="45.60942223702749" lon="10.171680473905145"><ele>689.0</ele><time>2026-03-27T14:19:21Z</time></trkpt><trkpt lat="45.60934911804377" lon="10.171700726379324"><ele>689.0</ele><time>2026-03-27T14:19:21.999Z</time></trkpt><trkpt lat="45.60927506732724" lon="10.171709352530128"><ele>687.6666666666666</ele><time>2026-03-27T14:19:22.999Z</time></trkpt><trkpt lat="45.609186674008434" lon="10.17169660187696"><ele>686.3333333333333</ele><time>2026-03-27T14:19:23.999Z</time></trkpt><trkpt lat="45.60911159116484" lon="10.171673273364288"><ele>685.0</ele><time>2026-03-27T14:19:24.999Z</time></trkpt><trkpt lat="45.60904925182006" lon="10.171640151730601"><ele>683.6666666666666</ele><time>2026-03-27T14:19:25.999Z</time></trkpt><trkpt lat="45.608960374468666" lon="10.171567203340665"><ele>682.3333333333334</ele><time>2026-03-27T14:19:27.999Z</time></trkpt><trkpt lat="45.60888940379469" lon="10.171445444531795"><ele>681.0</ele><time>2026-03-27T14:19:29.999Z</time></trkpt><trkpt lat="45.60883630683797" lon="10.17133024237151"><ele>681.0</ele><time>2026-03-27T14:19:32Z</time></trkpt><trkpt lat="45.60880386300672" lon="10.17118520815983"><ele>681.0</ele><time>2026-03-27T14:19:34Z</time></trkpt><trkpt lat="45.60881072984839" lon="10.171013799322743"><ele>681.0</ele><time>2026-03-27T14:19:36Z</time></trkpt><trkpt lat="45.608818402623534" lon="10.170909481610028"><ele>681.0</ele><time>2026-03-27T14:19:37Z</time></trkpt><trkpt lat="45.608829905656115" lon="10.170798905811012"><ele>681.0</ele><time>2026-03-27T14:19:38Z</time></trkpt><trkpt lat="45.60884349562147" lon="10.170684247209499"><ele>680.3333333333334</ele><time>2026-03-27T14:19:39Z</time></trkpt><trkpt lat="45.608862588319404" lon="10.170567422597111"><ele>679.6666666666666</ele><time>2026-03-27T14:19:40Z</time></trkpt><trkpt lat="45.60888002060888" lon="10.170457378409518"><ele>679.0</ele><time>2026-03-27T14:19:41Z</time></trkpt><trkpt lat="45.60889076821568" lon="10.170354809359377"><ele>678.3333333333333</ele><time>2026-03-27T14:19:42Z</time></trkpt><trkpt lat="45.608906013542224" lon="10.170257052379664"><ele>677.6666666666666</ele><time>2026-03-27T14:19:43Z</time></trkpt><trkpt lat="45.60892089763774" lon="10.170148023188867"><ele>677.0</ele><time>2026-03-27T14:19:44Z</time></trkpt><trkpt lat="45.60893112528803" lon="10.170047707531808"><ele>677.0</ele><time>2026-03-27T14:19:45Z</time></trkpt><trkpt lat="45.60894648680519" lon="10.169938944531932"><ele>677.0</ele><time>2026-03-27T14:19:46Z</time></trkpt><trkpt lat="45.60895455873006" lon="10.16982950989526"><ele>677.0</ele><time>2026-03-27T14:19:47Z</time></trkpt><trkpt lat="45.60896382859397" lon="10.169697138275815"><ele>677.0</ele><time>2026-03-27T14:19:48Z</time></trkpt><trkpt lat="45.60896351420781" lon="10.169573423614244"><ele>677.0</ele><time>2026-03-27T14:19:49Z</time></trkpt><trkpt lat="45.6089595035588" lon="10.169475550111706"><ele>677.0</ele><time>2026-03-27T14:19:50Z</time></trkpt><trkpt lat="45.60895553203298" lon="10.169379256414404"><ele>675.3333333333333</ele><time>2026-03-27T14:19:51Z</time></trkpt><trkpt lat="45.60895014492387" lon="10.169281500651417"><ele>673.6666666666666</ele><time>2026-03-27T14:19:52Z</time></trkpt><trkpt lat="45.608923483046745" lon="10.169156894163224"><ele>672.0</ele><time>2026-03-27T14:19:54Z</time></trkpt><trkpt lat="45.60890155449166" lon="10.169052174496567"><ele>670.3333333333334</ele><time>2026-03-27T14:19:56Z</time></trkpt><trkpt lat="45.60891659742891" lon="10.168958984425725"><ele>668.6666666666667</ele><time>2026-03-27T14:19:58Z</time></trkpt><trkpt lat="45.608930297296844" lon="10.168864201006858"><ele>667.0</ele><time>2026-03-27T14:20:00Z</time></trkpt><trkpt lat="45.60891881794004" lon="10.16871836712149"><ele>664.0</ele><time>2026-03-27T14:20:02Z</time></trkpt><trkpt lat="45.60888330411573" lon="10.168631210429217"><ele>661.0</ele><time>2026-03-27T14:20:04Z</time></trkpt><trkpt lat="45.608860402698305" lon="10.168542684275998"><ele>658.0</ele><time>2026-03-27T14:20:06Z</time></trkpt><trkpt lat="45.60881035511153" lon="10.168672743362574"><ele>655.0</ele><time>2026-03-27T14:21:05Z</time></trkpt><trkpt lat="45.60879608594875" lon="10.168782750146873"><ele>652.0</ele><time>2026-03-27T14:21:07Z</time></trkpt><trkpt lat="45.60874220340972" lon="10.168912608626355"><ele>649.0</ele><time>2026-03-27T14:21:09Z</time></trkpt><trkpt lat="45.60869479714947" lon="10.168980104298702"><ele>643.6</ele><time>2026-03-27T14:21:10Z</time></trkpt><trkpt lat="45.60864694345464" lon="10.16909929298403"><ele>638.2</ele><time>2026-03-27T14:21:12Z</time></trkpt><trkpt lat="45.60863058438189" lon="10.169248999709598"><ele>632.8000000000001</ele><time>2026-03-27T14:21:14Z</time></trkpt><trkpt lat="45.60858491347626" lon="10.169368655593635"><ele>627.4000000000001</ele><time>2026-03-27T14:21:16Z</time></trkpt><trkpt lat="45.60853703047667" lon="10.169479900808188"><ele>622.0</ele><time>2026-03-27T14:21:18Z</time></trkpt><trkpt lat="45.60848474043502" lon="10.169607779271537"><ele>622.0</ele><time>2026-03-27T14:21:21Z</time></trkpt><trkpt lat="45.60844408705808" lon="10.16972675065352"><ele>622.0</ele><time>2026-03-27T14:21:23Z</time></trkpt><trkpt lat="45.608381276838415" lon="10.169795484939767"><ele>622.0</ele><time>2026-03-27T14:21:24Z</time></trkpt><trkpt lat="45.608303901674745" lon="10.16985138370873"><ele>622.0</ele><time>2026-03-27T14:21:25Z</time></trkpt><trkpt lat="45.60825527593628" lon="10.169916214365426"><ele>622.0</ele><time>2026-03-27T14:21:26Z</time></trkpt><trkpt lat="45.608234022803295" lon="10.17005053400966"><ele>622.0</ele><time>2026-03-27T14:21:28Z</time></trkpt><trkpt lat="45.60816078122942" lon="10.170175037441153"><ele>623.2857142857142</ele><time>2026-03-27T14:21:30Z</time></trkpt><trkpt lat="45.608106670532244" lon="10.17024743557843"><ele>624.5714285714287</ele><time>2026-03-27T14:21:31Z</time></trkpt><trkpt lat="45.608047813991035" lon="10.170325179405639"><ele>625.8571428571429</ele><time>2026-03-27T14:21:32Z</time></trkpt><trkpt lat="45.60800074350075" lon="10.17038561075006"><ele>627.1428571428571</ele><time>2026-03-27T14:21:33Z</time></trkpt><trkpt lat="45.60794373084815" lon="10.170448778503685"><ele>628.4285714285713</ele><time>2026-03-27T14:21:34Z</time></trkpt><trkpt lat="45.60789066393378" lon="10.170531233229042"><ele>629.7142857142858</ele><time>2026-03-27T14:21:35Z</time></trkpt><trkpt lat="45.607845550231474" lon="10.170600692618736"><ele>631.0</ele><time>2026-03-27T14:21:36Z</time></trkpt><trkpt lat="45.60779802432033" lon="10.170674415356824"><ele>626.8333333333334</ele><time>2026-03-27T14:21:37Z</time></trkpt><trkpt lat="45.60774990459698" lon="10.170744645166469"><ele>622.6666666666667</ele><time>2026-03-27T14:21:38Z</time></trkpt><trkpt lat="45.607704775956925" lon="10.170818178223893"><ele>618.5</ele><time>2026-03-27T14:21:39Z</time></trkpt><trkpt lat="45.60764634128609" lon="10.170916733313707"><ele>614.3333333333334</ele><time>2026-03-27T14:21:40Z</time></trkpt><trkpt lat="45.6075957313013" lon="10.170986273527394"><ele>610.1666666666666</ele><time>2026-03-27T14:21:41Z</time></trkpt><trkpt lat="45.6075396994385" lon="10.171074448008142"><ele>606.0</ele><time>2026-03-27T14:21:42Z</time></trkpt><trkpt lat="45.60744902714865" lon="10.17118083544379"><ele>606.0</ele><time>2026-03-27T14:21:44Z</time></trkpt><trkpt lat="45.60739320647339" lon="10.17124530001658"><ele>606.0</ele><time>2026-03-27T14:21:45Z</time></trkpt><trkpt lat="45.60730322059956" lon="10.17132613597412"><ele>606.0</ele><time>2026-03-27T14:21:47Z</time></trkpt><trkpt lat="45.607197493855125" lon="10.171419728404153"><ele>606.0</ele><time>2026-03-27T14:21:49Z</time></trkpt><trkpt lat="45.60713562250766" lon="10.171530436754303"><ele>606.0</ele><time>2026-03-27T14:21:51Z</time></trkpt><trkpt lat="45.60712204175159" lon="10.171650971344853"><ele>608.8</ele><time>2026-03-27T14:21:53Z</time></trkpt><trkpt lat="45.60706291066691" lon="10.171759680696713"><ele>611.6</ele><time>2026-03-27T14:21:55Z</time></trkpt><trkpt lat="45.60703145131295" lon="10.171878430548707"><ele>614.4</ele><time>2026-03-27T14:21:57Z</time></trkpt><trkpt lat="45.607006540334915" lon="10.172022554770125"><ele>617.2</ele><time>2026-03-27T14:21:59Z</time></trkpt><trkpt lat="45.60698145459331" lon="10.172139851906524"><ele>620.0</ele><time>2026-03-27T14:22:01Z</time></trkpt><trkpt lat="45.606971223613805" lon="10.172258735893045"><ele>613.0</ele><time>2026-03-27T14:22:03Z</time></trkpt><trkpt lat="45.606951880156906" lon="10.172393852229229"><ele>606.0</ele><time>2026-03-27T14:22:05Z</time></trkpt><trkpt lat="45.60694078402099" lon="10.172535150219762"><ele>599.0</ele><time>2026-03-27T14:22:07Z</time></trkpt><trkpt lat="45.606927401521084" lon="10.172680841928807"><ele>592.0</ele><time>2026-03-27T14:22:09Z</time></trkpt><trkpt lat="45.606928650336414" lon="10.172784175125768"><ele>585.0</ele><time>2026-03-27T14:22:10Z</time></trkpt><trkpt lat="45.60690975982296" lon="10.172954308656697"><ele>585.0</ele><time>2026-03-27T14:22:12Z</time></trkpt><trkpt lat="45.60690407602528" lon="10.173054607106746"><ele>585.0</ele><time>2026-03-27T14:22:13Z</time></trkpt><trkpt lat="45.60690646632428" lon="10.173158972293432"><ele>585.0</ele><time>2026-03-27T14:22:14Z</time></trkpt><trkpt lat="45.60690236741349" lon="10.17330642091075"><ele>585.0</ele><time>2026-03-27T14:22:16Z</time></trkpt><trkpt lat="45.60689550684222" lon="10.17342957497217"><ele>585.0</ele><time>2026-03-27T14:22:18Z</time></trkpt><trkpt lat="45.60692280988051" lon="10.173525034493743"><ele>585.0</ele><time>2026-03-27T14:22:20Z</time></trkpt><trkpt lat="45.60696560727423" lon="10.173642317537942"><ele>583.8</ele><time>2026-03-27T14:22:23Z</time></trkpt><trkpt lat="45.606939707778196" lon="10.173735222057509"><ele>582.6</ele><time>2026-03-27T14:22:25Z</time></trkpt><trkpt lat="45.60684355210703" lon="10.173801538104968"><ele>581.4</ele><time>2026-03-27T14:22:27Z</time></trkpt><trkpt lat="45.60673637448202" lon="10.173838453232634"><ele>580.2</ele><time>2026-03-27T14:22:29Z</time></trkpt><trkpt lat="45.60662801224073" lon="10.173882894057959"><ele>579.0</ele><time>2026-03-27T14:22:31Z</time></trkpt><trkpt lat="45.6065226222879" lon="10.173857351820045"><ele>579.0</ele><time>2026-03-27T14:22:33Z</time></trkpt><trkpt lat="45.60644372285593" lon="10.173784073499355"><ele>579.0</ele><time>2026-03-27T14:22:35Z</time></trkpt><trkpt lat="45.606375113943905" lon="10.173711450765156"><ele>579.0</ele><time>2026-03-27T14:22:37Z</time></trkpt><trkpt lat="45.6062856753118" lon="10.173655708982034"><ele>579.0</ele><time>2026-03-27T14:22:39Z</time></trkpt><trkpt lat="45.606187393295336" lon="10.173663179853156"><ele>579.0</ele><time>2026-03-27T14:22:41Z</time></trkpt><trkpt lat="45.60611846083108" lon="10.173634789919374"><ele>579.0</ele><time>2026-03-27T14:22:43Z</time></trkpt><trkpt lat="45.60603408425472" lon="10.173572552558719"><ele>574.2</ele><time>2026-03-27T14:22:45Z</time></trkpt><trkpt lat="45.60595493026864" lon="10.173470754499728"><ele>569.4</ele><time>2026-03-27T14:22:47Z</time></trkpt><trkpt lat="45.60590078967339" lon="10.173408830709821"><ele>564.6</ele><time>2026-03-27T14:22:48Z</time></trkpt><trkpt lat="45.605812699191816" lon="10.173309644495475"><ele>559.8</ele><time>2026-03-27T14:22:50Z</time></trkpt><trkpt lat="45.6057245388892" lon="10.173183534785819"><ele>555.0</ele><time>2026-03-27T14:22:52Z</time></trkpt><trkpt lat="45.60563201259236" lon="10.173066878530047"><ele>555.0</ele><time>2026-03-27T14:22:54Z</time></trkpt><trkpt lat="45.605591102435646" lon="10.17293432524784"><ele>555.0</ele><time>2026-03-27T14:22:56Z</time></trkpt><trkpt lat="45.605532922981716" lon="10.172841386735785"><ele>555.0</ele><time>2026-03-27T14:22:59Z</time></trkpt><trkpt lat="45.60545934322167" lon="10.172913314707879"><ele>555.0</ele><time>2026-03-27T14:23:01Z</time></trkpt><trkpt lat="45.60546541270933" lon="10.173053605963728"><ele>555.0</ele><time>2026-03-27T14:23:03Z</time></trkpt><trkpt lat="45.60548257648579" lon="10.173154140629428"><ele>555.0</ele><time>2026-03-27T14:23:05Z</time></trkpt><trkpt lat="45.605497154334984" lon="10.173282500494366"><ele>555.0</ele><time>2026-03-27T14:23:07Z</time></trkpt><trkpt lat="45.605482154166694" lon="10.173383413463553"><ele>555.0</ele><time>2026-03-27T14:23:09Z</time></trkpt><trkpt lat="45.60540297929774" lon="10.173459219167947"><ele>555.0</ele><time>2026-03-27T14:23:12Z</time></trkpt><trkpt lat="45.60531772636039" lon="10.173428228950572"><ele>555.0</ele><time>2026-03-27T14:23:14Z</time></trkpt><trkpt lat="45.605226856739996" lon="10.17335444106096"><ele>555.0</ele><time>2026-03-27T14:23:16Z</time></trkpt><trkpt lat="45.60513716065941" lon="10.173321457252325"><ele>549.6</ele><time>2026-03-27T14:23:18Z</time></trkpt><trkpt lat="45.60505155963727" lon="10.173272206722752"><ele>544.2</ele><time>2026-03-27T14:23:20Z</time></trkpt><trkpt lat="45.60495597837855" lon="10.173184084418498"><ele>538.8</ele><time>2026-03-27T14:23:22Z</time></trkpt><trkpt lat="45.60489594684341" lon="10.17308391744172"><ele>533.4</ele><time>2026-03-27T14:23:24Z</time></trkpt><trkpt lat="45.604805658817355" lon="10.173074274902243"><ele>528.0</ele><time>2026-03-27T14:23:26Z</time></trkpt><trkpt lat="45.60474202451481" lon="10.173080934948837"><ele>526.8333333333334</ele><time>2026-03-27T14:23:27Z</time></trkpt><trkpt lat="45.60465191687164" lon="10.173095768509352"><ele>525.6666666666666</ele><time>2026-03-27T14:23:29Z</time></trkpt><trkpt lat="45.60458315004174" lon="10.173038519501354"><ele>524.5</ele><time>2026-03-27T14:23:31.001Z</time></trkpt><trkpt lat="45.60459873409352" lon="10.17291942846658"><ele>523.3333333333333</ele><time>2026-03-27T14:23:33.001Z</time></trkpt><trkpt lat="45.604694200152615" lon="10.172852397812251"><ele>522.1666666666666</ele><time>2026-03-27T14:23:35.001Z</time></trkpt><trkpt lat="45.60472412862738" lon="10.172745407060477"><ele>521.0</ele><time>2026-03-27T14:23:37.001Z</time></trkpt><trkpt lat="45.604671862491024" lon="10.17265759824056"><ele>521.0</ele><time>2026-03-27T14:23:39.001Z</time></trkpt><trkpt lat="45.60453965520573" lon="10.172641648464825"><ele>521.0</ele><time>2026-03-27T14:23:41.001Z</time></trkpt><trkpt lat="45.60441628693509" lon="10.172645572263436"><ele>521.0</ele><time>2026-03-27T14:23:43.001Z</time></trkpt><trkpt lat="45.604352008778484" lon="10.172639972639338"><ele>521.0</ele><time>2026-03-27T14:23:44.001Z</time></trkpt><trkpt lat="45.60426291703443" lon="10.172666536329872"><ele>521.0</ele><time>2026-03-27T14:23:46.001Z</time></trkpt><trkpt lat="45.604144489165186" lon="10.172685836587181"><ele>517.6666666666666</ele><time>2026-03-27T14:23:48.001Z</time></trkpt><trkpt lat="45.604081205018936" lon="10.172689507033613"><ele>514.3333333333333</ele><time>2026-03-27T14:23:49.001Z</time></trkpt><trkpt lat="45.60400661317702" lon="10.172688167647605"><ele>511.0</ele><time>2026-03-27T14:23:50.001Z</time></trkpt><trkpt lat="45.60393883604395" lon="10.172684063538028"><ele>507.66666666666663</ele><time>2026-03-27T14:23:51.001Z</time></trkpt><trkpt lat="45.60385867070512" lon="10.172688575257375"><ele>504.3333333333333</ele><time>2026-03-27T14:23:52.001Z</time></trkpt><trkpt lat="45.60377769213221" lon="10.172684503609032"><ele>501.0</ele><time>2026-03-27T14:23:53.001Z</time></trkpt><trkpt lat="45.60369292117313" lon="10.172686368919281"><ele>500.14285714285717</ele><time>2026-03-27T14:23:54.001Z</time></trkpt><trkpt lat="45.60362188210691" lon="10.17267290757234"><ele>499.2857142857142</ele><time>2026-03-27T14:23:55.001Z</time></trkpt><trkpt lat="45.60354089208394" lon="10.172641280896942"><ele>498.4285714285714</ele><time>2026-03-27T14:23:56.001Z</time></trkpt><trkpt lat="45.60346716951025" lon="10.17262677215805"><ele>497.57142857142856</ele><time>2026-03-27T14:23:57.001Z</time></trkpt><trkpt lat="45.60339831065513" lon="10.172587525941157"><ele>496.71428571428567</ele><time>2026-03-27T14:23:58.001Z</time></trkpt><trkpt lat="45.60333311434929" lon="10.172564456703812"><ele>495.8571428571428</ele><time>2026-03-27T14:23:59.001Z</time></trkpt><trkpt lat="45.603263056630176" lon="10.172541396194497"><ele>494.99999999999994</ele><time>2026-03-27T14:24:00.001Z</time></trkpt><trkpt lat="45.60319997946602" lon="10.172496436157621"><ele>495.0</ele><time>2026-03-27T14:24:01.001Z</time></trkpt><trkpt lat="45.603070065121386" lon="10.172387304433396"><ele>495.0</ele><time>2026-03-27T14:24:03.001Z</time></trkpt><trkpt lat="45.60300005203048" lon="10.172330234990692"><ele>495.0</ele><time>2026-03-27T14:24:04.001Z</time></trkpt><trkpt lat="45.60294107360681" lon="10.172291917717901"><ele>495.0</ele><time>2026-03-27T14:24:05.001Z</time></trkpt><trkpt lat="45.602856536205095" lon="10.172211767491678"><ele>495.0</ele><time>2026-03-27T14:24:06.001Z</time></trkpt><trkpt lat="45.60276544959896" lon="10.172137853467172"><ele>492.0</ele><time>2026-03-27T14:24:07.001Z</time></trkpt><trkpt lat="45.602704306130406" lon="10.17209828084187"><ele>489.0</ele><time>2026-03-27T14:24:08.001Z</time></trkpt><trkpt lat="45.60262884796568" lon="10.172080549184304"><ele>486.0</ele><time>2026-03-27T14:24:09.001Z</time></trkpt><trkpt lat="45.6025492974437" lon="10.172029671040987"><ele>483.0</ele><time>2026-03-27T14:24:10.001Z</time></trkpt><trkpt lat="45.60245155423684" lon="10.171950064076807"><ele>480.0</ele><time>2026-03-27T14:24:12.001Z</time></trkpt><trkpt lat="45.602405735217694" lon="10.171883258951754"><ele>477.0</ele><time>2026-03-27T14:24:13.001Z</time></trkpt><trkpt lat="45.60235384028832" lon="10.171780542001388"><ele>477.0</ele><time>2026-03-27T14:24:14.001Z</time></trkpt><trkpt lat="45.602298072283475" lon="10.171709330902694"><ele>477.0</ele><time>2026-03-27T14:24:15.001Z</time></trkpt><trkpt lat="45.602240565488486" lon="10.171650708863591"><ele>477.0</ele><time>2026-03-27T14:24:16.001Z</time></trkpt><trkpt lat="45.602150396119036" lon="10.171577059601068"><ele>477.0</ele><time>2026-03-27T14:24:18.001Z</time></trkpt><trkpt lat="45.60208333728262" lon="10.171473964668005"><ele>477.0</ele><time>2026-03-27T14:24:20.001Z</time></trkpt><trkpt lat="45.60205022639035" lon="10.171355553636541"><ele>477.0</ele><time>2026-03-27T14:24:21.001Z</time></trkpt><trkpt lat="45.60197375709358" lon="10.17126866732292"><ele>474.8333333333333</ele><time>2026-03-27T14:24:22.001Z</time></trkpt><trkpt lat="45.601904610353166" lon="10.171192344743341"><ele>472.66666666666663</ele><time>2026-03-27T14:24:23.001Z</time></trkpt><trkpt lat="45.601840568186724" lon="10.17113075451048"><ele>470.5</ele><time>2026-03-27T14:24:24.001Z</time></trkpt><trkpt lat="45.60177086985746" lon="10.171065406299668"><ele>468.3333333333333</ele><time>2026-03-27T14:24:25.001Z</time></trkpt><trkpt lat="45.60172426893137" lon="10.170934000534285"><ele>466.16666666666663</ele><time>2026-03-27T14:24:26.001Z</time></trkpt><trkpt lat="45.60168242355447" lon="10.170827509958746"><ele>464.0</ele><time>2026-03-27T14:24:27.001Z</time></trkpt><trkpt lat="45.60157275471516" lon="10.17076331774973"><ele>464.00000000000006</ele><time>2026-03-27T14:24:29.001Z</time></trkpt><trkpt lat="45.60151331325252" lon="10.170730073762364"><ele>464.0</ele><time>2026-03-27T14:24:30.001Z</time></trkpt><trkpt lat="45.60145394362221" lon="10.170690925188119"><ele>464.00000000000006</ele><time>2026-03-27T14:24:31.001Z</time></trkpt><trkpt lat="45.60139259513628" lon="10.170663180631127"><ele>464.00000000000006</ele><time>2026-03-27T14:24:32.001Z</time></trkpt><trkpt lat="45.601325012440206" lon="10.17065486508999"><ele>464.0</ele><time>2026-03-27T14:24:33.001Z</time></trkpt><trkpt lat="45.60124221807537" lon="10.170678868271619"><ele>464.00000000000006</ele><time>2026-03-27T14:24:34.001Z</time></trkpt><trkpt lat="45.60118237189451" lon="10.170723833300553"><ele>464.00000000000006</ele><time>2026-03-27T14:24:35.001Z</time></trkpt><trkpt lat="45.601122548329066" lon="10.170786274523838"><ele>458.2</ele><time>2026-03-27T14:24:36.001Z</time></trkpt><trkpt lat="45.601070064723935" lon="10.170848054360253"><ele>452.4</ele><time>2026-03-27T14:24:37.001Z</time></trkpt><trkpt lat="45.60100291955579" lon="10.170966915120914"><ele>446.6</ele><time>2026-03-27T14:24:39.001Z</time></trkpt><trkpt lat="45.60096723673394" lon="10.171122615679442"><ele>440.8</ele><time>2026-03-27T14:24:41.001Z</time></trkpt><trkpt lat="45.600929675821135" lon="10.171243670446183"><ele>435.0</ele><time>2026-03-27T14:24:43.001Z</time></trkpt><trkpt lat="45.600899908924944" lon="10.171391005944526"><ele>435.0</ele><time>2026-03-27T14:24:45.001Z</time></trkpt><trkpt lat="45.600895069946596" lon="10.17148893419305"><ele>435.0</ele><time>2026-03-27T14:24:46.001Z</time></trkpt><trkpt lat="45.60090587071366" lon="10.171596166098304"><ele>435.0</ele><time>2026-03-27T14:24:47.001Z</time></trkpt><trkpt lat="45.60091124443119" lon="10.171698838322813"><ele>435.0</ele><time>2026-03-27T14:24:48.001Z</time></trkpt><trkpt lat="45.60091305640673" lon="10.171810780648672"><ele>435.0</ele><time>2026-03-27T14:24:49Z</time></trkpt><trkpt lat="45.600915381764366" lon="10.171923637671535"><ele>435.0</ele><time>2026-03-27T14:24:50Z</time></trkpt><trkpt lat="45.6009149461039" lon="10.172037354309241"><ele>436.0</ele><time>2026-03-27T14:24:51Z</time></trkpt><trkpt lat="45.60090429030294" lon="10.1721571560725"><ele>437.0</ele><time>2026-03-27T14:24:52Z</time></trkpt><trkpt lat="45.60088924485518" lon="10.172293174367729"><ele>438.0</ele><time>2026-03-27T14:24:53Z</time></trkpt><trkpt lat="45.60086464289712" lon="10.172431765836127"><ele>439.0</ele><time>2026-03-27T14:24:54Z</time></trkpt><trkpt lat="45.60083493861224" lon="10.1725800565811"><ele>440.0</ele><time>2026-03-27T14:24:55Z</time></trkpt><trkpt lat="45.60079739764802" lon="10.172732634150547"><ele>440.0</ele><time>2026-03-27T14:24:56Z</time></trkpt><trkpt lat="45.6007670933295" lon="10.172850157562362"><ele>440.0</ele><time>2026-03-27T14:24:57Z</time></trkpt><trkpt lat="45.60072658368248" lon="10.17299108803109"><ele>440.0</ele><time>2026-03-27T14:24:58Z</time></trkpt><trkpt lat="45.60068123971567" lon="10.173144749619532"><ele>440.0</ele><time>2026-03-27T14:24:59Z</time></trkpt><trkpt lat="45.6006239490979" lon="10.173354789773084"><ele>441.5</ele><time>2026-03-27T14:25:00Z</time></trkpt><trkpt lat="45.60053992413922" lon="10.17353459173853"><ele>443.0</ele><time>2026-03-27T14:25:01Z</time></trkpt><trkpt lat="45.600474589326765" lon="10.173718590042888"><ele>444.5</ele><time>2026-03-27T14:25:02Z</time></trkpt><trkpt lat="45.60041235086169" lon="10.173894978922439"><ele>446.0</ele><time>2026-03-27T14:25:03Z</time></trkpt><trkpt lat="45.60035337587962" lon="10.17406161549518"><ele>435.25</ele><time>2026-03-27T14:25:04Z</time></trkpt><trkpt lat="45.600299988347764" lon="10.174221060724323"><ele>424.5</ele><time>2026-03-27T14:25:05Z</time></trkpt><trkpt lat="45.600253178866794" lon="10.174375396341953"><ele>413.75</ele><time>2026-03-27T14:25:06Z</time></trkpt><trkpt lat="45.60022209958989" lon="10.174534278440781"><ele>403.0</ele><time>2026-03-27T14:25:07Z</time></trkpt><trkpt lat="45.600215339782224" lon="10.174692488454488"><ele>403.0</ele><time>2026-03-27T14:25:08Z</time></trkpt><trkpt lat="45.6002145938273" lon="10.17484242022705"><ele>403.0</ele><time>2026-03-27T14:25:09Z</time></trkpt><trkpt lat="45.60023755917071" lon="10.175012223311546"><ele>403.0</ele><time>2026-03-27T14:25:10Z</time></trkpt><trkpt lat="45.6002733670602" lon="10.175185649008549"><ele>403.0</ele><time>2026-03-27T14:25:11Z</time></trkpt><trkpt lat="45.600326730050675" lon="10.175327664910693"><ele>406.83333333333337</ele><time>2026-03-27T14:25:12Z</time></trkpt><trkpt lat="45.60038313698796" lon="10.175450415531595"><ele>410.6666666666667</ele><time>2026-03-27T14:25:13Z</time></trkpt><trkpt lat="45.600439202739544" lon="10.175543380232805"><ele>414.5</ele><time>2026-03-27T14:25:14Z</time></trkpt><trkpt lat="45.60048254859826" lon="10.17560993921391"><ele>418.33333333333337</ele><time>2026-03-27T14:25:15Z</time></trkpt><trkpt lat="45.60054527459863" lon="10.17568505588128"><ele>422.1666666666667</ele><time>2026-03-27T14:25:17Z</time></trkpt><trkpt lat="45.600503488966055" lon="10.17580228750896"><ele>426.0</ele><time>2026-03-27T14:25:20Z</time></trkpt><trkpt lat="45.60038500403936" lon="10.175685789201411"><ele>420.0</ele><time>2026-03-27T14:25:22Z</time></trkpt><trkpt lat="45.600321331074426" lon="10.175574282052688"><ele>414.0</ele><time>2026-03-27T14:25:23Z</time></trkpt><trkpt lat="45.600223462582775" lon="10.175437316197995"><ele>408.0</ele><time>2026-03-27T14:25:24Z</time></trkpt><trkpt lat="45.60013114036929" lon="10.1753223103594"><ele>402.0</ele><time>2026-03-27T14:25:25Z</time></trkpt><trkpt lat="45.600044801661106" lon="10.175192136133411"><ele>402.0</ele><time>2026-03-27T14:25:26Z</time></trkpt><trkpt lat="45.59996833144271" lon="10.175059957626948"><ele>402.0</ele><time>2026-03-27T14:25:27Z</time></trkpt><trkpt lat="45.59991549076582" lon="10.174914355217485"><ele>402.0</ele><time>2026-03-27T14:25:28Z</time></trkpt><trkpt lat="45.599883251317685" lon="10.174761859376709"><ele>402.0</ele><time>2026-03-27T14:25:29Z</time></trkpt><trkpt lat="45.59986565322316" lon="10.174601457396621"><ele>402.25</ele><time>2026-03-27T14:25:30Z</time></trkpt><trkpt lat="45.5998598771733" lon="10.174420568624871"><ele>402.5</ele><time>2026-03-27T14:25:31Z</time></trkpt><trkpt lat="45.59985986728673" lon="10.174247591561235"><ele>402.75</ele><time>2026-03-27T14:25:32Z</time></trkpt><trkpt lat="45.59986913756096" lon="10.174062535227403"><ele>403.0</ele><time>2026-03-27T14:25:33Z</time></trkpt><trkpt lat="45.59988717265663" lon="10.173854590728006"><ele>399.33333333333337</ele><time>2026-03-27T14:25:34Z</time></trkpt><trkpt lat="45.599917318628364" lon="10.17361319629989"><ele>395.66666666666663</ele><time>2026-03-27T14:25:35Z</time></trkpt><trkpt lat="45.5999458899927" lon="10.173376135865265"><ele>392.0</ele><time>2026-03-27T14:25:36Z</time></trkpt><trkpt lat="45.599970101815195" lon="10.173156360779599"><ele>389.0</ele><time>2026-03-27T14:25:37.002Z</time></trkpt><trkpt lat="45.599987736484614" lon="10.172947217231293"><ele>386.0</ele><time>2026-03-27T14:25:38.002Z</time></trkpt><trkpt lat="45.59999986360278" lon="10.172744338403223"><ele>383.0</ele><time>2026-03-27T14:25:39.002Z</time></trkpt><trkpt lat="45.60000775036976" lon="10.172547846439276"><ele>380.0</ele><time>2026-03-27T14:25:40.002Z</time></trkpt><trkpt lat="45.60001118064677" lon="10.17235080550027"><ele>379.6666666666667</ele><time>2026-03-27T14:25:41.002Z</time></trkpt><trkpt lat="45.59999960726548" lon="10.172138824356297"><ele>379.3333333333333</ele><time>2026-03-27T14:25:42.002Z</time></trkpt><trkpt lat="45.59996036236425" lon="10.171914244812092"><ele>379.0</ele><time>2026-03-27T14:25:43.002Z</time></trkpt><trkpt lat="45.5999054588619" lon="10.17170801618021"><ele>380.0</ele><time>2026-03-27T14:25:44.002Z</time></trkpt><trkpt lat="45.59985789609322" lon="10.171515285495369"><ele>381.0</ele><time>2026-03-27T14:25:45.002Z</time></trkpt><trkpt lat="45.599821267803485" lon="10.171317048631064"><ele>382.0</ele><time>2026-03-27T14:25:46.002Z</time></trkpt><trkpt lat="45.59980048360784" lon="10.171080367947733"><ele>382.0</ele><time>2026-03-27T14:25:47.002Z</time></trkpt><trkpt lat="45.59978227664101" lon="10.170823810554753"><ele>382.0</ele><time>2026-03-27T14:25:48.002Z</time></trkpt><trkpt lat="45.59976639015826" lon="10.170584651498288"><ele>382.0</ele><time>2026-03-27T14:25:49.002Z</time></trkpt><trkpt lat="45.599747483954346" lon="10.170352470663893"><ele>378.66666666666663</ele><time>2026-03-27T14:25:50.002Z</time></trkpt><trkpt lat="45.599732133072635" lon="10.170119107395772"><ele>375.3333333333333</ele><time>2026-03-27T14:25:51.002Z</time></trkpt><trkpt lat="45.59972608140942" lon="10.169885059265487"><ele>372.0</ele><time>2026-03-27T14:25:52.002Z</time></trkpt><trkpt lat="45.59972436522263" lon="10.169659791245929"><ele>369.3333333333333</ele><time>2026-03-27T14:25:53.002Z</time></trkpt><trkpt lat="45.599722897498246" lon="10.169416350395174"><ele>366.66666666666663</ele><time>2026-03-27T14:25:54.002Z</time></trkpt><trkpt lat="45.59972565839666" lon="10.169173308913376"><ele>364.0</ele><time>2026-03-27T14:25:55.001Z</time></trkpt><trkpt lat="45.599732686998955" lon="10.168938845811386"><ele>361.3333333333333</ele><time>2026-03-27T14:25:56.001Z</time></trkpt><trkpt lat="45.599735927909585" lon="10.168707359296754"><ele>358.6666666666667</ele><time>2026-03-27T14:25:57.001Z</time></trkpt><trkpt lat="45.599737478934" lon="10.168492393076859"><ele>356.0</ele><time>2026-03-27T14:25:58.001Z</time></trkpt><trkpt lat="45.59973546721783" lon="10.168277829265033"><ele>351.5</ele><time>2026-03-27T14:25:59.001Z</time></trkpt><trkpt lat="45.59974276496113" lon="10.16807480838926"><ele>347.0</ele><time>2026-03-27T14:26:00.001Z</time></trkpt><trkpt lat="45.59975978943823" lon="10.16787752376125"><ele>342.5</ele><time>2026-03-27T14:26:01.001Z</time></trkpt><trkpt lat="45.599779458786834" lon="10.167709817773467"><ele>338.0</ele><time>2026-03-27T14:26:02.001Z</time></trkpt><trkpt lat="45.599795087020496" lon="10.167582427043484"><ele>338.0</ele><time>2026-03-27T14:26:03.001Z</time></trkpt><trkpt lat="45.599817839463235" lon="10.167468540231008"><ele>338.0</ele><time>2026-03-27T14:26:04.001Z</time></trkpt><trkpt lat="45.59985008685246" lon="10.167377711448616"><ele>338.0</ele><time>2026-03-27T14:26:05.001Z</time></trkpt><trkpt lat="45.59985481472147" lon="10.167257446648081"><ele>338.0</ele><time>2026-03-27T14:26:07.001Z</time></trkpt><trkpt lat="45.59977116242806" lon="10.167254550711744"><ele>338.0</ele><time>2026-03-27T14:26:09.001Z</time></trkpt><trkpt lat="45.599718467007584" lon="10.167422231744439"><ele>338.0</ele><time>2026-03-27T14:26:11.001Z</time></trkpt><trkpt lat="45.59969546745416" lon="10.167542878835839"><ele>338.0</ele><time>2026-03-27T14:26:12.001Z</time></trkpt><trkpt lat="45.59965928082698" lon="10.16769768523723"><ele>338.0</ele><time>2026-03-27T14:26:13.001Z</time></trkpt><trkpt lat="45.5996157696031" lon="10.16786382473512"><ele>338.0</ele><time>2026-03-27T14:26:14.001Z</time></trkpt><trkpt lat="45.599566229400665" lon="10.168040685958779"><ele>342.5</ele><time>2026-03-27T14:26:15.001Z</time></trkpt><trkpt lat="45.599510359475246" lon="10.168205776652485"><ele>347.0</ele><time>2026-03-27T14:26:16.001Z</time></trkpt><trkpt lat="45.599457635168854" lon="10.168366980084462"><ele>351.5</ele><time>2026-03-27T14:26:17.001Z</time></trkpt><trkpt lat="45.5994038595124" lon="10.168526723398257"><ele>356.0</ele><time>2026-03-27T14:26:18.001Z</time></trkpt><trkpt lat="45.599350899559006" lon="10.168682915495896"><ele>345.25</ele><time>2026-03-27T14:26:19.001Z</time></trkpt><trkpt lat="45.59929944293263" lon="10.168838285306668"><ele>334.5</ele><time>2026-03-27T14:26:20.001Z</time></trkpt><trkpt lat="45.59925316025471" lon="10.16898335087786"><ele>323.75</ele><time>2026-03-27T14:26:21.001Z</time></trkpt><trkpt lat="45.5992019157715" lon="10.169138042577412"><ele>313.0</ele><time>2026-03-27T14:26:22.001Z</time></trkpt><trkpt lat="45.599153786573304" lon="10.169283237122775"><ele>313.0</ele><time>2026-03-27T14:26:23.001Z</time></trkpt><trkpt lat="45.59911586980816" lon="10.169433313633878"><ele>313.0</ele><time>2026-03-27T14:26:24.001Z</time></trkpt><trkpt lat="45.599086636542864" lon="10.169596328154235"><ele>313.0</ele><time>2026-03-27T14:26:25.001Z</time></trkpt><trkpt lat="45.59905909952107" lon="10.169763539004558"><ele>313.0</ele><time>2026-03-27T14:26:26.001Z</time></trkpt><trkpt lat="45.59903061844295" lon="10.169930249019167"><ele>314.2</ele><time>2026-03-27T14:26:27.001Z</time></trkpt><trkpt lat="45.599004223815044" lon="10.170093841481858"><ele>315.4</ele><time>2026-03-27T14:26:28.001Z</time></trkpt><trkpt lat="45.598978008264375" lon="10.17025362782473"><ele>316.59999999999997</ele><time>2026-03-27T14:26:29.001Z</time></trkpt><trkpt lat="45.598949703694736" lon="10.17040488078849"><ele>317.8</ele><time>2026-03-27T14:26:30.001Z</time></trkpt><trkpt lat="45.59892190604779" lon="10.170551779002777"><ele>319.0</ele><time>2026-03-27T14:26:31.001Z</time></trkpt><trkpt lat="45.59890186373101" lon="10.170694545790264"><ele>319.2</ele><time>2026-03-27T14:26:32.001Z</time></trkpt><trkpt lat="45.59888261690888" lon="10.170827678858013"><ele>319.4</ele><time>2026-03-27T14:26:33.001Z</time></trkpt><trkpt lat="45.59886370518085" lon="10.170966143300014"><ele>319.6</ele><time>2026-03-27T14:26:34.001Z</time></trkpt><trkpt lat="45.59885059234228" lon="10.171092650536716"><ele>319.8</ele><time>2026-03-27T14:26:35.001Z</time></trkpt><trkpt lat="45.59883579051908" lon="10.17122804967035"><ele>320.0</ele><time>2026-03-27T14:26:36.001Z</time></trkpt><trkpt lat="45.59880843030382" lon="10.171384712366205"><ele>321.0</ele><time>2026-03-27T14:26:37.001Z</time></trkpt><trkpt lat="45.59878672083006" lon="10.171550544183008"><ele>322.0</ele><time>2026-03-27T14:26:38.001Z</time></trkpt><trkpt lat="45.59875935228079" lon="10.17170056296579"><ele>323.0</ele><time>2026-03-27T14:26:39.001Z</time></trkpt><trkpt lat="45.59874641496275" lon="10.171849241990875"><ele>324.0</ele><time>2026-03-27T14:26:40.001Z</time></trkpt><trkpt lat="45.59873407220666" lon="10.171994905074463"><ele>325.0</ele><time>2026-03-27T14:26:41.001Z</time></trkpt><trkpt lat="45.598711689456685" lon="10.17212743699247"><ele>325.0</ele><time>2026-03-27T14:26:42.001Z</time></trkpt><trkpt lat="45.59867681748407" lon="10.172246710362433"><ele>325.0</ele><time>2026-03-27T14:26:43.001Z</time></trkpt><trkpt lat="45.59862290500314" lon="10.172365515499191"><ele>325.0</ele><time>2026-03-27T14:26:44.001Z</time></trkpt><trkpt lat="45.59857075324634" lon="10.172476044106764"><ele>325.0</ele><time>2026-03-27T14:26:45.001Z</time></trkpt><trkpt lat="45.59852339592977" lon="10.172585775519822"><ele>325.0</ele><time>2026-03-27T14:26:46.001Z</time></trkpt><trkpt lat="45.59847768466244" lon="10.172694590907225"><ele>318.3333333333333</ele><time>2026-03-27T14:26:47.001Z</time></trkpt><trkpt lat="45.59843692121954" lon="10.172797926403517"><ele>311.66666666666663</ele><time>2026-03-27T14:26:48.001Z</time></trkpt><trkpt lat="45.59840791223624" lon="10.172909117765728"><ele>305.0</ele><time>2026-03-27T14:26:49.001Z</time></trkpt><trkpt lat="45.59838885824394" lon="10.173023848254267"><ele>298.3333333333333</ele><time>2026-03-27T14:26:50.001Z</time></trkpt><trkpt lat="45.598378256749335" lon="10.173130152399086"><ele>291.6666666666667</ele><time>2026-03-27T14:26:51.001Z</time></trkpt><trkpt lat="45.5983696672104" lon="10.173266559735447"><ele>285.0</ele><time>2026-03-27T14:26:53.001Z</time></trkpt><trkpt lat="45.59831926994848" lon="10.173346474378025"><ele>285.0</ele><time>2026-03-27T14:26:55.001Z</time></trkpt><trkpt lat="45.598254044625634" lon="10.173316800342322"><ele>285.0</ele><time>2026-03-27T14:27:52.002Z</time></trkpt><trkpt lat="45.598267533269706" lon="10.173156373997108"><ele>285.0</ele><time>2026-03-27T14:27:54.002Z</time></trkpt><trkpt lat="45.59828648586682" lon="10.173020443894071"><ele>285.0</ele><time>2026-03-27T14:27:55.002Z</time></trkpt><trkpt lat="45.59829702423048" lon="10.172861793276068"><ele>285.0</ele><time>2026-03-27T14:27:56.002Z</time></trkpt><trkpt lat="45.59830431106546" lon="10.172672079094513"><ele>281.25</ele><time>2026-03-27T14:27:57.002Z</time></trkpt><trkpt lat="45.598315982696604" lon="10.1724902397217"><ele>277.5</ele><time>2026-03-27T14:27:58.001Z</time></trkpt><trkpt lat="45.598330372356756" lon="10.172300193881291"><ele>273.75</ele><time>2026-03-27T14:27:59.001Z</time></trkpt><trkpt lat="45.59833693533113" lon="10.172131231100558"><ele>270.0</ele><time>2026-03-27T14:28:00.001Z</time></trkpt><trkpt lat="45.598316197407286" lon="10.171957675031251"><ele>270.0</ele><time>2026-03-27T14:28:01.001Z</time></trkpt><trkpt lat="45.598319040620254" lon="10.171831755373113"><ele>270.0</ele><time>2026-03-27T14:28:02.001Z</time></trkpt><trkpt lat="45.598308330551774" lon="10.171708087589993"><ele>270.0</ele><time>2026-03-27T14:28:03.001Z</time></trkpt><trkpt lat="45.59827568995233" lon="10.171584992565993"><ele>270.0</ele><time>2026-03-27T14:28:04.001Z</time></trkpt><trkpt lat="45.598262406369685" lon="10.171496995750527"><ele>270.0</ele><time>2026-03-27T14:28:05.001Z</time></trkpt><trkpt lat="45.59827235131667" lon="10.171391343729377"><ele>270.0</ele><time>2026-03-27T14:28:06.001Z</time></trkpt><trkpt lat="45.598287900312165" lon="10.171286863512295"><ele>270.0</ele><time>2026-03-27T14:28:07.001Z</time></trkpt><trkpt lat="45.5982515355226" lon="10.17112109483841"><ele>270.0</ele><time>2026-03-27T14:28:09.001Z</time></trkpt><trkpt lat="45.59821707614072" lon="10.171015203288857"><ele>270.0</ele><time>2026-03-27T14:28:10.001Z</time></trkpt><trkpt lat="45.59819454617939" lon="10.17085626780748"><ele>270.0</ele><time>2026-03-27T14:28:11.001Z</time></trkpt><trkpt lat="45.59816323364653" lon="10.170677547863331"><ele>270.0</ele><time>2026-03-27T14:28:12.001Z</time></trkpt><trkpt lat="45.59823020149499" lon="10.170512291396108"><ele>269.0</ele><time>2026-03-27T14:28:13.001Z</time></trkpt><trkpt lat="45.59823442936218" lon="10.170294673397787"><ele>268.0</ele><time>2026-03-27T14:28:14.001Z</time></trkpt><trkpt lat="45.59824184691639" lon="10.170052091983294"><ele>267.0</ele><time>2026-03-27T14:28:15.001Z</time></trkpt><trkpt lat="45.59824558222848" lon="10.169803837087903"><ele>265.0</ele><time>2026-03-27T14:28:16.001Z</time></trkpt><trkpt lat="45.59825968530611" lon="10.169551693322223"><ele>263.0</ele><time>2026-03-27T14:28:17.001Z</time></trkpt><trkpt lat="45.59827411414344" lon="10.169308509917988"><ele>261.0</ele><time>2026-03-27T14:28:18.001Z</time></trkpt><trkpt lat="45.598296063795146" lon="10.169062225760264"><ele>257.0</ele><time>2026-03-27T14:28:19.001Z</time></trkpt><trkpt lat="45.59831854996556" lon="10.16881072040449"><ele>253.0</ele><time>2026-03-27T14:28:20.001Z</time></trkpt><trkpt lat="45.5983467872866" lon="10.168563946172275"><ele>249.0</ele><time>2026-03-27T14:28:21.001Z</time></trkpt><trkpt lat="45.598377944626485" lon="10.168318002131166"><ele>245.33333333333331</ele><time>2026-03-27T14:28:22.001Z</time></trkpt><trkpt lat="45.59841183004805" lon="10.168049632121845"><ele>241.66666666666666</ele><time>2026-03-27T14:28:23.001Z</time></trkpt><trkpt lat="45.598457269834284" lon="10.167732304861174"><ele>238.0</ele><time>2026-03-27T14:28:24.001Z</time></trkpt><trkpt lat="45.59850461388277" lon="10.167412556871884"><ele>236.0</ele><time>2026-03-27T14:28:25.001Z</time></trkpt><trkpt lat="45.598552039507275" lon="10.16708444355563"><ele>234.0</ele><time>2026-03-27T14:28:26.001Z</time></trkpt><trkpt lat="45.59860020843136" lon="10.1667758641312"><ele>232.33333333333331</ele><time>2026-03-27T14:28:27.001Z</time></trkpt><trkpt lat="45.59864342238404" lon="10.166496249021865"><ele>230.66666666666666</ele><time>2026-03-27T14:28:28.001Z</time></trkpt><trkpt lat="45.598683695962265" lon="10.166232994516516"><ele>229.0</ele><time>2026-03-27T14:28:29.001Z</time></trkpt><trkpt lat="45.59872414453488" lon="10.16596012281237"><ele>238.0</ele><time>2026-03-27T14:28:30.001Z</time></trkpt><trkpt lat="45.598754489158935" lon="10.165687231128445"><ele>247.0</ele><time>2026-03-27T14:28:31.001Z</time></trkpt><trkpt lat="45.59878420568917" lon="10.165435535697597"><ele>256.0</ele><time>2026-03-27T14:28:32.001Z</time></trkpt><trkpt lat="45.59881818593091" lon="10.16519672562893"><ele>256.0</ele><time>2026-03-27T14:28:33.001Z</time></trkpt><trkpt lat="45.59886178410414" lon="10.16495141477007"><ele>256.0</ele><time>2026-03-27T14:28:34.001Z</time></trkpt><trkpt lat="45.59890255683556" lon="10.164708684585671"><ele>256.0</ele><time>2026-03-27T14:28:35.001Z</time></trkpt><trkpt lat="45.59893404279388" lon="10.164464029395175"><ele>253.33333333333331</ele><time>2026-03-27T14:28:36.001Z</time></trkpt><trkpt lat="45.59896503001126" lon="10.164221175021721"><ele>250.66666666666669</ele><time>2026-03-27T14:28:37.001Z</time></trkpt><trkpt lat="45.59900068627542" lon="10.163974106864229"><ele>248.0</ele><time>2026-03-27T14:28:38.001Z</time></trkpt><trkpt lat="45.59904013596779" lon="10.163723035626985"><ele>245.66666666666669</ele><time>2026-03-27T14:28:39.001Z</time></trkpt><trkpt lat="45.599077971283194" lon="10.163469675706684"><ele>243.33333333333331</ele><time>2026-03-27T14:28:40.001Z</time></trkpt><trkpt lat="45.599118362050994" lon="10.163220486233094"><ele>241.0</ele><time>2026-03-27T14:28:41.001Z</time></trkpt><trkpt lat="45.5991563987467" lon="10.16297581710735"><ele>237.66666666666666</ele><time>2026-03-27T14:28:42.001Z</time></trkpt><trkpt lat="45.59919363874891" lon="10.162693902337363"><ele>234.33333333333331</ele><time>2026-03-27T14:28:43.001Z</time></trkpt><trkpt lat="45.59923000695979" lon="10.162428911333553"><ele>231.0</ele><time>2026-03-27T14:28:44.001Z</time></trkpt><trkpt lat="45.59925214294432" lon="10.162096152071502"><ele>228.33333333333331</ele><time>2026-03-27T14:28:45.001Z</time></trkpt><trkpt lat="45.599295096601914" lon="10.161953605626932"><ele>225.66666666666666</ele><time>2026-03-27T14:28:46.001Z</time></trkpt><trkpt lat="45.59932510987599" lon="10.16171778604872"><ele>223.0</ele><time>2026-03-27T14:28:47.001Z</time></trkpt><trkpt lat="45.5993591896752" lon="10.16146211328581"><ele>220.0</ele><time>2026-03-27T14:28:48.001Z</time></trkpt><trkpt lat="45.599393368352096" lon="10.161207130914713"><ele>217.0</ele><time>2026-03-27T14:28:49.001Z</time></trkpt><trkpt lat="45.59942630753325" lon="10.160974075672193"><ele>214.0</ele><time>2026-03-27T14:28:50.001Z</time></trkpt><trkpt lat="45.599457358983855" lon="10.160752904871304"><ele>215.66666666666666</ele><time>2026-03-27T14:28:51.001Z</time></trkpt><trkpt lat="45.599486310009034" lon="10.160529074476242"><ele>217.33333333333331</ele><time>2026-03-27T14:28:52.001Z</time></trkpt><trkpt lat="45.599506400688085" lon="10.160299492178618"><ele>219.0</ele><time>2026-03-27T14:28:53.001Z</time></trkpt><trkpt lat="45.59951786670936" lon="10.16007840322155"><ele>217.66666666666669</ele><time>2026-03-27T14:28:54Z</time></trkpt><trkpt lat="45.59952994130905" lon="10.159857489801396"><ele>216.33333333333334</ele><time>2026-03-27T14:28:55Z</time></trkpt><trkpt lat="45.59954354708545" lon="10.159612830080086"><ele>215.0</ele><time>2026-03-27T14:28:56Z</time></trkpt><trkpt lat="45.59955216495814" lon="10.159365021496802"><ele>215.0</ele><time>2026-03-27T14:28:57Z</time></trkpt><trkpt lat="45.59954974260355" lon="10.159103193051756"><ele>215.0</ele><time>2026-03-27T14:28:58Z</time></trkpt><trkpt lat="45.59953900122196" lon="10.158841705602425"><ele>215.0</ele><time>2026-03-27T14:28:59Z</time></trkpt><trkpt lat="45.59952499642844" lon="10.158598443514654"><ele>218.33333333333334</ele><time>2026-03-27T14:29:00Z</time></trkpt><trkpt lat="45.59950702676326" lon="10.158367716179594"><ele>221.66666666666669</ele><time>2026-03-27T14:29:01Z</time></trkpt><trkpt lat="45.599485984222184" lon="10.158142210509974"><ele>225.0</ele><time>2026-03-27T14:29:02Z</time></trkpt><trkpt lat="45.599457204554504" lon="10.157918148549388"><ele>219.66666666666669</ele><time>2026-03-27T14:29:03Z</time></trkpt><trkpt lat="45.59942585105104" lon="10.157686138863774"><ele>214.33333333333334</ele><time>2026-03-27T14:29:04Z</time></trkpt><trkpt lat="45.59939229157246" lon="10.157461481573922"><ele>209.0</ele><time>2026-03-27T14:29:05Z</time></trkpt><trkpt lat="45.59935313461543" lon="10.157234347228835"><ele>209.0</ele><time>2026-03-27T14:29:06Z</time></trkpt><trkpt lat="45.599318288678056" lon="10.157004897866148"><ele>209.0</ele><time>2026-03-27T14:29:07Z</time></trkpt><trkpt lat="45.59928892281467" lon="10.1567752106549"><ele>209.0</ele><time>2026-03-27T14:29:08Z</time></trkpt><trkpt lat="45.5992586332469" lon="10.156555135453697"><ele>209.0</ele><time>2026-03-27T14:29:09Z</time></trkpt><trkpt lat="45.5992304078617" lon="10.156338573650268"><ele>209.0</ele><time>2026-03-27T14:29:10Z</time></trkpt><trkpt lat="45.59920544612274" lon="10.15613257159042"><ele>209.0</ele><time>2026-03-27T14:29:11Z</time></trkpt><trkpt lat="45.599185516172035" lon="10.15594280130669"><ele>209.0</ele><time>2026-03-27T14:29:12Z</time></trkpt><trkpt lat="45.599166228877856" lon="10.155755463405542"><ele>207.25</ele><time>2026-03-27T14:29:13Z</time></trkpt><trkpt lat="45.599149454020186" lon="10.155576180657123"><ele>205.5</ele><time>2026-03-27T14:29:14Z</time></trkpt><trkpt lat="45.59913048376643" lon="10.155404869823727"><ele>203.75</ele><time>2026-03-27T14:29:15Z</time></trkpt><trkpt lat="45.599113957372495" lon="10.155240728696926"><ele>202.0</ele><time>2026-03-27T14:29:16Z</time></trkpt><trkpt lat="45.59910954233932" lon="10.155085475947656"><ele>202.0</ele><time>2026-03-27T14:29:17Z</time></trkpt><trkpt lat="45.59913373943203" lon="10.15494763080002"><ele>202.0</ele><time>2026-03-27T14:29:18Z</time></trkpt><trkpt lat="45.59919022091567" lon="10.15483137179336"><ele>202.0</ele><time>2026-03-27T14:29:19Z</time></trkpt><trkpt lat="45.59927480193366" lon="10.154733570222108"><ele>202.0</ele><time>2026-03-27T14:29:20Z</time></trkpt><trkpt lat="45.59938624160171" lon="10.154658555320038"><ele>202.0</ele><time>2026-03-27T14:29:21Z</time></trkpt><trkpt lat="45.599501274567366" lon="10.154580276639896"><ele>203.5</ele><time>2026-03-27T14:29:22Z</time></trkpt><trkpt lat="45.59960596134444" lon="10.154460553428766"><ele>205.0</ele><time>2026-03-27T14:29:23Z</time></trkpt><trkpt lat="45.59971629173662" lon="10.15430719833456"><ele>206.5</ele><time>2026-03-27T14:29:24Z</time></trkpt><trkpt lat="45.599806816851114" lon="10.154127164330395"><ele>208.0</ele><time>2026-03-27T14:29:25Z</time></trkpt><trkpt lat="45.59987477199639" lon="10.153917348589795"><ele>204.0</ele><time>2026-03-27T14:29:26Z</time></trkpt><trkpt lat="45.5999223059509" lon="10.153708012655486"><ele>200.0</ele><time>2026-03-27T14:29:27Z</time></trkpt><trkpt lat="45.599948492575834" lon="10.15349214661011"><ele>196.0</ele><time>2026-03-27T14:29:28Z</time></trkpt><trkpt lat="45.59997613453834" lon="10.15327040567296"><ele>196.5</ele><time>2026-03-27T14:29:29Z</time></trkpt><trkpt lat="45.60000554719298" lon="10.153069752600757"><ele>197.0</ele><time>2026-03-27T14:29:30Z</time></trkpt><trkpt lat="45.60003349486299" lon="10.15286509016556"><ele>197.5</ele><time>2026-03-27T14:29:31Z</time></trkpt><trkpt lat="45.60005666870938" lon="10.15266688791686"><ele>198.0</ele><time>2026-03-27T14:29:32Z</time></trkpt><trkpt lat="45.60008180199764" lon="10.152475130359939"><ele>198.4</ele><time>2026-03-27T14:29:33Z</time></trkpt><trkpt lat="45.6001068494178" lon="10.15229894738403"><ele>198.8</ele><time>2026-03-27T14:29:34Z</time></trkpt><trkpt lat="45.600127507056705" lon="10.152140043716368"><ele>199.2</ele><time>2026-03-27T14:29:35Z</time></trkpt><trkpt lat="45.60014626660582" lon="10.151999425871626"><ele>199.6</ele><time>2026-03-27T14:29:36Z</time></trkpt><trkpt lat="45.600175019936216" lon="10.151887289741016"><ele>200.0</ele><time>2026-03-27T14:29:37Z</time></trkpt><trkpt lat="45.60022181680485" lon="10.15179556542334"><ele>200.00000000000003</ele><time>2026-03-27T14:29:38Z</time></trkpt><trkpt lat="45.60028258282209" lon="10.151745636918488"><ele>200.0</ele><time>2026-03-27T14:29:39Z</time></trkpt><trkpt lat="45.60034620789952" lon="10.151726481310277"><ele>200.0</ele><time>2026-03-27T14:29:40Z</time></trkpt><trkpt lat="45.60047759436444" lon="10.151748413304633"><ele>200.0</ele><time>2026-03-27T14:29:42Z</time></trkpt><trkpt lat="45.60056413529519" lon="10.15177013879157"><ele>200.00000000000003</ele><time>2026-03-27T14:29:43Z</time></trkpt><trkpt lat="45.60065389766396" lon="10.151797733762093"><ele>200.0</ele><time>2026-03-27T14:29:44Z</time></trkpt><trkpt lat="45.60075575126409" lon="10.151812789549968"><ele>200.0</ele><time>2026-03-27T14:29:45Z</time></trkpt><trkpt lat="45.600862231947936" lon="10.151813399969843"><ele>200.0</ele><time>2026-03-27T14:29:46Z</time></trkpt><trkpt lat="45.601029410413126" lon="10.151793552106588"><ele>200.0</ele><time>2026-03-27T14:29:47Z</time></trkpt><trkpt lat="45.60116834250686" lon="10.151786978568653"><ele>200.0</ele><time>2026-03-27T14:29:48Z</time></trkpt><trkpt lat="45.60129402454692" lon="10.151774798300035"><ele>200.75</ele><time>2026-03-27T14:29:49.001Z</time></trkpt><trkpt lat="45.60141445580231" lon="10.15175878164024"><ele>201.5</ele><time>2026-03-27T14:29:50.001Z</time></trkpt><trkpt lat="45.60154071151574" lon="10.151751702208884"><ele>202.25</ele><time>2026-03-27T14:29:51.001Z</time></trkpt><trkpt lat="45.601662428015246" lon="10.151735304835114"><ele>203.0</ele><time>2026-03-27T14:29:52.001Z</time></trkpt><trkpt lat="45.601782764614654" lon="10.151719765126431"><ele>203.0</ele><time>2026-03-27T14:29:53.001Z</time></trkpt><trkpt lat="45.601904222253296" lon="10.151681738963067"><ele>203.0</ele><time>2026-03-27T14:29:54.001Z</time></trkpt><trkpt lat="45.60201728346574" lon="10.151652072904314"><ele>203.0</ele><time>2026-03-27T14:29:55.001Z</time></trkpt><trkpt lat="45.6021256449126" lon="10.151617847823715"><ele>203.0</ele><time>2026-03-27T14:29:56.001Z</time></trkpt><trkpt lat="45.602228811736666" lon="10.151591645666972"><ele>203.4</ele><time>2026-03-27T14:29:57.001Z</time></trkpt><trkpt lat="45.60233497643238" lon="10.151583953033017"><ele>203.8</ele><time>2026-03-27T14:29:58.001Z</time></trkpt><trkpt lat="45.60244352276258" lon="10.151589820093694"><ele>204.2</ele><time>2026-03-27T14:29:59.001Z</time></trkpt><trkpt lat="45.602546834048226" lon="10.151576892277305"><ele>204.6</ele><time>2026-03-27T14:30:00.001Z</time></trkpt><trkpt lat="45.60265404560777" lon="10.151524104515678"><ele>205.0</ele><time>2026-03-27T14:30:01.001Z</time></trkpt><trkpt lat="45.602755054400646" lon="10.151456364316617"><ele>206.4</ele><time>2026-03-27T14:30:02.001Z</time></trkpt><trkpt lat="45.6028491259398" lon="10.151415218236089"><ele>207.8</ele><time>2026-03-27T14:30:03.001Z</time></trkpt><trkpt lat="45.602944175336766" lon="10.151380798681293"><ele>209.2</ele><time>2026-03-27T14:30:04.001Z</time></trkpt><trkpt lat="45.603033604747004" lon="10.15134932656155"><ele>210.6</ele><time>2026-03-27T14:30:05.001Z</time></trkpt><trkpt lat="45.60312984132582" lon="10.151311139823017"><ele>212.0</ele><time>2026-03-27T14:30:06.001Z</time></trkpt><trkpt lat="45.60322841780053" lon="10.151272953802408"><ele>212.00000000000003</ele><time>2026-03-27T14:30:07.001Z</time></trkpt><trkpt lat="45.6033165740535" lon="10.151237717832075"><ele>212.0</ele><time>2026-03-27T14:30:08.001Z</time></trkpt><trkpt lat="45.60339107536896" lon="10.151200981667783"><ele>212.0</ele><time>2026-03-27T14:30:09.001Z</time></trkpt><trkpt lat="45.60346253515613" lon="10.151166969031504"><ele>212.0</ele><time>2026-03-27T14:30:10.001Z</time></trkpt><trkpt lat="45.60353241164939" lon="10.151139736340236"><ele>212.00000000000003</ele><time>2026-03-27T14:30:11.001Z</time></trkpt><trkpt lat="45.603602694235846" lon="10.151110394329734"><ele>212.0</ele><time>2026-03-27T14:30:12.001Z</time></trkpt><trkpt lat="45.60366787825187" lon="10.151083384412622"><ele>212.50000000000003</ele><time>2026-03-27T14:30:13.001Z</time></trkpt><trkpt lat="45.60372844859736" lon="10.151057668295078"><ele>213.0</ele><time>2026-03-27T14:30:14.001Z</time></trkpt><trkpt lat="45.603818602273506" lon="10.151017098960867"><ele>213.5</ele><time>2026-03-27T14:30:16.001Z</time></trkpt><trkpt lat="45.60391216014809" lon="10.150968555081025"><ele>214.0</ele><time>2026-03-27T14:30:18.001Z</time></trkpt><trkpt lat="45.603974535050725" lon="10.150951698782135"><ele>214.50000000000003</ele><time>2026-03-27T14:30:19.001Z</time></trkpt><trkpt lat="45.60404532867178" lon="10.15092465863749"><ele>215.0</ele><time>2026-03-27T14:30:20.001Z</time></trkpt><trkpt lat="45.604125467979905" lon="10.150894725907529"><ele>215.00000000000003</ele><time>2026-03-27T14:30:21.001Z</time></trkpt><trkpt lat="45.60420636906534" lon="10.150863623679363"><ele>215.0</ele><time>2026-03-27T14:30:22.001Z</time></trkpt><trkpt lat="45.60429678035352" lon="10.15082601192605"><ele>215.0</ele><time>2026-03-27T14:30:23.001Z</time></trkpt><trkpt lat="45.60438301145919" lon="10.150801831994475"><ele>215.0</ele><time>2026-03-27T14:30:24.001Z</time></trkpt><trkpt lat="45.6044728409554" lon="10.150789165876093"><ele>215.00000000000003</ele><time>2026-03-27T14:30:25.001Z</time></trkpt><trkpt lat="45.6045591193809" lon="10.150791459321622"><ele>215.0</ele><time>2026-03-27T14:30:26.001Z</time></trkpt><trkpt lat="45.60465177473548" lon="10.150804883667398"><ele>215.6</ele><time>2026-03-27T14:30:27.001Z</time></trkpt><trkpt lat="45.604750513483054" lon="10.150808824927257"><ele>216.2</ele><time>2026-03-27T14:30:28.001Z</time></trkpt><trkpt lat="45.60485041727478" lon="10.150816167907502"><ele>216.8</ele><time>2026-03-27T14:30:29.001Z</time></trkpt><trkpt lat="45.604957846088446" lon="10.150833742725885"><ele>217.4</ele><time>2026-03-27T14:30:30.001Z</time></trkpt><trkpt lat="45.60507421787462" lon="10.150830443152163"><ele>218.0</ele><time>2026-03-27T14:30:31.001Z</time></trkpt><trkpt lat="45.60518801844894" lon="10.150819356890127"><ele>218.0</ele><time>2026-03-27T14:30:32.001Z</time></trkpt><trkpt lat="45.60529161141733" lon="10.150818375319625"><ele>218.0</ele><time>2026-03-27T14:30:33.001Z</time></trkpt><trkpt lat="45.60539587845149" lon="10.15083577297831"><ele>218.0</ele><time>2026-03-27T14:30:34.001Z</time></trkpt><trkpt lat="45.60549985662406" lon="10.150868614237368"><ele>218.0</ele><time>2026-03-27T14:30:35.001Z</time></trkpt><trkpt lat="45.605597019251334" lon="10.15089682706091"><ele>218.0</ele><time>2026-03-27T14:30:36.001Z</time></trkpt><trkpt lat="45.60568295002101" lon="10.150925957744855"><ele>217.8</ele><time>2026-03-27T14:30:37Z</time></trkpt><trkpt lat="45.60576450185343" lon="10.150937510230522"><ele>217.60000000000002</ele><time>2026-03-27T14:30:38Z</time></trkpt><trkpt lat="45.60585869834353" lon="10.150917613469739"><ele>217.39999999999998</ele><time>2026-03-27T14:30:39Z</time></trkpt><trkpt lat="45.6059462800356" lon="10.150840035896442"><ele>217.2</ele><time>2026-03-27T14:30:40Z</time></trkpt><trkpt lat="45.606013532985635" lon="10.150749608630566"><ele>217.0</ele><time>2026-03-27T14:30:41Z</time></trkpt><trkpt lat="45.606063349573695" lon="10.150664993376253"><ele>216.99999999999997</ele><time>2026-03-27T14:30:42Z</time></trkpt><trkpt lat="45.60611813166491" lon="10.150597430135292"><ele>217.0</ele><time>2026-03-27T14:30:43Z</time></trkpt><trkpt lat="45.60617349122138" lon="10.15054210342839"><ele>217.0</ele><time>2026-03-27T14:30:44Z</time></trkpt><trkpt lat="45.60624964996789" lon="10.150512473894958"><ele>217.0</ele><time>2026-03-27T14:30:45Z</time></trkpt><trkpt lat="45.60634743867234" lon="10.15052141625396"><ele>216.99999999999997</ele><time>2026-03-27T14:30:46Z</time></trkpt><trkpt lat="45.60644456418973" lon="10.150550139575978"><ele>217.0</ele><time>2026-03-27T14:30:47Z</time></trkpt><trkpt lat="45.6065469470207" lon="10.150586768689832"><ele>218.0</ele><time>2026-03-27T14:30:48Z</time></trkpt><trkpt lat="45.60664692812465" lon="10.150634584607376"><ele>219.0</ele><time>2026-03-27T14:30:49Z</time></trkpt><trkpt lat="45.6067355067905" lon="10.150670824412863"><ele>220.0</ele><time>2026-03-27T14:30:50Z</time></trkpt><trkpt lat="45.606816312294335" lon="10.150685101799512"><ele>221.0</ele><time>2026-03-27T14:30:51Z</time></trkpt><trkpt lat="45.60692024505718" lon="10.150684482331807"><ele>222.0</ele><time>2026-03-27T14:30:52Z</time></trkpt><trkpt lat="45.607027963061796" lon="10.150666924850317"><ele>222.8</ele><time>2026-03-27T14:30:53Z</time></trkpt><trkpt lat="45.60712202070063" lon="10.150634970258782"><ele>223.6</ele><time>2026-03-27T14:30:54Z</time></trkpt><trkpt lat="45.607213148127066" lon="10.15060316248025"><ele>224.40000000000003</ele><time>2026-03-27T14:30:55Z</time></trkpt><trkpt lat="45.607296283317496" lon="10.15060946525804"><ele>225.20000000000002</ele><time>2026-03-27T14:30:56Z</time></trkpt><trkpt lat="45.60739964805746" lon="10.150642977972778"><ele>226.0</ele><time>2026-03-27T14:30:57Z</time></trkpt><trkpt lat="45.607512132569845" lon="10.150716201186595"><ele>226.0</ele><time>2026-03-27T14:30:58Z</time></trkpt><trkpt lat="45.60761342597778" lon="10.150779458623418"><ele>226.00000000000003</ele><time>2026-03-27T14:30:59Z</time></trkpt><trkpt lat="45.60772089805104" lon="10.150834229565389"><ele>226.00000000000003</ele><time>2026-03-27T14:31:00Z</time></trkpt><trkpt lat="45.607831198612786" lon="10.15084749543823"><ele>226.0</ele><time>2026-03-27T14:31:01Z</time></trkpt><trkpt lat="45.607932464166225" lon="10.15086210356016"><ele>226.0</ele><time>2026-03-27T14:31:02Z</time></trkpt><trkpt lat="45.6080345102253" lon="10.150892964613101"><ele>226.75</ele><time>2026-03-27T14:31:03Z</time></trkpt><trkpt lat="45.60813886935802" lon="10.150924815227947"><ele>227.5</ele><time>2026-03-27T14:31:04Z</time></trkpt><trkpt lat="45.60824603350359" lon="10.150951472514844"><ele>228.25</ele><time>2026-03-27T14:31:05Z</time></trkpt><trkpt lat="45.60836006421492" lon="10.150957970976968"><ele>229.0</ele><time>2026-03-27T14:31:06Z</time></trkpt><trkpt lat="45.60848393268883" lon="10.15096944634744"><ele>229.0</ele><time>2026-03-27T14:31:07Z</time></trkpt><trkpt lat="45.608608796313966" lon="10.150988671357497"><ele>229.0</ele><time>2026-03-27T14:31:08Z</time></trkpt><trkpt lat="45.608731993981735" lon="10.151007153404953"><ele>229.0</ele><time>2026-03-27T14:31:09Z</time></trkpt><trkpt lat="45.608846526067644" lon="10.151014292562095"><ele>229.0</ele><time>2026-03-27T14:31:10Z</time></trkpt><trkpt lat="45.60896569845745" lon="10.151022505168738"><ele>230.0</ele><time>2026-03-27T14:31:11Z</time></trkpt><trkpt lat="45.60910556657451" lon="10.151011625118322"><ele>231.0</ele><time>2026-03-27T14:31:12Z</time></trkpt><trkpt lat="45.609254115017194" lon="10.150989228637858"><ele>232.0</ele><time>2026-03-27T14:31:13Z</time></trkpt><trkpt lat="45.60941519987516" lon="10.150957477242315"><ele>232.66666666666666</ele><time>2026-03-27T14:31:14Z</time></trkpt><trkpt lat="45.60958188840406" lon="10.150918558970586"><ele>233.33333333333331</ele><time>2026-03-27T14:31:15Z</time></trkpt><trkpt lat="45.60975393216147" lon="10.150884195659929"><ele>234.0</ele><time>2026-03-27T14:31:16Z</time></trkpt><trkpt lat="45.60992525515278" lon="10.150856131523241"><ele>234.0</ele><time>2026-03-27T14:31:17Z</time></trkpt><trkpt lat="45.61009248047134" lon="10.150853379018537"><ele>234.0</ele><time>2026-03-27T14:31:18Z</time></trkpt><trkpt lat="45.610277523000285" lon="10.150873400672534"><ele>234.0</ele><time>2026-03-27T14:31:19Z</time></trkpt><trkpt lat="45.61046022601727" lon="10.150930681095268"><ele>236.0</ele><time>2026-03-27T14:31:20Z</time></trkpt><trkpt lat="45.610637811260574" lon="10.15097929791464"><ele>238.0</ele><time>2026-03-27T14:31:21Z</time></trkpt><trkpt lat="45.61080417025596" lon="10.151015693566638"><ele>240.0</ele><time>2026-03-27T14:31:22Z</time></trkpt><trkpt lat="45.61098386801204" lon="10.151024446724087"><ele>242.0</ele><time>2026-03-27T14:31:23Z</time></trkpt><trkpt lat="45.61119225898962" lon="10.150940921504644"><ele>244.0</ele><time>2026-03-27T14:31:24Z</time></trkpt><trkpt lat="45.61142290807252" lon="10.150850162866398"><ele>244.0</ele><time>2026-03-27T14:31:25Z</time></trkpt><trkpt lat="45.61165444791884" lon="10.150799779976207"><ele>244.0</ele><time>2026-03-27T14:31:26Z</time></trkpt><trkpt lat="45.61192278278739" lon="10.150779595530544"><ele>246.0</ele><time>2026-03-27T14:31:27Z</time></trkpt><trkpt lat="45.612163155197244" lon="10.150784609026488"><ele>248.0</ele><time>2026-03-27T14:31:28Z</time></trkpt><trkpt lat="45.61228710444711" lon="10.150746813620138"><ele>250.0</ele><time>2026-03-27T14:31:29Z</time></trkpt><trkpt lat="45.61245732435608" lon="10.150672395940141"><ele>253.0</ele><time>2026-03-27T14:31:30Z</time></trkpt><trkpt lat="45.61260676756642" lon="10.150593659031095"><ele>256.0</ele><time>2026-03-27T14:31:31Z</time></trkpt><trkpt lat="45.61276920028496" lon="10.150572960476966"><ele>259.0</ele><time>2026-03-27T14:31:32Z</time></trkpt><trkpt lat="45.61292509525684" lon="10.150629799597846"><ele>259.0</ele><time>2026-03-27T14:31:33Z</time></trkpt><trkpt lat="45.613067703565456" lon="10.150651819910472"><ele>259.0</ele><time>2026-03-27T14:31:34Z</time></trkpt><trkpt lat="45.61319326028034" lon="10.150701928008383"><ele>259.0</ele><time>2026-03-27T14:31:35Z</time></trkpt><trkpt lat="45.613324185654434" lon="10.150715464952889"><ele>259.0</ele><time>2026-03-27T14:31:36Z</time></trkpt><trkpt lat="45.61347003395678" lon="10.15067474696177"><ele>259.0</ele><time>2026-03-27T14:31:37Z</time></trkpt><trkpt lat="45.613617580725375" lon="10.150595300048538"><ele>259.0</ele><time>2026-03-27T14:31:38Z</time></trkpt><trkpt lat="45.61375226413972" lon="10.150512226505857"><ele>259.0</ele><time>2026-03-27T14:31:39Z</time></trkpt><trkpt lat="45.61389570522452" lon="10.150474697475593"><ele>264.0</ele><time>2026-03-27T14:31:40Z</time></trkpt><trkpt lat="45.61407653484352" lon="10.15049450353234"><ele>269.0</ele><time>2026-03-27T14:31:41Z</time></trkpt><trkpt lat="45.61429238753745" lon="10.15054893850547"><ele>274.0</ele><time>2026-03-27T14:31:42Z</time></trkpt><trkpt lat="45.61450170290725" lon="10.150621464239574"><ele>277.3333333333333</ele><time>2026-03-27T14:31:43Z</time></trkpt><trkpt lat="45.61467579124079" lon="10.150651983018616"><ele>280.6666666666667</ele><time>2026-03-27T14:31:44Z</time></trkpt><trkpt lat="45.61483483180131" lon="10.15070404665756"><ele>284.0</ele><time>2026-03-27T14:31:45Z</time></trkpt><trkpt lat="45.6150047972553" lon="10.15069203971047"><ele>284.0</ele><time>2026-03-27T14:31:46Z</time></trkpt><trkpt lat="45.61518682624699" lon="10.1506873967559"><ele>284.0</ele><time>2026-03-27T14:31:47Z</time></trkpt><trkpt lat="45.61535724813799" lon="10.150672786313146"><ele>284.0</ele><time>2026-03-27T14:31:48Z</time></trkpt><trkpt lat="45.61550980934019" lon="10.150647341475093"><ele>284.75</ele><time>2026-03-27T14:31:49Z</time></trkpt><trkpt lat="45.61564952294823" lon="10.150646794494527"><ele>285.5</ele><time>2026-03-27T14:31:50Z</time></trkpt><trkpt lat="45.61578763185389" lon="10.15063362629021"><ele>286.25</ele><time>2026-03-27T14:31:51Z</time></trkpt><trkpt lat="45.615917867150046" lon="10.150621956150392"><ele>287.0</ele><time>2026-03-27T14:31:52Z</time></trkpt><trkpt lat="45.616033046227734" lon="10.150612115625204"><ele>287.0</ele><time>2026-03-27T14:31:53Z</time></trkpt><trkpt lat="45.61613904780472" lon="10.15060316407104"><ele>287.0</ele><time>2026-03-27T14:31:54.001Z</time></trkpt><trkpt lat="45.61624440268385" lon="10.150586835057602"><ele>287.0</ele><time>2026-03-27T14:31:55.001Z</time></trkpt><trkpt lat="45.61635818502117" lon="10.150601075843843"><ele>287.0</ele><time>2026-03-27T14:31:56.001Z</time></trkpt><trkpt lat="45.616480805499656" lon="10.150643419887219"><ele>283.6666666666667</ele><time>2026-03-27T14:31:57.001Z</time></trkpt><trkpt lat="45.61661351727542" lon="10.150721153611556"><ele>280.3333333333333</ele><time>2026-03-27T14:31:58.001Z</time></trkpt><trkpt lat="45.61674502152397" lon="10.150831517114435"><ele>277.0</ele><time>2026-03-27T14:31:59.001Z</time></trkpt><trkpt lat="45.61688650194666" lon="10.15094834070581"><ele>283.66666666666663</ele><time>2026-03-27T14:32:00.001Z</time></trkpt><trkpt lat="45.61707209827112" lon="10.151072887779875"><ele>290.3333333333333</ele><time>2026-03-27T14:32:01.001Z</time></trkpt><trkpt lat="45.61721861765813" lon="10.151156715950334"><ele>297.0</ele><time>2026-03-27T14:32:02.001Z</time></trkpt><trkpt lat="45.61735814323584" lon="10.151213474195503"><ele>297.0</ele><time>2026-03-27T14:32:03.001Z</time></trkpt><trkpt lat="45.61750289433612" lon="10.151267509606079"><ele>297.0</ele><time>2026-03-27T14:32:04.001Z</time></trkpt><trkpt lat="45.61765297176856" lon="10.151317704968783"><ele>297.0</ele><time>2026-03-27T14:32:05.001Z</time></trkpt><trkpt lat="45.61778405107567" lon="10.15135821934125"><ele>297.0</ele><time>2026-03-27T14:32:06.001Z</time></trkpt><trkpt lat="45.61790366340754" lon="10.151394518605098"><ele>295.0</ele><time>2026-03-27T14:32:07.001Z</time></trkpt><trkpt lat="45.61803177999618" lon="10.151420958580813"><ele>293.0</ele><time>2026-03-27T14:32:08.001Z</time></trkpt><trkpt lat="45.618147206981035" lon="10.151455243286396"><ele>291.0</ele><time>2026-03-27T14:32:09.001Z</time></trkpt><trkpt lat="45.6182543855413" lon="10.151488370703426"><ele>289.0</ele><time>2026-03-27T14:32:10.001Z</time></trkpt><trkpt lat="45.61835932725634" lon="10.151550327236274"><ele>289.0</ele><time>2026-03-27T14:32:11.001Z</time></trkpt><trkpt lat="45.61846221678502" lon="10.151663862109965"><ele>289.0</ele><time>2026-03-27T14:32:12.001Z</time></trkpt><trkpt lat="45.618555307959454" lon="10.151800928911811"><ele>289.0</ele><time>2026-03-27T14:32:13.001Z</time></trkpt><trkpt lat="45.61863694093294" lon="10.151910786000606"><ele>289.0</ele><time>2026-03-27T14:32:14.001Z</time></trkpt><trkpt lat="45.6187084551767" lon="10.15199115865681"><ele>290.66666666666663</ele><time>2026-03-27T14:32:15.001Z</time></trkpt><trkpt lat="45.61875916449423" lon="10.152056245811787"><ele>292.3333333333333</ele><time>2026-03-27T14:32:16.001Z</time></trkpt><trkpt lat="45.61875602550489" lon="10.152156539849774"><ele>294.0</ele><time>2026-03-27T14:32:18.001Z</time></trkpt><trkpt lat="45.618729340001245" lon="10.152276858270628"><ele>295.6666666666667</ele><time>2026-03-27T14:32:56Z</time></trkpt><trkpt lat="45.61871493014857" lon="10.152434375907283"><ele>297.33333333333337</ele><time>2026-03-27T14:32:58Z</time></trkpt><trkpt lat="45.61870708081241" lon="10.152532993712281"><ele>299.0</ele><time>2026-03-27T14:32:59Z</time></trkpt><trkpt lat="45.61870764660644" lon="10.152623872683673"><ele>299.0</ele><time>2026-03-27T14:33:00Z</time></trkpt><trkpt lat="45.618709302946996" lon="10.152719485341258"><ele>299.0</ele><time>2026-03-27T14:33:01Z</time></trkpt><trkpt lat="45.618674829240746" lon="10.152906158480043"><ele>299.0</ele><time>2026-03-27T14:33:02Z</time></trkpt><trkpt lat="45.618665403335385" lon="10.153077540101666"><ele>299.0</ele><time>2026-03-27T14:33:03Z</time></trkpt><trkpt lat="45.61866320833637" lon="10.153274400849984"><ele>302.25</ele><time>2026-03-27T14:33:04Z</time></trkpt><trkpt lat="45.61866819647781" lon="10.15346176014482"><ele>305.5</ele><time>2026-03-27T14:33:05Z</time></trkpt><trkpt lat="45.61866399995704" lon="10.153626346782188"><ele>308.75</ele><time>2026-03-27T14:33:06Z</time></trkpt><trkpt lat="45.618630578795596" lon="10.15378431951481"><ele>312.0</ele><time>2026-03-27T14:33:07Z</time></trkpt><trkpt lat="45.61857670418531" lon="10.153893839710392"><ele>312.0</ele><time>2026-03-27T14:33:08Z</time></trkpt><trkpt lat="45.618536419325444" lon="10.153991405778198"><ele>312.0</ele><time>2026-03-27T14:33:09Z</time></trkpt><trkpt lat="45.61858806264392" lon="10.154104468233834"><ele>312.0</ele><time>2026-03-27T14:33:11Z</time></trkpt><trkpt lat="45.61866755462684" lon="10.154070671111352"><ele>312.0</ele><time>2026-03-27T14:33:12Z</time></trkpt><trkpt lat="45.61874561616227" lon="10.153965394053474"><ele>312.0</ele><time>2026-03-27T14:33:13Z</time></trkpt><trkpt lat="45.61878478212902" lon="10.153813055726816"><ele>312.0</ele><time>2026-03-27T14:33:14Z</time></trkpt><trkpt lat="45.6188443778474" lon="10.153723431706059"><ele>312.0</ele><time>2026-03-27T14:33:15Z</time></trkpt><trkpt lat="45.61895322757566" lon="10.15365355045445"><ele>312.0</ele><time>2026-03-27T14:33:16Z</time></trkpt><trkpt lat="45.61910275554194" lon="10.15359265794259"><ele>312.0</ele><time>2026-03-27T14:33:17Z</time></trkpt><trkpt lat="45.619251388036794" lon="10.153546862630247"><ele>312.0</ele><time>2026-03-27T14:33:18Z</time></trkpt><trkpt lat="45.619387789080804" lon="10.153500442283052"><ele>312.0</ele><time>2026-03-27T14:33:19Z</time></trkpt><trkpt lat="45.61953264734595" lon="10.153489383310786"><ele>312.0</ele><time>2026-03-27T14:33:20Z</time></trkpt><trkpt lat="45.619679923725414" lon="10.153518690795234"><ele>312.0</ele><time>2026-03-27T14:33:21Z</time></trkpt><trkpt lat="45.6198015319059" lon="10.153536985706893"><ele>310.0</ele><time>2026-03-27T14:33:22Z</time></trkpt><trkpt lat="45.61992386025549" lon="10.153464875654793"><ele>308.0</ele><time>2026-03-27T14:33:23Z</time></trkpt><trkpt lat="45.62007450541057" lon="10.153308087448275"><ele>306.0</ele><time>2026-03-27T14:33:24Z</time></trkpt><trkpt lat="45.62021523769869" lon="10.153186434753643"><ele>310.25</ele><time>2026-03-27T14:33:25Z</time></trkpt><trkpt lat="45.620348799090436" lon="10.153118885341334"><ele>314.5</ele><time>2026-03-27T14:33:26Z</time></trkpt><trkpt lat="45.620467779676574" lon="10.153079946798231"><ele>318.75</ele><time>2026-03-27T14:33:27Z</time></trkpt><trkpt lat="45.62056081405098" lon="10.153058334466024"><ele>323.0</ele><time>2026-03-27T14:33:28Z</time></trkpt><trkpt lat="45.62065196841293" lon="10.15299916340144"><ele>323.0</ele><time>2026-03-27T14:33:29Z</time></trkpt><trkpt lat="45.62072782589375" lon="10.15295814263457"><ele>323.0</ele><time>2026-03-27T14:33:30Z</time></trkpt><trkpt lat="45.62079074123842" lon="10.152949103025332"><ele>323.0</ele><time>2026-03-27T14:33:31Z</time></trkpt><trkpt lat="45.62082358460123" lon="10.153088615398218"><ele>323.0</ele><time>2026-03-27T14:33:33Z</time></trkpt><trkpt lat="45.620767666556304" lon="10.153172438000539"><ele>323.0</ele><time>2026-03-27T14:33:34Z</time></trkpt><trkpt lat="45.620684321395366" lon="10.153219462154112"><ele>323.0</ele><time>2026-03-27T14:33:35Z</time></trkpt><trkpt lat="45.62061194813856" lon="10.153235130920619"><ele>323.75</ele><time>2026-03-27T14:33:36Z</time></trkpt><trkpt lat="45.62052938979361" lon="10.15329812830727"><ele>324.5</ele><time>2026-03-27T14:33:37Z</time></trkpt><trkpt lat="45.620450524857056" lon="10.153418919700359"><ele>325.25</ele><time>2026-03-27T14:33:38Z</time></trkpt><trkpt lat="45.620352770372584" lon="10.153587775265382"><ele>326.0</ele><time>2026-03-27T14:33:39Z</time></trkpt><trkpt lat="45.62024008134948" lon="10.153771191886525"><ele>326.0</ele><time>2026-03-27T14:33:40Z</time></trkpt><trkpt lat="45.62009256875863" lon="10.15393653779886"><ele>326.0</ele><time>2026-03-27T14:33:41Z</time></trkpt><trkpt lat="45.61998662601772" lon="10.154121499482441"><ele>326.0</ele><time>2026-03-27T14:33:42Z</time></trkpt><trkpt lat="45.619897426158154" lon="10.154232873365228"><ele>332.25</ele><time>2026-03-27T14:33:43Z</time></trkpt><trkpt lat="45.61981620574771" lon="10.154328359531236"><ele>338.5</ele><time>2026-03-27T14:33:44Z</time></trkpt><trkpt lat="45.61974386257435" lon="10.154446174245546"><ele>344.75</ele><time>2026-03-27T14:33:45Z</time></trkpt><trkpt lat="45.61967199588857" lon="10.154589113861498"><ele>351.0</ele><time>2026-03-27T14:33:46Z</time></trkpt><trkpt lat="45.6196879623685" lon="10.154781620336916"><ele>357.0</ele><time>2026-03-27T14:33:47Z</time></trkpt><trkpt lat="45.61971471088356" lon="10.155013311114667"><ele>363.0</ele><time>2026-03-27T14:33:48Z</time></trkpt><trkpt lat="45.61972682208453" lon="10.155228737044224"><ele>369.0</ele><time>2026-03-27T14:33:49Z</time></trkpt><trkpt lat="45.619751380783214" lon="10.155423200831361"><ele>369.0</ele><time>2026-03-27T14:33:50Z</time></trkpt><trkpt lat="45.619750991144834" lon="10.155612858398015"><ele>369.0</ele><time>2026-03-27T14:33:51Z</time></trkpt><trkpt lat="45.619733192765125" lon="10.155803152861363"><ele>369.0</ele><time>2026-03-27T14:33:52Z</time></trkpt><trkpt lat="45.61969960038253" lon="10.155969430547504"><ele>369.0</ele><time>2026-03-27T14:33:53Z</time></trkpt><trkpt lat="45.619662262731794" lon="10.156092139005752"><ele>370.3333333333333</ele><time>2026-03-27T14:33:54Z</time></trkpt><trkpt lat="45.619631001694" lon="10.156188610545234"><ele>371.6666666666667</ele><time>2026-03-27T14:33:54.999Z</time></trkpt><trkpt lat="45.61961725381149" lon="10.156296264858465"><ele>373.0</ele><time>2026-03-27T14:33:55.999Z</time></trkpt><trkpt lat="45.6196374712106" lon="10.156382940250637"><ele>374.33333333333337</ele><time>2026-03-27T14:33:56.999Z</time></trkpt><trkpt lat="45.61970358321768" lon="10.156455453678412"><ele>375.6666666666667</ele><time>2026-03-27T14:33:57.999Z</time></trkpt><trkpt lat="45.61979927394247" lon="10.156448468947726"><ele>377.0</ele><time>2026-03-27T14:33:59.001Z</time></trkpt><trkpt lat="45.61988131073951" lon="10.156354655304439"><ele>377.0</ele><time>2026-03-27T14:34:00.001Z</time></trkpt><trkpt lat="45.61995952993747" lon="10.156212362495838"><ele>377.0</ele><time>2026-03-27T14:34:01.001Z</time></trkpt><trkpt lat="45.6200378591786" lon="10.156043679057152"><ele>377.0</ele><time>2026-03-27T14:34:02.001Z</time></trkpt><trkpt lat="45.62010981800001" lon="10.15586695649893"><ele>377.0</ele><time>2026-03-27T14:34:03.001Z</time></trkpt><trkpt lat="45.62015002756636" lon="10.155706611297276"><ele>375.0</ele><time>2026-03-27T14:34:04.001Z</time></trkpt><trkpt lat="45.62021226489685" lon="10.155533008896533"><ele>373.0</ele><time>2026-03-27T14:34:05.001Z</time></trkpt><trkpt lat="45.62028141166718" lon="10.155388812354175"><ele>371.0</ele><time>2026-03-27T14:34:06.001Z</time></trkpt><trkpt lat="45.62033917181326" lon="10.155275479477973"><ele>369.0</ele><time>2026-03-27T14:34:07.001Z</time></trkpt><trkpt lat="45.62038952152712" lon="10.155156849032313"><ele>370.4</ele><time>2026-03-27T14:34:08.001Z</time></trkpt><trkpt lat="45.62043614772146" lon="10.155046351220449"><ele>371.79999999999995</ele><time>2026-03-27T14:34:09.001Z</time></trkpt><trkpt lat="45.62048168461628" lon="10.154941760730654"><ele>373.20000000000005</ele><time>2026-03-27T14:34:10.001Z</time></trkpt><trkpt lat="45.620544328369206" lon="10.15482665782003"><ele>374.6</ele><time>2026-03-27T14:34:11Z</time></trkpt><trkpt lat="45.6206358948806" lon="10.154740160660545"><ele>376.0</ele><time>2026-03-27T14:34:12Z</time></trkpt><trkpt lat="45.620744999246455" lon="10.154651220250322"><ele>376.0</ele><time>2026-03-27T14:34:13Z</time></trkpt><trkpt lat="45.62083749455959" lon="10.154597192407367"><ele>376.0</ele><time>2026-03-27T14:34:14Z</time></trkpt><trkpt lat="45.62092725572564" lon="10.154549161666333"><ele>376.0</ele><time>2026-03-27T14:34:15Z</time></trkpt><trkpt lat="45.621011981954894" lon="10.154494426856736"><ele>376.0</ele><time>2026-03-27T14:34:16Z</time></trkpt><trkpt lat="45.62109601131969" lon="10.154457433069856"><ele>376.0</ele><time>2026-03-27T14:34:17Z</time></trkpt><trkpt lat="45.62119345839004" lon="10.154444640050079"><ele>380.5</ele><time>2026-03-27T14:34:18Z</time></trkpt><trkpt lat="45.621303560999344" lon="10.154483595897483"><ele>385.0</ele><time>2026-03-27T14:34:19Z</time></trkpt><trkpt lat="45.621420111361815" lon="10.154530873993524"><ele>389.5</ele><time>2026-03-27T14:34:20Z</time></trkpt><trkpt lat="45.62154948659995" lon="10.154561934784178"><ele>394.0</ele><time>2026-03-27T14:34:21Z</time></trkpt><trkpt lat="45.62166204086484" lon="10.154581696241694"><ele>394.0</ele><time>2026-03-27T14:34:22Z</time></trkpt><trkpt lat="45.621762560781896" lon="10.15456928007422"><ele>394.0</ele><time>2026-03-27T14:34:23Z</time></trkpt><trkpt lat="45.62186069540976" lon="10.154485355475458"><ele>394.0</ele><time>2026-03-27T14:34:24Z</time></trkpt><trkpt lat="45.62194449448389" lon="10.154349386320701"><ele>394.0</ele><time>2026-03-27T14:34:25Z</time></trkpt><trkpt lat="45.6220338795942" lon="10.154216527874567"><ele>391.83333333333337</ele><time>2026-03-27T14:34:26Z</time></trkpt><trkpt lat="45.622118863385744" lon="10.154127865147021"><ele>389.6666666666667</ele><time>2026-03-27T14:34:27Z</time></trkpt><trkpt lat="45.62218537712963" lon="10.154088686466174"><ele>387.5</ele><time>2026-03-27T14:34:28Z</time></trkpt><trkpt lat="45.62223705626518" lon="10.15403115822066"><ele>385.33333333333337</ele><time>2026-03-27T14:34:29Z</time></trkpt><trkpt lat="45.622295813600985" lon="10.153980024005552"><ele>383.1666666666667</ele><time>2026-03-27T14:34:30Z</time></trkpt><trkpt lat="45.62237585629375" lon="10.154107718767408"><ele>381.0</ele><time>2026-03-27T14:34:32Z</time></trkpt><trkpt lat="45.6223395366198" lon="10.154185861545304"><ele>387.4</ele><time>2026-03-27T14:34:33Z</time></trkpt><trkpt lat="45.62226624114406" lon="10.154285901133582"><ele>393.8</ele><time>2026-03-27T14:34:34Z</time></trkpt><trkpt lat="45.622204054099896" lon="10.15433979480577"><ele>400.2</ele><time>2026-03-27T14:34:35Z</time></trkpt><trkpt lat="45.622137395479434" lon="10.154479552474417"><ele>406.59999999999997</ele><time>2026-03-27T14:34:37Z</time></trkpt><trkpt lat="45.62210500089549" lon="10.154643551587334"><ele>413.0</ele><time>2026-03-27T14:34:39Z</time></trkpt><trkpt lat="45.62208446991991" lon="10.154729658380395"><ele>412.99999999999994</ele><time>2026-03-27T14:34:40Z</time></trkpt><trkpt lat="45.622060354627656" lon="10.154832536625985"><ele>413.0</ele><time>2026-03-27T14:34:41Z</time></trkpt><trkpt lat="45.622028686344755" lon="10.154927285240436"><ele>413.0</ele><time>2026-03-27T14:34:42Z</time></trkpt><trkpt lat="45.62199218580901" lon="10.155029397615175"><ele>413.0</ele><time>2026-03-27T14:34:43Z</time></trkpt><trkpt lat="45.62195913625605" lon="10.155138935511868"><ele>412.99999999999994</ele><time>2026-03-27T14:34:44Z</time></trkpt><trkpt lat="45.62191146707071" lon="10.155247097826722"><ele>413.0</ele><time>2026-03-27T14:34:45Z</time></trkpt><trkpt lat="45.621923590944284" lon="10.155377877196672"><ele>413.4</ele><time>2026-03-27T14:34:46Z</time></trkpt><trkpt lat="45.6218953596195" lon="10.155495836823913"><ele>413.79999999999995</ele><time>2026-03-27T14:34:47Z</time></trkpt><trkpt lat="45.62186764889526" lon="10.155603402343852"><ele>414.2</ele><time>2026-03-27T14:34:48Z</time></trkpt><trkpt lat="45.62179321564319" lon="10.155670844463838"><ele>414.6</ele><time>2026-03-27T14:34:49Z</time></trkpt><trkpt lat="45.62170344751917" lon="10.155696742228857"><ele>415.0</ele><time>2026-03-27T14:34:50Z</time></trkpt><trkpt lat="45.621598730447296" lon="10.155731801925574"><ele>418.00000000000006</ele><time>2026-03-27T14:34:51Z</time></trkpt><trkpt lat="45.621508156329554" lon="10.155739317194476"><ele>421.0</ele><time>2026-03-27T14:34:52Z</time></trkpt><trkpt lat="45.621409865491586" lon="10.155749279160265"><ele>424.0</ele><time>2026-03-27T14:34:54Z</time></trkpt><trkpt lat="45.62134864517196" lon="10.155787644092033"><ele>427.0</ele><time>2026-03-27T14:34:55Z</time></trkpt><trkpt lat="45.621311411730574" lon="10.155866834470388"><ele>430.00000000000006</ele><time>2026-03-27T14:34:56Z</time></trkpt><trkpt lat="45.6213150302671" lon="10.155974018523901"><ele>433.0</ele><time>2026-03-27T14:34:57Z</time></trkpt><trkpt lat="45.62138139696806" lon="10.156042352038517"><ele>433.0</ele><time>2026-03-27T14:34:58Z</time></trkpt><trkpt lat="45.62152315155618" lon="10.156006966915186"><ele>433.0</ele><time>2026-03-27T14:34:59Z</time></trkpt><trkpt lat="45.6216266902599" lon="10.156005865532885"><ele>433.0</ele><time>2026-03-27T14:35:00Z</time></trkpt><trkpt lat="45.621719187217664" lon="10.156028405178528"><ele>433.0</ele><time>2026-03-27T14:35:01Z</time></trkpt><trkpt lat="45.621830225416296" lon="10.156077898188489"><ele>433.0</ele><time>2026-03-27T14:35:02Z</time></trkpt><trkpt lat="45.621910465274816" lon="10.15610699588309"><ele>432.99999999999994</ele><time>2026-03-27T14:35:03Z</time></trkpt><trkpt lat="45.6219833155471" lon="10.156107886354029"><ele>432.99999999999994</ele><time>2026-03-27T14:35:04Z</time></trkpt><trkpt lat="45.622087261865566" lon="10.156087744404639"><ele>433.0</ele><time>2026-03-27T14:35:05Z</time></trkpt><trkpt lat="45.62218181294345" lon="10.156029730633309"><ele>433.0</ele><time>2026-03-27T14:35:06Z</time></trkpt><trkpt lat="45.62226630297961" lon="10.155974203884988"><ele>433.6666666666667</ele><time>2026-03-27T14:35:07Z</time></trkpt><trkpt lat="45.62234322871162" lon="10.155901632261235"><ele>434.33333333333337</ele><time>2026-03-27T14:35:08Z</time></trkpt><trkpt lat="45.62240905535451" lon="10.155825614481236"><ele>435.0</ele><time>2026-03-27T14:35:09Z</time></trkpt><trkpt lat="45.62243596104127" lon="10.155711356400602"><ele>435.66666666666663</ele><time>2026-03-27T14:35:10Z</time></trkpt><trkpt lat="45.622437149087745" lon="10.155590876753307"><ele>436.3333333333333</ele><time>2026-03-27T14:35:11Z</time></trkpt><trkpt lat="45.6224341203726" lon="10.155488733466337"><ele>437.0</ele><time>2026-03-27T14:35:12Z</time></trkpt><trkpt lat="45.622461219659456" lon="10.155401073339265"><ele>436.99999999999994</ele><time>2026-03-27T14:35:13Z</time></trkpt><trkpt lat="45.622515691699995" lon="10.155333970495134"><ele>437.0</ele><time>2026-03-27T14:35:14Z</time></trkpt><trkpt lat="45.62257550191871" lon="10.155298872904115"><ele>437.0</ele><time>2026-03-27T14:35:15Z</time></trkpt><trkpt lat="45.622640219791386" lon="10.155310673462628"><ele>437.0</ele><time>2026-03-27T14:35:16Z</time></trkpt><trkpt lat="45.62270706565889" lon="10.155368528697384"><ele>436.99999999999994</ele><time>2026-03-27T14:35:17Z</time></trkpt><trkpt lat="45.62267688022529" lon="10.155541361619044"><ele>437.0</ele><time>2026-03-27T14:35:18Z</time></trkpt><trkpt lat="45.622624800975615" lon="10.15572223588586"><ele>440.16666666666663</ele><time>2026-03-27T14:35:20Z</time></trkpt><trkpt lat="45.622602444458074" lon="10.155811380326744"><ele>443.3333333333333</ele><time>2026-03-27T14:35:21Z</time></trkpt><trkpt lat="45.62257702847915" lon="10.155899775445437"><ele>446.5</ele><time>2026-03-27T14:35:22Z</time></trkpt><trkpt lat="45.62253759765243" lon="10.156005542714148"><ele>449.66666666666663</ele><time>2026-03-27T14:35:23Z</time></trkpt><trkpt lat="45.62249175209725" lon="10.15611196053285"><ele>452.8333333333333</ele><time>2026-03-27T14:35:24Z</time></trkpt><trkpt lat="45.622442647866926" lon="10.156227476241382"><ele>456.0</ele><time>2026-03-27T14:35:25Z</time></trkpt><trkpt lat="45.622385991918236" lon="10.156353590622148"><ele>456.0</ele><time>2026-03-27T14:35:26Z</time></trkpt><trkpt lat="45.62232894243229" lon="10.156472433470137"><ele>456.0</ele><time>2026-03-27T14:35:27Z</time></trkpt><trkpt lat="45.62228409511191" lon="10.156568008122303"><ele>456.0</ele><time>2026-03-27T14:35:28Z</time></trkpt><trkpt lat="45.62226050544552" lon="10.156661387294806"><ele>456.0</ele><time>2026-03-27T14:35:29Z</time></trkpt><trkpt lat="45.62222036074338" lon="10.156835908116937"><ele>456.0</ele><time>2026-03-27T14:35:31Z</time></trkpt><trkpt lat="45.62226433006975" lon="10.156951040099383"><ele>459.20000000000005</ele><time>2026-03-27T14:35:32Z</time></trkpt><trkpt lat="45.622352863831395" lon="10.156988462173752"><ele>462.40000000000003</ele><time>2026-03-27T14:35:33Z</time></trkpt><trkpt lat="45.6225096777219" lon="10.156949039775188"><ele>465.6</ele><time>2026-03-27T14:35:35Z</time></trkpt><trkpt lat="45.62257808042955" lon="10.156883349022312"><ele>468.8</ele><time>2026-03-27T14:35:36Z</time></trkpt><trkpt lat="45.62263939421052" lon="10.156792331232417"><ele>472.0</ele><time>2026-03-27T14:35:37Z</time></trkpt><trkpt lat="45.622702886076816" lon="10.156698915730807"><ele>472.0</ele><time>2026-03-27T14:35:38Z</time></trkpt><trkpt lat="45.62276311029836" lon="10.156641507330328"><ele>472.00000000000006</ele><time>2026-03-27T14:35:39Z</time></trkpt><trkpt lat="45.62283758826115" lon="10.156565622462207"><ele>472.00000000000006</ele><time>2026-03-27T14:35:40Z</time></trkpt><trkpt lat="45.622917834992" lon="10.156500058484701"><ele>472.0</ele><time>2026-03-27T14:35:40.999Z</time></trkpt><trkpt lat="45.62299786223721" lon="10.156435844872526"><ele>472.0</ele><time>2026-03-27T14:35:41.999Z</time></trkpt><trkpt lat="45.623091401777394" lon="10.156360412149274"><ele>473.8</ele><time>2026-03-27T14:35:42.999Z</time></trkpt><trkpt lat="45.62319333798564" lon="10.156281880708402"><ele>475.6</ele><time>2026-03-27T14:35:43.999Z</time></trkpt><trkpt lat="45.62329943036109" lon="10.156203006396304"><ele>477.40000000000003</ele><time>2026-03-27T14:35:44.999Z</time></trkpt><trkpt lat="45.623401452704194" lon="10.15613262971318"><ele>479.20000000000005</ele><time>2026-03-27T14:35:45.999Z</time></trkpt><trkpt lat="45.62348570256428" lon="10.156082192457813"><ele>481.0</ele><time>2026-03-27T14:35:46.999Z</time></trkpt><trkpt lat="45.62356182042515" lon="10.156039648126505"><ele>481.00000000000006</ele><time>2026-03-27T14:35:47.999Z</time></trkpt><trkpt lat="45.6236243457362" lon="10.15600298367059"><ele>481.0</ele><time>2026-03-27T14:35:48.999Z</time></trkpt><trkpt lat="45.62368962658581" lon="10.155975562795795"><ele>481.0</ele><time>2026-03-27T14:35:49.999Z</time></trkpt><trkpt lat="45.623797600056676" lon="10.155946748029718"><ele>481.0</ele><time>2026-03-27T14:35:51.999Z</time></trkpt><trkpt lat="45.62382209372214" lon="10.156042196314793"><ele>481.00000000000006</ele><time>2026-03-27T14:35:52.999Z</time></trkpt><trkpt lat="45.62375816406518" lon="10.156151190790144"><ele>481.0</ele><time>2026-03-27T14:35:54.999Z</time></trkpt><trkpt lat="45.62367643917517" lon="10.156268485735637"><ele>481.0</ele><time>2026-03-27T14:35:56.999Z</time></trkpt><trkpt lat="45.6236322898541" lon="10.156365051465945"><ele>481.0</ele><time>2026-03-27T14:35:57.999Z</time></trkpt><trkpt lat="45.62357672210264" lon="10.156496437907549"><ele>481.0</ele><time>2026-03-27T14:35:59.999Z</time></trkpt><trkpt lat="45.62356753042917" lon="10.156650921164625"><ele>481.0</ele><time>2026-03-27T14:36:01.999Z</time></trkpt><trkpt lat="45.62359948357984" lon="10.156733551347918"><ele>481.0</ele><time>2026-03-27T14:36:02.999Z</time></trkpt><trkpt lat="45.62365978111753" lon="10.15682614532067"><ele>487.0</ele><time>2026-03-27T14:36:05Z</time></trkpt><trkpt lat="45.62371357644659" lon="10.156899846411878"><ele>493.0</ele><time>2026-03-27T14:36:08Z</time></trkpt><trkpt lat="45.62377176264775" lon="10.15697935864678"><ele>499.0</ele><time>2026-03-27T14:36:11Z</time></trkpt><trkpt lat="45.62387444440201" lon="10.156925197959275"><ele>505.0</ele><time>2026-03-27T14:36:14Z</time></trkpt><trkpt lat="45.6239579700032" lon="10.156787179516746"><ele>511.0</ele><time>2026-03-27T14:36:16Z</time></trkpt><trkpt lat="45.6240183618949" lon="10.156709640730293"><ele>511.0</ele><time>2026-03-27T14:36:17Z</time></trkpt><trkpt lat="45.62407021182615" lon="10.156626343227055"><ele>511.0</ele><time>2026-03-27T14:36:18Z</time></trkpt><trkpt lat="45.62413639561662" lon="10.156521078869792"><ele>511.0</ele><time>2026-03-27T14:36:19Z</time></trkpt><trkpt lat="45.6242264995273" lon="10.156416598046166"><ele>511.0</ele><time>2026-03-27T14:36:20Z</time></trkpt><trkpt lat="45.62432279335393" lon="10.15634277773635"><ele>511.0</ele><time>2026-03-27T14:36:21Z</time></trkpt><trkpt lat="45.62441457952317" lon="10.156280642389438"><ele>510.1666666666667</ele><time>2026-03-27T14:36:22Z</time></trkpt><trkpt lat="45.624500274487225" lon="10.15622360923174"><ele>509.33333333333337</ele><time>2026-03-27T14:36:23Z</time></trkpt><trkpt lat="45.62459014927306" lon="10.15618208567622"><ele>508.5</ele><time>2026-03-27T14:36:24Z</time></trkpt><trkpt lat="45.62470118226197" lon="10.156181742546236"><ele>507.66666666666663</ele><time>2026-03-27T14:36:25Z</time></trkpt><trkpt lat="45.62477276805578" lon="10.156150398472045"><ele>506.8333333333333</ele><time>2026-03-27T14:36:26Z</time></trkpt><trkpt lat="45.624836611721285" lon="10.156142704157597"><ele>506.0</ele><time>2026-03-27T14:36:27Z</time></trkpt><trkpt lat="45.624913189354366" lon="10.156158190937774"><ele>505.99999999999994</ele><time>2026-03-27T14:36:28Z</time></trkpt><trkpt lat="45.62498334806622" lon="10.156156419454689"><ele>506.0</ele><time>2026-03-27T14:36:29Z</time></trkpt><trkpt lat="45.62507631202451" lon="10.156207369712757"><ele>506.0</ele><time>2026-03-27T14:36:31Z</time></trkpt><trkpt lat="45.62513291503019" lon="10.156266290871592"><ele>506.0</ele><time>2026-03-27T14:36:32Z</time></trkpt><trkpt lat="45.62519068495865" lon="10.156307482024381"><ele>505.99999999999994</ele><time>2026-03-27T14:36:33Z</time></trkpt><trkpt lat="45.62529726058729" lon="10.156308797494365"><ele>506.0</ele><time>2026-03-27T14:36:35Z</time></trkpt><trkpt lat="45.62537894261099" lon="10.15628502445584"><ele>507.3333333333333</ele><time>2026-03-27T14:36:36Z</time></trkpt><trkpt lat="45.625455242541356" lon="10.1562434289577"><ele>508.66666666666663</ele><time>2026-03-27T14:36:37Z</time></trkpt><trkpt lat="45.625528477945146" lon="10.156174194449415"><ele>510.0</ele><time>2026-03-27T14:36:38Z</time></trkpt><trkpt lat="45.62556958438587" lon="10.156072813240012"><ele>511.33333333333337</ele><time>2026-03-27T14:36:39Z</time></trkpt><trkpt lat="45.6255842782602" lon="10.155931544788835"><ele>512.6666666666667</ele><time>2026-03-27T14:36:40Z</time></trkpt><trkpt lat="45.62559761861963" lon="10.155793319061244"><ele>514.0</ele><time>2026-03-27T14:36:41Z</time></trkpt><trkpt lat="45.62561566901959" lon="10.155673468331845"><ele>514.0</ele><time>2026-03-27T14:36:42Z</time></trkpt><trkpt lat="45.62564434486192" lon="10.155586868911287"><ele>514.0</ele><time>2026-03-27T14:36:43Z</time></trkpt><trkpt lat="45.62572050785226" lon="10.15550359168934"><ele>514.0</ele><time>2026-03-27T14:36:45Z</time></trkpt><trkpt lat="45.62586121369411" lon="10.155514027572526"><ele>514.0</ele><time>2026-03-27T14:36:47Z</time></trkpt><trkpt lat="45.62595790223812" lon="10.155512455363498"><ele>514.0</ele><time>2026-03-27T14:36:48Z</time></trkpt><trkpt lat="45.62605943309458" lon="10.15551172089511"><ele>517.4</ele><time>2026-03-27T14:36:49Z</time></trkpt><trkpt lat="45.62617557560321" lon="10.155515502697764"><ele>520.8</ele><time>2026-03-27T14:36:50Z</time></trkpt><trkpt lat="45.62628837499777" lon="10.155527396703906"><ele>524.2</ele><time>2026-03-27T14:36:51Z</time></trkpt><trkpt lat="45.6263879511738" lon="10.155543563765576"><ele>527.6</ele><time>2026-03-27T14:36:52Z</time></trkpt><trkpt lat="45.62647692639799" lon="10.155566095305613"><ele>531.0</ele><time>2026-03-27T14:36:53Z</time></trkpt><trkpt lat="45.62654942843931" lon="10.155614551290862"><ele>531.0</ele><time>2026-03-27T14:36:54Z</time></trkpt><trkpt lat="45.626627367814706" lon="10.155682044267264"><ele>531.0</ele><time>2026-03-27T14:36:55Z</time></trkpt><trkpt lat="45.626686820140016" lon="10.155784226044988"><ele>531.0</ele><time>2026-03-27T14:36:56Z</time></trkpt><trkpt lat="45.62678172405239" lon="10.155824064752787"><ele>531.0</ele><time>2026-03-27T14:36:58Z</time></trkpt><trkpt lat="45.62684746086051" lon="10.155658259154345"><ele>531.0</ele><time>2026-03-27T14:37:00Z</time></trkpt><trkpt lat="45.62684589333169" lon="10.155561004683745"><ele>531.0</ele><time>2026-03-27T14:37:01Z</time></trkpt><trkpt lat="45.626853924700804" lon="10.155460678517857"><ele>531.0</ele><time>2026-03-27T14:37:02Z</time></trkpt><trkpt lat="45.6269713519215" lon="10.155387179617879"><ele>531.0</ele><time>2026-03-27T14:37:04Z</time></trkpt><trkpt lat="45.627045572060396" lon="10.155344933873149"><ele>531.0</ele><time>2026-03-27T14:37:05Z</time></trkpt><trkpt lat="45.62712882705096" lon="10.155306972373095"><ele>531.0</ele><time>2026-03-27T14:37:06Z</time></trkpt><trkpt lat="45.62721970569992" lon="10.155270256256582"><ele>534.1666666666666</ele><time>2026-03-27T14:37:07Z</time></trkpt><trkpt lat="45.62732091799453" lon="10.15522808799134"><ele>537.3333333333334</ele><time>2026-03-27T14:37:08Z</time></trkpt><trkpt lat="45.627412078859535" lon="10.155185118844098"><ele>540.5</ele><time>2026-03-27T14:37:09Z</time></trkpt><trkpt lat="45.62749032734421" lon="10.155149040108673"><ele>543.6666666666667</ele><time>2026-03-27T14:37:10Z</time></trkpt><trkpt lat="45.627567648220335" lon="10.155121393683004"><ele>546.8333333333334</ele><time>2026-03-27T14:37:11Z</time></trkpt><trkpt lat="45.62764423049728" lon="10.155129021305887"><ele>550.0</ele><time>2026-03-27T14:37:12Z</time></trkpt><trkpt lat="45.6277289583002" lon="10.15519567184405"><ele>551.0</ele><time>2026-03-27T14:37:13Z</time></trkpt><trkpt lat="45.62784517047782" lon="10.155253564742855"><ele>552.0</ele><time>2026-03-27T14:37:14Z</time></trkpt><trkpt lat="45.6279786416493" lon="10.155263121291163"><ele>553.0</ele><time>2026-03-27T14:37:15Z</time></trkpt><trkpt lat="45.62808754747571" lon="10.155218155495765"><ele>554.0</ele><time>2026-03-27T14:37:16Z</time></trkpt><trkpt lat="45.62815894910912" lon="10.155231829967512"><ele>555.0</ele><time>2026-03-27T14:37:17Z</time></trkpt><trkpt lat="45.628215949335214" lon="10.155288585923383"><ele>555.0</ele><time>2026-03-27T14:37:20Z</time></trkpt><trkpt lat="45.628106698047105" lon="10.155361652158506"><ele>555.0</ele><time>2026-03-27T14:37:22Z</time></trkpt><trkpt lat="45.628024477113975" lon="10.1553945441927"><ele>555.0</ele><time>2026-03-27T14:37:23Z</time></trkpt><trkpt lat="45.627946608846855" lon="10.15540118631557"><ele>555.0</ele><time>2026-03-27T14:37:24Z</time></trkpt><trkpt lat="45.62787773042111" lon="10.155401405288385"><ele>555.0</ele><time>2026-03-27T14:37:25Z</time></trkpt><trkpt lat="45.627814563577175" lon="10.155415236548938"><ele>555.0</ele><time>2026-03-27T14:37:26Z</time></trkpt><trkpt lat="45.62772496646935" lon="10.155537228831276"><ele>554.1666666666666</ele><time>2026-03-27T14:37:27.999Z</time></trkpt><trkpt lat="45.627719369172375" lon="10.15563865027347"><ele>553.3333333333334</ele><time>2026-03-27T14:37:28.999Z</time></trkpt><trkpt lat="45.62772946598129" lon="10.155766249251785"><ele>552.5</ele><time>2026-03-27T14:37:29.999Z</time></trkpt><trkpt lat="45.62772816002891" lon="10.155881926257509"><ele>551.6666666666667</ele><time>2026-03-27T14:37:30.999Z</time></trkpt><trkpt lat="45.62775731825041" lon="10.156015159012338"><ele>550.8333333333334</ele><time>2026-03-27T14:37:31.999Z</time></trkpt><trkpt lat="45.62777961899827" lon="10.156137374022045"><ele>550.0</ele><time>2026-03-27T14:37:32.999Z</time></trkpt><trkpt lat="45.62779484487752" lon="10.156245274983963"><ele>554.1666666666667</ele><time>2026-03-27T14:37:33.999Z</time></trkpt><trkpt lat="45.6278276505504" lon="10.15633104254949"><ele>558.3333333333334</ele><time>2026-03-27T14:37:34.999Z</time></trkpt><trkpt lat="45.62788092283737" lon="10.156381341302335"><ele>562.5</ele><time>2026-03-27T14:37:35.999Z</time></trkpt><trkpt lat="45.627944648063966" lon="10.156377373969063"><ele>566.6666666666666</ele><time>2026-03-27T14:37:36.999Z</time></trkpt><trkpt lat="45.62801485844595" lon="10.1563122787861"><ele>570.8333333333333</ele><time>2026-03-27T14:37:37.999Z</time></trkpt><trkpt lat="45.628102550092095" lon="10.156257534572852"><ele>575.0</ele><time>2026-03-27T14:37:38.999Z</time></trkpt><trkpt lat="45.62817623863021" lon="10.156236922569692"><ele>575.0</ele><time>2026-03-27T14:37:39.999Z</time></trkpt><trkpt lat="45.628290982584986" lon="10.156246959561212"><ele>575.0</ele><time>2026-03-27T14:37:41.999Z</time></trkpt><trkpt lat="45.628379291569054" lon="10.156340760319397"><ele>575.0</ele><time>2026-03-27T14:37:42.999Z</time></trkpt><trkpt lat="45.6284865799048" lon="10.156418004501003"><ele>575.0</ele><time>2026-03-27T14:37:43.999Z</time></trkpt><trkpt lat="45.62859217983169" lon="10.156512520656225"><ele>579.0</ele><time>2026-03-27T14:37:44.999Z</time></trkpt><trkpt lat="45.62868587275373" lon="10.156591520938454"><ele>583.0</ele><time>2026-03-27T14:37:45.999Z</time></trkpt><trkpt lat="45.62879839963629" lon="10.156591440262739"><ele>587.0</ele><time>2026-03-27T14:37:46.999Z</time></trkpt><trkpt lat="45.62890076225476" lon="10.156609890064333"><ele>591.0</ele><time>2026-03-27T14:37:47.999Z</time></trkpt><trkpt lat="45.62900670563408" lon="10.156657110886304"><ele>595.0</ele><time>2026-03-27T14:37:48.999Z</time></trkpt><trkpt lat="45.6290709950049" lon="10.156694262702079"><ele>595.0</ele><time>2026-03-27T14:37:49.999Z</time></trkpt><trkpt lat="45.62910906341472" lon="10.156777651808104"><ele>595.0</ele><time>2026-03-27T14:37:50.999Z</time></trkpt><trkpt lat="45.62917849008571" lon="10.156844540763872"><ele>595.0</ele><time>2026-03-27T14:37:52.999Z</time></trkpt><trkpt lat="45.629116637040276" lon="10.156786299725923"><ele>595.0</ele><time>2026-03-27T14:38:16.999Z</time></trkpt><trkpt lat="45.629050837375026" lon="10.156741561755233"><ele>595.0</ele><time>2026-03-27T14:38:20.999Z</time></trkpt><trkpt lat="45.62897751534068" lon="10.156664742704871"><ele>595.0</ele><time>2026-03-27T14:38:22.999Z</time></trkpt><trkpt lat="45.628883966362665" lon="10.156908799157037"><ele>595.0</ele><time>2026-03-27T14:38:23.999Z</time></trkpt><trkpt lat="45.628824162584095" lon="10.156983135698232"><ele>595.0</ele><time>2026-03-27T14:38:24.999Z</time></trkpt><trkpt lat="45.628774032327364" lon="10.15704872974709"><ele>595.0</ele><time>2026-03-27T14:38:25.999Z</time></trkpt><trkpt lat="45.62872714938768" lon="10.157114246851988"><ele>595.0</ele><time>2026-03-27T14:38:26.999Z</time></trkpt><trkpt lat="45.628638457510085" lon="10.157241187697288"><ele>595.0</ele><time>2026-03-27T14:38:28.999Z</time></trkpt><trkpt lat="45.62858198622569" lon="10.157316169483355"><ele>595.0</ele><time>2026-03-27T14:38:29.999Z</time></trkpt><trkpt lat="45.62852184902157" lon="10.157381792600884"><ele>598.3333333333334</ele><time>2026-03-27T14:38:30.999Z</time></trkpt><trkpt lat="45.62844083278186" lon="10.157448738475368"><ele>601.6666666666667</ele><time>2026-03-27T14:38:31.999Z</time></trkpt><trkpt lat="45.628375367683915" lon="10.15749396764924"><ele>605.0</ele><time>2026-03-27T14:38:32.999Z</time></trkpt><trkpt lat="45.62827539048659" lon="10.157532960944303"><ele>608.3333333333334</ele><time>2026-03-27T14:38:34.999Z</time></trkpt><trkpt lat="45.62819455300175" lon="10.157623621185934"><ele>611.6666666666666</ele><time>2026-03-27T14:38:44.999Z</time></trkpt><trkpt lat="45.628123749195375" lon="10.15763493871154"><ele>615.0</ele><time>2026-03-27T14:38:45.999Z</time></trkpt><trkpt lat="45.628051569676444" lon="10.15767039349813"><ele>615.0</ele><time>2026-03-27T14:38:46.999Z</time></trkpt><trkpt lat="45.627979705419335" lon="10.15770594434361"><ele>615.0</ele><time>2026-03-27T14:38:47.999Z</time></trkpt><trkpt lat="45.62789874737685" lon="10.157746469455043"><ele>615.0</ele><time>2026-03-27T14:38:48.999Z</time></trkpt><trkpt lat="45.62782135546621" lon="10.157807243401916"><ele>615.0</ele><time>2026-03-27T14:38:49.999Z</time></trkpt><trkpt lat="45.62775273074983" lon="10.157812844180285"><ele>615.0</ele><time>2026-03-27T14:38:50.999Z</time></trkpt><trkpt lat="45.627678897559576" lon="10.157845193165095"><ele>615.0</ele><time>2026-03-27T14:38:51.999Z</time></trkpt><trkpt lat="45.627613149727814" lon="10.157878862015977"><ele>612.5</ele><time>2026-03-27T14:38:52.999Z</time></trkpt><trkpt lat="45.627551158521655" lon="10.157921631509868"><ele>610.0</ele><time>2026-03-27T14:38:53.999Z</time></trkpt><trkpt lat="45.62746682985625" lon="10.158024151136184"><ele>607.5</ele><time>2026-03-27T14:38:54.999Z</time></trkpt><trkpt lat="45.627423843133734" lon="10.158102734632683"><ele>605.0</ele><time>2026-03-27T14:38:55.999Z</time></trkpt><trkpt lat="45.62737988510897" lon="10.158181738273464"><ele>602.5</ele><time>2026-03-27T14:38:56.999Z</time></trkpt><trkpt lat="45.627339087513654" lon="10.158283798410993"><ele>600.0</ele><time>2026-03-27T14:38:58.999Z</time></trkpt><trkpt lat="45.62727757820754" lon="10.158406256577079"><ele>603.0</ele><time>2026-03-27T14:39:00.999Z</time></trkpt><trkpt lat="45.62723393268315" lon="10.158474478275501"><ele>606.0</ele><time>2026-03-27T14:39:01.999Z</time></trkpt><trkpt lat="45.62717117777063" lon="10.158525788167223"><ele>609.0</ele><time>2026-03-27T14:39:02.999Z</time></trkpt><trkpt lat="45.6271028918572" lon="10.158545214520794"><ele>612.0</ele><time>2026-03-27T14:39:03.999Z</time></trkpt><trkpt lat="45.62701596497547" lon="10.158526661916415"><ele>615.0</ele><time>2026-03-27T14:39:04.999Z</time></trkpt><trkpt lat="45.62693926274895" lon="10.158540743581023"><ele>618.0</ele><time>2026-03-27T14:39:06.999Z</time></trkpt><trkpt lat="45.626860391052475" lon="10.158754262449854"><ele>618.0</ele><time>2026-03-27T14:39:07.999Z</time></trkpt><trkpt lat="45.62681914195029" lon="10.158877910656644"><ele>618.0</ele><time>2026-03-27T14:39:08.999Z</time></trkpt><trkpt lat="45.6267808206024" lon="10.15899106191159"><ele>618.0</ele><time>2026-03-27T14:39:09.999Z</time></trkpt><trkpt lat="45.626749177578056" lon="10.159097607854445"><ele>618.0</ele><time>2026-03-27T14:39:10.999Z</time></trkpt><trkpt lat="45.62673176878676" lon="10.159191334754649"><ele>618.0</ele><time>2026-03-27T14:39:11.999Z</time></trkpt><trkpt lat="45.62672556761244" lon="10.15935035704796"><ele>618.0</ele><time>2026-03-27T14:39:13.999Z</time></trkpt><trkpt lat="45.62671177889584" lon="10.159525941310335"><ele>622.1999999999999</ele><time>2026-03-27T14:39:15.999Z</time></trkpt><trkpt lat="45.62666789000437" lon="10.159675689735167"><ele>626.4</ele><time>2026-03-27T14:39:17.999Z</time></trkpt><trkpt lat="45.62660627016878" lon="10.159792490438049"><ele>630.5999999999999</ele><time>2026-03-27T14:39:19.999Z</time></trkpt><trkpt lat="45.62654291226355" lon="10.159911532992552"><ele>634.8</ele><time>2026-03-27T14:39:21.999Z</time></trkpt><trkpt lat="45.62648875887609" lon="10.160019876566496"><ele>639.0</ele><time>2026-03-27T14:39:23.999Z</time></trkpt><trkpt lat="45.62645708954173" lon="10.160118151510499"><ele>641.3333333333334</ele><time>2026-03-27T14:39:24.999Z</time></trkpt><trkpt lat="45.62646942750492" lon="10.160210359955416"><ele>643.6666666666666</ele><time>2026-03-27T14:39:25.999Z</time></trkpt><trkpt lat="45.626495953941294" lon="10.160310030670086"><ele>646.0</ele><time>2026-03-27T14:39:26.999Z</time></trkpt><trkpt lat="45.62654422601918" lon="10.160406085449294"><ele>648.3333333333333</ele><time>2026-03-27T14:39:27.999Z</time></trkpt><trkpt lat="45.626617602169816" lon="10.160525399348204"><ele>650.6666666666666</ele><time>2026-03-27T14:39:28.999Z</time></trkpt><trkpt lat="45.62669944079249" lon="10.160617748162338"><ele>653.0</ele><time>2026-03-27T14:39:29.999Z</time></trkpt><trkpt lat="45.62674875098261" lon="10.160708364141438"><ele>654.5</ele><time>2026-03-27T14:39:30.999Z</time></trkpt><trkpt lat="45.62679111750765" lon="10.160778159715752"><ele>656.0</ele><time>2026-03-27T14:39:31.999Z</time></trkpt><trkpt lat="45.626855767778345" lon="10.160932294941388"><ele>657.5</ele><time>2026-03-27T14:39:33.999Z</time></trkpt><trkpt lat="45.626909364061625" lon="10.161019482530051"><ele>659.0</ele><time>2026-03-27T14:39:36.998Z</time></trkpt><trkpt lat="45.62698809177306" lon="10.161017220929212"><ele>660.5</ele><time>2026-03-27T14:39:38.998Z</time></trkpt><trkpt lat="45.62693342186454" lon="10.160936792588283"><ele>662.0</ele><time>2026-03-27T14:40:04.998Z</time></trkpt><trkpt lat="45.62693943776787" lon="10.160843989950113"><ele>660.2</ele><time>2026-03-27T14:40:06.998Z</time></trkpt><trkpt lat="45.62693207619763" lon="10.160693021977288"><ele>658.4000000000001</ele><time>2026-03-27T14:40:08.998Z</time></trkpt><trkpt lat="45.62691986598471" lon="10.160600492596634"><ele>656.5999999999999</ele><time>2026-03-27T14:40:09.998Z</time></trkpt><trkpt lat="45.62690407447848" lon="10.16048503542517"><ele>654.8</ele><time>2026-03-27T14:40:11.998Z</time></trkpt><trkpt lat="45.62703915307376" lon="10.16031856777414"><ele>653.0</ele><time>2026-03-27T14:40:14.998Z</time></trkpt><trkpt lat="45.6271116596038" lon="10.160215563877426"><ele>654.8</ele><time>2026-03-27T14:40:16.999Z</time></trkpt><trkpt lat="45.62721048578661" lon="10.16014121478062"><ele>656.5999999999999</ele><time>2026-03-27T14:40:18.999Z</time></trkpt><trkpt lat="45.627322314163486" lon="10.160083103348502"><ele>658.4000000000001</ele><time>2026-03-27T14:40:20.999Z</time></trkpt><trkpt lat="45.62742812360843" lon="10.16001335413732"><ele>660.2</ele><time>2026-03-27T14:40:22.999Z</time></trkpt><trkpt lat="45.627472837418246" lon="10.159948628144857"><ele>662.0</ele><time>2026-03-27T14:40:23.999Z</time></trkpt><trkpt lat="45.627561235650596" lon="10.159854344706105"><ele>662.0</ele><time>2026-03-27T14:40:25.999Z</time></trkpt><trkpt lat="45.62764015274913" lon="10.159820741747293"><ele>662.0</ele><time>2026-03-27T14:40:27.999Z</time></trkpt><trkpt lat="45.62766875465275" lon="10.159937815249538"><ele>662.0</ele><time>2026-03-27T14:40:30.999Z</time></trkpt><trkpt lat="45.627641436544685" lon="10.16004485900174"><ele>662.0</ele><time>2026-03-27T14:40:31.999Z</time></trkpt><trkpt lat="45.627600892822436" lon="10.160169449156573"><ele>662.0</ele><time>2026-03-27T14:40:32.999Z</time></trkpt><trkpt lat="45.62757855295234" lon="10.160305039512746"><ele>662.0</ele><time>2026-03-27T14:40:33.999Z</time></trkpt><trkpt lat="45.627572648381715" lon="10.160420626248944"><ele>665.6</ele><time>2026-03-27T14:40:34.999Z</time></trkpt><trkpt lat="45.62756215165924" lon="10.160547153070228"><ele>669.2</ele><time>2026-03-27T14:40:35.999Z</time></trkpt><trkpt lat="45.62756099547549" lon="10.160660996436485"><ele>672.8</ele><time>2026-03-27T14:40:36.999Z</time></trkpt><trkpt lat="45.62754910371337" lon="10.160765622929448"><ele>676.4</ele><time>2026-03-27T14:40:37.999Z</time></trkpt><trkpt lat="45.627534513652655" lon="10.160905961592485"><ele>680.0</ele><time>2026-03-27T14:40:39.999Z</time></trkpt><trkpt lat="45.627567719476794" lon="10.16062626685741"><ele>680.0</ele><time>2026-03-27T14:41:04.999Z</time></trkpt><trkpt lat="45.62757617108474" lon="10.160527727403306"><ele>680.0</ele><time>2026-03-27T14:41:05.999Z</time></trkpt><trkpt lat="45.627593021873984" lon="10.16036666244455"><ele>680.0</ele><time>2026-03-27T14:41:07.999Z</time></trkpt><trkpt lat="45.62760639981932" lon="10.160210492183818"><ele>680.0</ele><time>2026-03-27T14:41:09.999Z</time></trkpt><trkpt lat="45.62763264933134" lon="10.16004520707518"><ele>680.0</ele><time>2026-03-27T14:41:11.999Z</time></trkpt><trkpt lat="45.62768090629919" lon="10.15992922141744"><ele>680.0</ele><time>2026-03-27T14:41:13.999Z</time></trkpt><trkpt lat="45.62764439489717" lon="10.159848175609175"><ele>680.0</ele><time>2026-03-27T14:41:15.999Z</time></trkpt><trkpt lat="45.62755000399154" lon="10.1598866832985"><ele>680.0</ele><time>2026-03-27T14:41:17.998Z</time></trkpt><trkpt lat="45.62744943891596" lon="10.160010442539935"><ele>680.0</ele><time>2026-03-27T14:41:19.998Z</time></trkpt><trkpt lat="45.62738358788388" lon="10.160080520298914"><ele>680.0</ele><time>2026-03-27T14:41:20.998Z</time></trkpt><trkpt lat="45.627314133336206" lon="10.160118295728644"><ele>680.0</ele><time>2026-03-27T14:41:21.998Z</time></trkpt><trkpt lat="45.62724685994525" lon="10.160156492930088"><ele>680.0</ele><time>2026-03-27T14:41:22.998Z</time></trkpt><trkpt lat="45.62718418525139" lon="10.16019314301314"><ele>680.0</ele><time>2026-03-27T14:41:23.998Z</time></trkpt><trkpt lat="45.627126175861406" lon="10.160245451158513"><ele>680.0</ele><time>2026-03-27T14:41:24.998Z</time></trkpt><trkpt lat="45.627070631415364" lon="10.160309561391598"><ele>680.0</ele><time>2026-03-27T14:41:25.998Z</time></trkpt><trkpt lat="45.627015239550246" lon="10.160383473362412"><ele>680.0</ele><time>2026-03-27T14:41:26.998Z</time></trkpt><trkpt lat="45.626966150770976" lon="10.160458382864293"><ele>680.0</ele><time>2026-03-27T14:41:27.998Z</time></trkpt><trkpt lat="45.62691631368598" lon="10.160582693770717"><ele>676.4</ele><time>2026-03-27T14:41:29.998Z</time></trkpt><trkpt lat="45.62692869034202" lon="10.160725571160835"><ele>672.8</ele><time>2026-03-27T14:41:31.998Z</time></trkpt><trkpt lat="45.626934767952605" lon="10.160841594356897"><ele>669.2</ele><time>2026-03-27T14:41:33.998Z</time></trkpt><trkpt lat="45.62694656982386" lon="10.160943605172424"><ele>665.6</ele><time>2026-03-27T14:41:35.998Z</time></trkpt><trkpt lat="45.62686693317096" lon="10.160831845543196"><ele>662.0</ele><time>2026-03-27T14:41:45.998Z</time></trkpt><trkpt lat="45.6267797481776" lon="10.160693611446177"><ele>660.5</ele><time>2026-03-27T14:41:47.998Z</time></trkpt><trkpt lat="45.62672986188694" lon="10.160617091136391"><ele>659.0</ele><time>2026-03-27T14:41:48.998Z</time></trkpt><trkpt lat="45.62667860495034" lon="10.160547371027436"><ele>657.5</ele><time>2026-03-27T14:41:49.998Z</time></trkpt><trkpt lat="45.62662525715001" lon="10.160471047323307"><ele>656.0</ele><time>2026-03-27T14:41:50.998Z</time></trkpt><trkpt lat="45.626576539420405" lon="10.160373229985307"><ele>654.5</ele><time>2026-03-27T14:41:51.998Z</time></trkpt><trkpt lat="45.626537467989515" lon="10.160287906202186"><ele>653.0</ele><time>2026-03-27T14:41:52.998Z</time></trkpt><trkpt lat="45.62649407910917" lon="10.160139933412935"><ele>653.0</ele><time>2026-03-27T14:41:54.998Z</time></trkpt><trkpt lat="45.62651515669457" lon="10.160023595327473"><ele>653.0</ele><time>2026-03-27T14:41:57.998Z</time></trkpt><trkpt lat="45.62657907465699" lon="10.159921916481256"><ele>653.0</ele><time>2026-03-27T14:41:59.998Z</time></trkpt><trkpt lat="45.62665488282485" lon="10.159778127711068"><ele>653.0</ele><time>2026-03-27T14:42:01.998Z</time></trkpt><trkpt lat="45.62669783532208" lon="10.159683085373143"><ele>653.0</ele><time>2026-03-27T14:42:02.998Z</time></trkpt><trkpt lat="45.626731494010215" lon="10.15955080325015"><ele>649.5</ele><time>2026-03-27T14:42:04.998Z</time></trkpt><trkpt lat="45.62675806707549" lon="10.159399951553302"><ele>646.0</ele><time>2026-03-27T14:42:06.998Z</time></trkpt><trkpt lat="45.62676477157099" lon="10.159231967025093"><ele>642.5</ele><time>2026-03-27T14:42:08.998Z</time></trkpt><trkpt lat="45.62678948393623" lon="10.159020457285935"><ele>639.0</ele><time>2026-03-27T14:42:10.998Z</time></trkpt><trkpt lat="45.62684953910774" lon="10.15891316895503"><ele>638.0</ele><time>2026-03-27T14:42:11.998Z</time></trkpt><trkpt lat="45.62687795442114" lon="10.158798658427198"><ele>637.0</ele><time>2026-03-27T14:42:12.998Z</time></trkpt><trkpt lat="45.626913048009094" lon="10.158693121537318"><ele>636.0</ele><time>2026-03-27T14:42:13.998Z</time></trkpt><trkpt lat="45.626965100788" lon="10.158548593324644"><ele>635.0</ele><time>2026-03-27T14:42:15.998Z</time></trkpt><trkpt lat="45.62698153757132" lon="10.158448459854672"><ele>634.0</ele><time>2026-03-27T14:42:17.998Z</time></trkpt><trkpt lat="45.62715340269865" lon="10.158564234820847"><ele>634.0</ele><time>2026-03-27T14:42:19.998Z</time></trkpt><trkpt lat="45.62721950013788" lon="10.15853270135462"><ele>634.0</ele><time>2026-03-27T14:42:20.998Z</time></trkpt><trkpt lat="45.62730792996563" lon="10.158425878875827"><ele>634.0</ele><time>2026-03-27T14:42:21.998Z</time></trkpt><trkpt lat="45.62735772548665" lon="10.158329544882141"><ele>634.0</ele><time>2026-03-27T14:42:22.999Z</time></trkpt><trkpt lat="45.62739561756216" lon="10.158248266561776"><ele>634.0</ele><time>2026-03-27T14:42:23.999Z</time></trkpt><trkpt lat="45.62744319759841" lon="10.158144302800348"><ele>634.0</ele><time>2026-03-27T14:42:25.999Z</time></trkpt><trkpt lat="45.627506170778275" lon="10.158033715074442"><ele>630.8333333333334</ele><time>2026-03-27T14:42:27.999Z</time></trkpt><trkpt lat="45.627561833048574" lon="10.157970375261652"><ele>627.6666666666667</ele><time>2026-03-27T14:42:28.999Z</time></trkpt><trkpt lat="45.62765083445674" lon="10.157907237994294"><ele>624.5</ele><time>2026-03-27T14:42:30.999Z</time></trkpt><trkpt lat="45.627737944491734" lon="10.157868955852157"><ele>621.3333333333334</ele><time>2026-03-27T14:42:32.999Z</time></trkpt><trkpt lat="45.627802748492904" lon="10.157840562884266"><ele>618.1666666666666</ele><time>2026-03-27T14:42:33.999Z</time></trkpt><trkpt lat="45.62788837134971" lon="10.157803048415976"><ele>615.0</ele><time>2026-03-27T14:42:34.999Z</time></trkpt><trkpt lat="45.627966986176254" lon="10.157772753570278"><ele>615.0</ele><time>2026-03-27T14:42:35.999Z</time></trkpt><trkpt lat="45.628022783776586" lon="10.157713501214584"><ele>615.0</ele><time>2026-03-27T14:42:36.999Z</time></trkpt><trkpt lat="45.62813891126801" lon="10.157677549644673"><ele>615.0</ele><time>2026-03-27T14:42:37.999Z</time></trkpt><trkpt lat="45.62826068574258" lon="10.157590620978446"><ele>615.0</ele><time>2026-03-27T14:42:38.999Z</time></trkpt><trkpt lat="45.6283756661113" lon="10.157533507053405"><ele>615.0</ele><time>2026-03-27T14:42:39.999Z</time></trkpt><trkpt lat="45.628487821792376" lon="10.157479389905642"><ele>615.0</ele><time>2026-03-27T14:42:40.999Z</time></trkpt><trkpt lat="45.628573865970566" lon="10.157385913959079"><ele>615.0</ele><time>2026-03-27T14:42:41.999Z</time></trkpt><trkpt lat="45.628647825505745" lon="10.157294303988305"><ele>615.0</ele><time>2026-03-27T14:42:42.999Z</time></trkpt><trkpt lat="45.628699662869195" lon="10.157201574950623"><ele>615.0</ele><time>2026-03-27T14:42:43.999Z</time></trkpt><trkpt lat="45.62876240369322" lon="10.157114825227017"><ele>615.0</ele><time>2026-03-27T14:42:44.999Z</time></trkpt><trkpt lat="45.628837856748525" lon="10.157027779277513"><ele>611.0</ele><time>2026-03-27T14:42:45.999Z</time></trkpt><trkpt lat="45.62888826224675" lon="10.15696640969764"><ele>607.0</ele><time>2026-03-27T14:42:46.999Z</time></trkpt><trkpt lat="45.62895374567899" lon="10.156861778019607"><ele>603.0</ele><time>2026-03-27T14:42:48.999Z</time></trkpt><trkpt lat="45.629043063107666" lon="10.156786562785701"><ele>599.0</ele><time>2026-03-27T14:42:50.999Z</time></trkpt><trkpt lat="45.62910241900235" lon="10.156717443064572"><ele>595.0</ele><time>2026-03-27T14:43:04.999Z</time></trkpt><trkpt lat="45.629150696750756" lon="10.156857736256548"><ele>595.0</ele><time>2026-03-27T14:43:06.999Z</time></trkpt><trkpt lat="45.62920085586117" lon="10.157004278327607"><ele>595.0</ele><time>2026-03-27T14:43:08.999Z</time></trkpt><trkpt lat="45.62924315555175" lon="10.157135201940998"><ele>595.0</ele><time>2026-03-27T14:43:09.999Z</time></trkpt><trkpt lat="45.629293320585816" lon="10.157283711961849"><ele>595.0</ele><time>2026-03-27T14:43:10.999Z</time></trkpt><trkpt lat="45.62932004182023" lon="10.157423811150519"><ele>595.0</ele><time>2026-03-27T14:43:11.999Z</time></trkpt><trkpt lat="45.62933876373569" lon="10.157534301646242"><ele>598.6</ele><time>2026-03-27T14:43:12.999Z</time></trkpt><trkpt lat="45.62939030804671" lon="10.15768386967394"><ele>602.2</ele><time>2026-03-27T14:43:14.999Z</time></trkpt><trkpt lat="45.62944152850359" lon="10.157778301756624"><ele>605.8</ele><time>2026-03-27T14:43:15.999Z</time></trkpt><trkpt lat="45.62951973033614" lon="10.157866256497377"><ele>609.4</ele><time>2026-03-27T14:43:16.999Z</time></trkpt><trkpt lat="45.629597846344794" lon="10.157952925675403"><ele>613.0</ele><time>2026-03-27T14:43:17.999Z</time></trkpt><trkpt lat="45.62968685378747" lon="10.158029674063776"><ele>613.0</ele><time>2026-03-27T14:43:18.999Z</time></trkpt><trkpt lat="45.62976430257764" lon="10.158078047332271"><ele>613.0</ele><time>2026-03-27T14:43:19.999Z</time></trkpt><trkpt lat="45.62991034450177" lon="10.15810298590496"><ele>613.0</ele><time>2026-03-27T14:43:21.999Z</time></trkpt><trkpt lat="45.62999856084382" lon="10.158092663700188"><ele>613.0</ele><time>2026-03-27T14:43:22.999Z</time></trkpt><trkpt lat="45.630062004652885" lon="10.15807492583351"><ele>613.0</ele><time>2026-03-27T14:43:23.999Z</time></trkpt><trkpt lat="45.630159513536626" lon="10.158041449528588"><ele>613.0</ele><time>2026-03-27T14:43:24.999Z</time></trkpt><trkpt lat="45.63029373349962" lon="10.157981103114958"><ele>613.0</ele><time>2026-03-27T14:43:25.999Z</time></trkpt><trkpt lat="45.630405478730616" lon="10.157919990506604"><ele>613.0</ele><time>2026-03-27T14:43:26.999Z</time></trkpt><trkpt lat="45.63051539090328" lon="10.157834856929638"><ele>613.0</ele><time>2026-03-27T14:43:27.999Z</time></trkpt><trkpt lat="45.63062019524891" lon="10.157749444679494"><ele>615.8</ele><time>2026-03-27T14:43:28.999Z</time></trkpt><trkpt lat="45.63069786154504" lon="10.157685916080146"><ele>618.5999999999999</ele><time>2026-03-27T14:43:29.999Z</time></trkpt><trkpt lat="45.6308091463847" lon="10.157623078131754"><ele>621.4000000000001</ele><time>2026-03-27T14:43:30.999Z</time></trkpt><trkpt lat="45.63089028796793" lon="10.157576953549443"><ele>624.2</ele><time>2026-03-27T14:43:31.999Z</time></trkpt><trkpt lat="45.63097474907974" lon="10.157602374948134"><ele>627.0</ele><time>2026-03-27T14:43:32.999Z</time></trkpt><trkpt lat="45.63105940646165" lon="10.15768467037401"><ele>627.0</ele><time>2026-03-27T14:43:33.999Z</time></trkpt><trkpt lat="45.63111949492606" lon="10.157733591460019"><ele>627.0</ele><time>2026-03-27T14:43:34.999Z</time></trkpt><trkpt lat="45.63115082419367" lon="10.157825066421484"><ele>627.0</ele><time>2026-03-27T14:43:35.999Z</time></trkpt><trkpt lat="45.63124147848758" lon="10.157933573530704"><ele>627.0</ele><time>2026-03-27T14:43:37.999Z</time></trkpt><trkpt lat="45.631298791243395" lon="10.157981847690127"><ele>627.0</ele><time>2026-03-27T14:43:38.999Z</time></trkpt><trkpt lat="45.631388198196746" lon="10.157975666842503"><ele>627.0</ele><time>2026-03-27T14:43:39.999Z</time></trkpt><trkpt lat="45.63146174710739" lon="10.15794370319831"><ele>628.0</ele><time>2026-03-27T14:43:40.999Z</time></trkpt><trkpt lat="45.63153837522938" lon="10.157906805168288"><ele>629.0</ele><time>2026-03-27T14:43:41.999Z</time></trkpt><trkpt lat="45.63164304875126" lon="10.157874510062717"><ele>630.0</ele><time>2026-03-27T14:43:43.999Z</time></trkpt><trkpt lat="45.63171057761975" lon="10.157847989383638"><ele>631.0</ele><time>2026-03-27T14:43:44.999Z</time></trkpt><trkpt lat="45.63177815676767" lon="10.157836519996604"><ele>632.0</ele><time>2026-03-27T14:44:15.998Z</time></trkpt><trkpt lat="45.63186150765731" lon="10.157904176176025"><ele>633.0</ele><time>2026-03-27T14:44:18.998Z</time></trkpt><trkpt lat="45.63191794480859" lon="10.157945738452161"><ele>633.0</ele><time>2026-03-27T14:44:19.998Z</time></trkpt><trkpt lat="45.63194772838263" lon="10.158033634448755"><ele>633.0</ele><time>2026-03-27T14:44:20.998Z</time></trkpt><trkpt lat="45.631998084367815" lon="10.158106603836403"><ele>633.0</ele><time>2026-03-27T14:44:21.998Z</time></trkpt><trkpt lat="45.63204219555478" lon="10.15820554934311"><ele>633.0</ele><time>2026-03-27T14:44:22.998Z</time></trkpt><trkpt lat="45.63207931644733" lon="10.1583169491118"><ele>633.0</ele><time>2026-03-27T14:44:23.998Z</time></trkpt><trkpt lat="45.6320910303555" lon="10.158468382949989"><ele>633.0</ele><time>2026-03-27T14:44:25.998Z</time></trkpt><trkpt lat="45.63209867691519" lon="10.158576188187604"><ele>637.5</ele><time>2026-03-27T14:44:27.998Z</time></trkpt><trkpt lat="45.63231968870043" lon="10.158608217084025"><ele>642.0</ele><time>2026-03-27T14:44:31Z</time></trkpt><trkpt lat="45.63239829576573" lon="10.158588144520827"><ele>646.5</ele><time>2026-03-27T14:44:32Z</time></trkpt><trkpt lat="45.63248231293869" lon="10.158596759222116"><ele>651.0</ele><time>2026-03-27T14:44:33Z</time></trkpt><trkpt lat="45.63256874738619" lon="10.158666162667851"><ele>651.0</ele><time>2026-03-27T14:44:35Z</time></trkpt><trkpt lat="45.63252705439062" lon="10.158805752493114"><ele>651.0</ele><time>2026-03-27T14:44:37Z</time></trkpt><trkpt lat="45.63245944538264" lon="10.158860450976793"><ele>651.0</ele><time>2026-03-27T14:44:38Z</time></trkpt><trkpt lat="45.63238096941236" lon="10.158920387234721"><ele>651.0</ele><time>2026-03-27T14:44:39Z</time></trkpt><trkpt lat="45.63231273754289" lon="10.158998877023771"><ele>651.0</ele><time>2026-03-27T14:44:40Z</time></trkpt><trkpt lat="45.63224446373742" lon="10.159106158019899"><ele>654.8333333333334</ele><time>2026-03-27T14:44:41Z</time></trkpt><trkpt lat="45.63218560553242" lon="10.159197559977873"><ele>658.6666666666666</ele><time>2026-03-27T14:44:42Z</time></trkpt><trkpt lat="45.63208137803919" lon="10.159239508080896"><ele>662.5</ele><time>2026-03-27T14:44:44Z</time></trkpt><trkpt lat="45.63200741310702" lon="10.159245173755352"><ele>666.3333333333333</ele><time>2026-03-27T14:44:45Z</time></trkpt><trkpt lat="45.631930116478635" lon="10.159283845734548"><ele>670.1666666666666</ele><time>2026-03-27T14:44:46Z</time></trkpt><trkpt lat="45.63184331036704" lon="10.159345958216148"><ele>674.0</ele><time>2026-03-27T14:44:47Z</time></trkpt><trkpt lat="45.63180224157355" lon="10.159523401604378"><ele>674.0</ele><time>2026-03-27T14:44:48Z</time></trkpt><trkpt lat="45.631718911732705" lon="10.159601363570358"><ele>674.0</ele><time>2026-03-27T14:44:49Z</time></trkpt><trkpt lat="45.63166177762598" lon="10.159663277834994"><ele>674.0</ele><time>2026-03-27T14:44:50Z</time></trkpt><trkpt lat="45.631598809822904" lon="10.15974303338239"><ele>674.0</ele><time>2026-03-27T14:44:51Z</time></trkpt><trkpt lat="45.631536423885706" lon="10.159824827036914"><ele>674.0</ele><time>2026-03-27T14:44:52Z</time></trkpt><trkpt lat="45.631479025530005" lon="10.15990307853376"><ele>674.0</ele><time>2026-03-27T14:44:53Z</time></trkpt><trkpt lat="45.63141755029034" lon="10.160020203897812"><ele>677.8000000000001</ele><time>2026-03-27T14:44:54.999Z</time></trkpt><trkpt lat="45.63134442388766" lon="10.160141213082465"><ele>681.6</ele><time>2026-03-27T14:44:56.999Z</time></trkpt><trkpt lat="45.63122296891769" lon="10.160163620980144"><ele>685.4</ele><time>2026-03-27T14:44:59.999Z</time></trkpt><trkpt lat="45.631145049424944" lon="10.16008954787676"><ele>689.2</ele><time>2026-03-27T14:45:01.999Z</time></trkpt><trkpt lat="45.6310496845452" lon="10.160035271211408"><ele>693.0</ele><time>2026-03-27T14:45:03.999Z</time></trkpt><trkpt lat="45.63096547591378" lon="10.160049715314951"><ele>693.0</ele><time>2026-03-27T14:45:05.999Z</time></trkpt><trkpt lat="45.63079795574472" lon="10.16047693921794"><ele>693.0</ele><time>2026-03-27T14:45:06.999Z</time></trkpt><trkpt lat="45.630733451541055" lon="10.160524427718077"><ele>693.0</ele><time>2026-03-27T14:45:07.999Z</time></trkpt><trkpt lat="45.63065399866454" lon="10.160543104948946"><ele>693.0</ele><time>2026-03-27T14:45:08.999Z</time></trkpt><trkpt lat="45.63058349325983" lon="10.160553637888512"><ele>693.0</ele><time>2026-03-27T14:45:09.999Z</time></trkpt><trkpt lat="45.6305051482193" lon="10.16055796915943"><ele>693.0</ele><time>2026-03-27T14:45:10.999Z</time></trkpt><trkpt lat="45.6304237245206" lon="10.160562836634535"><ele>693.0</ele><time>2026-03-27T14:45:11.999Z</time></trkpt><trkpt lat="45.630344263417854" lon="10.16058162014257"><ele>693.0</ele><time>2026-03-27T14:45:12.999Z</time></trkpt><trkpt lat="45.63027576657698" lon="10.160579480919392"><ele>693.0</ele><time>2026-03-27T14:45:13.999Z</time></trkpt><trkpt lat="45.630203617072304" lon="10.16057087631435"><ele>692.8</ele><time>2026-03-27T14:45:14.999Z</time></trkpt><trkpt lat="45.63012294906952" lon="10.160545164189159"><ele>692.5999999999999</ele><time>2026-03-27T14:45:15.999Z</time></trkpt><trkpt lat="45.630041996462765" lon="10.160495039924733"><ele>692.4000000000001</ele><time>2026-03-27T14:45:16.999Z</time></trkpt><trkpt lat="45.629951839576385" lon="10.160427090577224"><ele>692.2</ele><time>2026-03-27T14:45:17.999Z</time></trkpt><trkpt lat="45.62987733995372" lon="10.160350838606231"><ele>692.0</ele><time>2026-03-27T14:45:18.999Z</time></trkpt><trkpt lat="45.62979644147481" lon="10.160288229458532"><ele>692.0</ele><time>2026-03-27T14:45:19.999Z</time></trkpt><trkpt lat="45.629668048674944" lon="10.160318125025018"><ele>692.0</ele><time>2026-03-27T14:45:21.999Z</time></trkpt><trkpt lat="45.62959337029199" lon="10.160367566107757"><ele>692.0</ele><time>2026-03-27T14:45:22.999Z</time></trkpt><trkpt lat="45.62951858259583" lon="10.160454848776977"><ele>692.0</ele><time>2026-03-27T14:45:23.999Z</time></trkpt><trkpt lat="45.62945955900635" lon="10.160522735392489"><ele>692.0</ele><time>2026-03-27T14:45:24.999Z</time></trkpt><trkpt lat="45.62937654147676" lon="10.160546654707161"><ele>693.4000000000001</ele><time>2026-03-27T14:45:25.999Z</time></trkpt><trkpt lat="45.62928012753181" lon="10.160545415460218"><ele>694.8000000000001</ele><time>2026-03-27T14:45:26.999Z</time></trkpt><trkpt lat="45.62918070861927" lon="10.16052214305232"><ele>696.2</ele><time>2026-03-27T14:45:27.999Z</time></trkpt><trkpt lat="45.62909652739828" lon="10.160507942773249"><ele>697.6</ele><time>2026-03-27T14:45:28.999Z</time></trkpt><trkpt lat="45.62901947427929" lon="10.160490880909826"><ele>699.0</ele><time>2026-03-27T14:45:29.999Z</time></trkpt><trkpt lat="45.628927582552684" lon="10.160514764553339"><ele>699.0</ele><time>2026-03-27T14:45:30.999Z</time></trkpt><trkpt lat="45.62882861612533" lon="10.160543910577903"><ele>699.0</ele><time>2026-03-27T14:45:31.999Z</time></trkpt><trkpt lat="45.62872394445931" lon="10.160571754799163"><ele>699.0</ele><time>2026-03-27T14:45:32.999Z</time></trkpt><trkpt lat="45.62862085174249" lon="10.160602570851772"><ele>699.0</ele><time>2026-03-27T14:45:33.999Z</time></trkpt><trkpt lat="45.6285260928732" lon="10.1606448306753"><ele>699.0</ele><time>2026-03-27T14:45:34.999Z</time></trkpt><trkpt lat="45.62843309466728" lon="10.160721143774676"><ele>702.4000000000001</ele><time>2026-03-27T14:45:35.999Z</time></trkpt><trkpt lat="45.62832664169008" lon="10.16083500755904"><ele>705.8</ele><time>2026-03-27T14:45:36.999Z</time></trkpt><trkpt lat="45.62822077563608" lon="10.16095521091623"><ele>709.2</ele><time>2026-03-27T14:45:37.999Z</time></trkpt><trkpt lat="45.62815422902078" lon="10.161060334648175"><ele>712.5999999999999</ele><time>2026-03-27T14:45:38.999Z</time></trkpt><trkpt lat="45.62812316353146" lon="10.16116483573139"><ele>716.0</ele><time>2026-03-27T14:45:39.999Z</time></trkpt><trkpt lat="45.628093255498925" lon="10.161259935332353"><ele>716.0000000000001</ele><time>2026-03-27T14:45:40.999Z</time></trkpt><trkpt lat="45.62805761040049" lon="10.16138083089238"><ele>716.0</ele><time>2026-03-27T14:45:41.999Z</time></trkpt><trkpt lat="45.62803679493489" lon="10.161487396197085"><ele>716.0</ele><time>2026-03-27T14:45:42.999Z</time></trkpt><trkpt lat="45.62803062805687" lon="10.161594075781409"><ele>716.0</ele><time>2026-03-27T14:45:43.999Z</time></trkpt><trkpt lat="45.628046746382495" lon="10.161685129817858"><ele>716.0</ele><time>2026-03-27T14:45:44.999Z</time></trkpt><trkpt lat="45.62807931959492" lon="10.161769914181917"><ele>716.0000000000001</ele><time>2026-03-27T14:45:45.999Z</time></trkpt><trkpt lat="45.62808342378662" lon="10.161864329424063"><ele>716.0</ele><time>2026-03-27T14:45:46.999Z</time></trkpt><trkpt lat="45.62805472294793" lon="10.161977464938067"><ele>719.5999999999999</ele><time>2026-03-27T14:45:47.999Z</time></trkpt><trkpt lat="45.62798311786148" lon="10.162104963174075"><ele>723.2</ele><time>2026-03-27T14:45:48.999Z</time></trkpt><trkpt lat="45.62789580876396" lon="10.162242562989643"><ele>726.8</ele><time>2026-03-27T14:45:49.999Z</time></trkpt><trkpt lat="45.62784047989837" lon="10.162360282623515"><ele>730.4000000000001</ele><time>2026-03-27T14:45:50.999Z</time></trkpt><trkpt lat="45.627831568255445" lon="10.162466161566526"><ele>734.0</ele><time>2026-03-27T14:45:51.999Z</time></trkpt><trkpt lat="45.62783925426941" lon="10.162584913218943"><ele>736.5</ele><time>2026-03-27T14:45:52.999Z</time></trkpt><trkpt lat="45.62786804064864" lon="10.162687625024079"><ele>739.0</ele><time>2026-03-27T14:45:53.999Z</time></trkpt><trkpt lat="45.627913034972345" lon="10.162787551256097"><ele>741.5</ele><time>2026-03-27T14:45:54.999Z</time></trkpt><trkpt lat="45.62792290669797" lon="10.162885730063824"><ele>744.0</ele><time>2026-03-27T14:45:55.999Z</time></trkpt><trkpt lat="45.62789160341269" lon="10.162964598242365"><ele>746.5</ele><time>2026-03-27T14:45:56.999Z</time></trkpt><trkpt lat="45.6278252197899" lon="10.163035608289057"><ele>749.0</ele><time>2026-03-27T14:45:57.999Z</time></trkpt><trkpt lat="45.627743073961575" lon="10.16312137500468"><ele>746.6666666666666</ele><time>2026-03-27T14:45:58.999Z</time></trkpt><trkpt lat="45.62769056827256" lon="10.163217631823228"><ele>744.3333333333333</ele><time>2026-03-27T14:45:59.999Z</time></trkpt><trkpt lat="45.62764503568933" lon="10.163322845286121"><ele>742.0</ele><time>2026-03-27T14:46:00.999Z</time></trkpt><trkpt lat="45.62762076696681" lon="10.16344180981212"><ele>739.6666666666666</ele><time>2026-03-27T14:46:01.999Z</time></trkpt><trkpt lat="45.62762630312885" lon="10.163538956534486"><ele>737.3333333333334</ele><time>2026-03-27T14:46:02.999Z</time></trkpt><trkpt lat="45.627666468876946" lon="10.16369636835138"><ele>735.0</ele><time>2026-03-27T14:46:04.999Z</time></trkpt><trkpt lat="45.62771085205267" lon="10.16376981624961"><ele>735.0</ele><time>2026-03-27T14:46:05.999Z</time></trkpt><trkpt lat="45.62773610191659" lon="10.163952008797402"><ele>735.0</ele><time>2026-03-27T14:46:07.999Z</time></trkpt><trkpt lat="45.62771417971349" lon="10.164055909898499"><ele>735.0</ele><time>2026-03-27T14:46:08.999Z</time></trkpt><trkpt lat="45.62764765858257" lon="10.164117397511975"><ele>735.0</ele><time>2026-03-27T14:46:10.999Z</time></trkpt><trkpt lat="45.62759189833961" lon="10.164193992154823"><ele>735.0</ele><time>2026-03-27T14:46:15.999Z</time></trkpt><trkpt lat="45.62752897599432" lon="10.164284266952468"><ele>739.0</ele><time>2026-03-27T14:46:16.999Z</time></trkpt><trkpt lat="45.627450988768075" lon="10.164367751148253"><ele>743.0</ele><time>2026-03-27T14:46:17.999Z</time></trkpt><trkpt lat="45.627365034665665" lon="10.16445593627231"><ele>747.0</ele><time>2026-03-27T14:46:18.999Z</time></trkpt><trkpt lat="45.62726810514524" lon="10.1645313466787"><ele>751.0</ele><time>2026-03-27T14:46:19.999Z</time></trkpt><trkpt lat="45.627185178225325" lon="10.164603333516336"><ele>755.0</ele><time>2026-03-27T14:46:20.999Z</time></trkpt><trkpt lat="45.627110074766854" lon="10.164712456705242"><ele>755.0</ele><time>2026-03-27T14:46:21.999Z</time></trkpt><trkpt lat="45.62705618829439" lon="10.1647653562482"><ele>755.0</ele><time>2026-03-27T14:46:22.999Z</time></trkpt><trkpt lat="45.626997702083145" lon="10.16488632598286"><ele>755.0</ele><time>2026-03-27T14:46:24.999Z</time></trkpt><trkpt lat="45.6270254087364" lon="10.165033095810015"><ele>755.0</ele><time>2026-03-27T14:46:26.998Z</time></trkpt><trkpt lat="45.62701855154696" lon="10.165211894986337"><ele>755.0</ele><time>2026-03-27T14:46:28.998Z</time></trkpt><trkpt lat="45.62701871472178" lon="10.165331739457269"><ele>758.1666666666666</ele><time>2026-03-27T14:46:29.998Z</time></trkpt><trkpt lat="45.62706933381975" lon="10.165467571161578"><ele>761.3333333333333</ele><time>2026-03-27T14:46:31.998Z</time></trkpt><trkpt lat="45.6271142521801" lon="10.165590188434669"><ele>764.5</ele><time>2026-03-27T14:46:33.998Z</time></trkpt><trkpt lat="45.62713627592781" lon="10.165686919995343"><ele>767.6666666666666</ele><time>2026-03-27T14:46:36Z</time></trkpt><trkpt lat="45.627168442017755" lon="10.165826098506265"><ele>770.8333333333334</ele><time>2026-03-27T14:46:38Z</time></trkpt><trkpt lat="45.62713738519249" lon="10.165905349300505"><ele>774.0</ele><time>2026-03-27T14:46:40Z</time></trkpt><trkpt lat="45.62708726763752" lon="10.166054799516587"><ele>773.4000000000001</ele><time>2026-03-27T14:46:42Z</time></trkpt><trkpt lat="45.627081728415476" lon="10.16616055437619"><ele>772.8</ele><time>2026-03-27T14:46:43Z</time></trkpt><trkpt lat="45.627095065440955" lon="10.166306262428012"><ele>772.2</ele><time>2026-03-27T14:46:45Z</time></trkpt><trkpt lat="45.62707035778819" lon="10.166397190640872"><ele>771.5999999999999</ele><time>2026-03-27T14:46:56Z</time></trkpt><trkpt lat="45.627014335628104" lon="10.166526330354595"><ele>771.0</ele><time>2026-03-27T14:46:58Z</time></trkpt><trkpt lat="45.62697390054816" lon="10.166696254861877"><ele>771.0</ele><time>2026-03-27T14:47:00Z</time></trkpt><trkpt lat="45.62694500478371" lon="10.166810012762008"><ele>771.0</ele><time>2026-03-27T14:47:02Z</time></trkpt><trkpt lat="45.62687043653022" lon="10.166896238035815"><ele>771.0</ele><time>2026-03-27T14:47:03.999Z</time></trkpt><trkpt lat="45.6268073229021" lon="10.166923036458511"><ele>771.0</ele><time>2026-03-27T14:47:04.999Z</time></trkpt><trkpt lat="45.62673463067785" lon="10.166961701397069"><ele>771.0</ele><time>2026-03-27T14:47:05.999Z</time></trkpt><trkpt lat="45.62667348980677" lon="10.166991778682723"><ele>771.0</ele><time>2026-03-27T14:47:06.999Z</time></trkpt><trkpt lat="45.626565565694" lon="10.167088943182236"><ele>771.0</ele><time>2026-03-27T14:47:08.999Z</time></trkpt><trkpt lat="45.626503319963824" lon="10.167144878996417"><ele>771.0</ele><time>2026-03-27T14:47:09.999Z</time></trkpt><trkpt lat="45.6264441926927" lon="10.16720820818383"><ele>771.0</ele><time>2026-03-27T14:47:10.999Z</time></trkpt><trkpt lat="45.62636491334168" lon="10.16729610967053"><ele>771.0</ele><time>2026-03-27T14:47:12.999Z</time></trkpt><trkpt lat="45.62629659130612" lon="10.167347749778266"><ele>771.0</ele><time>2026-03-27T14:47:16.999Z</time></trkpt><trkpt lat="45.62627926242383" lon="10.167458764330359"><ele>771.0</ele><time>2026-03-27T14:47:28.999Z</time></trkpt><trkpt lat="45.62619183950503" lon="10.167626174366523"><ele>771.4</ele><time>2026-03-27T14:47:30.999Z</time></trkpt><trkpt lat="45.62614339838847" lon="10.167724220621688"><ele>771.8</ele><time>2026-03-27T14:47:31.999Z</time></trkpt><trkpt lat="45.626096094592285" lon="10.16783482994724"><ele>772.1999999999999</ele><time>2026-03-27T14:47:32.999Z</time></trkpt><trkpt lat="45.62607184659079" lon="10.167987447713916"><ele>772.5999999999999</ele><time>2026-03-27T14:47:34.999Z</time></trkpt><trkpt lat="45.62608340881559" lon="10.168153329271918"><ele>773.0</ele><time>2026-03-27T14:47:36.999Z</time></trkpt><trkpt lat="45.62609429873757" lon="10.16826428948164"><ele>773.0000000000001</ele><time>2026-03-27T14:47:37.999Z</time></trkpt><trkpt lat="45.626093422826315" lon="10.168366890933289"><ele>773.0</ele><time>2026-03-27T14:47:38.999Z</time></trkpt><trkpt lat="45.626064233168606" lon="10.16845797266922"><ele>773.0</ele><time>2026-03-27T14:47:39.999Z</time></trkpt><trkpt lat="45.62599586837633" lon="10.168595882218435"><ele>773.0</ele><time>2026-03-27T14:47:41.999Z</time></trkpt><trkpt lat="45.62593385863662" lon="10.168672445609431"><ele>773.0000000000001</ele><time>2026-03-27T14:47:42.999Z</time></trkpt><trkpt lat="45.625866707199094" lon="10.168736719193728"><ele>773.0</ele><time>2026-03-27T14:47:43.999Z</time></trkpt><trkpt lat="45.62588293498277" lon="10.168985234383193"><ele>775.0000000000001</ele><time>2026-03-27T14:47:44.999Z</time></trkpt><trkpt lat="45.62582731299175" lon="10.169041227652034"><ele>777.0</ele><time>2026-03-27T14:47:45.999Z</time></trkpt><trkpt lat="45.62577682988181" lon="10.169095899483716"><ele>779.0</ele><time>2026-03-27T14:47:46.999Z</time></trkpt><trkpt lat="45.62569225961501" lon="10.169213078197972"><ele>781.0</ele><time>2026-03-27T14:47:48.999Z</time></trkpt><trkpt lat="45.625625883785226" lon="10.169338391876233"><ele>783.0000000000001</ele><time>2026-03-27T14:47:50.999Z</time></trkpt><trkpt lat="45.625582368742734" lon="10.169434609670965"><ele>785.0</ele><time>2026-03-27T14:47:51.999Z</time></trkpt><trkpt lat="45.625393872639414" lon="10.169668671824864"><ele>785.0</ele><time>2026-03-27T14:47:53.999Z</time></trkpt><trkpt lat="45.625305921684166" lon="10.169750933740145"><ele>785.0</ele><time>2026-03-27T14:47:55.999Z</time></trkpt><trkpt lat="45.62521249327818" lon="10.169842516964199"><ele>785.0</ele><time>2026-03-27T14:47:57.999Z</time></trkpt><trkpt lat="45.62511152034965" lon="10.16993266480109"><ele>785.0</ele><time>2026-03-27T14:47:59.999Z</time></trkpt><trkpt lat="45.625049360470236" lon="10.169973566582605"><ele>785.0</ele><time>2026-03-27T14:48:00.999Z</time></trkpt><trkpt lat="45.62498731637426" lon="10.170001443446258"><ele>785.0</ele><time>2026-03-27T14:48:01.999Z</time></trkpt><trkpt lat="45.62491513470531" lon="10.169994858929456"><ele>785.0</ele><time>2026-03-27T14:48:02.999Z</time></trkpt><trkpt lat="45.62484958877833" lon="10.170000406734552"><ele>785.0</ele><time>2026-03-27T14:48:04.999Z</time></trkpt><trkpt lat="45.62491997592588" lon="10.169992631013017"><ele>785.0</ele><time>2026-03-27T14:48:13.999Z</time></trkpt><trkpt lat="45.62498555853297" lon="10.170017488756557"><ele>785.0</ele><time>2026-03-27T14:48:14.999Z</time></trkpt><trkpt lat="45.625051738967855" lon="10.170026222137567"><ele>785.0</ele><time>2026-03-27T14:48:15.999Z</time></trkpt><trkpt lat="45.62510816102179" lon="10.169968681700446"><ele>785.0</ele><time>2026-03-27T14:48:16.999Z</time></trkpt><trkpt lat="45.625160650003885" lon="10.169918956886145"><ele>785.0</ele><time>2026-03-27T14:48:17.999Z</time></trkpt><trkpt lat="45.62522025770373" lon="10.169865412552083"><ele>785.0</ele><time>2026-03-27T14:48:18.999Z</time></trkpt><trkpt lat="45.625279499799994" lon="10.16980562245675"><ele>785.0</ele><time>2026-03-27T14:48:19.999Z</time></trkpt><trkpt lat="45.62534836749142" lon="10.169766412307165"><ele>785.0</ele><time>2026-03-27T14:48:20.999Z</time></trkpt><trkpt lat="45.62545273623838" lon="10.169664584785464"><ele>785.0</ele><time>2026-03-27T14:48:22.999Z</time></trkpt><trkpt lat="45.625548236295515" lon="10.169569413545478"><ele>785.0</ele><time>2026-03-27T14:48:24.999Z</time></trkpt><trkpt lat="45.62560372245049" lon="10.16951728007727"><ele>785.0</ele><time>2026-03-27T14:48:25.999Z</time></trkpt><trkpt lat="45.62566708276159" lon="10.169464143889131"><ele>785.0</ele><time>2026-03-27T14:48:26.999Z</time></trkpt><trkpt lat="45.62574238071245" lon="10.169416834291104"><ele>785.0</ele><time>2026-03-27T14:48:27.999Z</time></trkpt><trkpt lat="45.62580934373189" lon="10.16934778068603"><ele>785.0</ele><time>2026-03-27T14:48:28.999Z</time></trkpt><trkpt lat="45.625682299779264" lon="10.169163541740431"><ele>785.0</ele><time>2026-03-27T14:48:29.999Z</time></trkpt><trkpt lat="45.62598423868978" lon="10.169333615517322"><ele>785.0</ele><time>2026-03-27T14:48:30.999Z</time></trkpt><trkpt lat="45.62606468974499" lon="10.169315258342706"><ele>785.0</ele><time>2026-03-27T14:48:31.999Z</time></trkpt><trkpt lat="45.626329469504356" lon="10.169237970019605"><ele>787.0</ele><time>2026-03-27T14:48:34.998Z</time></trkpt><trkpt lat="45.626430409639575" lon="10.169220577181182"><ele>789.0</ele><time>2026-03-27T14:48:35.998Z</time></trkpt><trkpt lat="45.62653490060558" lon="10.169195631235336"><ele>791.0</ele><time>2026-03-27T14:48:36.998Z</time></trkpt><trkpt lat="45.62662780963602" lon="10.169153637349947"><ele>793.0</ele><time>2026-03-27T14:48:37.998Z</time></trkpt><trkpt lat="45.62670963779536" lon="10.169149108096194"><ele>795.0</ele><time>2026-03-27T14:48:38.998Z</time></trkpt><trkpt lat="45.62678358617639" lon="10.169137400278187"><ele>795.0</ele><time>2026-03-27T14:48:39.998Z</time></trkpt><trkpt lat="45.62685287172275" lon="10.16913512524444"><ele>795.0</ele><time>2026-03-27T14:48:41Z</time></trkpt><trkpt lat="45.62691932195538" lon="10.16913225961263"><ele>795.0</ele><time>2026-03-27T14:48:42Z</time></trkpt><trkpt lat="45.62698878371986" lon="10.169108671278453"><ele>795.0</ele><time>2026-03-27T14:48:45Z</time></trkpt><trkpt lat="45.62708310788428" lon="10.169027770066428"><ele>795.0</ele><time>2026-03-27T14:48:52Z</time></trkpt><trkpt lat="45.627148267077324" lon="10.168945753082728"><ele>795.0</ele><time>2026-03-27T14:48:53Z</time></trkpt><trkpt lat="45.62719701855453" lon="10.168874546938431"><ele>797.1666666666666</ele><time>2026-03-27T14:48:54Z</time></trkpt><trkpt lat="45.627253159449836" lon="10.168792347153746"><ele>799.3333333333333</ele><time>2026-03-27T14:48:55Z</time></trkpt><trkpt lat="45.6273010769404" lon="10.168695782486544"><ele>801.5</ele><time>2026-03-27T14:48:56Z</time></trkpt><trkpt lat="45.62738184595251" lon="10.16862030607545"><ele>803.6666666666666</ele><time>2026-03-27T14:48:57Z</time></trkpt><trkpt lat="45.627441883553445" lon="10.16854276634531"><ele>805.8333333333333</ele><time>2026-03-27T14:48:58Z</time></trkpt><trkpt lat="45.62752025524684" lon="10.168441547797574"><ele>808.0</ele><time>2026-03-27T14:48:59Z</time></trkpt><trkpt lat="45.62760493863663" lon="10.168332177516765"><ele>808.0</ele><time>2026-03-27T14:49:00Z</time></trkpt><trkpt lat="45.62769100481922" lon="10.168221021373443"><ele>808.0</ele><time>2026-03-27T14:49:01Z</time></trkpt><trkpt lat="45.62777877466889" lon="10.168110859058423"><ele>808.0</ele><time>2026-03-27T14:49:02Z</time></trkpt><trkpt lat="45.62787408775491" lon="10.167990398561424"><ele>808.0</ele><time>2026-03-27T14:49:03Z</time></trkpt><trkpt lat="45.62794831220401" lon="10.16789841903723"><ele>810.0</ele><time>2026-03-27T14:49:04Z</time></trkpt><trkpt lat="45.62803191840946" lon="10.167787610116262"><ele>812.0</ele><time>2026-03-27T14:49:05Z</time></trkpt><trkpt lat="45.62814371547805" lon="10.167696077980148"><ele>814.0</ele><time>2026-03-27T14:49:06Z</time></trkpt><trkpt lat="45.62825497083179" lon="10.167585505671225"><ele>816.0</ele><time>2026-03-27T14:49:07Z</time></trkpt><trkpt lat="45.62834915966011" lon="10.167460820212943"><ele>817.0</ele><time>2026-03-27T14:49:08Z</time></trkpt><trkpt lat="45.62840636373347" lon="10.167349513661184"><ele>818.0</ele><time>2026-03-27T14:49:09Z</time></trkpt><trkpt lat="45.62846457172508" lon="10.167209989585412"><ele>819.0</ele><time>2026-03-27T14:49:10.999Z</time></trkpt><trkpt lat="45.62848985281504" lon="10.167043787847449"><ele>820.0</ele><time>2026-03-27T14:49:12.999Z</time></trkpt><trkpt lat="45.62848299822035" lon="10.166921844959292"><ele>821.0</ele><time>2026-03-27T14:49:13.999Z</time></trkpt><trkpt lat="45.628478303137115" lon="10.166785788345157"><ele>821.0</ele><time>2026-03-27T14:49:14.999Z</time></trkpt><trkpt lat="45.62851287109266" lon="10.166608302353097"><ele>821.0</ele><time>2026-03-27T14:49:15.999Z</time></trkpt><trkpt lat="45.62853653324056" lon="10.166465847807176"><ele>821.0</ele><time>2026-03-27T14:49:16.999Z</time></trkpt><trkpt lat="45.628557321002184" lon="10.166330313755008"><ele>821.0</ele><time>2026-03-27T14:49:17.999Z</time></trkpt><trkpt lat="45.628584752250376" lon="10.166197019783391"><ele>821.0</ele><time>2026-03-27T14:49:18.999Z</time></trkpt><trkpt lat="45.628618142670355" lon="10.166088329468272"><ele>823.0000000000001</ele><time>2026-03-27T14:49:19.999Z</time></trkpt><trkpt lat="45.62866204199817" lon="10.165979431604157"><ele>825.0</ele><time>2026-03-27T14:49:20.999Z</time></trkpt><trkpt lat="45.62870482121373" lon="10.165885618176935"><ele>827.0</ele><time>2026-03-27T14:49:21.999Z</time></trkpt><trkpt lat="45.628748987485665" lon="10.165797705193267"><ele>829.0</ele><time>2026-03-27T14:49:22.999Z</time></trkpt><trkpt lat="45.62880572779981" lon="10.165693855041473"><ele>831.0000000000001</ele><time>2026-03-27T14:49:23.999Z</time></trkpt><trkpt lat="45.62887224134311" lon="10.165575309100566"><ele>833.0</ele><time>2026-03-27T14:49:24.999Z</time></trkpt><trkpt lat="45.628928115305705" lon="10.165449892896813"><ele>833.0</ele><time>2026-03-27T14:49:25.999Z</time></trkpt><trkpt lat="45.62901463965896" lon="10.165309691246959"><ele>833.0</ele><time>2026-03-27T14:49:26.999Z</time></trkpt><trkpt lat="45.62910159220308" lon="10.165189100594423"><ele>833.0</ele><time>2026-03-27T14:49:27.999Z</time></trkpt><trkpt lat="45.62917962932971" lon="10.165068476445093"><ele>833.0</ele><time>2026-03-27T14:49:28.999Z</time></trkpt><trkpt lat="45.62926067943554" lon="10.164943412076388"><ele>836.2</ele><time>2026-03-27T14:49:29.999Z</time></trkpt><trkpt lat="45.6293293338396" lon="10.16483232224894"><ele>839.4</ele><time>2026-03-27T14:49:30.999Z</time></trkpt><trkpt lat="45.62939295402692" lon="10.164723347839042"><ele>842.6</ele><time>2026-03-27T14:49:31.999Z</time></trkpt><trkpt lat="45.62944649181296" lon="10.164618297996022"><ele>845.8000000000001</ele><time>2026-03-27T14:49:32.999Z</time></trkpt><trkpt lat="45.62948664423807" lon="10.1644932114691"><ele>849.0</ele><time>2026-03-27T14:49:33.999Z</time></trkpt><trkpt lat="45.629543283677" lon="10.164364508685729"><ele>849.0</ele><time>2026-03-27T14:49:34.999Z</time></trkpt><trkpt lat="45.62959356419631" lon="10.164213405080426"><ele>849.0</ele><time>2026-03-27T14:49:35.999Z</time></trkpt><trkpt lat="45.6296275413652" lon="10.164136875785882"><ele>849.0</ele><time>2026-03-27T14:49:36.999Z</time></trkpt><trkpt lat="45.62970081199277" lon="10.163977514777132"><ele>849.0</ele><time>2026-03-27T14:49:38.999Z</time></trkpt><trkpt lat="45.629744139197705" lon="10.163881528348137"><ele>849.0</ele><time>2026-03-27T14:49:39.999Z</time></trkpt><trkpt lat="45.629782204410795" lon="10.163801468846337"><ele>845.5</ele><time>2026-03-27T14:49:40.999Z</time></trkpt><trkpt lat="45.62986881917289" lon="10.163652870956247"><ele>842.0</ele><time>2026-03-27T14:49:42.999Z</time></trkpt><trkpt lat="45.629920004771186" lon="10.163589980914296"><ele>838.5</ele><time>2026-03-27T14:49:43.999Z</time></trkpt><trkpt lat="45.62997379900052" lon="10.16353985467549"><ele>835.0</ele><time>2026-03-27T14:49:44.999Z</time></trkpt><trkpt lat="45.630037981960164" lon="10.16349670161387"><ele>831.5</ele><time>2026-03-27T14:49:45.999Z</time></trkpt><trkpt lat="45.630115029004436" lon="10.163466625977396"><ele>828.0</ele><time>2026-03-27T14:49:46.999Z</time></trkpt><trkpt lat="45.63020594382983" lon="10.163436864737617"><ele>828.0</ele><time>2026-03-27T14:49:47.999Z</time></trkpt><trkpt lat="45.630273966714135" lon="10.163420980244673"><ele>828.0</ele><time>2026-03-27T14:49:48.999Z</time></trkpt><trkpt lat="45.6303600428571" lon="10.163405057843718"><ele>828.0</ele><time>2026-03-27T14:49:49.999Z</time></trkpt><trkpt lat="45.63043171054988" lon="10.163392502344784"><ele>828.0</ele><time>2026-03-27T14:49:50.999Z</time></trkpt><trkpt lat="45.630507653973304" lon="10.16337919778056"><ele>828.0</ele><time>2026-03-27T14:49:51.999Z</time></trkpt><trkpt lat="45.630590409024265" lon="10.163364650045919"><ele>828.0</ele><time>2026-03-27T14:49:52.999Z</time></trkpt><trkpt lat="45.630683663440195" lon="10.16334701276706"><ele>828.5999999999999</ele><time>2026-03-27T14:49:53.999Z</time></trkpt><trkpt lat="45.630772614020906" lon="10.16333049140872"><ele>829.1999999999999</ele><time>2026-03-27T14:49:54.999Z</time></trkpt><trkpt lat="45.630864221970356" lon="10.163314395904036"><ele>829.8</ele><time>2026-03-27T14:49:55.999Z</time></trkpt><trkpt lat="45.63095951091868" lon="10.16329938463681"><ele>830.4</ele><time>2026-03-27T14:49:56.999Z</time></trkpt><trkpt lat="45.63105670359728" lon="10.163286656131302"><ele>831.0</ele><time>2026-03-27T14:49:57.999Z</time></trkpt><trkpt lat="45.63116156824297" lon="10.163276161757452"><ele>829.1999999999999</ele><time>2026-03-27T14:49:58.999Z</time></trkpt><trkpt lat="45.63125760326389" lon="10.163281478459421"><ele>827.4</ele><time>2026-03-27T14:49:59.999Z</time></trkpt><trkpt lat="45.63135202094299" lon="10.163291225145416"><ele>825.6</ele><time>2026-03-27T14:50:00.999Z</time></trkpt><trkpt lat="45.63145517972772" lon="10.163297320706606"><ele>823.8</ele><time>2026-03-27T14:50:01.999Z</time></trkpt><trkpt lat="45.63154591174105" lon="10.163282776197684"><ele>822.0</ele><time>2026-03-27T14:50:02.999Z</time></trkpt><trkpt lat="45.63164432371145" lon="10.163271560689727"><ele>822.0</ele><time>2026-03-27T14:50:03.999Z</time></trkpt><trkpt lat="45.63172774288952" lon="10.163276890310701"><ele>822.0</ele><time>2026-03-27T14:50:04.999Z</time></trkpt><trkpt lat="45.6318256911265" lon="10.163307077232606"><ele>822.0</ele><time>2026-03-27T14:50:05.999Z</time></trkpt><trkpt lat="45.631934972858076" lon="10.163350339323335"><ele>822.0</ele><time>2026-03-27T14:50:06.999Z</time></trkpt><trkpt lat="45.632026020763576" lon="10.163385318618213"><ele>822.0</ele><time>2026-03-27T14:50:07.999Z</time></trkpt><trkpt lat="45.632114346751955" lon="10.163420089108488"><ele>819.4000000000001</ele><time>2026-03-27T14:50:08.999Z</time></trkpt><trkpt lat="45.632197078711734" lon="10.163470450762164"><ele>816.8000000000001</ele><time>2026-03-27T14:50:09.999Z</time></trkpt><trkpt lat="45.63227703001749" lon="10.16350309755136"><ele>814.2</ele><time>2026-03-27T14:50:10.999Z</time></trkpt><trkpt lat="45.63235983999414" lon="10.163564697453745"><ele>811.6</ele><time>2026-03-27T14:50:11.999Z</time></trkpt><trkpt lat="45.63247439249811" lon="10.163589805408836"><ele>809.0</ele><time>2026-03-27T14:50:12.999Z</time></trkpt><trkpt lat="45.63257617638155" lon="10.16358241754284"><ele>809.0</ele><time>2026-03-27T14:50:13.999Z</time></trkpt><trkpt lat="45.63266112386771" lon="10.1635739056728"><ele>809.0</ele><time>2026-03-27T14:50:14.999Z</time></trkpt><trkpt lat="45.63273039100722" lon="10.163549597578516"><ele>809.0</ele><time>2026-03-27T14:50:15.999Z</time></trkpt><trkpt lat="45.63279851441995" lon="10.163512489422004"><ele>809.0</ele><time>2026-03-27T14:50:17.999Z</time></trkpt><trkpt lat="45.632861712622514" lon="10.163481989949542"><ele>809.0</ele><time>2026-03-27T14:50:20.999Z</time></trkpt><trkpt lat="45.63292789445455" lon="10.163452733042417"><ele>809.0</ele><time>2026-03-27T14:50:25.999Z</time></trkpt><trkpt lat="45.63299639672884" lon="10.163452133481268"><ele>809.0</ele><time>2026-03-27T14:50:32.999Z</time></trkpt><trkpt lat="45.63306651368521" lon="10.163455936329099"><ele>807.1666666666667</ele><time>2026-03-27T14:50:34.999Z</time></trkpt><trkpt lat="45.63318822955332" lon="10.163460173030755"><ele>805.3333333333334</ele><time>2026-03-27T14:50:36.999Z</time></trkpt><trkpt lat="45.633254114528825" lon="10.163475132989698"><ele>803.5</ele><time>2026-03-27T14:50:37.999Z</time></trkpt><trkpt lat="45.63333785578801" lon="10.163486070089238"><ele>801.6666666666667</ele><time>2026-03-27T14:50:38.999Z</time></trkpt><trkpt lat="45.63342550298341" lon="10.163485200240087"><ele>799.8333333333334</ele><time>2026-03-27T14:50:39.999Z</time></trkpt><trkpt lat="45.633502118128746" lon="10.163459186875134"><ele>798.0</ele><time>2026-03-27T14:50:40.999Z</time></trkpt><trkpt lat="45.63357872110534" lon="10.16346432768489"><ele>796.0</ele><time>2026-03-27T14:50:41.998Z</time></trkpt><trkpt lat="45.63367214324712" lon="10.163442346576366"><ele>794.0</ele><time>2026-03-27T14:50:42.998Z</time></trkpt><trkpt lat="45.633748299530296" lon="10.163398736071185"><ele>792.0</ele><time>2026-03-27T14:50:43.998Z</time></trkpt><trkpt lat="45.63383699150637" lon="10.163359397787543"><ele>790.0</ele><time>2026-03-27T14:50:44.998Z</time></trkpt><trkpt lat="45.63394060500518" lon="10.163322261177687"><ele>788.0</ele><time>2026-03-27T14:50:46Z</time></trkpt><trkpt lat="45.63402494970489" lon="10.16326572948582"><ele>785.8</ele><time>2026-03-27T14:50:47Z</time></trkpt><trkpt lat="45.63411081819978" lon="10.16319396957332"><ele>783.5999999999999</ele><time>2026-03-27T14:50:48Z</time></trkpt><trkpt lat="45.634188627709165" lon="10.16311824137406"><ele>781.4000000000001</ele><time>2026-03-27T14:50:49Z</time></trkpt><trkpt lat="45.63424941397686" lon="10.163009755353896"><ele>779.2</ele><time>2026-03-27T14:50:50Z</time></trkpt><trkpt lat="45.63431559400956" lon="10.16289599931004"><ele>777.0</ele><time>2026-03-27T14:50:51Z</time></trkpt><trkpt lat="45.634379453167845" lon="10.16277711698671"><ele>777.0</ele><time>2026-03-27T14:50:52Z</time></trkpt><trkpt lat="45.63444156581895" lon="10.162683880482794"><ele>777.0</ele><time>2026-03-27T14:50:53Z</time></trkpt><trkpt lat="45.63448303246542" lon="10.162591359612042"><ele>777.0</ele><time>2026-03-27T14:50:54Z</time></trkpt><trkpt lat="45.634518329835494" lon="10.162511357187418"><ele>777.0</ele><time>2026-03-27T14:50:55Z</time></trkpt><trkpt lat="45.634555719770226" lon="10.16240839048035"><ele>777.0</ele><time>2026-03-27T14:50:57Z</time></trkpt><trkpt lat="45.634605235038144" lon="10.162267949365066"><ele>777.0</ele><time>2026-03-27T14:51:00Z</time></trkpt><trkpt lat="45.634642577461456" lon="10.162163241955895"><ele>778.8</ele><time>2026-03-27T14:51:01Z</time></trkpt><trkpt lat="45.63466849583167" lon="10.162050494400349"><ele>780.6</ele><time>2026-03-27T14:51:02Z</time></trkpt><trkpt lat="45.63470147916323" lon="10.161936208433364"><ele>782.4</ele><time>2026-03-27T14:51:03Z</time></trkpt><trkpt lat="45.63474385986863" lon="10.161826590232481"><ele>784.1999999999999</ele><time>2026-03-27T14:51:04Z</time></trkpt><trkpt lat="45.63480523600694" lon="10.161696493848693"><ele>786.0</ele><time>2026-03-27T14:51:05Z</time></trkpt><trkpt lat="45.63486081705643" lon="10.161579028360878"><ele>781.5</ele><time>2026-03-27T14:51:06Z</time></trkpt><trkpt lat="45.63490719794615" lon="10.161454410870792"><ele>777.0</ele><time>2026-03-27T14:51:07Z</time></trkpt><trkpt lat="45.63497157895789" lon="10.161375727694681"><ele>772.5</ele><time>2026-03-27T14:51:08Z</time></trkpt><trkpt lat="45.63502379194381" lon="10.161294664786487"><ele>768.0</ele><time>2026-03-27T14:51:09Z</time></trkpt><trkpt lat="45.63507354728326" lon="10.161227452491346"><ele>763.5</ele><time>2026-03-27T14:51:10Z</time></trkpt><trkpt lat="45.63513803786287" lon="10.161161864888543"><ele>759.0</ele><time>2026-03-27T14:51:11Z</time></trkpt><trkpt lat="45.635215826025814" lon="10.16108878590132"><ele>760.75</ele><time>2026-03-27T14:51:12Z</time></trkpt><trkpt lat="45.63530486451097" lon="10.16098311450979"><ele>762.5</ele><time>2026-03-27T14:51:13Z</time></trkpt><trkpt lat="45.63539417939936" lon="10.16085187989201"><ele>764.25</ele><time>2026-03-27T14:51:14Z</time></trkpt><trkpt lat="45.63548360126409" lon="10.160761268250697"><ele>766.0</ele><time>2026-03-27T14:51:15Z</time></trkpt><trkpt lat="45.635552917510076" lon="10.160660453588536"><ele>766.0</ele><time>2026-03-27T14:51:16Z</time></trkpt><trkpt lat="45.63561704684624" lon="10.160582216616318"><ele>766.0</ele><time>2026-03-27T14:51:17Z</time></trkpt><trkpt lat="45.635685010026755" lon="10.160538356221153"><ele>766.0</ele><time>2026-03-27T14:51:18Z</time></trkpt><trkpt lat="45.63573350372889" lon="10.160430050561812"><ele>766.0</ele><time>2026-03-27T14:51:19.999Z</time></trkpt><trkpt lat="45.63580654438459" lon="10.160317403761532"><ele>766.0</ele><time>2026-03-27T14:51:21.999Z</time></trkpt><trkpt lat="45.63582358276812" lon="10.160204839288065"><ele>766.0</ele><time>2026-03-27T14:51:23.999Z</time></trkpt><trkpt lat="45.635884606134574" lon="10.160069142621778"><ele>766.0</ele><time>2026-03-27T14:51:25.999Z</time></trkpt><trkpt lat="45.63592132537631" lon="10.159986504663571"><ele>766.0</ele><time>2026-03-27T14:51:26.999Z</time></trkpt><trkpt lat="45.63596690080201" lon="10.159878116774863"><ele>766.0</ele><time>2026-03-27T14:51:27.999Z</time></trkpt><trkpt lat="45.63601607377239" lon="10.159751005583068"><ele>766.0</ele><time>2026-03-27T14:51:28.999Z</time></trkpt><trkpt lat="45.63606198177968" lon="10.159620157525808"><ele>766.0</ele><time>2026-03-27T14:51:29.999Z</time></trkpt><trkpt lat="45.636098482996246" lon="10.159518405689655"><ele>766.0</ele><time>2026-03-27T14:51:30.999Z</time></trkpt><trkpt lat="45.63613969274018" lon="10.159449543795947"><ele>767.25</ele><time>2026-03-27T14:51:31.999Z</time></trkpt><trkpt lat="45.636167236582466" lon="10.159268939969156"><ele>768.5</ele><time>2026-03-27T14:51:33.999Z</time></trkpt><trkpt lat="45.636198194836126" lon="10.159076695063547"><ele>769.75</ele><time>2026-03-27T14:51:35.999Z</time></trkpt><trkpt lat="45.63622511488641" lon="10.158964068101163"><ele>771.0</ele><time>2026-03-27T14:51:36.999Z</time></trkpt><trkpt lat="45.63615237034138" lon="10.15880096110822"><ele>771.0</ele><time>2026-03-27T14:51:37.999Z</time></trkpt><trkpt lat="45.63616055016244" lon="10.158683127098005"><ele>771.0</ele><time>2026-03-27T14:51:38.999Z</time></trkpt><trkpt lat="45.63620022608416" lon="10.158565220805905"><ele>771.0</ele><time>2026-03-27T14:51:39.999Z</time></trkpt><trkpt lat="45.636268757091095" lon="10.158419425810708"><ele>771.0</ele><time>2026-03-27T14:51:40.999Z</time></trkpt><trkpt lat="45.63633382245539" lon="10.158260240335288"><ele>771.0</ele><time>2026-03-27T14:51:41.999Z</time></trkpt><trkpt lat="45.63638438591523" lon="10.158092712301249"><ele>765.1999999999999</ele><time>2026-03-27T14:51:42.999Z</time></trkpt><trkpt lat="45.63641944296314" lon="10.157939625708106"><ele>759.4</ele><time>2026-03-27T14:51:43.999Z</time></trkpt><trkpt lat="45.63645123170881" lon="10.157784931374108"><ele>753.6</ele><time>2026-03-27T14:51:44.999Z</time></trkpt><trkpt lat="45.63648782903891" lon="10.157637568190003"><ele>747.8</ele><time>2026-03-27T14:51:45.999Z</time></trkpt><trkpt lat="45.63653273875247" lon="10.157493420160687"><ele>742.0</ele><time>2026-03-27T14:51:46.999Z</time></trkpt><trkpt lat="45.63657661646001" lon="10.157355458879605"><ele>738.8</ele><time>2026-03-27T14:51:47.999Z</time></trkpt><trkpt lat="45.63660341143938" lon="10.157221943888253"><ele>735.6</ele><time>2026-03-27T14:51:48.999Z</time></trkpt><trkpt lat="45.63661446153409" lon="10.157079055978205"><ele>732.4</ele><time>2026-03-27T14:51:49.999Z</time></trkpt><trkpt lat="45.63660176699653" lon="10.156934329821631"><ele>729.1999999999999</ele><time>2026-03-27T14:51:50.999Z</time></trkpt><trkpt lat="45.63658286945395" lon="10.156763709551196"><ele>726.0</ele><time>2026-03-27T14:51:51.999Z</time></trkpt><trkpt lat="45.636596637615284" lon="10.156564485286667"><ele>722.5</ele><time>2026-03-27T14:51:52.999Z</time></trkpt><trkpt lat="45.6366283452991" lon="10.156393901431578"><ele>719.0</ele><time>2026-03-27T14:51:53.999Z</time></trkpt><trkpt lat="45.63664935962335" lon="10.1562326075594"><ele>715.5</ele><time>2026-03-27T14:51:54.999Z</time></trkpt><trkpt lat="45.63665152160437" lon="10.156053969381118"><ele>712.0</ele><time>2026-03-27T14:51:55.999Z</time></trkpt><trkpt lat="45.636629100497544" lon="10.155891145298709"><ele>712.0</ele><time>2026-03-27T14:51:56.999Z</time></trkpt><trkpt lat="45.63662142746388" lon="10.155732539631575"><ele>712.0</ele><time>2026-03-27T14:51:57.999Z</time></trkpt><trkpt lat="45.636619715849264" lon="10.155595931782438"><ele>712.0</ele><time>2026-03-27T14:51:58.999Z</time></trkpt><trkpt lat="45.636632723015005" lon="10.155441886529092"><ele>712.0</ele><time>2026-03-27T14:51:59.999Z</time></trkpt><trkpt lat="45.636663378938714" lon="10.155288939866352"><ele>712.0</ele><time>2026-03-27T14:52:00.999Z</time></trkpt><trkpt lat="45.63671738860536" lon="10.155102593283143"><ele>711.25</ele><time>2026-03-27T14:52:01.999Z</time></trkpt><trkpt lat="45.63678906987162" lon="10.154912664724407"><ele>710.5</ele><time>2026-03-27T14:52:02.999Z</time></trkpt><trkpt lat="45.63685102479519" lon="10.154764415129595"><ele>709.75</ele><time>2026-03-27T14:52:03.999Z</time></trkpt><trkpt lat="45.63689701313569" lon="10.154633737380392"><ele>709.0</ele><time>2026-03-27T14:52:04.999Z</time></trkpt><trkpt lat="45.63693934638915" lon="10.154505392456215"><ele>707.0</ele><time>2026-03-27T14:52:05.999Z</time></trkpt><trkpt lat="45.6369878520587" lon="10.154407747649882"><ele>705.0</ele><time>2026-03-27T14:52:06.999Z</time></trkpt><trkpt lat="45.63704231123693" lon="10.154339987663052"><ele>703.0</ele><time>2026-03-27T14:52:07.999Z</time></trkpt><trkpt lat="45.63711778293815" lon="10.15429189715861"><ele>701.0</ele><time>2026-03-27T14:52:08.999Z</time></trkpt><trkpt lat="45.63724264549345" lon="10.154260231780214"><ele>699.0</ele><time>2026-03-27T14:52:09.999Z</time></trkpt><trkpt lat="45.637362254350705" lon="10.154267204119188"><ele>699.0</ele><time>2026-03-27T14:52:10.999Z</time></trkpt><trkpt lat="45.637458066250275" lon="10.154277821826106"><ele>699.0</ele><time>2026-03-27T14:52:11.999Z</time></trkpt><trkpt lat="45.63753888579927" lon="10.154299072524179"><ele>699.0</ele><time>2026-03-27T14:52:12.999Z</time></trkpt><trkpt lat="45.637629654592764" lon="10.154319199962222"><ele>699.0</ele><time>2026-03-27T14:52:13.999Z</time></trkpt><trkpt lat="45.63771835649676" lon="10.154321418891552"><ele>699.0</ele><time>2026-03-27T14:52:14.999Z</time></trkpt><trkpt lat="45.63782131519947" lon="10.154351076907277"><ele>696.75</ele><time>2026-03-27T14:52:15.999Z</time></trkpt><trkpt lat="45.63794057921371" lon="10.154425815534315"><ele>694.5</ele><time>2026-03-27T14:52:16.999Z</time></trkpt><trkpt lat="45.63804742627236" lon="10.154496170284954"><ele>692.25</ele><time>2026-03-27T14:52:17.999Z</time></trkpt><trkpt lat="45.638171018067865" lon="10.15455360759765"><ele>690.0</ele><time>2026-03-27T14:52:18.999Z</time></trkpt><trkpt lat="45.63828051582248" lon="10.154600113549598"><ele>690.0</ele><time>2026-03-27T14:52:19.999Z</time></trkpt><trkpt lat="45.63837558257224" lon="10.154616024039113"><ele>690.0</ele><time>2026-03-27T14:52:20.999Z</time></trkpt><trkpt lat="45.63847847877612" lon="10.154610151036655"><ele>690.0</ele><time>2026-03-27T14:52:21.999Z</time></trkpt><trkpt lat="45.638590853140045" lon="10.154590643198148"><ele>690.0</ele><time>2026-03-27T14:52:22.999Z</time></trkpt><trkpt lat="45.63870782128754" lon="10.154571547298888"><ele>690.0</ele><time>2026-03-27T14:52:23.999Z</time></trkpt><trkpt lat="45.63879446868509" lon="10.154569481680099"><ele>688.25</ele><time>2026-03-27T14:52:24.999Z</time></trkpt><trkpt lat="45.63890453974042" lon="10.154605086460903"><ele>686.5</ele><time>2026-03-27T14:52:25.999Z</time></trkpt><trkpt lat="45.63902174217494" lon="10.154643746111283"><ele>684.75</ele><time>2026-03-27T14:52:26.999Z</time></trkpt><trkpt lat="45.63913353599528" lon="10.154721552313081"><ele>683.0</ele><time>2026-03-27T14:52:27.999Z</time></trkpt><trkpt lat="45.63924057996676" lon="10.154812079942143"><ele>683.5999999999999</ele><time>2026-03-27T14:52:28.999Z</time></trkpt><trkpt lat="45.6393324611446" lon="10.154919494836971"><ele>684.1999999999999</ele><time>2026-03-27T14:52:29.999Z</time></trkpt><trkpt lat="45.63939476254982" lon="10.155019211900802"><ele>684.8</ele><time>2026-03-27T14:52:30.999Z</time></trkpt><trkpt lat="45.639440550160366" lon="10.155139132894643"><ele>685.4</ele><time>2026-03-27T14:52:31.999Z</time></trkpt><trkpt lat="45.63946849157774" lon="10.155270511218944"><ele>686.0</ele><time>2026-03-27T14:52:32.999Z</time></trkpt><trkpt lat="45.63948362441772" lon="10.155381551213587"><ele>686.0</ele><time>2026-03-27T14:52:33.999Z</time></trkpt><trkpt lat="45.63953506879623" lon="10.155458235725359"><ele>686.0</ele><time>2026-03-27T14:52:34.999Z</time></trkpt><trkpt lat="45.639603621871785" lon="10.155477726882616"><ele>686.0</ele><time>2026-03-27T14:52:35.999Z</time></trkpt><trkpt lat="45.639689427507506" lon="10.155461213376062"><ele>686.0</ele><time>2026-03-27T14:52:36.999Z</time></trkpt><trkpt lat="45.63978241484611" lon="10.155402559136213"><ele>686.0</ele><time>2026-03-27T14:52:37.999Z</time></trkpt><trkpt lat="45.63986015442029" lon="10.155364241469115"><ele>686.0</ele><time>2026-03-27T14:52:38.999Z</time></trkpt><trkpt lat="45.639971459927985" lon="10.155344301998547"><ele>686.0</ele><time>2026-03-27T14:52:39.999Z</time></trkpt><trkpt lat="45.64006124144373" lon="10.155366007090663"><ele>686.0</ele><time>2026-03-27T14:52:40.999Z</time></trkpt><trkpt lat="45.64016698424423" lon="10.155398391744438"><ele>686.0</ele><time>2026-03-27T14:52:41.999Z</time></trkpt><trkpt lat="45.64031146570102" lon="10.155442093289242"><ele>686.0</ele><time>2026-03-27T14:52:42.999Z</time></trkpt><trkpt lat="45.64042148886298" lon="10.155453754805098"><ele>687.6666666666666</ele><time>2026-03-27T14:52:43.999Z</time></trkpt><trkpt lat="45.640508396570056" lon="10.155483577617884"><ele>689.3333333333333</ele><time>2026-03-27T14:52:44.999Z</time></trkpt><trkpt lat="45.64058520937347" lon="10.15551928004903"><ele>691.0</ele><time>2026-03-27T14:52:45.999Z</time></trkpt><trkpt lat="45.64066695771059" lon="10.155568191171476"><ele>692.6666666666666</ele><time>2026-03-27T14:52:46.999Z</time></trkpt><trkpt lat="45.64074318018788" lon="10.155643618606419"><ele>694.3333333333334</ele><time>2026-03-27T14:52:47.999Z</time></trkpt><trkpt lat="45.64083411522744" lon="10.155690819474918"><ele>696.0</ele><time>2026-03-27T14:52:48.999Z</time></trkpt><trkpt lat="45.64093753480978" lon="10.155718205164112"><ele>696.0</ele><time>2026-03-27T14:52:49.999Z</time></trkpt><trkpt lat="45.64104453905811" lon="10.155756774372039"><ele>696.0</ele><time>2026-03-27T14:52:50.998Z</time></trkpt><trkpt lat="45.64113108716826" lon="10.15581197760565"><ele>696.0</ele><time>2026-03-27T14:52:52Z</time></trkpt><trkpt lat="45.64121477415887" lon="10.155823459136888"><ele>696.0</ele><time>2026-03-27T14:52:53Z</time></trkpt><trkpt lat="45.64134001320132" lon="10.155809292033945"><ele>696.0</ele><time>2026-03-27T14:52:55Z</time></trkpt><trkpt lat="45.64141224195397" lon="10.15583505457679"><ele>693.3333333333334</ele><time>2026-03-27T14:52:56Z</time></trkpt><trkpt lat="45.64146705901717" lon="10.155890890600592"><ele>690.6666666666666</ele><time>2026-03-27T14:52:57Z</time></trkpt><trkpt lat="45.64153279688568" lon="10.155959247870571"><ele>688.0</ele><time>2026-03-27T14:52:58Z</time></trkpt><trkpt lat="45.64160167384791" lon="10.156067603824075"><ele>685.3333333333333</ele><time>2026-03-27T14:52:59Z</time></trkpt><trkpt lat="45.64166783026935" lon="10.15619396172577"><ele>682.6666666666666</ele><time>2026-03-27T14:53:01Z</time></trkpt><trkpt lat="45.64165736265839" lon="10.156315245058417"><ele>680.0</ele><time>2026-03-27T14:53:02Z</time></trkpt><trkpt lat="45.64170524768041" lon="10.156394982021398"><ele>680.0</ele><time>2026-03-27T14:53:03Z</time></trkpt><trkpt lat="45.64176953751744" lon="10.156420052578673"><ele>680.0</ele><time>2026-03-27T14:53:04Z</time></trkpt><trkpt lat="45.641929747330344" lon="10.156514362532475"><ele>680.0</ele><time>2026-03-27T14:53:06Z</time></trkpt><trkpt lat="45.64206882938578" lon="10.156517016843884"><ele>680.0</ele><time>2026-03-27T14:53:07Z</time></trkpt><trkpt lat="45.64216770151822" lon="10.156555781158191"><ele>681.3333333333333</ele><time>2026-03-27T14:53:08Z</time></trkpt><trkpt lat="45.642223805362256" lon="10.156621960072963"><ele>682.6666666666666</ele><time>2026-03-27T14:53:09Z</time></trkpt><trkpt lat="45.64228593188959" lon="10.156662468001242"><ele>684.0</ele><time>2026-03-27T14:53:10Z</time></trkpt><trkpt lat="45.64234649339514" lon="10.156706132887207"><ele>685.3333333333334</ele><time>2026-03-27T14:53:11Z</time></trkpt><trkpt lat="45.64243636707919" lon="10.15673315095792"><ele>686.6666666666667</ele><time>2026-03-27T14:53:13Z</time></trkpt><trkpt lat="45.642507775652" lon="10.15665224499621"><ele>688.0</ele><time>2026-03-27T14:53:15Z</time></trkpt><trkpt lat="45.642468715402515" lon="10.15649527203965"><ele>688.5</ele><time>2026-03-27T14:53:17Z</time></trkpt><trkpt lat="45.64241758150992" lon="10.156394132332418"><ele>689.0</ele><time>2026-03-27T14:53:18Z</time></trkpt><trkpt lat="45.64234062621856" lon="10.156232475880033"><ele>689.5</ele><time>2026-03-27T14:53:19Z</time></trkpt><trkpt lat="45.64226580275342" lon="10.156055902393508"><ele>690.0</ele><time>2026-03-27T14:53:20Z</time></trkpt><trkpt lat="45.642195320260775" lon="10.1559443483375"><ele>690.0</ele><time>2026-03-27T14:53:21Z</time></trkpt><trkpt lat="45.642169391217884" lon="10.155787078118475"><ele>690.0</ele><time>2026-03-27T14:53:22Z</time></trkpt><trkpt lat="45.6421566219195" lon="10.155627459083673"><ele>690.0</ele><time>2026-03-27T14:53:23Z</time></trkpt><trkpt lat="45.64213612376816" lon="10.15543401298042"><ele>690.0</ele><time>2026-03-27T14:53:24Z</time></trkpt><trkpt lat="45.642137514604826" lon="10.155267972415496"><ele>690.4</ele><time>2026-03-27T14:53:25Z</time></trkpt><trkpt lat="45.64212647171006" lon="10.155099390867806"><ele>690.8</ele><time>2026-03-27T14:53:26Z</time></trkpt><trkpt lat="45.64212484486064" lon="10.154964025387912"><ele>691.2</ele><time>2026-03-27T14:53:27Z</time></trkpt><trkpt lat="45.64214487364092" lon="10.154785587673997"><ele>691.6</ele><time>2026-03-27T14:53:28Z</time></trkpt><trkpt lat="45.64215770582329" lon="10.154661177871395"><ele>692.0</ele><time>2026-03-27T14:53:29Z</time></trkpt><trkpt lat="45.642175967232035" lon="10.154539545885234"><ele>692.0</ele><time>2026-03-27T14:53:31Z</time></trkpt><trkpt lat="45.64224500234667" lon="10.154547285129587"><ele>692.0</ele><time>2026-03-27T14:54:03.999Z</time></trkpt><trkpt lat="45.64224609368195" lon="10.15470148004521"><ele>692.0</ele><time>2026-03-27T14:54:05.999Z</time></trkpt><trkpt lat="45.64224683994904" lon="10.154800549016738"><ele>692.0</ele><time>2026-03-27T14:54:06.999Z</time></trkpt><trkpt lat="45.64227756206208" lon="10.15493632298698"><ele>692.0</ele><time>2026-03-27T14:54:08.999Z</time></trkpt><trkpt lat="45.642341008439736" lon="10.154910465608435"><ele>692.0</ele><time>2026-03-27T14:54:15.999Z</time></trkpt><trkpt lat="45.64237376002102" lon="10.154735428481786"><ele>692.0</ele><time>2026-03-27T14:54:17.999Z</time></trkpt><trkpt lat="45.642379928830486" lon="10.15461704261307"><ele>692.0</ele><time>2026-03-27T14:54:18.999Z</time></trkpt><trkpt lat="45.64239116679608" lon="10.154495730571535"><ele>692.0</ele><time>2026-03-27T14:54:19.999Z</time></trkpt><trkpt lat="45.64239439186222" lon="10.15438022474807"><ele>692.0</ele><time>2026-03-27T14:54:20.999Z</time></trkpt><trkpt lat="45.64239968696319" lon="10.154268113149532"><ele>692.0</ele><time>2026-03-27T14:54:21.999Z</time></trkpt><trkpt lat="45.64247587852609" lon="10.15411737108628"><ele>691.2857142857142</ele><time>2026-03-27T14:54:23.999Z</time></trkpt><trkpt lat="45.642529121212135" lon="10.154034568791916"><ele>690.5714285714287</ele><time>2026-03-27T14:54:24.999Z</time></trkpt><trkpt lat="45.64257813842901" lon="10.153944166391716"><ele>689.8571428571429</ele><time>2026-03-27T14:54:25.999Z</time></trkpt><trkpt lat="45.64262341118217" lon="10.153860974698656"><ele>689.1428571428571</ele><time>2026-03-27T14:54:26.999Z</time></trkpt><trkpt lat="45.6426716100312" lon="10.15377700053223"><ele>688.4285714285713</ele><time>2026-03-27T14:54:27.999Z</time></trkpt><trkpt lat="45.64272288533653" lon="10.153701387863812"><ele>687.7142857142858</ele><time>2026-03-27T14:54:28.999Z</time></trkpt><trkpt lat="45.642774236465584" lon="10.153645224775186"><ele>687.0</ele><time>2026-03-27T14:54:29.999Z</time></trkpt><trkpt lat="45.6428900627693" lon="10.153584900533142"><ele>688.7142857142858</ele><time>2026-03-27T14:54:31.999Z</time></trkpt><trkpt lat="45.642998989027205" lon="10.153573351537597"><ele>690.4285714285713</ele><time>2026-03-27T14:54:33.999Z</time></trkpt><trkpt lat="45.64306303990362" lon="10.153559049114358"><ele>692.1428571428571</ele><time>2026-03-27T14:54:34.999Z</time></trkpt><trkpt lat="45.643127231946124" lon="10.153542608846196"><ele>693.8571428571429</ele><time>2026-03-27T14:54:35.999Z</time></trkpt><trkpt lat="45.64319534269944" lon="10.153520547894594"><ele>695.5714285714287</ele><time>2026-03-27T14:54:36.999Z</time></trkpt><trkpt lat="45.64325942706283" lon="10.153504721037617"><ele>697.2857142857142</ele><time>2026-03-27T14:54:37.999Z</time></trkpt><trkpt lat="45.64333329907052" lon="10.153484326702424"><ele>699.0</ele><time>2026-03-27T14:54:38.999Z</time></trkpt><trkpt lat="45.64340716025073" lon="10.153465557102702"><ele>699.0</ele><time>2026-03-27T14:54:39.999Z</time></trkpt><trkpt lat="45.64348669180068" lon="10.153452110642446"><ele>699.0</ele><time>2026-03-27T14:54:40.999Z</time></trkpt><trkpt lat="45.64357575118054" lon="10.153438785722903"><ele>699.0</ele><time>2026-03-27T14:54:41.999Z</time></trkpt><trkpt lat="45.64367315340037" lon="10.153432257413673"><ele>699.0</ele><time>2026-03-27T14:54:42.999Z</time></trkpt><trkpt lat="45.64376226857158" lon="10.153438954909111"><ele>699.0</ele><time>2026-03-27T14:54:43.999Z</time></trkpt><trkpt lat="45.64385989986673" lon="10.153447641264323"><ele>699.8000000000001</ele><time>2026-03-27T14:54:44.999Z</time></trkpt><trkpt lat="45.64394639123122" lon="10.153449330221529"><ele>700.6</ele><time>2026-03-27T14:54:45.999Z</time></trkpt><trkpt lat="45.64409348795589" lon="10.153464024295694"><ele>701.4</ele><time>2026-03-27T14:54:47.999Z</time></trkpt><trkpt lat="45.6441563049761" lon="10.15347110946359"><ele>702.2</ele><time>2026-03-27T14:54:48.999Z</time></trkpt><trkpt lat="45.64421938460793" lon="10.15348247777126"><ele>703.0</ele><time>2026-03-27T14:54:49.999Z</time></trkpt><trkpt lat="45.644328446702744" lon="10.153506596908363"><ele>703.0</ele><time>2026-03-27T14:54:51.999Z</time></trkpt><trkpt lat="45.64436438090696" lon="10.153618248333835"><ele>703.0</ele><time>2026-03-27T14:54:53.999Z</time></trkpt><trkpt lat="45.644338167404136" lon="10.153706378023767"><ele>703.0</ele><time>2026-03-27T14:54:55.999Z</time></trkpt><trkpt lat="45.64424197238627" lon="10.153773732379442"><ele>703.0</ele><time>2026-03-27T14:54:58Z</time></trkpt><trkpt lat="45.64410088361524" lon="10.153785974421004"><ele>703.0</ele><time>2026-03-27T14:55:00Z</time></trkpt><trkpt lat="45.64400521221541" lon="10.153823676368715"><ele>703.0</ele><time>2026-03-27T14:55:01Z</time></trkpt><trkpt lat="45.643889008259144" lon="10.153912111053101"><ele>703.0</ele><time>2026-03-27T14:55:02Z</time></trkpt><trkpt lat="45.6438008207164" lon="10.154016158355502"><ele>703.0</ele><time>2026-03-27T14:55:03Z</time></trkpt><trkpt lat="45.64373151371692" lon="10.154134288529102"><ele>703.0</ele><time>2026-03-27T14:55:04Z</time></trkpt><trkpt lat="45.643642548019415" lon="10.15425011765977"><ele>704.4</ele><time>2026-03-27T14:55:05Z</time></trkpt><trkpt lat="45.643544503068966" lon="10.154379345977723"><ele>705.8</ele><time>2026-03-27T14:55:06Z</time></trkpt><trkpt lat="45.64347183601368" lon="10.154497510573403"><ele>707.2</ele><time>2026-03-27T14:55:07Z</time></trkpt><trkpt lat="45.64342455475334" lon="10.1545893974648"><ele>708.6</ele><time>2026-03-27T14:55:08Z</time></trkpt><trkpt lat="45.64341792059891" lon="10.154728243526327"><ele>710.0</ele><time>2026-03-27T14:55:10Z</time></trkpt><trkpt lat="45.64348578987233" lon="10.154830344279803"><ele>710.0</ele><time>2026-03-27T14:55:12Z</time></trkpt><trkpt lat="45.643551847203476" lon="10.154829412220852"><ele>710.0</ele><time>2026-03-27T14:55:13Z</time></trkpt><trkpt lat="45.64364126316085" lon="10.15479303512817"><ele>710.0</ele><time>2026-03-27T14:55:14Z</time></trkpt><trkpt lat="45.64374111815322" lon="10.154743699602687"><ele>710.0</ele><time>2026-03-27T14:55:15Z</time></trkpt><trkpt lat="45.64381310914858" lon="10.154724155221487"><ele>710.0</ele><time>2026-03-27T14:55:16Z</time></trkpt><trkpt lat="45.6439347174453" lon="10.154640718809437"><ele>711.8</ele><time>2026-03-27T14:55:18Z</time></trkpt><trkpt lat="45.64400897069167" lon="10.154681948231431"><ele>713.6</ele><time>2026-03-27T14:55:20Z</time></trkpt><trkpt lat="45.644014787862716" lon="10.154826013885897"><ele>715.4000000000001</ele><time>2026-03-27T14:55:23Z</time></trkpt><trkpt lat="45.64394882750065" lon="10.15497007054485"><ele>717.2</ele><time>2026-03-27T14:55:25Z</time></trkpt><trkpt lat="45.64390798826465" lon="10.155067697406052"><ele>719.0</ele><time>2026-03-27T14:55:26Z</time></trkpt><trkpt lat="45.64397748535339" lon="10.155161068400625"><ele>721.2</ele><time>2026-03-27T14:55:34Z</time></trkpt><trkpt lat="45.64406514330377" lon="10.155189215885928"><ele>723.4000000000001</ele><time>2026-03-27T14:55:34.999Z</time></trkpt><trkpt lat="45.64414233871004" lon="10.155234060721464"><ele>725.6</ele><time>2026-03-27T14:55:35.999Z</time></trkpt><trkpt lat="45.64422430473324" lon="10.155286216316407"><ele>727.8</ele><time>2026-03-27T14:55:36.999Z</time></trkpt><trkpt lat="45.64433399093707" lon="10.15539922684139"><ele>730.0</ele><time>2026-03-27T14:55:38.999Z</time></trkpt><trkpt lat="45.64442316994406" lon="10.155479241388157"><ele>731.3333333333334</ele><time>2026-03-27T14:55:39.999Z</time></trkpt><trkpt lat="45.64451025960214" lon="10.15555657154141"><ele>732.6666666666667</ele><time>2026-03-27T14:55:40.999Z</time></trkpt><trkpt lat="45.64458828969595" lon="10.155637306803081"><ele>734.0</ele><time>2026-03-27T14:55:41.999Z</time></trkpt><trkpt lat="45.64465688818933" lon="10.15571486641912"><ele>735.3333333333334</ele><time>2026-03-27T14:55:42.999Z</time></trkpt><trkpt lat="45.644716459547304" lon="10.155795213234093"><ele>736.6666666666666</ele><time>2026-03-27T14:55:43.999Z</time></trkpt><trkpt lat="45.64477821737975" lon="10.155842517020243"><ele>738.0</ele><time>2026-03-27T14:55:44.999Z</time></trkpt><trkpt lat="45.644851167385305" lon="10.155861612643111"><ele>740.3333333333334</ele><time>2026-03-27T14:55:45.999Z</time></trkpt><trkpt lat="45.644938195353035" lon="10.155859003360403"><ele>742.6666666666666</ele><time>2026-03-27T14:55:46.999Z</time></trkpt><trkpt lat="45.64499827782334" lon="10.155916313671847"><ele>745.0</ele><time>2026-03-27T14:55:47.999Z</time></trkpt><trkpt lat="45.645051792833726" lon="10.15599329858239"><ele>747.3333333333333</ele><time>2026-03-27T14:55:48.999Z</time></trkpt><trkpt lat="45.645092235393044" lon="10.156091918723812"><ele>749.6666666666666</ele><time>2026-03-27T14:55:49.999Z</time></trkpt><trkpt lat="45.64510335431236" lon="10.156185220779143"><ele>752.0</ele><time>2026-03-27T14:55:50.999Z</time></trkpt><trkpt lat="45.64514765880121" lon="10.156293351434197"><ele>752.0</ele><time>2026-03-27T14:55:52.999Z</time></trkpt><trkpt lat="45.64527951770471" lon="10.156293870529106"><ele>752.0</ele><time>2026-03-27T14:55:54.999Z</time></trkpt><trkpt lat="45.64537416744102" lon="10.156322033072783"><ele>752.0</ele><time>2026-03-27T14:55:55.999Z</time></trkpt><trkpt lat="45.64547089996286" lon="10.156352679223982"><ele>752.0</ele><time>2026-03-27T14:55:56.999Z</time></trkpt><trkpt lat="45.64554944472878" lon="10.156404052305167"><ele>752.0</ele><time>2026-03-27T14:55:57.999Z</time></trkpt><trkpt lat="45.64563034114167" lon="10.156472922315382"><ele>756.3333333333333</ele><time>2026-03-27T14:55:58.999Z</time></trkpt><trkpt lat="45.6456892786773" lon="10.156567257849716"><ele>760.6666666666666</ele><time>2026-03-27T14:55:59.999Z</time></trkpt><trkpt lat="45.645755736591305" lon="10.156643289615372"><ele>765.0</ele><time>2026-03-27T14:56:00.999Z</time></trkpt><trkpt lat="45.6458395048279" lon="10.156719394897651"><ele>769.3333333333333</ele><time>2026-03-27T14:56:01.999Z</time></trkpt><trkpt lat="45.64589358456518" lon="10.156772977223689"><ele>773.6666666666666</ele><time>2026-03-27T14:56:02.999Z</time></trkpt><trkpt lat="45.64596435994518" lon="10.156835074150125"><ele>778.0</ele><time>2026-03-27T14:56:03.999Z</time></trkpt><trkpt lat="45.646034317325956" lon="10.156873897386552"><ele>779.5999999999999</ele><time>2026-03-27T14:56:04.999Z</time></trkpt><trkpt lat="45.646146900476666" lon="10.1569739688978"><ele>781.1999999999999</ele><time>2026-03-27T14:56:06.999Z</time></trkpt><trkpt lat="45.64621160780382" lon="10.157026704470912"><ele>782.8</ele><time>2026-03-27T14:56:07.999Z</time></trkpt><trkpt lat="45.64623960422648" lon="10.15711200056425"><ele>784.4</ele><time>2026-03-27T14:56:08.999Z</time></trkpt><trkpt lat="45.64629599001221" lon="10.157255311767525"><ele>786.0</ele><time>2026-03-27T14:56:10.999Z</time></trkpt><trkpt lat="45.64627102309449" lon="10.157362215487328"><ele>789.1999999999999</ele><time>2026-03-27T14:56:12.999Z</time></trkpt><trkpt lat="45.64619298149084" lon="10.15744888579673"><ele>792.4</ele><time>2026-03-27T14:56:14.999Z</time></trkpt><trkpt lat="45.64624186625241" lon="10.157532614631462"><ele>795.6</ele><time>2026-03-27T14:56:17.999Z</time></trkpt><trkpt lat="45.64634409902672" lon="10.157623115190917"><ele>798.8</ele><time>2026-03-27T14:56:24.999Z</time></trkpt><trkpt lat="45.6464212113005" lon="10.157687292640048"><ele>802.0</ele><time>2026-03-27T14:56:25.999Z</time></trkpt><trkpt lat="45.64648409619641" lon="10.157762114515636"><ele>801.9999999999999</ele><time>2026-03-27T14:56:26.999Z</time></trkpt><trkpt lat="45.64653926015359" lon="10.157838211689844"><ele>802.0</ele><time>2026-03-27T14:56:27.999Z</time></trkpt><trkpt lat="45.6465900086775" lon="10.15791845987064"><ele>802.0</ele><time>2026-03-27T14:56:28.999Z</time></trkpt><trkpt lat="45.6466407553233" lon="10.157996109724845"><ele>802.0</ele><time>2026-03-27T14:56:29.999Z</time></trkpt><trkpt lat="45.64671560225928" lon="10.158054378350263"><ele>801.9999999999999</ele><time>2026-03-27T14:56:31.999Z</time></trkpt><trkpt lat="45.646794852619216" lon="10.157997109140297"><ele>802.0</ele><time>2026-03-27T14:56:35.999Z</time></trkpt><trkpt lat="45.6468423741816" lon="10.1579315331174"><ele>801.9999999999999</ele><time>2026-03-27T14:56:36.999Z</time></trkpt><trkpt lat="45.64689379314389" lon="10.157831495456213"><ele>802.0</ele><time>2026-03-27T14:56:37.999Z</time></trkpt><trkpt lat="45.646954454921676" lon="10.157767294145907"><ele>802.0</ele><time>2026-03-27T14:56:38.999Z</time></trkpt><trkpt lat="45.64704975603957" lon="10.157705605554476"><ele>802.0</ele><time>2026-03-27T14:56:40.999Z</time></trkpt><trkpt lat="45.64714007559197" lon="10.157701464040848"><ele>801.9999999999999</ele><time>2026-03-27T14:56:42.999Z</time></trkpt><trkpt lat="45.64721469190488" lon="10.157709531409298"><ele>802.0</ele><time>2026-03-27T14:56:44.999Z</time></trkpt><trkpt lat="45.64728774140204" lon="10.157717578434022"><ele>803.6</ele><time>2026-03-27T14:56:45.999Z</time></trkpt><trkpt lat="45.647383358709206" lon="10.157729046850346"><ele>805.2</ele><time>2026-03-27T14:56:46.999Z</time></trkpt><trkpt lat="45.64745343439192" lon="10.157732347831926"><ele>806.8</ele><time>2026-03-27T14:56:47.999Z</time></trkpt><trkpt lat="45.64756401994163" lon="10.157682742072815"><ele>808.4</ele><time>2026-03-27T14:56:49.999Z</time></trkpt><trkpt lat="45.64760782526383" lon="10.15758923761819"><ele>810.0</ele><time>2026-03-27T14:56:50.999Z</time></trkpt><trkpt lat="45.647677413994344" lon="10.157481713280841"><ele>809.8</ele><time>2026-03-27T14:56:52.999Z</time></trkpt><trkpt lat="45.64782048016577" lon="10.157383966480515"><ele>809.6</ele><time>2026-03-27T14:56:54.999Z</time></trkpt><trkpt lat="45.64789745370504" lon="10.157321036728197"><ele>809.4000000000001</ele><time>2026-03-27T14:56:55.999Z</time></trkpt><trkpt lat="45.64799162440125" lon="10.157270318734314"><ele>809.2</ele><time>2026-03-27T14:56:56.999Z</time></trkpt><trkpt lat="45.64807689672921" lon="10.157212722060956"><ele>809.0</ele><time>2026-03-27T14:56:57.999Z</time></trkpt><trkpt lat="45.64814851006605" lon="10.157157444643346"><ele>809.0000000000001</ele><time>2026-03-27T14:56:58.999Z</time></trkpt><trkpt lat="45.648221977070484" lon="10.157111559150069"><ele>809.0</ele><time>2026-03-27T14:56:59.998Z</time></trkpt><trkpt lat="45.648283350456566" lon="10.157087397969399"><ele>809.0</ele><time>2026-03-27T14:57:00.998Z</time></trkpt><trkpt lat="45.64834822031209" lon="10.157076974608318"><ele>809.0</ele><time>2026-03-27T14:57:01.998Z</time></trkpt><trkpt lat="45.648434886801205" lon="10.157104399456218"><ele>809.0000000000001</ele><time>2026-03-27T14:57:03Z</time></trkpt><trkpt lat="45.64854165646105" lon="10.15709051709552"><ele>809.0</ele><time>2026-03-27T14:57:04Z</time></trkpt><trkpt lat="45.648629076782726" lon="10.157083105957089"><ele>811.5000000000001</ele><time>2026-03-27T14:57:05Z</time></trkpt><trkpt lat="45.648734162937124" lon="10.157101230761072"><ele>814.0</ele><time>2026-03-27T14:57:07Z</time></trkpt><trkpt lat="45.64885941070561" lon="10.157133249567924"><ele>816.5</ele><time>2026-03-27T14:57:09Z</time></trkpt><trkpt lat="45.64891901373142" lon="10.157177401065121"><ele>819.0</ele><time>2026-03-27T14:57:10Z</time></trkpt><trkpt lat="45.648971496668636" lon="10.157240893784621"><ele>821.5000000000001</ele><time>2026-03-27T14:57:11Z</time></trkpt><trkpt lat="45.649051371390954" lon="10.157235808081953"><ele>824.0</ele><time>2026-03-27T14:57:13Z</time></trkpt><trkpt lat="45.64909300412812" lon="10.15715905572675"><ele>824.0</ele><time>2026-03-27T14:57:14Z</time></trkpt><trkpt lat="45.64906855792812" lon="10.156970561471175"><ele>824.0</ele><time>2026-03-27T14:57:16Z</time></trkpt><trkpt lat="45.649066817745734" lon="10.156813589777702"><ele>824.0</ele><time>2026-03-27T14:57:17Z</time></trkpt><trkpt lat="45.64910571563105" lon="10.156691797164388"><ele>824.0</ele><time>2026-03-27T14:57:18Z</time></trkpt><trkpt lat="45.64915099818867" lon="10.156606085273522"><ele>824.0</ele><time>2026-03-27T14:57:19Z</time></trkpt><trkpt lat="45.64913495298618" lon="10.156476774473797"><ele>825.2</ele><time>2026-03-27T14:57:21Z</time></trkpt><trkpt lat="45.649047376367584" lon="10.156441455243023"><ele>826.4000000000001</ele><time>2026-03-27T14:57:22Z</time></trkpt><trkpt lat="45.648935584343285" lon="10.156414264123761"><ele>827.6</ele><time>2026-03-27T14:57:23Z</time></trkpt><trkpt lat="45.64881988717297" lon="10.156372877917867"><ele>828.8</ele><time>2026-03-27T14:57:24Z</time></trkpt><trkpt lat="45.648720018032826" lon="10.156313248448326"><ele>830.0</ele><time>2026-03-27T14:57:25Z</time></trkpt><trkpt lat="45.64865066315811" lon="10.156248827985564"><ele>827.0000000000001</ele><time>2026-03-27T14:57:26Z</time></trkpt><trkpt lat="45.6485990156188" lon="10.156194113573042"><ele>824.0</ele><time>2026-03-27T14:57:27Z</time></trkpt><trkpt lat="45.6485618917145" lon="10.156098837350312"><ele>821.0</ele><time>2026-03-27T14:57:28Z</time></trkpt><trkpt lat="45.64851351131488" lon="10.155958986781634"><ele>818.0</ele><time>2026-03-27T14:57:29Z</time></trkpt><trkpt lat="45.64848825417969" lon="10.155838006510706"><ele>815.0000000000001</ele><time>2026-03-27T14:57:30Z</time></trkpt><trkpt lat="45.648477912482115" lon="10.155727323587804"><ele>812.0</ele><time>2026-03-27T14:57:31Z</time></trkpt><trkpt lat="45.64850548098921" lon="10.155609818346521"><ele>812.0000000000001</ele><time>2026-03-27T14:57:32Z</time></trkpt><trkpt lat="45.648561841739486" lon="10.155521429938677"><ele>812.0</ele><time>2026-03-27T14:57:33Z</time></trkpt><trkpt lat="45.648604156264014" lon="10.15543867111198"><ele>812.0</ele><time>2026-03-27T14:57:35Z</time></trkpt><trkpt lat="45.6486665948454" lon="10.155478282961813"><ele>812.0</ele><time>2026-03-27T14:57:39Z</time></trkpt><trkpt lat="45.64871198813431" lon="10.155624469989105"><ele>812.0000000000001</ele><time>2026-03-27T14:57:42Z</time></trkpt><trkpt lat="45.64876416571076" lon="10.155715566299582"><ele>812.0</ele><time>2026-03-27T14:57:43Z</time></trkpt><trkpt lat="45.648831728647885" lon="10.155795908313955"><ele>815.0000000000001</ele><time>2026-03-27T14:57:44Z</time></trkpt><trkpt lat="45.648920795840205" lon="10.155883473596877"><ele>818.0</ele><time>2026-03-27T14:57:45Z</time></trkpt><trkpt lat="45.64899808417354" lon="10.155958780344745"><ele>821.0</ele><time>2026-03-27T14:57:46Z</time></trkpt><trkpt lat="45.649095862241325" lon="10.156028107994434"><ele>824.0</ele><time>2026-03-27T14:57:47Z</time></trkpt><trkpt lat="45.649157747123084" lon="10.156051230977324"><ele>827.0000000000001</ele><time>2026-03-27T14:57:48Z</time></trkpt><trkpt lat="45.649227884478314" lon="10.156071634493706"><ele>830.0</ele><time>2026-03-27T14:57:48.999Z</time></trkpt><trkpt lat="45.64933007443369" lon="10.156093291478932"><ele>830.0</ele><time>2026-03-27T14:57:49.999Z</time></trkpt><trkpt lat="45.649407038833886" lon="10.156060140789382"><ele>830.0</ele><time>2026-03-27T14:57:50.999Z</time></trkpt><trkpt lat="45.64951272360401" lon="10.156030517695871"><ele>830.0</ele><time>2026-03-27T14:57:51.999Z</time></trkpt><trkpt lat="45.64962332109921" lon="10.156007093978008"><ele>830.0</ele><time>2026-03-27T14:57:52.999Z</time></trkpt><trkpt lat="45.649746233481025" lon="10.15599087275294"><ele>830.0</ele><time>2026-03-27T14:57:53.999Z</time></trkpt><trkpt lat="45.64984971902752" lon="10.155991736462882"><ele>830.2</ele><time>2026-03-27T14:57:54.999Z</time></trkpt><trkpt lat="45.64994791405911" lon="10.156000863392991"><ele>830.4</ele><time>2026-03-27T14:57:55.999Z</time></trkpt><trkpt lat="45.65003772696046" lon="10.156012284302957"><ele>830.5999999999999</ele><time>2026-03-27T14:57:56.999Z</time></trkpt><trkpt lat="45.650122380806145" lon="10.156057065757425"><ele>830.8</ele><time>2026-03-27T14:57:57.999Z</time></trkpt><trkpt lat="45.650218371846854" lon="10.156095995931771"><ele>831.0</ele><time>2026-03-27T14:57:58.999Z</time></trkpt><trkpt lat="45.65036059171525" lon="10.156177373660098"><ele>828.4</ele><time>2026-03-27T14:57:59.999Z</time></trkpt><trkpt lat="45.650476966481904" lon="10.15626863792326"><ele>825.8</ele><time>2026-03-27T14:58:00.999Z</time></trkpt><trkpt lat="45.650568560302425" lon="10.156345669530431"><ele>823.1999999999999</ele><time>2026-03-27T14:58:01.999Z</time></trkpt><trkpt lat="45.6506654303354" lon="10.156401360414957"><ele>820.5999999999999</ele><time>2026-03-27T14:58:02.999Z</time></trkpt><trkpt lat="45.650753960575145" lon="10.156473424202371"><ele>818.0</ele><time>2026-03-27T14:58:03.999Z</time></trkpt><trkpt lat="45.65081984366522" lon="10.156518585081457"><ele>817.8</ele><time>2026-03-27T14:58:04.999Z</time></trkpt><trkpt lat="45.65086690298907" lon="10.156705729896665"><ele>817.5999999999999</ele><time>2026-03-27T14:58:06.999Z</time></trkpt><trkpt lat="45.65088365616182" lon="10.15683341042021"><ele>817.4000000000001</ele><time>2026-03-27T14:58:07.999Z</time></trkpt><trkpt lat="45.65094050173705" lon="10.15692084130309"><ele>817.2</ele><time>2026-03-27T14:58:08.999Z</time></trkpt><trkpt lat="45.65102502832201" lon="10.156968538618688"><ele>817.0</ele><time>2026-03-27T14:58:09.999Z</time></trkpt><trkpt lat="45.65113115132209" lon="10.156986453586178"><ele>817.0</ele><time>2026-03-27T14:58:10.999Z</time></trkpt><trkpt lat="45.65125128575015" lon="10.15697660834935"><ele>817.0</ele><time>2026-03-27T14:58:11.999Z</time></trkpt><trkpt lat="45.65134164440102" lon="10.1569942500651"><ele>817.0</ele><time>2026-03-27T14:58:12.999Z</time></trkpt><trkpt lat="45.651412020471916" lon="10.157054513562287"><ele>817.0</ele><time>2026-03-27T14:58:13.999Z</time></trkpt><trkpt lat="45.651501041642625" lon="10.157148295255906"><ele>817.0</ele><time>2026-03-27T14:58:14.999Z</time></trkpt><trkpt lat="45.65161123980961" lon="10.157257910467987"><ele>821.0</ele><time>2026-03-27T14:58:15.999Z</time></trkpt><trkpt lat="45.651707631775515" lon="10.157382989717183"><ele>825.0</ele><time>2026-03-27T14:58:16.999Z</time></trkpt><trkpt lat="45.65176401918355" lon="10.157574422083794"><ele>829.0</ele><time>2026-03-27T14:58:17.999Z</time></trkpt><trkpt lat="45.65182637022376" lon="10.157744286450946"><ele>833.0</ele><time>2026-03-27T14:58:18.999Z</time></trkpt><trkpt lat="45.651887211978014" lon="10.157909002410538"><ele>833.0</ele><time>2026-03-27T14:58:19.999Z</time></trkpt><trkpt lat="45.65194890341259" lon="10.158071360962806"><ele>833.0</ele><time>2026-03-27T14:58:20.999Z</time></trkpt><trkpt lat="45.65201171792563" lon="10.158236675330292"><ele>833.0</ele><time>2026-03-27T14:58:21.999Z</time></trkpt><trkpt lat="45.65208182383109" lon="10.158414270499492"><ele>833.0</ele><time>2026-03-27T14:58:22.999Z</time></trkpt><trkpt lat="45.65218661606215" lon="10.158549645552018"><ele>829.5</ele><time>2026-03-27T14:58:23.999Z</time></trkpt><trkpt lat="45.652302248529516" lon="10.158656254657837"><ele>826.0</ele><time>2026-03-27T14:58:24.999Z</time></trkpt><trkpt lat="45.65240202787199" lon="10.15876708450435"><ele>822.5</ele><time>2026-03-27T14:58:25.999Z</time></trkpt><trkpt lat="45.65249546684376" lon="10.158865995345588"><ele>819.0</ele><time>2026-03-27T14:58:26.999Z</time></trkpt><trkpt lat="45.65261215943382" lon="10.15902564260772"><ele>813.3333333333333</ele><time>2026-03-27T14:58:27.999Z</time></trkpt><trkpt lat="45.652715903756764" lon="10.15920317507374"><ele>807.6666666666666</ele><time>2026-03-27T14:58:28.999Z</time></trkpt><trkpt lat="45.65281989660047" lon="10.159376447245025"><ele>802.0</ele><time>2026-03-27T14:58:29.999Z</time></trkpt><trkpt lat="45.65288235272431" lon="10.159538081823465"><ele>802.0</ele><time>2026-03-27T14:58:30.999Z</time></trkpt><trkpt lat="45.65295409308336" lon="10.15971289901098"><ele>802.0</ele><time>2026-03-27T14:58:31.999Z</time></trkpt><trkpt lat="45.65306350079611" lon="10.159833976870553"><ele>802.0</ele><time>2026-03-27T14:58:32.999Z</time></trkpt><trkpt lat="45.65316399186054" lon="10.15993028364466"><ele>802.0</ele><time>2026-03-27T14:58:33.999Z</time></trkpt><trkpt lat="45.653274795208624" lon="10.159993337913749"><ele>797.5</ele><time>2026-03-27T14:58:34.999Z</time></trkpt><trkpt lat="45.6533731955405" lon="10.16006989514189"><ele>793.0</ele><time>2026-03-27T14:58:35.999Z</time></trkpt><trkpt lat="45.653441023171304" lon="10.160245002764091"><ele>788.5</ele><time>2026-03-27T14:58:36.999Z</time></trkpt><trkpt lat="45.65356099400512" lon="10.160396134823277"><ele>784.0</ele><time>2026-03-27T14:58:37.999Z</time></trkpt><trkpt lat="45.65363595407907" lon="10.16054750264246"><ele>784.0</ele><time>2026-03-27T14:58:38.999Z</time></trkpt><trkpt lat="45.65372554931807" lon="10.160674779689076"><ele>784.0</ele><time>2026-03-27T14:58:39.999Z</time></trkpt><trkpt lat="45.6538024908972" lon="10.160785080546288"><ele>784.0</ele><time>2026-03-27T14:58:40.999Z</time></trkpt><trkpt lat="45.65388886641874" lon="10.16093340992965"><ele>784.0</ele><time>2026-03-27T14:58:41.999Z</time></trkpt><trkpt lat="45.65390598442057" lon="10.161079698618517"><ele>787.9999999999999</ele><time>2026-03-27T14:58:42.999Z</time></trkpt><trkpt lat="45.653932854317766" lon="10.161179318198512"><ele>792.0</ele><time>2026-03-27T14:58:43.999Z</time></trkpt><trkpt lat="45.65396851785476" lon="10.161285618609039"><ele>796.0</ele><time>2026-03-27T14:58:44.999Z</time></trkpt><trkpt lat="45.65398521937834" lon="10.161394895006053"><ele>800.0</ele><time>2026-03-27T14:58:45.999Z</time></trkpt><trkpt lat="45.65405575349472" lon="10.161484790876107"><ele>803.9999999999999</ele><time>2026-03-27T14:58:46.999Z</time></trkpt><trkpt lat="45.654136434535076" lon="10.1615609727569"><ele>808.0</ele><time>2026-03-27T14:58:47.999Z</time></trkpt><trkpt lat="45.65422486886558" lon="10.16159788777569"><ele>805.0</ele><time>2026-03-27T14:58:48.999Z</time></trkpt><trkpt lat="45.65431896767065" lon="10.16169336894623"><ele>802.0</ele><time>2026-03-27T14:58:49.999Z</time></trkpt><trkpt lat="45.65438183195025" lon="10.161814257177749"><ele>799.0</ele><time>2026-03-27T14:58:50.999Z</time></trkpt><trkpt lat="45.654467049868344" lon="10.161933422360956"><ele>796.0</ele><time>2026-03-27T14:58:51.999Z</time></trkpt><trkpt lat="45.6545599654478" lon="10.162066139349367"><ele>796.0</ele><time>2026-03-27T14:58:52.999Z</time></trkpt><trkpt lat="45.65465164431531" lon="10.162210210216488"><ele>796.0</ele><time>2026-03-27T14:58:53.999Z</time></trkpt><trkpt lat="45.6547298893554" lon="10.162343472888299"><ele>796.0</ele><time>2026-03-27T14:58:54.999Z</time></trkpt><trkpt lat="45.654812281203036" lon="10.16248797178814"><ele>796.0</ele><time>2026-03-27T14:58:55.999Z</time></trkpt><trkpt lat="45.65490004118062" lon="10.162655275448898"><ele>802.3333333333333</ele><time>2026-03-27T14:58:56.999Z</time></trkpt><trkpt lat="45.65497356144941" lon="10.1628510197651"><ele>808.6666666666667</ele><time>2026-03-27T14:58:57.999Z</time></trkpt><trkpt lat="45.65506200666619" lon="10.16306341804934"><ele>815.0</ele><time>2026-03-27T14:58:58.999Z</time></trkpt><trkpt lat="45.655164221455706" lon="10.16327544856385"><ele>820.3333333333334</ele><time>2026-03-27T14:58:59.998Z</time></trkpt><trkpt lat="45.65526720795995" lon="10.163451546928739"><ele>825.6666666666667</ele><time>2026-03-27T14:59:00.998Z</time></trkpt><trkpt lat="45.655340759505734" lon="10.163603171534517"><ele>831.0</ele><time>2026-03-27T14:59:01.998Z</time></trkpt><trkpt lat="45.65543213086441" lon="10.163797953416246"><ele>825.75</ele><time>2026-03-27T14:59:02.998Z</time></trkpt><trkpt lat="45.655512192820865" lon="10.16396783786881"><ele>820.5</ele><time>2026-03-27T14:59:03.998Z</time></trkpt><trkpt lat="45.65561511189602" lon="10.164113291451281"><ele>815.25</ele><time>2026-03-27T14:59:04.998Z</time></trkpt><trkpt lat="45.6557109114313" lon="10.164269180300463"><ele>810.0</ele><time>2026-03-27T14:59:05.998Z</time></trkpt><trkpt lat="45.655784925104946" lon="10.16443351630602"><ele>810.0</ele><time>2026-03-27T14:59:06.998Z</time></trkpt><trkpt lat="45.65584443845611" lon="10.16459191994575"><ele>810.0</ele><time>2026-03-27T14:59:07.998Z</time></trkpt><trkpt lat="45.65592157097549" lon="10.164739505038087"><ele>810.0</ele><time>2026-03-27T14:59:09Z</time></trkpt><trkpt lat="45.65599521251409" lon="10.164842094176619"><ele>810.0</ele><time>2026-03-27T14:59:10Z</time></trkpt><trkpt lat="45.65606407061369" lon="10.164909541590447"><ele>810.0</ele><time>2026-03-27T14:59:11Z</time></trkpt><trkpt lat="45.656158886884135" lon="10.164944374200614"><ele>811.2</ele><time>2026-03-27T14:59:12Z</time></trkpt><trkpt lat="45.65627222623625" lon="10.164937540190955"><ele>812.4</ele><time>2026-03-27T14:59:13Z</time></trkpt><trkpt lat="45.65637553151808" lon="10.165012367129577"><ele>813.5999999999999</ele><time>2026-03-27T14:59:14Z</time></trkpt><trkpt lat="45.65644604358601" lon="10.16507677157618"><ele>814.8</ele><time>2026-03-27T14:59:15Z</time></trkpt><trkpt lat="45.6565008895026" lon="10.16523593610939"><ele>816.0</ele><time>2026-03-27T14:59:16Z</time></trkpt><trkpt lat="45.65657542904746" lon="10.165369986735769"><ele>816.0</ele><time>2026-03-27T14:59:17Z</time></trkpt><trkpt lat="45.656618162358754" lon="10.16547582256908"><ele>816.0</ele><time>2026-03-27T14:59:18Z</time></trkpt><trkpt lat="45.65667298102998" lon="10.16552825720487"><ele>816.0</ele><time>2026-03-27T14:59:19Z</time></trkpt><trkpt lat="45.65674025535118" lon="10.16553718009887"><ele>816.0</ele><time>2026-03-27T14:59:20Z</time></trkpt><trkpt lat="45.656803778037066" lon="10.165467843490358"><ele>816.0</ele><time>2026-03-27T14:59:22Z</time></trkpt><trkpt lat="45.656733782044284" lon="10.165537031563"><ele>816.0</ele><time>2026-03-27T14:59:58.999Z</time></trkpt><trkpt lat="45.65671215438559" lon="10.165624007883865"><ele>816.0</ele><time>2026-03-27T15:03:53Z</time></trkpt><trkpt lat="45.65678947225992" lon="10.16552876170002"><ele>816.0</ele><time>2026-03-27T15:03:56Z</time></trkpt><trkpt lat="45.65680692469689" lon="10.16535602443314"><ele>816.0</ele><time>2026-03-27T15:03:57Z</time></trkpt><trkpt lat="45.65683068992856" lon="10.165143389173226"><ele>816.0</ele><time>2026-03-27T15:03:58Z</time></trkpt><trkpt lat="45.65686841853724" lon="10.164981338536755"><ele>816.0</ele><time>2026-03-27T15:03:59Z</time></trkpt><trkpt lat="45.656868482193" lon="10.164809364410834"><ele>814.0</ele><time>2026-03-27T15:04:00Z</time></trkpt><trkpt lat="45.656924533102554" lon="10.164672966570048"><ele>812.0</ele><time>2026-03-27T15:04:01Z</time></trkpt><trkpt lat="45.65696509653403" lon="10.164553364923119"><ele>810.0</ele><time>2026-03-27T15:04:02Z</time></trkpt><trkpt lat="45.657031591522156" lon="10.164397648245743"><ele>808.0</ele><time>2026-03-27T15:04:03Z</time></trkpt><trkpt lat="45.657088549647014" lon="10.164257739212694"><ele>806.0</ele><time>2026-03-27T15:04:04Z</time></trkpt><trkpt lat="45.65715903556199" lon="10.164187095481882"><ele>809.5000000000001</ele><time>2026-03-27T15:04:05Z</time></trkpt><trkpt lat="45.65722004705419" lon="10.164090444185232"><ele>813.0</ele><time>2026-03-27T15:04:05.999Z</time></trkpt><trkpt lat="45.65727014986183" lon="10.163994412850222"><ele>816.5</ele><time>2026-03-27T15:04:06.999Z</time></trkpt><trkpt lat="45.65728794700753" lon="10.16390364660991"><ele>820.0</ele><time>2026-03-27T15:04:07.999Z</time></trkpt><trkpt lat="45.65724555429513" lon="10.163728146562468"><ele>823.5000000000001</ele><time>2026-03-27T15:04:09.999Z</time></trkpt><trkpt lat="45.65721564714062" lon="10.163648741718173"><ele>827.0</ele><time>2026-03-27T15:04:10.999Z</time></trkpt><trkpt lat="45.65717836857866" lon="10.163556036760815"><ele>827.0</ele><time>2026-03-27T15:04:11.999Z</time></trkpt><trkpt lat="45.6571321604078" lon="10.163438390698174"><ele>827.0</ele><time>2026-03-27T15:04:13.999Z</time></trkpt><trkpt lat="45.65707025284229" lon="10.163333406347798"><ele>827.0</ele><time>2026-03-27T15:04:15.999Z</time></trkpt><trkpt lat="45.65698091992942" lon="10.163394680047976"><ele>827.0</ele><time>2026-03-27T15:04:17.999Z</time></trkpt><trkpt lat="45.656992598278336" lon="10.163584181783616"><ele>827.0</ele><time>2026-03-27T15:04:19.999Z</time></trkpt><trkpt lat="45.65700306705506" lon="10.163720662061765"><ele>827.0000000000001</ele><time>2026-03-27T15:04:20.999Z</time></trkpt><trkpt lat="45.657024720731165" lon="10.163845672848607"><ele>827.0</ele><time>2026-03-27T15:04:21.999Z</time></trkpt><trkpt lat="45.65702265713499" lon="10.163968656788835"><ele>827.0</ele><time>2026-03-27T15:04:22.999Z</time></trkpt><trkpt lat="45.65697028900893" lon="10.164036881260147"><ele>827.0</ele><time>2026-03-27T15:04:23.999Z</time></trkpt><trkpt lat="45.65690111379583" lon="10.164109797690507"><ele>827.0000000000001</ele><time>2026-03-27T15:04:24.999Z</time></trkpt><trkpt lat="45.65683227623574" lon="10.164227080067544"><ele>827.0</ele><time>2026-03-27T15:04:25.999Z</time></trkpt><trkpt lat="45.65678778165354" lon="10.164347245811992"><ele>824.8</ele><time>2026-03-27T15:04:26.999Z</time></trkpt><trkpt lat="45.65675344301084" lon="10.164491233516259"><ele>822.6</ele><time>2026-03-27T15:04:27.999Z</time></trkpt><trkpt lat="45.65672838475847" lon="10.164606913827022"><ele>820.4</ele><time>2026-03-27T15:04:28.999Z</time></trkpt><trkpt lat="45.65670784285768" lon="10.164703686410414"><ele>818.1999999999999</ele><time>2026-03-27T15:04:29.999Z</time></trkpt><trkpt lat="45.65665539040574" lon="10.164867839580872"><ele>816.0</ele><time>2026-03-27T15:04:31.999Z</time></trkpt><trkpt lat="45.656561091496236" lon="10.164878162327861"><ele>814.0</ele><time>2026-03-27T15:04:33.999Z</time></trkpt><trkpt lat="45.65651218113339" lon="10.164804863078727"><ele>812.0</ele><time>2026-03-27T15:04:34.999Z</time></trkpt><trkpt lat="45.656414784454945" lon="10.164678509256962"><ele>810.0</ele><time>2026-03-27T15:04:35.999Z</time></trkpt><trkpt lat="45.65633835316253" lon="10.164555421993068"><ele>808.0</ele><time>2026-03-27T15:04:36.999Z</time></trkpt><trkpt lat="45.6562537007127" lon="10.1644850740535"><ele>806.0</ele><time>2026-03-27T15:04:37.999Z</time></trkpt><trkpt lat="45.656160169148116" lon="10.164394044192095"><ele>807.0</ele><time>2026-03-27T15:04:38.999Z</time></trkpt><trkpt lat="45.656094368040456" lon="10.16425233003803"><ele>808.0</ele><time>2026-03-27T15:04:39.999Z</time></trkpt><trkpt lat="45.65605902464676" lon="10.164078933489654"><ele>809.0</ele><time>2026-03-27T15:04:40.999Z</time></trkpt><trkpt lat="45.65602795870873" lon="10.163893666617469"><ele>810.0</ele><time>2026-03-27T15:04:41.999Z</time></trkpt><trkpt lat="45.655998857675414" lon="10.16370609779878"><ele>805.5</ele><time>2026-03-27T15:04:42.999Z</time></trkpt><trkpt lat="45.655940750895134" lon="10.163512694722847"><ele>801.0</ele><time>2026-03-27T15:04:43.999Z</time></trkpt><trkpt lat="45.655869719209036" lon="10.163330439768862"><ele>796.5</ele><time>2026-03-27T15:04:44.999Z</time></trkpt><trkpt lat="45.65580466446808" lon="10.163152992284271"><ele>792.0</ele><time>2026-03-27T15:04:45.999Z</time></trkpt><trkpt lat="45.6557330084401" lon="10.162979593889613"><ele>789.6</ele><time>2026-03-27T15:04:46.999Z</time></trkpt><trkpt lat="45.655674750104005" lon="10.162821224686914"><ele>787.2</ele><time>2026-03-27T15:04:47.999Z</time></trkpt><trkpt lat="45.65562208642071" lon="10.1626839368841"><ele>784.8</ele><time>2026-03-27T15:04:48.999Z</time></trkpt><trkpt lat="45.65557888767215" lon="10.162572137227755"><ele>782.4</ele><time>2026-03-27T15:04:49.999Z</time></trkpt><trkpt lat="45.65554112298702" lon="10.162454663605594"><ele>780.0</ele><time>2026-03-27T15:04:50.999Z</time></trkpt><trkpt lat="45.65548361348143" lon="10.162316073818923"><ele>778.75</ele><time>2026-03-27T15:04:51.999Z</time></trkpt><trkpt lat="45.655477816193844" lon="10.162157061938501"><ele>777.5</ele><time>2026-03-27T15:04:52.999Z</time></trkpt><trkpt lat="45.65546165746504" lon="10.162009922195304"><ele>776.25</ele><time>2026-03-27T15:04:53.999Z</time></trkpt><trkpt lat="45.655414280182654" lon="10.161851298420805"><ele>775.0</ele><time>2026-03-27T15:04:54.999Z</time></trkpt><trkpt lat="45.6553421863548" lon="10.161663864661643"><ele>773.75</ele><time>2026-03-27T15:04:55.999Z</time></trkpt><trkpt lat="45.65526002307797" lon="10.161459274666106"><ele>772.5</ele><time>2026-03-27T15:04:56.999Z</time></trkpt><trkpt lat="45.65519203596903" lon="10.161278894181338"><ele>771.25</ele><time>2026-03-27T15:04:57.999Z</time></trkpt><trkpt lat="45.6551383531458" lon="10.16111709693905"><ele>770.0</ele><time>2026-03-27T15:04:58.999Z</time></trkpt><trkpt lat="45.655079376120746" lon="10.160961605952767"><ele>770.0</ele><time>2026-03-27T15:04:59.999Z</time></trkpt><trkpt lat="45.65499491866185" lon="10.160823728827665"><ele>770.0</ele><time>2026-03-27T15:05:00.999Z</time></trkpt><trkpt lat="45.65491333007211" lon="10.160707782789027"><ele>770.0</ele><time>2026-03-27T15:05:01.999Z</time></trkpt><trkpt lat="45.654842587177015" lon="10.160632568168882"><ele>770.0</ele><time>2026-03-27T15:05:02.999Z</time></trkpt><trkpt lat="45.654761442269496" lon="10.16058295038695"><ele>770.0</ele><time>2026-03-27T15:05:03.999Z</time></trkpt><trkpt lat="45.65468389630922" lon="10.160534454066196"><ele>766.0</ele><time>2026-03-27T15:05:04.999Z</time></trkpt><trkpt lat="45.65464133375797" lon="10.160447643749956"><ele>762.0</ele><time>2026-03-27T15:05:05.999Z</time></trkpt><trkpt lat="45.65460964507458" lon="10.160368790916742"><ele>758.0</ele><time>2026-03-27T15:05:06.999Z</time></trkpt><trkpt lat="45.654667004586585" lon="10.160260636743365"><ele>754.0</ele><time>2026-03-27T15:05:07.999Z</time></trkpt><trkpt lat="45.654677118114535" lon="10.160021526812562"><ele>750.0</ele><time>2026-03-27T15:05:08.999Z</time></trkpt><trkpt lat="45.65463377562898" lon="10.15983157508503"><ele>745.3333333333334</ele><time>2026-03-27T15:05:09.999Z</time></trkpt><trkpt lat="45.65458038685384" lon="10.159638785684463"><ele>740.6666666666667</ele><time>2026-03-27T15:05:10.999Z</time></trkpt><trkpt lat="45.65453251235806" lon="10.159456644077029"><ele>736.0</ele><time>2026-03-27T15:05:11.999Z</time></trkpt><trkpt lat="45.654470426275324" lon="10.159223288363513"><ele>739.0</ele><time>2026-03-27T15:05:12.999Z</time></trkpt><trkpt lat="45.65441310654347" lon="10.158976852440805"><ele>742.0</ele><time>2026-03-27T15:05:13.999Z</time></trkpt><trkpt lat="45.6543589132654" lon="10.158756528948945"><ele>745.0</ele><time>2026-03-27T15:05:14.999Z</time></trkpt><trkpt lat="45.65429067991934" lon="10.15854458032215"><ele>745.0</ele><time>2026-03-27T15:05:15.999Z</time></trkpt><trkpt lat="45.65421913257385" lon="10.15834126967114"><ele>745.0</ele><time>2026-03-27T15:05:16.999Z</time></trkpt><trkpt lat="45.65416347812025" lon="10.158133560452532"><ele>745.0</ele><time>2026-03-27T15:05:17.999Z</time></trkpt><trkpt lat="45.654089692054704" lon="10.1579214145562"><ele>737.0</ele><time>2026-03-27T15:05:18.999Z</time></trkpt><trkpt lat="45.65400938336613" lon="10.157733160276486"><ele>729.0</ele><time>2026-03-27T15:05:19.999Z</time></trkpt><trkpt lat="45.65394151820726" lon="10.157532671762603"><ele>721.0</ele><time>2026-03-27T15:05:20.999Z</time></trkpt><trkpt lat="45.653885653428176" lon="10.157311191096362"><ele>716.0</ele><time>2026-03-27T15:05:21.999Z</time></trkpt><trkpt lat="45.6538690995698" lon="10.157109372416702"><ele>711.0</ele><time>2026-03-27T15:05:22.999Z</time></trkpt><trkpt lat="45.65383524729112" lon="10.156880932283222"><ele>706.0</ele><time>2026-03-27T15:05:23.999Z</time></trkpt><trkpt lat="45.653776387833275" lon="10.156680511361467"><ele>700.6666666666667</ele><time>2026-03-27T15:05:24.999Z</time></trkpt><trkpt lat="45.65369527781168" lon="10.156480242197322"><ele>695.3333333333334</ele><time>2026-03-27T15:05:26Z</time></trkpt><trkpt lat="45.65360284723352" lon="10.156209458652445"><ele>690.0</ele><time>2026-03-27T15:05:27Z</time></trkpt><trkpt lat="45.653525528002305" lon="10.155980856560348"><ele>697.6666666666666</ele><time>2026-03-27T15:05:28Z</time></trkpt><trkpt lat="45.65344880571643" lon="10.155783358738715"><ele>705.3333333333333</ele><time>2026-03-27T15:05:29Z</time></trkpt><trkpt lat="45.65337100248545" lon="10.155579660250343"><ele>713.0</ele><time>2026-03-27T15:05:30Z</time></trkpt><trkpt lat="45.65330118468086" lon="10.155373630955186"><ele>713.0</ele><time>2026-03-27T15:05:31Z</time></trkpt><trkpt lat="45.65325058077822" lon="10.155195028920993"><ele>713.0</ele><time>2026-03-27T15:05:32Z</time></trkpt><trkpt lat="45.65317365189962" lon="10.155002758437481"><ele>713.0</ele><time>2026-03-27T15:05:33Z</time></trkpt><trkpt lat="45.65311932731354" lon="10.154914069333415"><ele>713.0</ele><time>2026-03-27T15:05:34Z</time></trkpt><trkpt lat="45.653078002495384" lon="10.154832152412988"><ele>713.0</ele><time>2026-03-27T15:05:35Z</time></trkpt><trkpt lat="45.6530443135618" lon="10.154695121863382"><ele>711.0</ele><time>2026-03-27T15:05:37Z</time></trkpt><trkpt lat="45.653113341439" lon="10.15464686104122"><ele>709.0</ele><time>2026-03-27T15:05:39Z</time></trkpt><trkpt lat="45.65309556184235" lon="10.15474535304384"><ele>707.0</ele><time>2026-03-27T15:05:41Z</time></trkpt><trkpt lat="45.6533231082623" lon="10.154363533296321"><ele>707.0</ele><time>2026-03-27T15:05:42Z</time></trkpt><trkpt lat="45.65336231206458" lon="10.154147199069929"><ele>707.0</ele><time>2026-03-27T15:05:43Z</time></trkpt><trkpt lat="45.653392108018835" lon="10.15398749903948"><ele>707.0</ele><time>2026-03-27T15:05:44Z</time></trkpt><trkpt lat="45.65341031006036" lon="10.15383520993565"><ele>707.0</ele><time>2026-03-27T15:05:45Z</time></trkpt><trkpt lat="45.65339877546214" lon="10.153617093400522"><ele>704.6666666666666</ele><time>2026-03-27T15:05:46Z</time></trkpt><trkpt lat="45.65336014546961" lon="10.1533689499366"><ele>702.3333333333334</ele><time>2026-03-27T15:05:47Z</time></trkpt><trkpt lat="45.653327885965155" lon="10.153180050737673"><ele>700.0</ele><time>2026-03-27T15:05:48Z</time></trkpt><trkpt lat="45.65332280260545" lon="10.152948813641652"><ele>694.6666666666667</ele><time>2026-03-27T15:05:49Z</time></trkpt><trkpt lat="45.653295585655975" lon="10.152728073755144"><ele>689.3333333333334</ele><time>2026-03-27T15:05:50Z</time></trkpt><trkpt lat="45.653257050457306" lon="10.152504706047305"><ele>684.0</ele><time>2026-03-27T15:05:51Z</time></trkpt><trkpt lat="45.65324659701909" lon="10.152297070556063"><ele>678.5</ele><time>2026-03-27T15:05:52Z</time></trkpt><trkpt lat="45.65317864844753" lon="10.152103033120927"><ele>673.0</ele><time>2026-03-27T15:05:53Z</time></trkpt><trkpt lat="45.65314718385527" lon="10.151900474826917"><ele>667.5</ele><time>2026-03-27T15:05:54Z</time></trkpt><trkpt lat="45.6531046372164" lon="10.151712318185346"><ele>662.0</ele><time>2026-03-27T15:05:55Z</time></trkpt><trkpt lat="45.653067135509126" lon="10.15153592604817"><ele>657.0</ele><time>2026-03-27T15:05:56Z</time></trkpt><trkpt lat="45.65299807833183" lon="10.151391884617862"><ele>652.0</ele><time>2026-03-27T15:05:57Z</time></trkpt><trkpt lat="45.652965422630366" lon="10.151246388641509"><ele>647.0</ele><time>2026-03-27T15:05:58Z</time></trkpt><trkpt lat="45.65299444379162" lon="10.15106829502542"><ele>642.0</ele><time>2026-03-27T15:05:58.999Z</time></trkpt><trkpt lat="45.652983206897815" lon="10.15088498088846"><ele>642.0</ele><time>2026-03-27T15:05:59.999Z</time></trkpt><trkpt lat="45.652958388927594" lon="10.15071744544821"><ele>642.0</ele><time>2026-03-27T15:06:00.999Z</time></trkpt><trkpt lat="45.652902186079594" lon="10.150558619606207"><ele>642.0</ele><time>2026-03-27T15:06:01.999Z</time></trkpt><trkpt lat="45.652819583445" lon="10.150493397185928"><ele>642.0</ele><time>2026-03-27T15:06:02.999Z</time></trkpt><trkpt lat="45.65278861763398" lon="10.150381228086031"><ele>642.0</ele><time>2026-03-27T15:06:03.999Z</time></trkpt><trkpt lat="45.652812743292834" lon="10.15026051586652"><ele>641.2</ele><time>2026-03-27T15:06:05.999Z</time></trkpt><trkpt lat="45.652846131757876" lon="10.150169109776149"><ele>640.4000000000001</ele><time>2026-03-27T15:06:06.999Z</time></trkpt><trkpt lat="45.65294129651973" lon="10.15002577970429"><ele>639.5999999999999</ele><time>2026-03-27T15:06:07.999Z</time></trkpt><trkpt lat="45.65296928826892" lon="10.149860565534919"><ele>638.8</ele><time>2026-03-27T15:06:08.999Z</time></trkpt><trkpt lat="45.65299366140143" lon="10.149762055848672"><ele>638.0</ele><time>2026-03-27T15:06:09.999Z</time></trkpt><trkpt lat="45.65304087420476" lon="10.149619371403492"><ele>637.4</ele><time>2026-03-27T15:06:10.999Z</time></trkpt><trkpt lat="45.653070954336144" lon="10.149464417309197"><ele>636.8</ele><time>2026-03-27T15:06:11.999Z</time></trkpt><trkpt lat="45.65305523227884" lon="10.149324124605053"><ele>636.2</ele><time>2026-03-27T15:06:12.999Z</time></trkpt><trkpt lat="45.65305584864397" lon="10.149197381766434"><ele>635.6</ele><time>2026-03-27T15:06:14.999Z</time></trkpt><trkpt lat="45.65318065759875" lon="10.149206895774316"><ele>635.0</ele><time>2026-03-27T15:06:16.999Z</time></trkpt><trkpt lat="45.65333972217551" lon="10.14921595789149"><ele>635.0</ele><time>2026-03-27T15:06:17.999Z</time></trkpt><trkpt lat="45.65344576551203" lon="10.149220462228588"><ele>635.0</ele><time>2026-03-27T15:06:18.999Z</time></trkpt><trkpt lat="45.65352856645489" lon="10.149194800131047"><ele>635.0</ele><time>2026-03-27T15:06:19.999Z</time></trkpt><trkpt lat="45.65360937555933" lon="10.149200642586942"><ele>635.0</ele><time>2026-03-27T15:06:20.999Z</time></trkpt><trkpt lat="45.65366765084543" lon="10.149130383999442"><ele>635.0</ele><time>2026-03-27T15:06:21.999Z</time></trkpt><trkpt lat="45.653650595669575" lon="10.14896558091"><ele>637.0</ele><time>2026-03-27T15:06:22.999Z</time></trkpt><trkpt lat="45.653654346600966" lon="10.148827045406476"><ele>639.0</ele><time>2026-03-27T15:06:23.999Z</time></trkpt><trkpt lat="45.6536624299761" lon="10.148717566801135"><ele>641.0</ele><time>2026-03-27T15:06:24.999Z</time></trkpt><trkpt lat="45.653698822805566" lon="10.148263634660202"><ele>639.6666666666666</ele><time>2026-03-27T15:06:25.999Z</time></trkpt><trkpt lat="45.65371479274911" lon="10.147989343455679"><ele>638.3333333333334</ele><time>2026-03-27T15:06:26.999Z</time></trkpt><trkpt lat="45.65372071369198" lon="10.147765330043631"><ele>637.0</ele><time>2026-03-27T15:06:27.999Z</time></trkpt><trkpt lat="45.653738029393075" lon="10.14755646659225"><ele>637.0</ele><time>2026-03-27T15:06:28.999Z</time></trkpt><trkpt lat="45.653727824566424" lon="10.147378649552294"><ele>637.0</ele><time>2026-03-27T15:06:29.999Z</time></trkpt><trkpt lat="45.653730411406606" lon="10.147169389321379"><ele>637.0</ele><time>2026-03-27T15:06:30.999Z</time></trkpt><trkpt lat="45.6537282145615" lon="10.146953362573004"><ele>637.0</ele><time>2026-03-27T15:06:31.999Z</time></trkpt><trkpt lat="45.65373024439886" lon="10.146719423270286"><ele>635.5</ele><time>2026-03-27T15:06:32.999Z</time></trkpt><trkpt lat="45.653728558931675" lon="10.146490249640697"><ele>634.0</ele><time>2026-03-27T15:06:33.999Z</time></trkpt><trkpt lat="45.65372764824091" lon="10.146293502926186"><ele>632.5</ele><time>2026-03-27T15:06:34.999Z</time></trkpt><trkpt lat="45.653727672381734" lon="10.146086646505541"><ele>631.0</ele><time>2026-03-27T15:06:35.999Z</time></trkpt><trkpt lat="45.65372748666924" lon="10.145902057817576"><ele>631.0</ele><time>2026-03-27T15:06:36.999Z</time></trkpt><trkpt lat="45.65372592254002" lon="10.14573505577449"><ele>631.0</ele><time>2026-03-27T15:06:37.999Z</time></trkpt><trkpt lat="45.65371736869199" lon="10.145587413149022"><ele>631.0</ele><time>2026-03-27T15:06:38.999Z</time></trkpt><trkpt lat="45.653714516478566" lon="10.145452759542616"><ele>631.0</ele><time>2026-03-27T15:06:39.999Z</time></trkpt><trkpt lat="45.65371579189522" lon="10.14530536137618"><ele>631.0</ele><time>2026-03-27T15:06:40.999Z</time></trkpt><trkpt lat="45.65371292704133" lon="10.145173533036465"><ele>630.25</ele><time>2026-03-27T15:06:41.999Z</time></trkpt><trkpt lat="45.65370869134696" lon="10.145016103977788"><ele>629.5</ele><time>2026-03-27T15:06:42.999Z</time></trkpt><trkpt lat="45.653706160096824" lon="10.144833084830776"><ele>628.75</ele><time>2026-03-27T15:06:43.999Z</time></trkpt><trkpt lat="45.65370601375954" lon="10.144567338962737"><ele>628.0</ele><time>2026-03-27T15:06:44.999Z</time></trkpt><trkpt lat="45.65369963605268" lon="10.144372462407725"><ele>627.75</ele><time>2026-03-27T15:06:45.999Z</time></trkpt><trkpt lat="45.6536971083648" lon="10.144182498292349"><ele>627.5</ele><time>2026-03-27T15:06:46.999Z</time></trkpt><trkpt lat="45.6536992834966" lon="10.143987537713018"><ele>627.25</ele><time>2026-03-27T15:06:47.999Z</time></trkpt><trkpt lat="45.65370972525789" lon="10.143803116118356"><ele>627.0</ele><time>2026-03-27T15:06:48.999Z</time></trkpt><trkpt lat="45.65371637231514" lon="10.143616666986771"><ele>625.25</ele><time>2026-03-27T15:06:49.999Z</time></trkpt><trkpt lat="45.6537271178124" lon="10.143424626406691"><ele>623.5</ele><time>2026-03-27T15:06:50.999Z</time></trkpt><trkpt lat="45.65374581329738" lon="10.143244765411941"><ele>621.75</ele><time>2026-03-27T15:06:51.999Z</time></trkpt><trkpt lat="45.653763464476526" lon="10.143090233311034"><ele>620.0</ele><time>2026-03-27T15:06:52.999Z</time></trkpt><trkpt lat="45.653782998093895" lon="10.142933940916121"><ele>618.6</ele><time>2026-03-27T15:06:53.999Z</time></trkpt><trkpt lat="45.65380210920801" lon="10.14279149999849"><ele>617.2</ele><time>2026-03-27T15:06:54.999Z</time></trkpt><trkpt lat="45.653815608050046" lon="10.14265078693698"><ele>615.8</ele><time>2026-03-27T15:06:55.999Z</time></trkpt><trkpt lat="45.65382614710474" lon="10.142528853225539"><ele>614.4</ele><time>2026-03-27T15:06:56.999Z</time></trkpt><trkpt lat="45.65384000888252" lon="10.14243147583447"><ele>613.0</ele><time>2026-03-27T15:06:57.999Z</time></trkpt><trkpt lat="45.6538660142692" lon="10.142273144714467"><ele>612.0</ele><time>2026-03-27T15:06:59.999Z</time></trkpt><trkpt lat="45.653892004350354" lon="10.142156420497827"><ele>611.0</ele><time>2026-03-27T15:07:01.999Z</time></trkpt><trkpt lat="45.65393053805794" lon="10.142035293421651"><ele>610.0</ele><time>2026-03-27T15:07:03.999Z</time></trkpt><trkpt lat="45.653942941139924" lon="10.14191575081438"><ele>609.0</ele><time>2026-03-27T15:07:05.999Z</time></trkpt><trkpt lat="45.653952905112824" lon="10.141818648219674"><ele>608.0</ele><time>2026-03-27T15:07:07.999Z</time></trkpt><trkpt lat="45.6539510313481" lon="10.141708385185995"><ele>607.0</ele><time>2026-03-27T15:07:10.999Z</time></trkpt><trkpt lat="45.65396156570253" lon="10.141588551034605"><ele>606.2</ele><time>2026-03-27T15:07:14.999Z</time></trkpt><trkpt lat="45.653961926388924" lon="10.14142971584273"><ele>605.4000000000001</ele><time>2026-03-27T15:08:37.999Z</time></trkpt><trkpt lat="45.65397755449037" lon="10.141267829276668"><ele>604.5999999999999</ele><time>2026-03-27T15:08:39.999Z</time></trkpt><trkpt lat="45.6539858664202" lon="10.141177853813664"><ele>603.8</ele><time>2026-03-27T15:08:40.999Z</time></trkpt><trkpt lat="45.65400209519896" lon="10.141047554797971"><ele>603.0</ele><time>2026-03-27T15:08:41.999Z</time></trkpt><trkpt lat="45.6540215590516" lon="10.140921035663073"><ele>603.0</ele><time>2026-03-27T15:08:42.999Z</time></trkpt><trkpt lat="45.65404792629555" lon="10.140793914732246"><ele>603.0</ele><time>2026-03-27T15:08:43.999Z</time></trkpt><trkpt lat="45.65405290686479" lon="10.140677567337018"><ele>603.0</ele><time>2026-03-27T15:08:44.999Z</time></trkpt><trkpt lat="45.65408474470894" lon="10.140570175128037"><ele>603.0</ele><time>2026-03-27T15:08:45.999Z</time></trkpt><trkpt lat="45.65409144231618" lon="10.140465161311239"><ele>603.0</ele><time>2026-03-27T15:08:46.999Z</time></trkpt><trkpt lat="45.65411148542686" lon="10.140374536684169"><ele>603.0</ele><time>2026-03-27T15:08:47.999Z</time></trkpt><trkpt lat="45.654123086688166" lon="10.1402826235901"><ele>601.6</ele><time>2026-03-27T15:08:48.999Z</time></trkpt><trkpt lat="45.65412479023538" lon="10.140109834080333"><ele>600.1999999999999</ele><time>2026-03-27T15:08:50.999Z</time></trkpt><trkpt lat="45.65410662503404" lon="10.139937779370742"><ele>598.8</ele><time>2026-03-27T15:08:52.999Z</time></trkpt><trkpt lat="45.65408816861875" lon="10.139843095959163"><ele>597.4</ele><time>2026-03-27T15:08:53.999Z</time></trkpt><trkpt lat="45.65407939727293" lon="10.139736912529411"><ele>596.0</ele><time>2026-03-27T15:08:54.999Z</time></trkpt><trkpt lat="45.65407357540585" lon="10.139638186603927"><ele>594.8333333333333</ele><time>2026-03-27T15:08:55.999Z</time></trkpt><trkpt lat="45.65406683387852" lon="10.139546601638978"><ele>593.6666666666666</ele><time>2026-03-27T15:08:56.999Z</time></trkpt><trkpt lat="45.654072580419054" lon="10.139453140923475"><ele>592.5</ele><time>2026-03-27T15:08:57.999Z</time></trkpt><trkpt lat="45.65403422674484" lon="10.139311968828618"><ele>591.3333333333334</ele><time>2026-03-27T15:08:59.999Z</time></trkpt><trkpt lat="45.65402479981876" lon="10.139198560781447"><ele>590.1666666666667</ele><time>2026-03-27T15:09:01.999Z</time></trkpt><trkpt lat="45.653917019020504" lon="10.139194355011265"><ele>589.0</ele><time>2026-03-27T15:09:04.999Z</time></trkpt><trkpt lat="45.653836627671005" lon="10.139220642609384"><ele>589.0</ele><time>2026-03-27T15:09:05.999Z</time></trkpt><trkpt lat="45.65374429023946" lon="10.139222472751124"><ele>589.0</ele><time>2026-03-27T15:09:06.999Z</time></trkpt><trkpt lat="45.65366007080584" lon="10.139215640471338"><ele>589.0</ele><time>2026-03-27T15:09:07.999Z</time></trkpt><trkpt lat="45.653591286314324" lon="10.139160969052623"><ele>589.0</ele><time>2026-03-27T15:09:08.999Z</time></trkpt><trkpt lat="45.653506080121105" lon="10.139117608411256"><ele>589.0</ele><time>2026-03-27T15:09:09.999Z</time></trkpt><trkpt lat="45.65342126627198" lon="10.139089608998543"><ele>589.0</ele><time>2026-03-27T15:09:10.999Z</time></trkpt><trkpt lat="45.653333338998905" lon="10.139050698122334"><ele>588.6</ele><time>2026-03-27T15:09:11.999Z</time></trkpt><trkpt lat="45.65323285881185" lon="10.139041439157886"><ele>588.2</ele><time>2026-03-27T15:09:12.999Z</time></trkpt><trkpt lat="45.65311924084623" lon="10.139058135452538"><ele>587.8000000000001</ele><time>2026-03-27T15:09:13.999Z</time></trkpt><trkpt lat="45.65300920836266" lon="10.139083815542909"><ele>587.4</ele><time>2026-03-27T15:09:14.999Z</time></trkpt><trkpt lat="45.652902733489725" lon="10.139122022363162"><ele>587.0</ele><time>2026-03-27T15:09:15.999Z</time></trkpt><trkpt lat="45.65280598448174" lon="10.13916849801352"><ele>587.0</ele><time>2026-03-27T15:09:16.999Z</time></trkpt><trkpt lat="45.65271175589414" lon="10.139205589713647"><ele>587.0</ele><time>2026-03-27T15:09:17.999Z</time></trkpt><trkpt lat="45.65262478443126" lon="10.139235703156753"><ele>587.0</ele><time>2026-03-27T15:09:18.999Z</time></trkpt><trkpt lat="45.65253784133437" lon="10.139270767377567"><ele>587.0</ele><time>2026-03-27T15:09:19.999Z</time></trkpt><trkpt lat="45.65245263721701" lon="10.139272110735055"><ele>587.0</ele><time>2026-03-27T15:09:20.999Z</time></trkpt><trkpt lat="45.6523592952048" lon="10.139287758913778"><ele>587.0</ele><time>2026-03-27T15:09:21.999Z</time></trkpt><trkpt lat="45.652270435931705" lon="10.13929845326405"><ele>587.0</ele><time>2026-03-27T15:09:22.999Z</time></trkpt><trkpt lat="45.65218376569944" lon="10.13930447492374"><ele>587.0</ele><time>2026-03-27T15:09:23.999Z</time></trkpt><trkpt lat="45.65209504059403" lon="10.13930074747517"><ele>587.0</ele><time>2026-03-27T15:09:24.999Z</time></trkpt><trkpt lat="45.65199016397512" lon="10.139278710354805"><ele>587.0</ele><time>2026-03-27T15:09:25.999Z</time></trkpt><trkpt lat="45.651893650588576" lon="10.139250968806973"><ele>586.0</ele><time>2026-03-27T15:09:26.999Z</time></trkpt><trkpt lat="45.65180329103512" lon="10.139204187698459"><ele>585.0</ele><time>2026-03-27T15:09:27.999Z</time></trkpt><trkpt lat="45.651706135322314" lon="10.139143267417309"><ele>584.0</ele><time>2026-03-27T15:09:28.999Z</time></trkpt><trkpt lat="45.65160140021702" lon="10.139077572771471"><ele>583.0</ele><time>2026-03-27T15:09:29.999Z</time></trkpt><trkpt lat="45.651490759426025" lon="10.139008331323698"><ele>582.0</ele><time>2026-03-27T15:09:30.999Z</time></trkpt><trkpt lat="45.65138200068166" lon="10.138940490282002"><ele>583.2</ele><time>2026-03-27T15:09:31.999Z</time></trkpt><trkpt lat="45.651270719436475" lon="10.138871075676319"><ele>584.4000000000001</ele><time>2026-03-27T15:09:32.999Z</time></trkpt><trkpt lat="45.65116770527341" lon="10.138805616611316"><ele>585.5999999999999</ele><time>2026-03-27T15:09:33.999Z</time></trkpt><trkpt lat="45.65106151754038" lon="10.138759512312243"><ele>586.8</ele><time>2026-03-27T15:09:34.999Z</time></trkpt><trkpt lat="45.65097634779896" lon="10.138688034958166"><ele>588.0</ele><time>2026-03-27T15:09:35.999Z</time></trkpt><trkpt lat="45.65088519622758" lon="10.138630594996378"><ele>588.0</ele><time>2026-03-27T15:09:36.999Z</time></trkpt><trkpt lat="45.650794659659766" lon="10.138579315008284"><ele>588.0</ele><time>2026-03-27T15:09:37.999Z</time></trkpt><trkpt lat="45.65071807764608" lon="10.13850785552969"><ele>588.0</ele><time>2026-03-27T15:09:38.999Z</time></trkpt><trkpt lat="45.65064313999315" lon="10.13844707226614"><ele>588.0</ele><time>2026-03-27T15:09:39.999Z</time></trkpt><trkpt lat="45.650567093178665" lon="10.138384367865985"><ele>588.0</ele><time>2026-03-27T15:09:40.999Z</time></trkpt><trkpt lat="45.65049260401056" lon="10.13832121516334"><ele>588.0</ele><time>2026-03-27T15:09:41.999Z</time></trkpt><trkpt lat="45.650416092920075" lon="10.138248927639557"><ele>590.1999999999999</ele><time>2026-03-27T15:09:42.999Z</time></trkpt><trkpt lat="45.65033556397365" lon="10.138168716088956"><ele>592.4</ele><time>2026-03-27T15:09:43.999Z</time></trkpt><trkpt lat="45.65024551828348" lon="10.138096088862584"><ele>594.5999999999999</ele><time>2026-03-27T15:09:44.999Z</time></trkpt><trkpt lat="45.65015614688221" lon="10.138009241585378"><ele>596.8</ele><time>2026-03-27T15:09:45.999Z</time></trkpt><trkpt lat="45.65005807382913" lon="10.137942034011807"><ele>599.0</ele><time>2026-03-27T15:09:46.999Z</time></trkpt><trkpt lat="45.6499494651505" lon="10.13790195097611"><ele>599.0</ele><time>2026-03-27T15:09:47.999Z</time></trkpt><trkpt lat="45.64983036888218" lon="10.13785346278646"><ele>599.0</ele><time>2026-03-27T15:09:48.999Z</time></trkpt><trkpt lat="45.64971754738227" lon="10.137815982210748"><ele>599.0</ele><time>2026-03-27T15:09:49.999Z</time></trkpt><trkpt lat="45.64959714608016" lon="10.137785241174788"><ele>599.0</ele><time>2026-03-27T15:09:50.999Z</time></trkpt><trkpt lat="45.64948578171122" lon="10.137744575901705"><ele>593.5</ele><time>2026-03-27T15:09:51.999Z</time></trkpt><trkpt lat="45.64936989424827" lon="10.137706366059072"><ele>588.0</ele><time>2026-03-27T15:09:52.999Z</time></trkpt><trkpt lat="45.64925390386827" lon="10.13766722344543"><ele>582.5</ele><time>2026-03-27T15:09:53.999Z</time></trkpt><trkpt lat="45.649139885027054" lon="10.13763362691769"><ele>577.0</ele><time>2026-03-27T15:09:54.999Z</time></trkpt><trkpt lat="45.649033096954255" lon="10.137596656832834"><ele>577.0</ele><time>2026-03-27T15:09:55.999Z</time></trkpt><trkpt lat="45.64893192701339" lon="10.137541116747228"><ele>577.0</ele><time>2026-03-27T15:09:56.999Z</time></trkpt><trkpt lat="45.64883549565595" lon="10.137514805034993"><ele>577.0</ele><time>2026-03-27T15:09:57.999Z</time></trkpt><trkpt lat="45.6487307128556" lon="10.137482770129076"><ele>577.0</ele><time>2026-03-27T15:09:58.999Z</time></trkpt><trkpt lat="45.648626536066715" lon="10.137449337803803"><ele>577.0</ele><time>2026-03-27T15:09:59.999Z</time></trkpt><trkpt lat="45.64852726556646" lon="10.137408058075927"><ele>578.2</ele><time>2026-03-27T15:10:00.999Z</time></trkpt><trkpt lat="45.648435952156746" lon="10.1373569327535"><ele>579.4000000000001</ele><time>2026-03-27T15:10:01.999Z</time></trkpt><trkpt lat="45.648346378734246" lon="10.137299370970714"><ele>580.5999999999999</ele><time>2026-03-27T15:10:02.999Z</time></trkpt><trkpt lat="45.64826588808069" lon="10.137239772667423"><ele>581.8</ele><time>2026-03-27T15:10:03.999Z</time></trkpt><trkpt lat="45.64819442275229" lon="10.137156100316712"><ele>583.0</ele><time>2026-03-27T15:10:04.999Z</time></trkpt><trkpt lat="45.64813072115333" lon="10.13706100673677"><ele>583.0</ele><time>2026-03-27T15:10:05.999Z</time></trkpt><trkpt lat="45.64806987725018" lon="10.136951683418683"><ele>583.0</ele><time>2026-03-27T15:10:06.999Z</time></trkpt><trkpt lat="45.64800933643946" lon="10.13683461976937"><ele>583.0</ele><time>2026-03-27T15:10:07.999Z</time></trkpt><trkpt lat="45.647939904092944" lon="10.136712438191088"><ele>583.0</ele><time>2026-03-27T15:10:08.999Z</time></trkpt><trkpt lat="45.64786611264848" lon="10.136589392189112"><ele>583.0</ele><time>2026-03-27T15:10:09.999Z</time></trkpt><trkpt lat="45.64779276523833" lon="10.13645438670884"><ele>579.75</ele><time>2026-03-27T15:10:10.999Z</time></trkpt><trkpt lat="45.64771437407231" lon="10.136328837162011"><ele>576.5</ele><time>2026-03-27T15:10:11.999Z</time></trkpt><trkpt lat="45.64764159924644" lon="10.136200671833452"><ele>573.25</ele><time>2026-03-27T15:10:12.999Z</time></trkpt><trkpt lat="45.64757472935925" lon="10.136077085661105"><ele>570.0</ele><time>2026-03-27T15:10:13.999Z</time></trkpt><trkpt lat="45.647495022319355" lon="10.13592862424249"><ele>570.0</ele><time>2026-03-27T15:10:14.999Z</time></trkpt><trkpt lat="45.64741421179659" lon="10.13579275893959"><ele>570.0</ele><time>2026-03-27T15:10:15.999Z</time></trkpt><trkpt lat="45.647322278004054" lon="10.135647621765704"><ele>570.0</ele><time>2026-03-27T15:10:16.999Z</time></trkpt><trkpt lat="45.64722150724763" lon="10.135516413638046"><ele>570.0</ele><time>2026-03-27T15:10:17.999Z</time></trkpt><trkpt lat="45.64713478854653" lon="10.135399669348182"><ele>565.8</ele><time>2026-03-27T15:10:18.999Z</time></trkpt><trkpt lat="45.647052818262196" lon="10.13529004453399"><ele>561.6</ele><time>2026-03-27T15:10:19.999Z</time></trkpt><trkpt lat="45.64696002507648" lon="10.135185659030034"><ele>557.4</ele><time>2026-03-27T15:10:20.999Z</time></trkpt><trkpt lat="45.6468924823458" lon="10.135072944784858"><ele>553.2</ele><time>2026-03-27T15:10:21.999Z</time></trkpt><trkpt lat="45.646829455902655" lon="10.134978864399143"><ele>549.0</ele><time>2026-03-27T15:10:22.999Z</time></trkpt><trkpt lat="45.64675966688529" lon="10.134889135399387"><ele>550.8</ele><time>2026-03-27T15:10:23.999Z</time></trkpt><trkpt lat="45.646689696568274" lon="10.134802190309308"><ele>552.5999999999999</ele><time>2026-03-27T15:10:24.999Z</time></trkpt><trkpt lat="45.64663750318083" lon="10.134715329638665"><ele>554.4</ele><time>2026-03-27T15:10:25.999Z</time></trkpt><trkpt lat="45.64658586845807" lon="10.134600040190168"><ele>556.1999999999999</ele><time>2026-03-27T15:10:26.999Z</time></trkpt><trkpt lat="45.646540997195004" lon="10.134475966934334"><ele>558.0</ele><time>2026-03-27T15:10:27.999Z</time></trkpt><trkpt lat="45.646519613262285" lon="10.134350586325198"><ele>558.0</ele><time>2026-03-27T15:10:28.999Z</time></trkpt><trkpt lat="45.646524924202126" lon="10.134218078210358"><ele>558.0</ele><time>2026-03-27T15:10:29.999Z</time></trkpt><trkpt lat="45.64654991734865" lon="10.134095971362532"><ele>558.0</ele><time>2026-03-27T15:10:30.999Z</time></trkpt><trkpt lat="45.64659234349055" lon="10.133924856532278"><ele>558.0</ele><time>2026-03-27T15:10:31.999Z</time></trkpt><trkpt lat="45.6466530367571" lon="10.13373463130177"><ele>553.25</ele><time>2026-03-27T15:10:32.999Z</time></trkpt><trkpt lat="45.64673285605917" lon="10.133580223666819"><ele>548.5</ele><time>2026-03-27T15:10:33.999Z</time></trkpt><trkpt lat="45.646827173875494" lon="10.13345513501358"><ele>543.75</ele><time>2026-03-27T15:10:34.999Z</time></trkpt><trkpt lat="45.646941708230024" lon="10.133326750744711"><ele>539.0</ele><time>2026-03-27T15:10:35.999Z</time></trkpt><trkpt lat="45.64703423282114" lon="10.133208484028513"><ele>538.5</ele><time>2026-03-27T15:10:36.999Z</time></trkpt><trkpt lat="45.64713128057504" lon="10.133103073440925"><ele>538.0</ele><time>2026-03-27T15:10:37.999Z</time></trkpt><trkpt lat="45.647225506694404" lon="10.13300215001955"><ele>537.5</ele><time>2026-03-27T15:10:38.999Z</time></trkpt><trkpt lat="45.6473133044013" lon="10.132901637076966"><ele>537.0</ele><time>2026-03-27T15:10:39.999Z</time></trkpt><trkpt lat="45.64741174631904" lon="10.132818254765981"><ele>537.0</ele><time>2026-03-27T15:10:40.999Z</time></trkpt><trkpt lat="45.64750871520998" lon="10.132744692439665"><ele>537.0</ele><time>2026-03-27T15:10:41.999Z</time></trkpt><trkpt lat="45.64761780963748" lon="10.132681786615255"><ele>537.0</ele><time>2026-03-27T15:10:42.999Z</time></trkpt><trkpt lat="45.64773776212362" lon="10.132640622134993"><ele>537.0</ele><time>2026-03-27T15:10:43.999Z</time></trkpt><trkpt lat="45.647863721443734" lon="10.132610621849276"><ele>542.0</ele><time>2026-03-27T15:10:44.999Z</time></trkpt><trkpt lat="45.64799344587106" lon="10.132590699076285"><ele>547.0</ele><time>2026-03-27T15:10:45.999Z</time></trkpt><trkpt lat="45.64812282071135" lon="10.132569050165673"><ele>552.0</ele><time>2026-03-27T15:10:46.999Z</time></trkpt><trkpt lat="45.64824668181955" lon="10.13254145118159"><ele>557.0</ele><time>2026-03-27T15:10:47.999Z</time></trkpt><trkpt lat="45.64836302946571" lon="10.132507036972116"><ele>557.0</ele><time>2026-03-27T15:10:48.999Z</time></trkpt><trkpt lat="45.64847066672975" lon="10.1324688055154"><ele>557.0</ele><time>2026-03-27T15:10:49.999Z</time></trkpt><trkpt lat="45.64856848933786" lon="10.132430324321973"><ele>557.0</ele><time>2026-03-27T15:10:50.999Z</time></trkpt><trkpt lat="45.64866034869786" lon="10.132383753583962"><ele>557.0</ele><time>2026-03-27T15:10:51.999Z</time></trkpt><trkpt lat="45.64874433407842" lon="10.132354355377421"><ele>557.0</ele><time>2026-03-27T15:10:52.999Z</time></trkpt><trkpt lat="45.6487966354999" lon="10.132260384317993"><ele>564.25</ele><time>2026-03-27T15:10:53.999Z</time></trkpt><trkpt lat="45.64880555346565" lon="10.132108138843456"><ele>571.5</ele><time>2026-03-27T15:10:54.999Z</time></trkpt><trkpt lat="45.648792203473256" lon="10.131956915262412"><ele>578.75</ele><time>2026-03-27T15:10:55.999Z</time></trkpt><trkpt lat="45.648772848582325" lon="10.131770961250433"><ele>586.0</ele><time>2026-03-27T15:10:56.999Z</time></trkpt><trkpt lat="45.6487502278095" lon="10.131538804984013"><ele>588.3333333333334</ele><time>2026-03-27T15:10:57.999Z</time></trkpt><trkpt lat="45.64872304892332" lon="10.131279093487379"><ele>590.6666666666666</ele><time>2026-03-27T15:10:58.999Z</time></trkpt><trkpt lat="45.648707741663415" lon="10.131005461773382"><ele>593.0</ele><time>2026-03-27T15:10:59.999Z</time></trkpt><trkpt lat="45.648706310620206" lon="10.130702866862531"><ele>593.3333333333333</ele><time>2026-03-27T15:11:00.999Z</time></trkpt><trkpt lat="45.64868542106261" lon="10.130437272632411"><ele>593.6666666666666</ele><time>2026-03-27T15:11:01.999Z</time></trkpt><trkpt lat="45.64866792251309" lon="10.130205018260982"><ele>594.0</ele><time>2026-03-27T15:11:02.999Z</time></trkpt><trkpt lat="45.648650111969914" lon="10.130002867602546"><ele>595.75</ele><time>2026-03-27T15:11:03.999Z</time></trkpt><trkpt lat="45.648635245365625" lon="10.129829890850889"><ele>597.5</ele><time>2026-03-27T15:11:04.999Z</time></trkpt><trkpt lat="45.648594744154295" lon="10.129683810188807"><ele>599.25</ele><time>2026-03-27T15:11:05.999Z</time></trkpt><trkpt lat="45.64850534544166" lon="10.129559310526728"><ele>601.0</ele><time>2026-03-27T15:11:06.999Z</time></trkpt><trkpt lat="45.64844048090468" lon="10.129439322671619"><ele>596.3333333333334</ele><time>2026-03-27T15:11:07.999Z</time></trkpt><trkpt lat="45.64838515366971" lon="10.129347432667908"><ele>591.6666666666666</ele><time>2026-03-27T15:11:08.999Z</time></trkpt><trkpt lat="45.648316973661316" lon="10.129250405871005"><ele>587.0</ele><time>2026-03-27T15:11:09.999Z</time></trkpt><trkpt lat="45.64778632482877" lon="10.129642216153481"><ele>587.0</ele><time>2026-03-27T15:11:10.999Z</time></trkpt><trkpt lat="45.64756947389563" lon="10.129738518318101"><ele>587.0</ele><time>2026-03-27T15:11:11.999Z</time></trkpt><trkpt lat="45.647373179420526" lon="10.129783185211002"><ele>587.0</ele><time>2026-03-27T15:11:12.999Z</time></trkpt><trkpt lat="45.64720503693631" lon="10.129814388095332"><ele>587.0</ele><time>2026-03-27T15:11:13.999Z</time></trkpt><trkpt lat="45.64700959910433" lon="10.129810379479984"><ele>587.0</ele><time>2026-03-27T15:11:14.999Z</time></trkpt><trkpt lat="45.64678652050548" lon="10.129780878986118"><ele>587.0</ele><time>2026-03-27T15:11:15.999Z</time></trkpt><trkpt lat="45.646577581296846" lon="10.129749740403142"><ele>588.5</ele><time>2026-03-27T15:11:16.999Z</time></trkpt><trkpt lat="45.64636364756844" lon="10.129717094712266"><ele>590.0</ele><time>2026-03-27T15:11:17.999Z</time></trkpt><trkpt lat="45.64612032059928" lon="10.129669592048764"><ele>584.0</ele><time>2026-03-27T15:11:18.999Z</time></trkpt><trkpt lat="45.6459157785903" lon="10.129600606555101"><ele>578.0</ele><time>2026-03-27T15:11:19.999Z</time></trkpt><trkpt lat="45.64574327146898" lon="10.129536255009135"><ele>572.0</ele><time>2026-03-27T15:11:20.999Z</time></trkpt><trkpt lat="45.64559364031536" lon="10.129472043439748"><ele>572.0</ele><time>2026-03-27T15:11:21.999Z</time></trkpt><trkpt lat="45.645465897301214" lon="10.129417377884717"><ele>572.0</ele><time>2026-03-27T15:11:22.999Z</time></trkpt><trkpt lat="45.6453484964326" lon="10.129361763026496"><ele>572.0</ele><time>2026-03-27T15:11:23.999Z</time></trkpt><trkpt lat="45.645250379139455" lon="10.129301623973992"><ele>572.0</ele><time>2026-03-27T15:11:24.999Z</time></trkpt><trkpt lat="45.64515420323755" lon="10.129209639660473"><ele>566.3333333333333</ele><time>2026-03-27T15:11:25.999Z</time></trkpt><trkpt lat="45.64506554124836" lon="10.129049617319"><ele>560.6666666666666</ele><time>2026-03-27T15:11:26.999Z</time></trkpt><trkpt lat="45.64494053553206" lon="10.128819528680243"><ele>555.0</ele><time>2026-03-27T15:11:27.999Z</time></trkpt><trkpt lat="45.64481908268339" lon="10.128571991961591"><ele>555.0</ele><time>2026-03-27T15:11:28.999Z</time></trkpt><trkpt lat="45.64472121236312" lon="10.128325326765479"><ele>555.0</ele><time>2026-03-27T15:11:29.999Z</time></trkpt><trkpt lat="45.644649361006806" lon="10.128078612103653"><ele>555.0</ele><time>2026-03-27T15:11:30.999Z</time></trkpt><trkpt lat="45.64459258858153" lon="10.127842836137008"><ele>555.3333333333334</ele><time>2026-03-27T15:11:31.999Z</time></trkpt><trkpt lat="45.644550316549164" lon="10.127600486090463"><ele>555.6666666666667</ele><time>2026-03-27T15:11:32.999Z</time></trkpt><trkpt lat="45.64452772030488" lon="10.127347020500686"><ele>556.0</ele><time>2026-03-27T15:11:33.999Z</time></trkpt><trkpt lat="45.644512487841304" lon="10.12710917947034"><ele>556.0</ele><time>2026-03-27T15:11:34.999Z</time></trkpt><trkpt lat="45.644505436137344" lon="10.126884287579124"><ele>556.0</ele><time>2026-03-27T15:11:35.999Z</time></trkpt><trkpt lat="45.644511523769985" lon="10.12668787074251"><ele>556.0</ele><time>2026-03-27T15:11:36.999Z</time></trkpt><trkpt lat="45.644510263742404" lon="10.126472417106806"><ele>556.0</ele><time>2026-03-27T15:11:37.999Z</time></trkpt><trkpt lat="45.6445077125353" lon="10.126266062322937"><ele>554.3333333333334</ele><time>2026-03-27T15:11:38.999Z</time></trkpt><trkpt lat="45.64452244158945" lon="10.12605765809063"><ele>552.6666666666666</ele><time>2026-03-27T15:11:39.999Z</time></trkpt><trkpt lat="45.644530017926314" lon="10.125837387872872"><ele>551.0</ele><time>2026-03-27T15:11:40.999Z</time></trkpt><trkpt lat="45.64450425289043" lon="10.12555012795184"><ele>536.3333333333333</ele><time>2026-03-27T15:11:42Z</time></trkpt><trkpt lat="45.644439230901384" lon="10.125258062834472"><ele>521.6666666666666</ele><time>2026-03-27T15:11:43Z</time></trkpt><trkpt lat="45.644351508877655" lon="10.125011194556347"><ele>507.0</ele><time>2026-03-27T15:11:44Z</time></trkpt><trkpt lat="45.64426976204089" lon="10.124787764961528"><ele>507.0</ele><time>2026-03-27T15:11:45Z</time></trkpt><trkpt lat="45.644203613348786" lon="10.124580113777379"><ele>507.0</ele><time>2026-03-27T15:11:46Z</time></trkpt><trkpt lat="45.644143386623405" lon="10.124376457578855"><ele>507.0</ele><time>2026-03-27T15:11:47Z</time></trkpt><trkpt lat="45.644085578605605" lon="10.124181018320371"><ele>506.5</ele><time>2026-03-27T15:11:48Z</time></trkpt><trkpt lat="45.64402029305025" lon="10.124001395134853"><ele>506.0</ele><time>2026-03-27T15:11:49Z</time></trkpt><trkpt lat="45.643953447064945" lon="10.123835835048936"><ele>505.5</ele><time>2026-03-27T15:11:50Z</time></trkpt><trkpt lat="45.64389151990033" lon="10.123683135396194"><ele>505.0</ele><time>2026-03-27T15:11:51Z</time></trkpt><trkpt lat="45.643838500719646" lon="10.1235472650522"><ele>505.00000000000006</ele><time>2026-03-27T15:11:52Z</time></trkpt><trkpt lat="45.643800694211826" lon="10.123433420914363"><ele>505.0</ele><time>2026-03-27T15:11:53Z</time></trkpt><trkpt lat="45.643774282362365" lon="10.123334066564539"><ele>505.0</ele><time>2026-03-27T15:11:54Z</time></trkpt><trkpt lat="45.64377705792063" lon="10.123191689306477"><ele>505.0</ele><time>2026-03-27T15:11:56Z</time></trkpt><trkpt lat="45.64382531160627" lon="10.123108103821751"><ele>505.00000000000006</ele><time>2026-03-27T15:11:57Z</time></trkpt><trkpt lat="45.64387685934773" lon="10.123051099198431"><ele>505.0</ele><time>2026-03-27T15:11:58Z</time></trkpt><trkpt lat="45.64393247176794" lon="10.12300149378725"><ele>504.0</ele><time>2026-03-27T15:11:59Z</time></trkpt><trkpt lat="45.64399443802727" lon="10.122947600668702"><ele>503.0</ele><time>2026-03-27T15:12:00Z</time></trkpt><trkpt lat="45.644060493088006" lon="10.122862395035135"><ele>502.0</ele><time>2026-03-27T15:12:01Z</time></trkpt><trkpt lat="45.644114685292344" lon="10.122732141517133"><ele>501.0</ele><time>2026-03-27T15:12:02Z</time></trkpt><trkpt lat="45.64413426339007" lon="10.122572602039387"><ele>500.0</ele><time>2026-03-27T15:12:03Z</time></trkpt><trkpt lat="45.64412259954203" lon="10.12240136637028"><ele>499.66666666666663</ele><time>2026-03-27T15:12:04Z</time></trkpt><trkpt lat="45.64411249308878" lon="10.122228402760282"><ele>499.33333333333337</ele><time>2026-03-27T15:12:05Z</time></trkpt><trkpt lat="45.644065634998924" lon="10.121989489337178"><ele>499.0</ele><time>2026-03-27T15:12:06Z</time></trkpt><trkpt lat="45.64399768299936" lon="10.121704779875092"><ele>500.0</ele><time>2026-03-27T15:12:07Z</time></trkpt><trkpt lat="45.643935246053765" lon="10.121472140402437"><ele>501.0</ele><time>2026-03-27T15:12:08Z</time></trkpt><trkpt lat="45.643869161717575" lon="10.121249211513753"><ele>502.0</ele><time>2026-03-27T15:12:09Z</time></trkpt><trkpt lat="45.64374774581458" lon="10.120986075217129"><ele>492.5</ele><time>2026-03-27T15:12:10Z</time></trkpt><trkpt lat="45.643593375177375" lon="10.120707968620506"><ele>483.0</ele><time>2026-03-27T15:12:11Z</time></trkpt><trkpt lat="45.643432815283276" lon="10.120466947945232"><ele>483.0</ele><time>2026-03-27T15:12:12Z</time></trkpt><trkpt lat="45.64327138539833" lon="10.120236464305297"><ele>483.0</ele><time>2026-03-27T15:12:13Z</time></trkpt><trkpt lat="45.643116298524326" lon="10.120018518956561"><ele>483.0</ele><time>2026-03-27T15:12:14Z</time></trkpt><trkpt lat="45.642968358292386" lon="10.119830194173595"><ele>482.66666666666663</ele><time>2026-03-27T15:12:15Z</time></trkpt><trkpt lat="45.64281205741211" lon="10.119640028653945"><ele>482.3333333333333</ele><time>2026-03-27T15:12:16Z</time></trkpt><trkpt lat="45.64266682014457" lon="10.119458521536082"><ele>482.0</ele><time>2026-03-27T15:12:17Z</time></trkpt><trkpt lat="45.64248027060565" lon="10.119386888176626"><ele>476.66666666666663</ele><time>2026-03-27T15:12:18Z</time></trkpt><trkpt lat="45.64229370044647" lon="10.119270519705696"><ele>471.33333333333337</ele><time>2026-03-27T15:12:19Z</time></trkpt><trkpt lat="45.64213831762255" lon="10.119131965593898"><ele>466.0</ele><time>2026-03-27T15:12:20Z</time></trkpt><trkpt lat="45.64196309442687" lon="10.11904078312452"><ele>457.0</ele><time>2026-03-27T15:12:21Z</time></trkpt><trkpt lat="45.64174347073499" lon="10.11897581574965"><ele>448.0</ele><time>2026-03-27T15:12:22Z</time></trkpt><trkpt lat="45.64151018305566" lon="10.118927000325378"><ele>448.0</ele><time>2026-03-27T15:12:23Z</time></trkpt><trkpt lat="45.6413137903457" lon="10.118890166481581"><ele>448.0</ele><time>2026-03-27T15:12:24Z</time></trkpt><trkpt lat="45.64115401265553" lon="10.118872702724744"><ele>448.0</ele><time>2026-03-27T15:12:25Z</time></trkpt><trkpt lat="45.640985542870006" lon="10.11889645575883"><ele>444.5</ele><time>2026-03-27T15:12:26Z</time></trkpt><trkpt lat="45.64078563460838" lon="10.118984129667162"><ele>441.0</ele><time>2026-03-27T15:12:27Z</time></trkpt><trkpt lat="45.64053860243422" lon="10.119119174010057"><ele>440.66666666666663</ele><time>2026-03-27T15:12:28Z</time></trkpt><trkpt lat="45.64032175946061" lon="10.119244032641246"><ele>440.3333333333333</ele><time>2026-03-27T15:12:29Z</time></trkpt><trkpt lat="45.640148891754755" lon="10.119346176471753"><ele>440.0</ele><time>2026-03-27T15:12:30Z</time></trkpt><trkpt lat="45.64001366670273" lon="10.119408195255447"><ele>438.5</ele><time>2026-03-27T15:12:31Z</time></trkpt><trkpt lat="45.63988548116363" lon="10.11946371422564"><ele>437.0</ele><time>2026-03-27T15:12:32Z</time></trkpt><trkpt lat="45.63975970459844" lon="10.119551033513739"><ele>435.5</ele><time>2026-03-27T15:12:33Z</time></trkpt><trkpt lat="45.639632538117596" lon="10.119687155668503"><ele>434.0</ele><time>2026-03-27T15:12:34Z</time></trkpt><trkpt lat="45.63948364539835" lon="10.119869292368936"><ele>430.0</ele><time>2026-03-27T15:12:35Z</time></trkpt><trkpt lat="45.63931367647215" lon="10.12005182999814"><ele>426.0</ele><time>2026-03-27T15:12:36Z</time></trkpt><trkpt lat="45.639118080456086" lon="10.120224512561462"><ele>422.0</ele><time>2026-03-27T15:12:37Z</time></trkpt><trkpt lat="45.63893376854629" lon="10.120372864197586"><ele>422.0</ele><time>2026-03-27T15:12:38Z</time></trkpt><trkpt lat="45.63878165181399" lon="10.120501293041828"><ele>422.0</ele><time>2026-03-27T15:12:39Z</time></trkpt><trkpt lat="45.63863292106427" lon="10.120638033233728"><ele>422.0</ele><time>2026-03-27T15:12:40Z</time></trkpt><trkpt lat="45.63850818438234" lon="10.1207884659838"><ele>420.25</ele><time>2026-03-27T15:12:41Z</time></trkpt><trkpt lat="45.63839876869035" lon="10.12092433657954"><ele>418.5</ele><time>2026-03-27T15:12:42Z</time></trkpt><trkpt lat="45.63829485008978" lon="10.121031560247893"><ele>416.75</ele><time>2026-03-27T15:12:43Z</time></trkpt><trkpt lat="45.63819267059773" lon="10.121120013724248"><ele>415.0</ele><time>2026-03-27T15:12:44Z</time></trkpt><trkpt lat="45.63808279020194" lon="10.121159345644779"><ele>415.0</ele><time>2026-03-27T15:12:45Z</time></trkpt><trkpt lat="45.637960039893116" lon="10.12118318666758"><ele>415.0</ele><time>2026-03-27T15:12:46Z</time></trkpt><trkpt lat="45.63780022741023" lon="10.121200922466441"><ele>415.0</ele><time>2026-03-27T15:12:47Z</time></trkpt><trkpt lat="45.63763607476887" lon="10.121195840950552"><ele>415.0</ele><time>2026-03-27T15:12:48Z</time></trkpt><trkpt lat="45.637493843358264" lon="10.121151611415055"><ele>412.6666666666667</ele><time>2026-03-27T15:12:49Z</time></trkpt><trkpt lat="45.63735266539718" lon="10.121102196720534"><ele>410.33333333333337</ele><time>2026-03-27T15:12:50Z</time></trkpt><trkpt lat="45.63718777087075" lon="10.121081777289449"><ele>408.0</ele><time>2026-03-27T15:12:51Z</time></trkpt><trkpt lat="45.63701047119311" lon="10.121082101638303"><ele>402.0</ele><time>2026-03-27T15:12:52Z</time></trkpt><trkpt lat="45.6368234464495" lon="10.12112079948582"><ele>396.0</ele><time>2026-03-27T15:12:53Z</time></trkpt><trkpt lat="45.63664884317945" lon="10.121143583516622"><ele>390.0</ele><time>2026-03-27T15:12:54Z</time></trkpt><trkpt lat="45.63648139558337" lon="10.121145889868023"><ele>390.0</ele><time>2026-03-27T15:12:55Z</time></trkpt><trkpt lat="45.63632560413473" lon="10.12112293409692"><ele>390.0</ele><time>2026-03-27T15:12:56Z</time></trkpt><trkpt lat="45.636178494892214" lon="10.121032393335792"><ele>390.0</ele><time>2026-03-27T15:12:57Z</time></trkpt><trkpt lat="45.63598290461521" lon="10.120942358074574"><ele>384.6666666666667</ele><time>2026-03-27T15:12:58Z</time></trkpt><trkpt lat="45.63576069979536" lon="10.120843089247847"><ele>379.33333333333337</ele><time>2026-03-27T15:12:59Z</time></trkpt><trkpt lat="45.635558445769576" lon="10.120751224799507"><ele>374.0</ele><time>2026-03-27T15:13:00Z</time></trkpt><trkpt lat="45.63537419810517" lon="10.120666569029641"><ele>367.6666666666667</ele><time>2026-03-27T15:13:01Z</time></trkpt><trkpt lat="45.635203087586056" lon="10.12058665948791"><ele>361.3333333333333</ele><time>2026-03-27T15:13:02Z</time></trkpt><trkpt lat="45.635026491268604" lon="10.12050786740716"><ele>355.0</ele><time>2026-03-27T15:13:03Z</time></trkpt><trkpt lat="45.6348578269806" lon="10.1204435934918"><ele>355.0</ele><time>2026-03-27T15:13:04Z</time></trkpt><trkpt lat="45.63469584394277" lon="10.120415164156338"><ele>355.0</ele><time>2026-03-27T15:13:05Z</time></trkpt><trkpt lat="45.63454743562798" lon="10.120392829841183"><ele>355.0</ele><time>2026-03-27T15:13:06Z</time></trkpt><trkpt lat="45.634406432349934" lon="10.120410507862843"><ele>357.66666666666663</ele><time>2026-03-27T15:13:07Z</time></trkpt><trkpt lat="45.634251453836235" lon="10.120422687975145"><ele>360.3333333333333</ele><time>2026-03-27T15:13:08Z</time></trkpt><trkpt lat="45.63408323109338" lon="10.120407037470725"><ele>363.0</ele><time>2026-03-27T15:13:09Z</time></trkpt><trkpt lat="45.63385784149056" lon="10.120428823686945"><ele>367.0</ele><time>2026-03-27T15:13:10Z</time></trkpt><trkpt lat="45.63361566665023" lon="10.120432471154073"><ele>371.0</ele><time>2026-03-27T15:13:11Z</time></trkpt><trkpt lat="45.633379823013854" lon="10.120420341536246"><ele>371.0</ele><time>2026-03-27T15:13:12Z</time></trkpt><trkpt lat="45.63317684946796" lon="10.120408119351838"><ele>371.0</ele><time>2026-03-27T15:13:12.999Z</time></trkpt><trkpt lat="45.63295305274036" lon="10.120396122378118"><ele>371.0</ele><time>2026-03-27T15:13:13.999Z</time></trkpt><trkpt lat="45.63278856127808" lon="10.120387020615182"><ele>369.0</ele><time>2026-03-27T15:13:14.999Z</time></trkpt><trkpt lat="45.63265597848484" lon="10.12036723155816"><ele>367.0</ele><time>2026-03-27T15:13:15.999Z</time></trkpt><trkpt lat="45.63251308493062" lon="10.120349675901878"><ele>365.0</ele><time>2026-03-27T15:13:16.999Z</time></trkpt><trkpt lat="45.63237997076387" lon="10.120352281168433"><ele>363.0</ele><time>2026-03-27T15:13:17.999Z</time></trkpt><trkpt lat="45.6322708898532" lon="10.120369248455004"><ele>363.0</ele><time>2026-03-27T15:13:18.999Z</time></trkpt><trkpt lat="45.63218308613969" lon="10.120401704735015"><ele>363.0</ele><time>2026-03-27T15:13:19.999Z</time></trkpt><trkpt lat="45.63210151766174" lon="10.120448232672969"><ele>363.0</ele><time>2026-03-27T15:13:20.999Z</time></trkpt><trkpt lat="45.63199091487037" lon="10.120541342962351"><ele>363.0</ele><time>2026-03-27T15:13:21.999Z</time></trkpt><trkpt lat="45.63187769073491" lon="10.120669985941436"><ele>356.0</ele><time>2026-03-27T15:13:22.999Z</time></trkpt><trkpt lat="45.63177134279137" lon="10.12081933610834"><ele>349.0</ele><time>2026-03-27T15:13:23.999Z</time></trkpt><trkpt lat="45.63165851779444" lon="10.120998029577928"><ele>342.0</ele><time>2026-03-27T15:13:24.999Z</time></trkpt><trkpt lat="45.6315500853989" lon="10.1211829336038"><ele>342.0</ele><time>2026-03-27T15:13:25.999Z</time></trkpt><trkpt lat="45.63144981077676" lon="10.121344581399603"><ele>342.0</ele><time>2026-03-27T15:13:26.999Z</time></trkpt><trkpt lat="45.63134573964253" lon="10.121504729668363"><ele>342.0</ele><time>2026-03-27T15:13:27.999Z</time></trkpt><trkpt lat="45.63121768624511" lon="10.121658137151265"><ele>338.3333333333333</ele><time>2026-03-27T15:13:28.999Z</time></trkpt><trkpt lat="45.63106651067245" lon="10.121804469393155"><ele>334.66666666666663</ele><time>2026-03-27T15:13:29.999Z</time></trkpt><trkpt lat="45.630927411845164" lon="10.121911256545458"><ele>331.0</ele><time>2026-03-27T15:13:30.999Z</time></trkpt><trkpt lat="45.630786304787236" lon="10.121976325718236"><ele>331.0</ele><time>2026-03-27T15:13:31.999Z</time></trkpt><trkpt lat="45.63064906285227" lon="10.12202942601963"><ele>331.0</ele><time>2026-03-27T15:13:32.999Z</time></trkpt><trkpt lat="45.630483445615994" lon="10.122074989071075"><ele>331.0</ele><time>2026-03-27T15:13:33.999Z</time></trkpt><trkpt lat="45.63033659247121" lon="10.122097300408882"><ele>328.0</ele><time>2026-03-27T15:13:34.999Z</time></trkpt><trkpt lat="45.63020165429855" lon="10.122081931207063"><ele>325.0</ele><time>2026-03-27T15:13:35.999Z</time></trkpt><trkpt lat="45.63003018125663" lon="10.12202652653903"><ele>322.0</ele><time>2026-03-27T15:13:36.999Z</time></trkpt><trkpt lat="45.62982447058177" lon="10.121958771273421"><ele>322.0</ele><time>2026-03-27T15:13:37.999Z</time></trkpt><trkpt lat="45.629651333129225" lon="10.121910357417015"><ele>322.0</ele><time>2026-03-27T15:13:38.999Z</time></trkpt><trkpt lat="45.62943178026482" lon="10.121871427692069"><ele>322.0</ele><time>2026-03-27T15:13:39.999Z</time></trkpt><trkpt lat="45.62930337564948" lon="10.121845243266705"><ele>316.3333333333333</ele><time>2026-03-27T15:13:40.999Z</time></trkpt><trkpt lat="45.629181896948026" lon="10.121848783309101"><ele>310.6666666666667</ele><time>2026-03-27T15:13:41.999Z</time></trkpt><trkpt lat="45.62904034089025" lon="10.121951046342524"><ele>305.0</ele><time>2026-03-27T15:13:42.999Z</time></trkpt><trkpt lat="45.62887938039872" lon="10.122068386106443"><ele>305.0</ele><time>2026-03-27T15:13:43.999Z</time></trkpt><trkpt lat="45.628728709843315" lon="10.122159491730951"><ele>305.0</ele><time>2026-03-27T15:13:44.999Z</time></trkpt><trkpt lat="45.628607686626246" lon="10.1222570103721"><ele>305.0</ele><time>2026-03-27T15:13:45.999Z</time></trkpt><trkpt lat="45.6285049560228" lon="10.1223341686666"><ele>305.0</ele><time>2026-03-27T15:13:46.999Z</time></trkpt><trkpt lat="45.62840055865455" lon="10.122391462142094"><ele>302.6</ele><time>2026-03-27T15:13:48.001Z</time></trkpt><trkpt lat="45.62829885432332" lon="10.12241626102009"><ele>300.2</ele><time>2026-03-27T15:13:49.001Z</time></trkpt><trkpt lat="45.62819936489169" lon="10.122436668107179"><ele>297.8</ele><time>2026-03-27T15:13:50.001Z</time></trkpt><trkpt lat="45.628091892787026" lon="10.122443176339182"><ele>295.4</ele><time>2026-03-27T15:13:51.001Z</time></trkpt><trkpt lat="45.627973077563354" lon="10.12241674035105"><ele>293.0</ele><time>2026-03-27T15:13:52.001Z</time></trkpt><trkpt lat="45.62787139188203" lon="10.122340703429181"><ele>287.5</ele><time>2026-03-27T15:13:53.001Z</time></trkpt><trkpt lat="45.627771353018225" lon="10.122250585097259"><ele>282.0</ele><time>2026-03-27T15:13:54.001Z</time></trkpt><trkpt lat="45.62766588326404" lon="10.12219296611857"><ele>276.5</ele><time>2026-03-27T15:13:55.001Z</time></trkpt><trkpt lat="45.62756801303091" lon="10.122107815850912"><ele>271.0</ele><time>2026-03-27T15:13:56.001Z</time></trkpt><trkpt lat="45.62748621805952" lon="10.12197450104418"><ele>271.0</ele><time>2026-03-27T15:13:57.001Z</time></trkpt><trkpt lat="45.62739044722799" lon="10.121807539177004"><ele>271.0</ele><time>2026-03-27T15:13:58.001Z</time></trkpt><trkpt lat="45.62731443288042" lon="10.121652696465155"><ele>271.0</ele><time>2026-03-27T15:13:59.001Z</time></trkpt><trkpt lat="45.62728325279797" lon="10.121487122807203"><ele>271.0</ele><time>2026-03-27T15:14:00.001Z</time></trkpt><trkpt lat="45.62723015383452" lon="10.12134822714899"><ele>270.5</ele><time>2026-03-27T15:14:01.001Z</time></trkpt><trkpt lat="45.627183422388846" lon="10.121186924022062"><ele>270.0</ele><time>2026-03-27T15:14:02.001Z</time></trkpt><trkpt lat="45.62714341702666" lon="10.121032893516654"><ele>269.5</ele><time>2026-03-27T15:14:03.001Z</time></trkpt><trkpt lat="45.62709823757856" lon="10.120893435990064"><ele>269.0</ele><time>2026-03-27T15:14:04.001Z</time></trkpt><trkpt lat="45.62702597774125" lon="10.120755029491727"><ele>266.4</ele><time>2026-03-27T15:14:05.001Z</time></trkpt><trkpt lat="45.626927574942826" lon="10.120671253215518"><ele>263.79999999999995</ele><time>2026-03-27T15:14:06.001Z</time></trkpt><trkpt lat="45.62683011259031" lon="10.120625020518082"><ele>261.20000000000005</ele><time>2026-03-27T15:14:07.001Z</time></trkpt><trkpt lat="45.626746106370064" lon="10.120545207847284"><ele>258.6</ele><time>2026-03-27T15:14:08.001Z</time></trkpt><trkpt lat="45.626672746320665" lon="10.120444325194692"><ele>256.0</ele><time>2026-03-27T15:14:09.001Z</time></trkpt><trkpt lat="45.626604261872245" lon="10.120343507123463"><ele>256.0</ele><time>2026-03-27T15:14:10.001Z</time></trkpt><trkpt lat="45.62653811926595" lon="10.12026626810351"><ele>256.0</ele><time>2026-03-27T15:14:11.001Z</time></trkpt><trkpt lat="45.626465553689094" lon="10.120157288638303"><ele>256.0</ele><time>2026-03-27T15:14:13.001Z</time></trkpt><trkpt lat="45.626410131151786" lon="10.120097335190216"><ele>256.0</ele><time>2026-03-27T15:14:20Z</time></trkpt><trkpt lat="45.62631228128536" lon="10.120320845154664"><ele>256.0</ele><time>2026-03-27T15:14:21Z</time></trkpt><trkpt lat="45.626271269100585" lon="10.120461691878388"><ele>255.99999999999997</ele><time>2026-03-27T15:14:22Z</time></trkpt><trkpt lat="45.62622104193616" lon="10.120581216199689"><ele>256.0</ele><time>2026-03-27T15:14:23Z</time></trkpt><trkpt lat="45.626182313809245" lon="10.120688193600898"><ele>256.0</ele><time>2026-03-27T15:14:24Z</time></trkpt><trkpt lat="45.62613310339971" lon="10.120781351480344"><ele>256.0</ele><time>2026-03-27T15:14:25Z</time></trkpt><trkpt lat="45.62608170669866" lon="10.12086756537219"><ele>255.99999999999997</ele><time>2026-03-27T15:14:26Z</time></trkpt><trkpt lat="45.62603416851576" lon="10.120938032112566"><ele>256.0</ele><time>2026-03-27T15:14:27Z</time></trkpt><trkpt lat="45.625980135916116" lon="10.121012715053364"><ele>255.0</ele><time>2026-03-27T15:14:29Z</time></trkpt><trkpt lat="45.626018802384316" lon="10.121233471397685"><ele>254.00000000000003</ele><time>2026-03-27T15:14:32Z</time></trkpt><trkpt lat="45.62605740844648" lon="10.12132257801517"><ele>253.00000000000003</ele><time>2026-03-27T15:14:33Z</time></trkpt><trkpt lat="45.62609158386184" lon="10.121435245287268"><ele>252.0</ele><time>2026-03-27T15:14:34Z</time></trkpt><trkpt lat="45.62614010909512" lon="10.121540857593384"><ele>251.0</ele><time>2026-03-27T15:14:35Z</time></trkpt><trkpt lat="45.6261731143136" lon="10.121642245350412"><ele>250.99999999999997</ele><time>2026-03-27T15:14:36Z</time></trkpt><trkpt lat="45.62620301039877" lon="10.121743879020743"><ele>251.0</ele><time>2026-03-27T15:14:37Z</time></trkpt><trkpt lat="45.62622598344142" lon="10.12183696867234"><ele>250.99999999999997</ele><time>2026-03-27T15:14:38Z</time></trkpt><trkpt lat="45.626232315033185" lon="10.121932728367637"><ele>250.99999999999997</ele><time>2026-03-27T15:14:39Z</time></trkpt><trkpt lat="45.62621982990317" lon="10.12202326055511"><ele>251.0</ele><time>2026-03-27T15:14:40Z</time></trkpt><trkpt lat="45.626193054776294" lon="10.1221094879734"><ele>250.99999999999997</ele><time>2026-03-27T15:14:41Z</time></trkpt><trkpt lat="45.62617227506361" lon="10.122205916596704"><ele>250.99999999999997</ele><time>2026-03-27T15:14:42Z</time></trkpt><trkpt lat="45.62612908849759" lon="10.122370547816981"><ele>247.60000000000002</ele><time>2026-03-27T15:14:44Z</time></trkpt><trkpt lat="45.62609368775107" lon="10.1225204864123"><ele>244.20000000000002</ele><time>2026-03-27T15:14:46Z</time></trkpt><trkpt lat="45.626052648268235" lon="10.122655563306575"><ele>240.79999999999998</ele><time>2026-03-27T15:14:48Z</time></trkpt><trkpt lat="45.62601805061432" lon="10.122776846401973"><ele>237.39999999999998</ele><time>2026-03-27T15:14:50Z</time></trkpt><trkpt lat="45.62597969240399" lon="10.122893397050328"><ele>234.0</ele><time>2026-03-27T15:14:52Z</time></trkpt><trkpt lat="45.625961006822145" lon="10.12298029171211"><ele>234.0</ele><time>2026-03-27T15:14:54Z</time></trkpt><trkpt lat="45.625931148176335" lon="10.123072406674213"><ele>233.99999999999997</ele><time>2026-03-27T15:14:59Z</time></trkpt><trkpt lat="45.62588850411864" lon="10.123201511600293"><ele>233.99999999999997</ele><time>2026-03-27T15:15:00Z</time></trkpt><trkpt lat="45.625803329854314" lon="10.123350982075474"><ele>234.0</ele><time>2026-03-27T15:15:01Z</time></trkpt><trkpt lat="45.62573429028848" lon="10.123494083185662"><ele>234.0</ele><time>2026-03-27T15:15:02Z</time></trkpt><trkpt lat="45.625675964534096" lon="10.123587834025173"><ele>234.0</ele><time>2026-03-27T15:15:03Z</time></trkpt><trkpt lat="45.625593816773346" lon="10.123587645189195"><ele>234.0</ele><time>2026-03-27T15:15:04Z</time></trkpt><trkpt lat="45.625497277341005" lon="10.12358847538574"><ele>234.0</ele><time>2026-03-27T15:15:05Z</time></trkpt><trkpt lat="45.62535169080778" lon="10.123476740489812"><ele>234.0</ele><time>2026-03-27T15:15:06Z</time></trkpt><trkpt lat="45.62519659910752" lon="10.123438791920673"><ele>233.79999999999998</ele><time>2026-03-27T15:15:07Z</time></trkpt><trkpt lat="45.62508084778344" lon="10.123425687171585"><ele>233.59999999999997</ele><time>2026-03-27T15:15:08Z</time></trkpt><trkpt lat="45.624961475218484" lon="10.123454629887304"><ele>233.4</ele><time>2026-03-27T15:15:09Z</time></trkpt><trkpt lat="45.62486238805937" lon="10.123501175880627"><ele>233.2</ele><time>2026-03-27T15:15:10Z</time></trkpt><trkpt lat="45.624776484238815" lon="10.123515858678223"><ele>233.0</ele><time>2026-03-27T15:15:11Z</time></trkpt><trkpt lat="45.62470182987331" lon="10.123543778699373"><ele>233.0</ele><time>2026-03-27T15:15:12Z</time></trkpt><trkpt lat="45.62463717527041" lon="10.123587426312902"><ele>233.0</ele><time>2026-03-27T15:15:13Z</time></trkpt><trkpt lat="45.62449257676551" lon="10.123636482691854"><ele>233.0</ele><time>2026-03-27T15:15:15Z</time></trkpt><trkpt lat="45.624424350543485" lon="10.12364308667504"><ele>233.0</ele><time>2026-03-27T15:15:16Z</time></trkpt><trkpt lat="45.62431519645216" lon="10.123654599404134"><ele>233.0</ele><time>2026-03-27T15:15:18Z</time></trkpt><trkpt lat="45.62425027440994" lon="10.123582966805154"><ele>233.33333333333334</ele><time>2026-03-27T15:15:19Z</time></trkpt><trkpt lat="45.624175663136896" lon="10.123399936436625"><ele>233.66666666666669</ele><time>2026-03-27T15:15:20Z</time></trkpt><trkpt lat="45.62410082119699" lon="10.12316474185662"><ele>234.0</ele><time>2026-03-27T15:15:21Z</time></trkpt><trkpt lat="45.62399203270536" lon="10.123018867571508"><ele>232.75</ele><time>2026-03-27T15:15:22Z</time></trkpt><trkpt lat="45.62387032391114" lon="10.122902916674377"><ele>231.5</ele><time>2026-03-27T15:15:23Z</time></trkpt><trkpt lat="45.6237430689906" lon="10.122800056542772"><ele>230.25</ele><time>2026-03-27T15:15:24Z</time></trkpt><trkpt lat="45.623623489544556" lon="10.12270680613643"><ele>229.0</ele><time>2026-03-27T15:15:25Z</time></trkpt><trkpt lat="45.62349602896498" lon="10.12261228411007"><ele>228.75</ele><time>2026-03-27T15:15:26Z</time></trkpt><trkpt lat="45.62336449758928" lon="10.122518798788086"><ele>228.5</ele><time>2026-03-27T15:15:27Z</time></trkpt><trkpt lat="45.6232249449935" lon="10.122428274888252"><ele>228.25</ele><time>2026-03-27T15:15:28Z</time></trkpt><trkpt lat="45.62308627542711" lon="10.12234896955182"><ele>228.0</ele><time>2026-03-27T15:15:29Z</time></trkpt><trkpt lat="45.622944952035205" lon="10.122277549718113"><ele>227.0</ele><time>2026-03-27T15:15:30Z</time></trkpt><trkpt lat="45.6227992312185" lon="10.122210309937588"><ele>226.0</ele><time>2026-03-27T15:15:31Z</time></trkpt><trkpt lat="45.62265847590981" lon="10.12214572801572"><ele>225.0</ele><time>2026-03-27T15:15:32Z</time></trkpt><trkpt lat="45.62252413979343" lon="10.122082042057595"><ele>224.0</ele><time>2026-03-27T15:15:33Z</time></trkpt><trkpt lat="45.62238167271361" lon="10.122010889001857"><ele>224.0</ele><time>2026-03-27T15:15:34Z</time></trkpt><trkpt lat="45.62225296224713" lon="10.121948225198134"><ele>224.0</ele><time>2026-03-27T15:15:35Z</time></trkpt><trkpt lat="45.622119133104306" lon="10.121883069334284"><ele>224.0</ele><time>2026-03-27T15:15:36Z</time></trkpt><trkpt lat="45.62199702104765" lon="10.121823618022391"><ele>224.0</ele><time>2026-03-27T15:15:37Z</time></trkpt><trkpt lat="45.62187884138148" lon="10.121766297164758"><ele>223.75</ele><time>2026-03-27T15:15:38Z</time></trkpt><trkpt lat="45.62176121299872" lon="10.121709319282328"><ele>223.5</ele><time>2026-03-27T15:15:39Z</time></trkpt><trkpt lat="45.62164687756473" lon="10.121652110559832"><ele>223.25</ele><time>2026-03-27T15:15:40Z</time></trkpt><trkpt lat="45.62153091631117" lon="10.12159450695954"><ele>223.0</ele><time>2026-03-27T15:15:40.999Z</time></trkpt><trkpt lat="45.621411490827015" lon="10.121559556797273"><ele>222.5</ele><time>2026-03-27T15:15:41.999Z</time></trkpt><trkpt lat="45.62129831371507" lon="10.1214789613376"><ele>222.0</ele><time>2026-03-27T15:15:42.999Z</time></trkpt><trkpt lat="45.621174186463975" lon="10.121441078245692"><ele>221.5</ele><time>2026-03-27T15:15:43.999Z</time></trkpt><trkpt lat="45.62105485123539" lon="10.121367207718901"><ele>221.0</ele><time>2026-03-27T15:15:44.999Z</time></trkpt><trkpt lat="45.620936800837804" lon="10.121284580385781"><ele>220.75</ele><time>2026-03-27T15:15:45.999Z</time></trkpt><trkpt lat="45.62082346892947" lon="10.121195957850288"><ele>220.5</ele><time>2026-03-27T15:15:46.999Z</time></trkpt><trkpt lat="45.620712134747734" lon="10.121099950584048"><ele>220.25</ele><time>2026-03-27T15:15:47.999Z</time></trkpt><trkpt lat="45.62059583825525" lon="10.12100567597433"><ele>220.0</ele><time>2026-03-27T15:15:48.999Z</time></trkpt><trkpt lat="45.62047986177864" lon="10.120913838339392"><ele>220.0</ele><time>2026-03-27T15:15:49.999Z</time></trkpt><trkpt lat="45.62036629061956" lon="10.120816486969298"><ele>220.0</ele><time>2026-03-27T15:15:50.999Z</time></trkpt><trkpt lat="45.62026036592169" lon="10.12070787643822"><ele>220.0</ele><time>2026-03-27T15:15:51.999Z</time></trkpt><trkpt lat="45.62015341181725" lon="10.120597876802647"><ele>220.0</ele><time>2026-03-27T15:15:52.999Z</time></trkpt><trkpt lat="45.62004951386567" lon="10.120479876247371"><ele>219.0</ele><time>2026-03-27T15:15:54.001Z</time></trkpt><trkpt lat="45.6199452179022" lon="10.1203556414108"><ele>218.0</ele><time>2026-03-27T15:15:55.001Z</time></trkpt><trkpt lat="45.61983773810708" lon="10.120241961264039"><ele>217.0</ele><time>2026-03-27T15:15:56.001Z</time></trkpt><trkpt lat="45.61973046584751" lon="10.120136639369571"><ele>216.0</ele><time>2026-03-27T15:15:57.001Z</time></trkpt><trkpt lat="45.61963247603021" lon="10.120023333634485"><ele>216.0</ele><time>2026-03-27T15:15:58.001Z</time></trkpt><trkpt lat="45.61952126078011" lon="10.119940779922405"><ele>216.0</ele><time>2026-03-27T15:15:59.001Z</time></trkpt><trkpt lat="45.61941788040193" lon="10.119848335452776"><ele>216.0</ele><time>2026-03-27T15:16:00.001Z</time></trkpt><trkpt lat="45.619309120924925" lon="10.119759420005005"><ele>216.0</ele><time>2026-03-27T15:16:01.001Z</time></trkpt><trkpt lat="45.61919733353516" lon="10.119684993859375"><ele>215.25</ele><time>2026-03-27T15:16:02.001Z</time></trkpt><trkpt lat="45.6190852456671" lon="10.119618369427803"><ele>214.5</ele><time>2026-03-27T15:16:03.001Z</time></trkpt><trkpt lat="45.61897313173847" lon="10.119556799825423"><ele>213.75</ele><time>2026-03-27T15:16:04.001Z</time></trkpt><trkpt lat="45.61885927418953" lon="10.119500755168195"><ele>213.0</ele><time>2026-03-27T15:16:05.001Z</time></trkpt><trkpt lat="45.61874379801008" lon="10.119447361590614"><ele>212.25</ele><time>2026-03-27T15:16:06.001Z</time></trkpt><trkpt lat="45.61862893181647" lon="10.119396824877244"><ele>211.5</ele><time>2026-03-27T15:16:07.001Z</time></trkpt><trkpt lat="45.61851342084831" lon="10.11934727949093"><ele>210.75</ele><time>2026-03-27T15:16:08.001Z</time></trkpt><trkpt lat="45.61839424328403" lon="10.1192996185625"><ele>210.0</ele><time>2026-03-27T15:16:09.001Z</time></trkpt><trkpt lat="45.61826194474107" lon="10.119251886161406"><ele>210.0</ele><time>2026-03-27T15:16:10.001Z</time></trkpt><trkpt lat="45.618108447115254" lon="10.119182999800467"><ele>210.0</ele><time>2026-03-27T15:16:11.001Z</time></trkpt><trkpt lat="45.617951544548056" lon="10.1191219207631"><ele>210.0</ele><time>2026-03-27T15:16:12.001Z</time></trkpt><trkpt lat="45.61779699247733" lon="10.119061202181427"><ele>209.5</ele><time>2026-03-27T15:16:13.001Z</time></trkpt><trkpt lat="45.61764383129484" lon="10.1189928612898"><ele>209.0</ele><time>2026-03-27T15:16:14.001Z</time></trkpt><trkpt lat="45.61750242483723" lon="10.118931404068887"><ele>208.5</ele><time>2026-03-27T15:16:15.001Z</time></trkpt><trkpt lat="45.617368116832544" lon="10.11888146253181"><ele>208.0</ele><time>2026-03-27T15:16:16.001Z</time></trkpt><trkpt lat="45.617249141273255" lon="10.118832396338474"><ele>208.0</ele><time>2026-03-27T15:16:17.001Z</time></trkpt><trkpt lat="45.6171418378179" lon="10.118790793981269"><ele>208.0</ele><time>2026-03-27T15:16:18.001Z</time></trkpt><trkpt lat="45.61703829990629" lon="10.118738451344207"><ele>208.0</ele><time>2026-03-27T15:16:19.001Z</time></trkpt><trkpt lat="45.616884728176835" lon="10.11866416316368"><ele>208.0</ele><time>2026-03-27T15:16:20.001Z</time></trkpt><trkpt lat="45.616753314560675" lon="10.11861285657808"><ele>207.25</ele><time>2026-03-27T15:16:21.001Z</time></trkpt><trkpt lat="45.61662277600861" lon="10.118565480518924"><ele>206.5</ele><time>2026-03-27T15:16:22.001Z</time></trkpt><trkpt lat="45.61648106342259" lon="10.118509827813464"><ele>205.75</ele><time>2026-03-27T15:16:23.001Z</time></trkpt><trkpt lat="45.61635039616803" lon="10.118460154680944"><ele>205.0</ele><time>2026-03-27T15:16:24.001Z</time></trkpt><trkpt lat="45.616231250477746" lon="10.118405468136208"><ele>205.75</ele><time>2026-03-27T15:16:25.001Z</time></trkpt><trkpt lat="45.61611637820111" lon="10.118356189333756"><ele>206.5</ele><time>2026-03-27T15:16:26Z</time></trkpt><trkpt lat="45.615992953328245" lon="10.118320509845356"><ele>207.25</ele><time>2026-03-27T15:16:27Z</time></trkpt><trkpt lat="45.61587828911268" lon="10.11828920725409"><ele>208.0</ele><time>2026-03-27T15:16:28Z</time></trkpt><trkpt lat="45.61577897192528" lon="10.118266657802213"><ele>207.0</ele><time>2026-03-27T15:16:29Z</time></trkpt><trkpt lat="45.61567626779185" lon="10.118228088147216"><ele>206.0</ele><time>2026-03-27T15:16:30Z</time></trkpt><trkpt lat="45.61551322005883" lon="10.118188269332785"><ele>205.0</ele><time>2026-03-27T15:16:31Z</time></trkpt><trkpt lat="45.61536108002039" lon="10.11814786059556"><ele>204.0</ele><time>2026-03-27T15:16:32Z</time></trkpt><trkpt lat="45.61521691176911" lon="10.11809236592821"><ele>203.5</ele><time>2026-03-27T15:16:33Z</time></trkpt><trkpt lat="45.61510042816065" lon="10.118041002168694"><ele>203.0</ele><time>2026-03-27T15:16:34Z</time></trkpt><trkpt lat="45.614996377075805" lon="10.117978377156193"><ele>202.5</ele><time>2026-03-27T15:16:35Z</time></trkpt><trkpt lat="45.6148933218514" lon="10.11790928174874"><ele>202.0</ele><time>2026-03-27T15:16:36Z</time></trkpt><trkpt lat="45.61480262950827" lon="10.117834598440558"><ele>202.0</ele><time>2026-03-27T15:16:37Z</time></trkpt><trkpt lat="45.61471904583315" lon="10.117752697262109"><ele>202.0</ele><time>2026-03-27T15:16:38Z</time></trkpt><trkpt lat="45.614638876699445" lon="10.117669661903502"><ele>202.0</ele><time>2026-03-27T15:16:39Z</time></trkpt><trkpt lat="45.61456971053981" lon="10.117593572066378"><ele>202.0</ele><time>2026-03-27T15:16:40Z</time></trkpt><trkpt lat="45.61451037875544" lon="10.117523151529479"><ele>202.0</ele><time>2026-03-27T15:16:41Z</time></trkpt><trkpt lat="45.61444868204375" lon="10.117425834808529"><ele>201.49999999999997</ele><time>2026-03-27T15:16:43Z</time></trkpt><trkpt lat="45.614418003162115" lon="10.117327730662653"><ele>201.0</ele><time>2026-03-27T15:16:50Z</time></trkpt><trkpt lat="45.61438564813107" lon="10.117192553850911"><ele>200.5</ele><time>2026-03-27T15:16:53Z</time></trkpt><trkpt lat="45.61438875243408" lon="10.117102442327926"><ele>200.0</ele><time>2026-03-27T15:16:54Z</time></trkpt><trkpt lat="45.614364841453835" lon="10.116996017629022"><ele>199.49999999999997</ele><time>2026-03-27T15:16:55Z</time></trkpt><trkpt lat="45.614326399143216" lon="10.116904820234224"><ele>199.0</ele><time>2026-03-27T15:16:56Z</time></trkpt><trkpt lat="45.614209925767426" lon="10.11691102067922"><ele>199.0</ele><time>2026-03-27T15:16:57Z</time></trkpt><trkpt lat="45.61411383955311" lon="10.116929581898255"><ele>199.0</ele><time>2026-03-27T15:16:58Z</time></trkpt><trkpt lat="45.613989598200405" lon="10.116958383436655"><ele>199.0</ele><time>2026-03-27T15:16:59Z</time></trkpt><trkpt lat="45.61385793669155" lon="10.116968557474602"><ele>199.0</ele><time>2026-03-27T15:17:00Z</time></trkpt><trkpt lat="45.61373657986635" lon="10.11698555505349"><ele>200.0</ele><time>2026-03-27T15:17:01Z</time></trkpt><trkpt lat="45.61361652760572" lon="10.117022258912208"><ele>201.0</ele><time>2026-03-27T15:17:02Z</time></trkpt><trkpt lat="45.613489351170664" lon="10.11707986723718"><ele>202.0</ele><time>2026-03-27T15:17:03Z</time></trkpt><trkpt lat="45.61337461461061" lon="10.11713990368304"><ele>203.0</ele><time>2026-03-27T15:17:04Z</time></trkpt><trkpt lat="45.613254940047945" lon="10.11719373979605"><ele>203.0</ele><time>2026-03-27T15:17:05Z</time></trkpt><trkpt lat="45.61312846470522" lon="10.117263374000375"><ele>203.0</ele><time>2026-03-27T15:17:06Z</time></trkpt><trkpt lat="45.61299037017865" lon="10.117327536398154"><ele>203.0</ele><time>2026-03-27T15:17:07Z</time></trkpt><trkpt lat="45.612868682624175" lon="10.117398883671918"><ele>203.0</ele><time>2026-03-27T15:17:08Z</time></trkpt><trkpt lat="45.61274023257536" lon="10.117469276348244"><ele>205.0</ele><time>2026-03-27T15:17:09Z</time></trkpt><trkpt lat="45.612601446251624" lon="10.117535136171918"><ele>207.0</ele><time>2026-03-27T15:17:10Z</time></trkpt><trkpt lat="45.61246539871997" lon="10.117598966868776"><ele>209.0</ele><time>2026-03-27T15:17:11Z</time></trkpt><trkpt lat="45.61233123156785" lon="10.117669472992473"><ele>211.0</ele><time>2026-03-27T15:17:12Z</time></trkpt><trkpt lat="45.612195656790284" lon="10.11774282104234"><ele>211.0</ele><time>2026-03-27T15:17:13Z</time></trkpt><trkpt lat="45.612064398544355" lon="10.117811929610292"><ele>211.0</ele><time>2026-03-27T15:17:14Z</time></trkpt><trkpt lat="45.611939378746044" lon="10.117895170331197"><ele>211.0</ele><time>2026-03-27T15:17:15Z</time></trkpt><trkpt lat="45.61182277410931" lon="10.117985394018287"><ele>211.0</ele><time>2026-03-27T15:17:16Z</time></trkpt><trkpt lat="45.611711425476415" lon="10.118076706176666"><ele>209.25</ele><time>2026-03-27T15:17:17Z</time></trkpt><trkpt lat="45.61160403678711" lon="10.118167740180429"><ele>207.5</ele><time>2026-03-27T15:17:18Z</time></trkpt><trkpt lat="45.61150105514315" lon="10.118259371926001"><ele>205.75</ele><time>2026-03-27T15:17:19Z</time></trkpt><trkpt lat="45.61140334818807" lon="10.11834679083589"><ele>204.0</ele><time>2026-03-27T15:17:20Z</time></trkpt><trkpt lat="45.61131250731745" lon="10.118430422850281"><ele>203.6</ele><time>2026-03-27T15:17:21Z</time></trkpt><trkpt lat="45.61122751219655" lon="10.118505171617981"><ele>203.2</ele><time>2026-03-27T15:17:22Z</time></trkpt><trkpt lat="45.6111463453378" lon="10.11857655051305"><ele>202.79999999999998</ele><time>2026-03-27T15:17:23Z</time></trkpt><trkpt lat="45.61106911118712" lon="10.118652450361159"><ele>202.39999999999998</ele><time>2026-03-27T15:17:24Z</time></trkpt><trkpt lat="45.61099357115859" lon="10.118723372112267"><ele>202.0</ele><time>2026-03-27T15:17:25Z</time></trkpt><trkpt lat="45.61091841432461" lon="10.118794569349303"><ele>201.0</ele><time>2026-03-27T15:17:26Z</time></trkpt><trkpt lat="45.61084285906274" lon="10.11885934714245"><ele>200.0</ele><time>2026-03-27T15:17:27Z</time></trkpt><trkpt lat="45.6107649492818" lon="10.11893211881364"><ele>199.0</ele><time>2026-03-27T15:17:28Z</time></trkpt><trkpt lat="45.610681681539084" lon="10.119010075193808"><ele>198.0</ele><time>2026-03-27T15:17:29Z</time></trkpt><trkpt lat="45.610593786137535" lon="10.119088267322553"><ele>197.0</ele><time>2026-03-27T15:17:30Z</time></trkpt><trkpt lat="45.61049676929647" lon="10.119176707928931"><ele>197.0</ele><time>2026-03-27T15:17:31Z</time></trkpt><trkpt lat="45.61040334187948" lon="10.119259499315646"><ele>197.0</ele><time>2026-03-27T15:17:32Z</time></trkpt><trkpt lat="45.61031565694643" lon="10.119331876433986"><ele>197.0</ele><time>2026-03-27T15:17:33Z</time></trkpt><trkpt lat="45.610226535392705" lon="10.119399438569097"><ele>197.0</ele><time>2026-03-27T15:17:34Z</time></trkpt><trkpt lat="45.6101269821213" lon="10.119465903384187"><ele>197.0</ele><time>2026-03-27T15:17:35Z</time></trkpt><trkpt lat="45.61002332484629" lon="10.119527415083683"><ele>195.75</ele><time>2026-03-27T15:17:36Z</time></trkpt><trkpt lat="45.60991453778458" lon="10.119582062425446"><ele>194.5</ele><time>2026-03-27T15:17:37Z</time></trkpt><trkpt lat="45.6098012156511" lon="10.11963286238773"><ele>193.25</ele><time>2026-03-27T15:17:38Z</time></trkpt><trkpt lat="45.60968905794411" lon="10.119673178498338"><ele>192.0</ele><time>2026-03-27T15:17:39Z</time></trkpt><trkpt lat="45.60957878489655" lon="10.11970120149955"><ele>191.0</ele><time>2026-03-27T15:17:40Z</time></trkpt><trkpt lat="45.60946057130302" lon="10.119727762498838"><ele>190.0</ele><time>2026-03-27T15:17:40.999Z</time></trkpt><trkpt lat="45.609341038434266" lon="10.119738371919173"><ele>189.0</ele><time>2026-03-27T15:17:41.999Z</time></trkpt><trkpt lat="45.609223505290295" lon="10.119732744169276"><ele>188.0</ele><time>2026-03-27T15:17:42.999Z</time></trkpt><trkpt lat="45.60910828435209" lon="10.119706630531136"><ele>188.0</ele><time>2026-03-27T15:17:43.999Z</time></trkpt><trkpt lat="45.6090005480246" lon="10.119659007952068"><ele>188.0</ele><time>2026-03-27T15:17:44.999Z</time></trkpt><trkpt lat="45.60889359745766" lon="10.119593064929353"><ele>188.0</ele><time>2026-03-27T15:17:45.999Z</time></trkpt><trkpt lat="45.608787540378586" lon="10.119511696118522"><ele>188.0</ele><time>2026-03-27T15:17:46.999Z</time></trkpt><trkpt lat="45.60868463703006" lon="10.11941146596164"><ele>188.75</ele><time>2026-03-27T15:17:47.999Z</time></trkpt><trkpt lat="45.608583032339666" lon="10.119299386812514"><ele>189.5</ele><time>2026-03-27T15:17:48.999Z</time></trkpt><trkpt lat="45.608479413098536" lon="10.119179210286315"><ele>190.25</ele><time>2026-03-27T15:17:49.999Z</time></trkpt><trkpt lat="45.60837152418596" lon="10.119056979297872"><ele>191.0</ele><time>2026-03-27T15:17:50.999Z</time></trkpt><trkpt lat="45.60826019286014" lon="10.1189312996639"><ele>191.75</ele><time>2026-03-27T15:17:51.999Z</time></trkpt><trkpt lat="45.60814564636627" lon="10.11879950834076"><ele>192.5</ele><time>2026-03-27T15:17:52.999Z</time></trkpt><trkpt lat="45.608032153981235" lon="10.118663855070753"><ele>193.25</ele><time>2026-03-27T15:17:53.999Z</time></trkpt><trkpt lat="45.60791772613858" lon="10.11852305849267"><ele>194.0</ele><time>2026-03-27T15:17:54.999Z</time></trkpt><trkpt lat="45.60779801431678" lon="10.118383981148202"><ele>194.0</ele><time>2026-03-27T15:17:55.999Z</time></trkpt><trkpt lat="45.60768058678732" lon="10.11824760975302"><ele>194.0</ele><time>2026-03-27T15:17:56.999Z</time></trkpt><trkpt lat="45.60756125973462" lon="10.118114014647542"><ele>194.0</ele><time>2026-03-27T15:17:57.999Z</time></trkpt><trkpt lat="45.607442341101745" lon="10.117975492381717"><ele>193.0</ele><time>2026-03-27T15:17:58.999Z</time></trkpt><trkpt lat="45.60731420445288" lon="10.11782981731422"><ele>192.0</ele><time>2026-03-27T15:18:00.001Z</time></trkpt><trkpt lat="45.607181385678544" lon="10.117680047643272"><ele>191.0</ele><time>2026-03-27T15:18:01.001Z</time></trkpt><trkpt lat="45.60704045445966" lon="10.117500340740458"><ele>190.5</ele><time>2026-03-27T15:18:02.001Z</time></trkpt><trkpt lat="45.60687225857371" lon="10.11730435732537"><ele>190.0</ele><time>2026-03-27T15:18:03.001Z</time></trkpt><trkpt lat="45.60668056794217" lon="10.117080997582752"><ele>190.0</ele><time>2026-03-27T15:18:04.001Z</time></trkpt><trkpt lat="45.60646128178506" lon="10.116851809751179"><ele>190.0</ele><time>2026-03-27T15:18:05.001Z</time></trkpt><trkpt lat="45.60627090628858" lon="10.116617791106837"><ele>189.33333333333334</ele><time>2026-03-27T15:18:06.001Z</time></trkpt><trkpt lat="45.6060983664909" lon="10.116407944405987"><ele>188.66666666666666</ele><time>2026-03-27T15:18:07.001Z</time></trkpt><trkpt lat="45.60595488197621" lon="10.116223345479806"><ele>188.0</ele><time>2026-03-27T15:18:08.001Z</time></trkpt><trkpt lat="45.60584062258567" lon="10.116031019884392"><ele>188.0</ele><time>2026-03-27T15:18:09.001Z</time></trkpt><trkpt lat="45.60573813537677" lon="10.115878203730228"><ele>188.0</ele><time>2026-03-27T15:18:10.001Z</time></trkpt><trkpt lat="45.60564431416195" lon="10.115727886225425"><ele>188.0</ele><time>2026-03-27T15:18:11.001Z</time></trkpt><trkpt lat="45.605544876584474" lon="10.115568570504237"><ele>188.0</ele><time>2026-03-27T15:18:12.001Z</time></trkpt><trkpt lat="45.60542215373129" lon="10.115371947683855"><ele>189.33333333333331</ele><time>2026-03-27T15:18:13.001Z</time></trkpt><trkpt lat="45.60528883607926" lon="10.115158350077415"><ele>190.66666666666666</ele><time>2026-03-27T15:18:14.001Z</time></trkpt><trkpt lat="45.605141654984244" lon="10.114922541032666"><ele>192.0</ele><time>2026-03-27T15:18:15.001Z</time></trkpt><trkpt lat="45.60499945639368" lon="10.114723382180307"><ele>189.33333333333334</ele><time>2026-03-27T15:18:16.001Z</time></trkpt><trkpt lat="45.60486744090683" lon="10.114509529152203"><ele>186.66666666666669</ele><time>2026-03-27T15:18:17.001Z</time></trkpt><trkpt lat="45.604724546167446" lon="10.114279743748183"><ele>184.0</ele><time>2026-03-27T15:18:18.001Z</time></trkpt><trkpt lat="45.60458228415425" lon="10.114045207870609"><ele>183.33333333333334</ele><time>2026-03-27T15:18:19.001Z</time></trkpt><trkpt lat="45.60445495844278" lon="10.113834260840235"><ele>182.66666666666666</ele><time>2026-03-27T15:18:20.001Z</time></trkpt><trkpt lat="45.60433657587632" lon="10.113638476156476"><ele>182.0</ele><time>2026-03-27T15:18:21.001Z</time></trkpt><trkpt lat="45.604225508282944" lon="10.113456446723383"><ele>182.0</ele><time>2026-03-27T15:18:22.001Z</time></trkpt><trkpt lat="45.604121055969195" lon="10.113287658384467"><ele>182.0</ele><time>2026-03-27T15:18:23.001Z</time></trkpt><trkpt lat="45.60402995452874" lon="10.113137158669026"><ele>182.0</ele><time>2026-03-27T15:18:24.001Z</time></trkpt><trkpt lat="45.60394939850874" lon="10.113002325554184"><ele>182.0</ele><time>2026-03-27T15:18:25.001Z</time></trkpt><trkpt lat="45.60388782199705" lon="10.112862926019567"><ele>182.0</ele><time>2026-03-27T15:18:26.001Z</time></trkpt><trkpt lat="45.60384500446391" lon="10.112710334047927"><ele>182.0</ele><time>2026-03-27T15:18:27.001Z</time></trkpt><trkpt lat="45.60383250613596" lon="10.112566982931188"><ele>182.0</ele><time>2026-03-27T15:18:28Z</time></trkpt><trkpt lat="45.60380665383651" lon="10.112462091829546"><ele>182.0</ele><time>2026-03-27T15:18:29Z</time></trkpt><trkpt lat="45.60375140094486" lon="10.112356991224079"><ele>182.0</ele><time>2026-03-27T15:18:30Z</time></trkpt><trkpt lat="45.60361651452636" lon="10.112310916770673"><ele>181.33333333333331</ele><time>2026-03-27T15:18:31Z</time></trkpt><trkpt lat="45.60346341561939" lon="10.11220035913794"><ele>180.66666666666666</ele><time>2026-03-27T15:18:32Z</time></trkpt><trkpt lat="45.603284531387565" lon="10.112090266740617"><ele>180.0</ele><time>2026-03-27T15:18:33Z</time></trkpt><trkpt lat="45.603106466611166" lon="10.111904925852757"><ele>180.0</ele><time>2026-03-27T15:18:34Z</time></trkpt><trkpt lat="45.60289878236782" lon="10.111740743960583"><ele>180.0</ele><time>2026-03-27T15:18:35Z</time></trkpt><trkpt lat="45.60268349316385" lon="10.11157851498177"><ele>180.33333333333334</ele><time>2026-03-27T15:18:36Z</time></trkpt><trkpt lat="45.60248459978114" lon="10.111436968257284"><ele>180.66666666666669</ele><time>2026-03-27T15:18:37Z</time></trkpt><trkpt lat="45.602298208480704" lon="10.111302807684257"><ele>181.0</ele><time>2026-03-27T15:18:38Z</time></trkpt><trkpt lat="45.602129356763875" lon="10.111175623097658"><ele>181.66666666666669</ele><time>2026-03-27T15:18:39Z</time></trkpt><trkpt lat="45.601965824042345" lon="10.111056571068076"><ele>182.33333333333334</ele><time>2026-03-27T15:18:40Z</time></trkpt><trkpt lat="45.60180293235867" lon="10.110942742062072"><ele>183.0</ele><time>2026-03-27T15:18:41Z</time></trkpt><trkpt lat="45.601630039878216" lon="10.110818427114951"><ele>182.33333333333334</ele><time>2026-03-27T15:18:42Z</time></trkpt><trkpt lat="45.60146620635702" lon="10.110692942131866"><ele>181.66666666666669</ele><time>2026-03-27T15:18:43Z</time></trkpt><trkpt lat="45.601310847863694" lon="10.110571777583596"><ele>181.0</ele><time>2026-03-27T15:18:44Z</time></trkpt><trkpt lat="45.601162285229755" lon="10.11047178451527"><ele>180.0</ele><time>2026-03-27T15:18:45Z</time></trkpt><trkpt lat="45.60102249556281" lon="10.110405824512322"><ele>179.0</ele><time>2026-03-27T15:18:46Z</time></trkpt><trkpt lat="45.600876921549705" lon="10.110368702557345"><ele>178.0</ele><time>2026-03-27T15:18:47Z</time></trkpt><trkpt lat="45.60073197297791" lon="10.110354929053944"><ele>177.0</ele><time>2026-03-27T15:18:48Z</time></trkpt><trkpt lat="45.60058310345763" lon="10.110344684513581"><ele>177.0</ele><time>2026-03-27T15:18:49Z</time></trkpt><trkpt lat="45.60043553667004" lon="10.110336017344743"><ele>177.0</ele><time>2026-03-27T15:18:50Z</time></trkpt><trkpt lat="45.60028782248156" lon="10.110279362357312"><ele>177.0</ele><time>2026-03-27T15:18:51Z</time></trkpt><trkpt lat="45.600138175890315" lon="10.110212098973411"><ele>177.25</ele><time>2026-03-27T15:18:52Z</time></trkpt><trkpt lat="45.59999978131779" lon="10.110135430145768"><ele>177.5</ele><time>2026-03-27T15:18:53Z</time></trkpt><trkpt lat="45.599860584417925" lon="10.110074359516833"><ele>177.75</ele><time>2026-03-27T15:18:54Z</time></trkpt><trkpt lat="45.599740348139996" lon="10.10999556085444"><ele>178.0</ele><time>2026-03-27T15:18:55Z</time></trkpt><trkpt lat="45.599610668082164" lon="10.109922649504826"><ele>178.0</ele><time>2026-03-27T15:18:56Z</time></trkpt><trkpt lat="45.599485558325334" lon="10.109844841433471"><ele>178.0</ele><time>2026-03-27T15:18:57Z</time></trkpt><trkpt lat="45.59935446661955" lon="10.109768020345422"><ele>178.0</ele><time>2026-03-27T15:18:58Z</time></trkpt><trkpt lat="45.599221443998324" lon="10.10968805722351"><ele>178.0</ele><time>2026-03-27T15:18:59Z</time></trkpt><trkpt lat="45.599098290910185" lon="10.10961167303459"><ele>178.0</ele><time>2026-03-27T15:19:00Z</time></trkpt><trkpt lat="45.598974944452564" lon="10.109546329142182"><ele>178.0</ele><time>2026-03-27T15:19:01Z</time></trkpt><trkpt lat="45.59885449492687" lon="10.109487060309164"><ele>178.0</ele><time>2026-03-27T15:19:02Z</time></trkpt><trkpt lat="45.59874904972504" lon="10.109417761268336"><ele>178.0</ele><time>2026-03-27T15:19:03Z</time></trkpt><trkpt lat="45.598641695287725" lon="10.109392856581412"><ele>177.8</ele><time>2026-03-27T15:19:04Z</time></trkpt><trkpt lat="45.59855009081953" lon="10.109345866186297"><ele>177.60000000000002</ele><time>2026-03-27T15:19:05Z</time></trkpt><trkpt lat="45.59846853546054" lon="10.109313717262095"><ele>177.39999999999998</ele><time>2026-03-27T15:19:06Z</time></trkpt><trkpt lat="45.59837852172242" lon="10.109284346988439"><ele>177.2</ele><time>2026-03-27T15:19:07Z</time></trkpt><trkpt lat="45.59829244372421" lon="10.109248376351685"><ele>177.0</ele><time>2026-03-27T15:19:08Z</time></trkpt><trkpt lat="45.5982032781271" lon="10.109215235794286"><ele>177.0</ele><time>2026-03-27T15:19:09Z</time></trkpt><trkpt lat="45.59811373651421" lon="10.10918133632296"><ele>177.0</ele><time>2026-03-27T15:19:10Z</time></trkpt><trkpt lat="45.59801848988213" lon="10.10914612415167"><ele>177.0</ele><time>2026-03-27T15:19:11Z</time></trkpt><trkpt lat="45.597919665527264" lon="10.109107582464333"><ele>177.0</ele><time>2026-03-27T15:19:12Z</time></trkpt><trkpt lat="45.597809451575834" lon="10.10906946574109"><ele>177.0</ele><time>2026-03-27T15:19:13Z</time></trkpt><trkpt lat="45.59772434822267" lon="10.109038610628224"><ele>176.66666666666666</ele><time>2026-03-27T15:19:14Z</time></trkpt><trkpt lat="45.59764490659434" lon="10.109012905812614"><ele>176.33333333333334</ele><time>2026-03-27T15:19:15Z</time></trkpt><trkpt lat="45.59757789164737" lon="10.108986735085669"><ele>176.0</ele><time>2026-03-27T15:19:16Z</time></trkpt><trkpt lat="45.59750485031602" lon="10.108949187739038"><ele>175.66666666666669</ele><time>2026-03-27T15:19:17Z</time></trkpt><trkpt lat="45.59743366814035" lon="10.108907507982966"><ele>175.33333333333334</ele><time>2026-03-27T15:19:18Z</time></trkpt><trkpt lat="45.597377284939974" lon="10.108846139212504"><ele>175.0</ele><time>2026-03-27T15:19:19Z</time></trkpt><trkpt lat="45.59730741727193" lon="10.108729640145222"><ele>175.0</ele><time>2026-03-27T15:19:21Z</time></trkpt><trkpt lat="45.59727229326657" lon="10.108619464839027"><ele>175.0</ele><time>2026-03-27T15:19:25Z</time></trkpt><trkpt lat="45.59723934396842" lon="10.108478899709135"><ele>175.0</ele><time>2026-03-27T15:19:27Z</time></trkpt><trkpt lat="45.59713095600393" lon="10.108409133062933"><ele>175.0</ele><time>2026-03-27T15:19:29Z</time></trkpt><trkpt lat="45.59706585245177" lon="10.108453363017091"><ele>175.0</ele><time>2026-03-27T15:19:30Z</time></trkpt><trkpt lat="45.59700311535037" lon="10.108527924144934"><ele>174.83333333333334</ele><time>2026-03-27T15:19:31Z</time></trkpt><trkpt lat="45.59695201592277" lon="10.108610559940754"><ele>174.66666666666669</ele><time>2026-03-27T15:19:32Z</time></trkpt><trkpt lat="45.596878226953805" lon="10.108676562792684"><ele>174.5</ele><time>2026-03-27T15:19:32.999Z</time></trkpt><trkpt lat="45.596805886224146" lon="10.108696941223563"><ele>174.33333333333334</ele><time>2026-03-27T15:19:33.999Z</time></trkpt><trkpt lat="45.59673456722438" lon="10.108716676386484"><ele>174.16666666666666</ele><time>2026-03-27T15:19:34.999Z</time></trkpt><trkpt lat="45.59666819712683" lon="10.108734465853589"><ele>174.0</ele><time>2026-03-27T15:19:35.999Z</time></trkpt><trkpt lat="45.59659087171022" lon="10.108740998029527"><ele>174.0</ele><time>2026-03-27T15:19:36.999Z</time></trkpt><trkpt lat="45.596504898229355" lon="10.108734933000292"><ele>174.0</ele><time>2026-03-27T15:19:37.999Z</time></trkpt><trkpt lat="45.596432609842246" lon="10.108740514657969"><ele>174.0</ele><time>2026-03-27T15:19:38.999Z</time></trkpt><trkpt lat="45.59629872279336" lon="10.108776942036295"><ele>174.0</ele><time>2026-03-27T15:19:40.999Z</time></trkpt><trkpt lat="45.59621549115123" lon="10.108784570237763"><ele>174.0</ele><time>2026-03-27T15:19:41.999Z</time></trkpt><trkpt lat="45.59613130510446" lon="10.10884066390451"><ele>174.39999999999998</ele><time>2026-03-27T15:19:42.999Z</time></trkpt><trkpt lat="45.59603892707081" lon="10.108871022658134"><ele>174.8</ele><time>2026-03-27T15:19:43.999Z</time></trkpt><trkpt lat="45.595956279435185" lon="10.10890491721205"><ele>175.2</ele><time>2026-03-27T15:19:44.999Z</time></trkpt><trkpt lat="45.59586612412754" lon="10.108944890670799"><ele>175.60000000000002</ele><time>2026-03-27T15:19:45.999Z</time></trkpt><trkpt lat="45.59577130350859" lon="10.108974483315645"><ele>176.0</ele><time>2026-03-27T15:19:46.999Z</time></trkpt><trkpt lat="45.59566519823643" lon="10.109010324457323"><ele>176.0</ele><time>2026-03-27T15:19:47.999Z</time></trkpt><trkpt lat="45.59556986670684" lon="10.109048692105977"><ele>176.0</ele><time>2026-03-27T15:19:48.999Z</time></trkpt><trkpt lat="45.59548355275029" lon="10.109077226290609"><ele>176.0</ele><time>2026-03-27T15:19:49.999Z</time></trkpt><trkpt lat="45.5953914511261" lon="10.109087860330838"><ele>176.0</ele><time>2026-03-27T15:19:50.999Z</time></trkpt><trkpt lat="45.59530099109846" lon="10.109096346871684"><ele>176.0</ele><time>2026-03-27T15:19:51.999Z</time></trkpt><trkpt lat="45.59521821382418" lon="10.109118233670472"><ele>175.8</ele><time>2026-03-27T15:19:52.999Z</time></trkpt><trkpt lat="45.59514687823862" lon="10.109127162824478"><ele>175.60000000000002</ele><time>2026-03-27T15:19:53.999Z</time></trkpt><trkpt lat="45.595016176232974" lon="10.109124047801185"><ele>175.4</ele><time>2026-03-27T15:19:55.999Z</time></trkpt><trkpt lat="45.59494906023805" lon="10.109092102026986"><ele>175.2</ele><time>2026-03-27T15:19:56.999Z</time></trkpt><trkpt lat="45.594886575768854" lon="10.109045888169348"><ele>175.0</ele><time>2026-03-27T15:19:57.999Z</time></trkpt><trkpt lat="45.594795106914184" lon="10.108900945579617"><ele>175.0</ele><time>2026-03-27T15:19:59.999Z</time></trkpt><trkpt lat="45.59473282390081" lon="10.108869692746744"><ele>175.0</ele><time>2026-03-27T15:20:00.999Z</time></trkpt><trkpt lat="45.59460645845605" lon="10.108887412585764"><ele>175.0</ele><time>2026-03-27T15:20:02.999Z</time></trkpt><trkpt lat="45.59454668453178" lon="10.108948005268653"><ele>175.0</ele><time>2026-03-27T15:20:03.999Z</time></trkpt><trkpt lat="45.594492744964825" lon="10.108995794824224"><ele>175.0</ele><time>2026-03-27T15:20:04.999Z</time></trkpt><trkpt lat="45.59444221538289" lon="10.109233644347498"><ele>174.6</ele><time>2026-03-27T15:20:07.001Z</time></trkpt><trkpt lat="45.59436957581089" lon="10.109294728478249"><ele>174.2</ele><time>2026-03-27T15:20:08.001Z</time></trkpt><trkpt lat="45.594293096865336" lon="10.109334103483878"><ele>173.8</ele><time>2026-03-27T15:20:09.001Z</time></trkpt><trkpt lat="45.594182835836534" lon="10.109376510183193"><ele>173.4</ele><time>2026-03-27T15:20:10.001Z</time></trkpt><trkpt lat="45.59406401659825" lon="10.109415317581387"><ele>173.0</ele><time>2026-03-27T15:20:11.001Z</time></trkpt><trkpt lat="45.593938301748075" lon="10.109453782864309"><ele>173.0</ele><time>2026-03-27T15:20:12.001Z</time></trkpt><trkpt lat="45.593790309128906" lon="10.10946975757389"><ele>173.0</ele><time>2026-03-27T15:20:13.001Z</time></trkpt><trkpt lat="45.59362563026942" lon="10.10951010944122"><ele>173.0</ele><time>2026-03-27T15:20:14.001Z</time></trkpt><trkpt lat="45.59345691568501" lon="10.109562138607952"><ele>172.66666666666666</ele><time>2026-03-27T15:20:15.001Z</time></trkpt><trkpt lat="45.59326971887145" lon="10.10961527233889"><ele>172.33333333333334</ele><time>2026-03-27T15:20:16.001Z</time></trkpt><trkpt lat="45.59304902860017" lon="10.109650617216484"><ele>172.0</ele><time>2026-03-27T15:20:17.001Z</time></trkpt><trkpt lat="45.59279372124628" lon="10.10971261366486"><ele>171.66666666666669</ele><time>2026-03-27T15:20:18.001Z</time></trkpt><trkpt lat="45.59256375559521" lon="10.109786483133401"><ele>171.33333333333334</ele><time>2026-03-27T15:20:19.001Z</time></trkpt><trkpt lat="45.59237512474821" lon="10.109810766584191"><ele>171.0</ele><time>2026-03-27T15:20:20.001Z</time></trkpt><trkpt lat="45.592198462944154" lon="10.109846906631313"><ele>171.0</ele><time>2026-03-27T15:20:21.001Z</time></trkpt><trkpt lat="45.592071914322005" lon="10.109898716855978"><ele>171.0</ele><time>2026-03-27T15:20:22.001Z</time></trkpt><trkpt lat="45.59195734642384" lon="10.10987104190562"><ele>171.0</ele><time>2026-03-27T15:20:23.001Z</time></trkpt><trkpt lat="45.59185444722972" lon="10.109841162360368"><ele>171.0</ele><time>2026-03-27T15:20:24.001Z</time></trkpt><trkpt lat="45.59177475989279" lon="10.109787533707687"><ele>171.0</ele><time>2026-03-27T15:20:25.001Z</time></trkpt><trkpt lat="45.59171474827109" lon="10.109679732472806"><ele>170.8</ele><time>2026-03-27T15:20:26.001Z</time></trkpt><trkpt lat="45.591649964647004" lon="10.109620479398394"><ele>170.60000000000002</ele><time>2026-03-27T15:20:27.001Z</time></trkpt><trkpt lat="45.591553215010464" lon="10.109660463409472"><ele>170.4</ele><time>2026-03-27T15:20:28Z</time></trkpt><trkpt lat="45.591479816173" lon="10.109763123301674"><ele>170.2</ele><time>2026-03-27T15:20:29Z</time></trkpt><trkpt lat="45.59144285139254" lon="10.10987813578906"><ele>170.0</ele><time>2026-03-27T15:20:30Z</time></trkpt><trkpt lat="45.591387192597914" lon="10.109970584129195"><ele>170.0</ele><time>2026-03-27T15:20:31Z</time></trkpt><trkpt lat="45.59132178654857" lon="10.110043318117045"><ele>170.0</ele><time>2026-03-27T15:20:32Z</time></trkpt><trkpt lat="45.59121826440255" lon="10.110020257851675"><ele>170.0</ele><time>2026-03-27T15:20:33Z</time></trkpt><trkpt lat="45.59113072410966" lon="10.110029161008985"><ele>170.0</ele><time>2026-03-27T15:20:34Z</time></trkpt><trkpt lat="45.59103137854773" lon="10.11002306998128"><ele>170.0</ele><time>2026-03-27T15:20:35Z</time></trkpt><trkpt lat="45.59093045065422" lon="10.110013338048132"><ele>169.8</ele><time>2026-03-27T15:20:36Z</time></trkpt><trkpt lat="45.590830541346925" lon="10.11001351114252"><ele>169.6</ele><time>2026-03-27T15:20:37Z</time></trkpt><trkpt lat="45.590736349615185" lon="10.110008835569511"><ele>169.39999999999998</ele><time>2026-03-27T15:20:38Z</time></trkpt><trkpt lat="45.5906430834985" lon="10.109995675965935"><ele>169.2</ele><time>2026-03-27T15:20:39Z</time></trkpt><trkpt lat="45.590546084132" lon="10.110008973622017"><ele>169.0</ele><time>2026-03-27T15:20:40Z</time></trkpt><trkpt lat="45.59045960194179" lon="10.110012825290683"><ele>169.0</ele><time>2026-03-27T15:20:41Z</time></trkpt><trkpt lat="45.59037376704867" lon="10.110019570465207"><ele>169.0</ele><time>2026-03-27T15:20:42Z</time></trkpt><trkpt lat="45.590278038124175" lon="10.110029749354174"><ele>169.0</ele><time>2026-03-27T15:20:43Z</time></trkpt><trkpt lat="45.59017933544108" lon="10.110040981248831"><ele>169.0</ele><time>2026-03-27T15:20:44Z</time></trkpt><trkpt lat="45.59008110359259" lon="10.110053086230376"><ele>169.0</ele><time>2026-03-27T15:20:45Z</time></trkpt><trkpt lat="45.589990647994924" lon="10.11007156747727"><ele>168.83333333333334</ele><time>2026-03-27T15:20:46Z</time></trkpt><trkpt lat="45.589903651255256" lon="10.11008001962973"><ele>168.66666666666669</ele><time>2026-03-27T15:20:47Z</time></trkpt><trkpt lat="45.589817883607914" lon="10.110089661059432"><ele>168.5</ele><time>2026-03-27T15:20:48Z</time></trkpt><trkpt lat="45.58974903973035" lon="10.110097441773009"><ele>168.33333333333334</ele><time>2026-03-27T15:20:49Z</time></trkpt><trkpt lat="45.589675803511994" lon="10.110107478198103"><ele>168.16666666666666</ele><time>2026-03-27T15:20:50Z</time></trkpt><trkpt lat="45.58961029563659" lon="10.110112715650788"><ele>168.0</ele><time>2026-03-27T15:20:51Z</time></trkpt><trkpt lat="45.58950147452059" lon="10.110128672903928"><ele>167.66666666666666</ele><time>2026-03-27T15:20:53Z</time></trkpt><trkpt lat="45.58938910099317" lon="10.110090352652163"><ele>167.33333333333334</ele><time>2026-03-27T15:20:55Z</time></trkpt><trkpt lat="45.589320757068975" lon="10.110031826138902"><ele>167.0</ele><time>2026-03-27T15:20:56Z</time></trkpt><trkpt lat="45.58927174645003" lon="10.109951884787257"><ele>166.66666666666669</ele><time>2026-03-27T15:20:57Z</time></trkpt><trkpt lat="45.5892250416946" lon="10.109887120154838"><ele>166.33333333333334</ele><time>2026-03-27T15:20:58Z</time></trkpt><trkpt lat="45.58915464371856" lon="10.109876805417251"><ele>166.0</ele><time>2026-03-27T15:20:59Z</time></trkpt><trkpt lat="45.58908707103264" lon="10.109952125194782"><ele>165.83333333333334</ele><time>2026-03-27T15:21:00Z</time></trkpt><trkpt lat="45.589045747075446" lon="10.110058296724572"><ele>165.66666666666669</ele><time>2026-03-27T15:21:01Z</time></trkpt><trkpt lat="45.588993787740826" lon="10.11015271960459"><ele>165.5</ele><time>2026-03-27T15:21:02Z</time></trkpt><trkpt lat="45.58890892514899" lon="10.110196618710322"><ele>165.33333333333334</ele><time>2026-03-27T15:21:03Z</time></trkpt><trkpt lat="45.5888411032513" lon="10.110275805426387"><ele>165.16666666666666</ele><time>2026-03-27T15:21:04Z</time></trkpt><trkpt lat="45.5887613665264" lon="10.11033882319174"><ele>165.0</ele><time>2026-03-27T15:21:05Z</time></trkpt><trkpt lat="45.58865764959231" lon="10.110392578286982"><ele>164.6</ele><time>2026-03-27T15:21:06Z</time></trkpt><trkpt lat="45.58854536845954" lon="10.11043077991189"><ele>164.2</ele><time>2026-03-27T15:21:07Z</time></trkpt><trkpt lat="45.58843234139445" lon="10.110448747002007"><ele>163.8</ele><time>2026-03-27T15:21:08Z</time></trkpt><trkpt lat="45.58832980137501" lon="10.110463706301676"><ele>163.4</ele><time>2026-03-27T15:21:09Z</time></trkpt><trkpt lat="45.58822265935997" lon="10.11048838172737"><ele>163.0</ele><time>2026-03-27T15:21:10Z</time></trkpt><trkpt lat="45.588109136205965" lon="10.110492157097832"><ele>163.0</ele><time>2026-03-27T15:21:11Z</time></trkpt><trkpt lat="45.587984849053186" lon="10.110479306839428"><ele>163.0</ele><time>2026-03-27T15:21:12Z</time></trkpt><trkpt lat="45.58787067660695" lon="10.110461250579887"><ele>163.0</ele><time>2026-03-27T15:21:13Z</time></trkpt><trkpt lat="45.58775000358786" lon="10.110438806791004"><ele>163.0</ele><time>2026-03-27T15:21:14Z</time></trkpt><trkpt lat="45.5876236595209" lon="10.110406474622083"><ele>163.0</ele><time>2026-03-27T15:21:15Z</time></trkpt><trkpt lat="45.58746521314332" lon="10.110335892438059"><ele>163.0</ele><time>2026-03-27T15:21:16Z</time></trkpt><trkpt lat="45.58725305685858" lon="10.110269517173718"><ele>163.0</ele><time>2026-03-27T15:21:17Z</time></trkpt><trkpt lat="45.58700571051657" lon="10.110190177613799"><ele>163.0</ele><time>2026-03-27T15:21:18Z</time></trkpt><trkpt lat="45.58671739330468" lon="10.110109640034553"><ele>163.0</ele><time>2026-03-27T15:21:19Z</time></trkpt><trkpt lat="45.58646651004413" lon="10.110032955121964"><ele>163.0</ele><time>2026-03-27T15:21:20Z</time></trkpt><trkpt lat="45.58621752086298" lon="10.10995472368642"><ele>163.0</ele><time>2026-03-27T15:21:21Z</time></trkpt><trkpt lat="45.58600204520372" lon="10.109888902029184"><ele>163.33333333333334</ele><time>2026-03-27T15:21:22Z</time></trkpt><trkpt lat="45.58581066966758" lon="10.109825992517768"><ele>163.66666666666666</ele><time>2026-03-27T15:21:23Z</time></trkpt><trkpt lat="45.58565696413985" lon="10.109772724946232"><ele>164.0</ele><time>2026-03-27T15:21:24Z</time></trkpt><trkpt lat="45.58552367196443" lon="10.109726417028762"><ele>164.0</ele><time>2026-03-27T15:21:25Z</time></trkpt><trkpt lat="45.585413539374706" lon="10.109683890213361"><ele>164.0</ele><time>2026-03-27T15:21:26Z</time></trkpt><trkpt lat="45.58532558348966" lon="10.109611921610396"><ele>164.0</ele><time>2026-03-27T15:21:26.999Z</time></trkpt><trkpt lat="45.58528625378614" lon="10.109464786745075"><ele>164.0</ele><time>2026-03-27T15:21:27.999Z</time></trkpt><trkpt lat="45.58522443292323" lon="10.109406135966248"><ele>164.0</ele><time>2026-03-27T15:21:28.999Z</time></trkpt><trkpt lat="45.585142272261294" lon="10.109370221337485"><ele>163.79999999999998</ele><time>2026-03-27T15:21:29.999Z</time></trkpt><trkpt lat="45.58505825909401" lon="10.109404181269904"><ele>163.6</ele><time>2026-03-27T15:21:30.999Z</time></trkpt><trkpt lat="45.58496856759644" lon="10.109541841640327"><ele>163.4</ele><time>2026-03-27T15:21:31.999Z</time></trkpt><trkpt lat="45.584893305721856" lon="10.109636263193838"><ele>163.2</ele><time>2026-03-27T15:21:32.999Z</time></trkpt><trkpt lat="45.58477212779877" lon="10.109682777681806"><ele>163.0</ele><time>2026-03-27T15:21:33.999Z</time></trkpt><trkpt lat="45.584607606389845" lon="10.109713844477051"><ele>163.33333333333334</ele><time>2026-03-27T15:21:34.999Z</time></trkpt><trkpt lat="45.58441483001733" lon="10.109685017752362"><ele>163.66666666666666</ele><time>2026-03-27T15:21:35.999Z</time></trkpt><trkpt lat="45.58422658565784" lon="10.10962371142913"><ele>164.0</ele><time>2026-03-27T15:21:36.999Z</time></trkpt><trkpt lat="45.58405436347374" lon="10.109514338074279"><ele>164.0</ele><time>2026-03-27T15:21:37.999Z</time></trkpt><trkpt lat="45.58389889194431" lon="10.109350111464979"><ele>164.0</ele><time>2026-03-27T15:21:38.999Z</time></trkpt><trkpt lat="45.58374715320692" lon="10.10914913536259"><ele>164.0</ele><time>2026-03-27T15:21:39.999Z</time></trkpt><trkpt lat="45.583621240306435" lon="10.10892886039146"><ele>164.75</ele><time>2026-03-27T15:21:40.999Z</time></trkpt><trkpt lat="45.58351093211322" lon="10.108755727979549"><ele>165.5</ele><time>2026-03-27T15:21:41.999Z</time></trkpt><trkpt lat="45.5834243367288" lon="10.108600470174869"><ele>166.25</ele><time>2026-03-27T15:21:42.999Z</time></trkpt><trkpt lat="45.5833441712588" lon="10.108459296486261"><ele>167.0</ele><time>2026-03-27T15:21:43.999Z</time></trkpt><trkpt lat="45.5832688750913" lon="10.108333179160054"><ele>166.6</ele><time>2026-03-27T15:21:44.999Z</time></trkpt><trkpt lat="45.58320025413643" lon="10.108225744984322"><ele>166.2</ele><time>2026-03-27T15:21:45.999Z</time></trkpt><trkpt lat="45.583138190694825" lon="10.108118518577031"><ele>165.8</ele><time>2026-03-27T15:21:46.999Z</time></trkpt><trkpt lat="45.58309558622149" lon="10.107972924463294"><ele>165.4</ele><time>2026-03-27T15:21:47.999Z</time></trkpt><trkpt lat="45.583083389974256" lon="10.107824825230546"><ele>165.0</ele><time>2026-03-27T15:21:48.999Z</time></trkpt><trkpt lat="45.58302947181857" lon="10.107746865813338"><ele>165.0</ele><time>2026-03-27T15:21:49.999Z</time></trkpt><trkpt lat="45.58295474444445" lon="10.107725583510218"><ele>165.0</ele><time>2026-03-27T15:21:50.999Z</time></trkpt><trkpt lat="45.58286622479694" lon="10.10777042851347"><ele>165.0</ele><time>2026-03-27T15:21:51.999Z</time></trkpt><trkpt lat="45.58276220863618" lon="10.107880441824715"><ele>165.0</ele><time>2026-03-27T15:21:52.999Z</time></trkpt><trkpt lat="45.582633160525354" lon="10.108013964968467"><ele>164.6</ele><time>2026-03-27T15:21:53.999Z</time></trkpt><trkpt lat="45.58253224907951" lon="10.108113087409514"><ele>164.2</ele><time>2026-03-27T15:21:54.999Z</time></trkpt><trkpt lat="45.58242676368297" lon="10.108198857794717"><ele>163.8</ele><time>2026-03-27T15:21:55.999Z</time></trkpt><trkpt lat="45.58233481242168" lon="10.108279852822921"><ele>163.4</ele><time>2026-03-27T15:21:56.999Z</time></trkpt><trkpt lat="45.58226143992799" lon="10.10834262606686"><ele>163.0</ele><time>2026-03-27T15:21:57.999Z</time></trkpt><trkpt lat="45.58220510385607" lon="10.108402506252588"><ele>163.0</ele><time>2026-03-27T15:21:58.999Z</time></trkpt><trkpt lat="45.58230514866067" lon="10.108693333298227"><ele>163.0</ele><time>2026-03-27T15:22:01.999Z</time></trkpt><trkpt lat="45.5823455631173" lon="10.108793417704462"><ele>163.0</ele><time>2026-03-27T15:22:03.999Z</time></trkpt><trkpt lat="45.58242378502105" lon="10.10875950529755"><ele>163.0</ele><time>2026-03-27T15:22:04.999Z</time></trkpt><trkpt lat="45.582533007243754" lon="10.108778015277407"><ele>163.0</ele><time>2026-03-27T15:22:06.999Z</time></trkpt><trkpt lat="45.58261757744523" lon="10.108781527911185"><ele>163.0</ele><time>2026-03-27T15:22:07.999Z</time></trkpt><trkpt lat="45.582703880469865" lon="10.108796183599178"><ele>163.0</ele><time>2026-03-27T15:22:08.999Z</time></trkpt><trkpt lat="45.582770070490064" lon="10.108818075539022"><ele>163.0</ele><time>2026-03-27T15:22:09.999Z</time></trkpt><trkpt lat="45.582881781311286" lon="10.108849085202035"><ele>163.0</ele><time>2026-03-27T15:22:12.001Z</time></trkpt><trkpt lat="45.5829607730186" lon="10.108880619839335"><ele>163.0</ele><time>2026-03-27T15:22:14.001Z</time></trkpt><trkpt lat="45.58282779536598" lon="10.108809993855354"><ele>163.0</ele><time>2026-03-27T15:22:21.001Z</time></trkpt><trkpt lat="45.58273049100879" lon="10.108795179327977"><ele>163.0</ele><time>2026-03-27T15:22:22.001Z</time></trkpt><trkpt lat="45.58263312270881" lon="10.108768860217769"><ele>163.0</ele><time>2026-03-27T15:22:23.001Z</time></trkpt><trkpt lat="45.582553499000085" lon="10.10875404458366"><ele>163.0</ele><time>2026-03-27T15:22:24.001Z</time></trkpt><trkpt lat="45.58248782924384" lon="10.108740848013177"><ele>163.0</ele><time>2026-03-27T15:22:25.001Z</time></trkpt><trkpt lat="45.58237482744603" lon="10.108702340065802"><ele>163.0</ele><time>2026-03-27T15:22:27Z</time></trkpt><trkpt lat="45.582310349237204" lon="10.108680427890885"><ele>163.0</ele><time>2026-03-27T15:22:29Z</time></trkpt><trkpt lat="45.582270055549046" lon="10.108835273586685"><ele>163.0</ele><time>2026-03-27T15:22:31Z</time></trkpt><trkpt lat="45.58226411160861" lon="10.108960031324253"><ele>163.0</ele><time>2026-03-27T15:22:32Z</time></trkpt><trkpt lat="45.58224806808544" lon="10.109111202643486"><ele>163.0</ele><time>2026-03-27T15:22:33Z</time></trkpt><trkpt lat="45.58222637961314" lon="10.10925909626224"><ele>162.8</ele><time>2026-03-27T15:22:34Z</time></trkpt><trkpt lat="45.58220563800719" lon="10.109374681883779"><ele>162.60000000000002</ele><time>2026-03-27T15:22:35Z</time></trkpt><trkpt lat="45.58218411197523" lon="10.109494998350224"><ele>162.39999999999998</ele><time>2026-03-27T15:22:36Z</time></trkpt><trkpt lat="45.58216004483918" lon="10.109616501285025"><ele>162.2</ele><time>2026-03-27T15:22:37Z</time></trkpt><trkpt lat="45.58215026657347" lon="10.109753337691167"><ele>162.0</ele><time>2026-03-27T15:22:38Z</time></trkpt><trkpt lat="45.582147279291476" lon="10.109930618679805"><ele>162.0</ele><time>2026-03-27T15:22:39Z</time></trkpt><trkpt lat="45.582135438914456" lon="10.11015830302195"><ele>162.0</ele><time>2026-03-27T15:22:40Z</time></trkpt><trkpt lat="45.58210054545227" lon="10.110348089545232"><ele>162.0</ele><time>2026-03-27T15:22:41Z</time></trkpt><trkpt lat="45.582035788988954" lon="10.110525832841013"><ele>162.0</ele><time>2026-03-27T15:22:42Z</time></trkpt><trkpt lat="45.58190886338888" lon="10.11064487235372"><ele>161.66666666666666</ele><time>2026-03-27T15:22:43Z</time></trkpt><trkpt lat="45.58178513124795" lon="10.110817197906433"><ele>161.33333333333331</ele><time>2026-03-27T15:22:44Z</time></trkpt><trkpt lat="45.58165731933217" lon="10.110950409875983"><ele>161.0</ele><time>2026-03-27T15:22:45Z</time></trkpt><trkpt lat="45.5815617608383" lon="10.111086963584071"><ele>161.0</ele><time>2026-03-27T15:22:46Z</time></trkpt><trkpt lat="45.5814834245089" lon="10.111226746528505"><ele>161.0</ele><time>2026-03-27T15:22:47Z</time></trkpt><trkpt lat="45.58139368518579" lon="10.111362988971884"><ele>161.0</ele><time>2026-03-27T15:22:48Z</time></trkpt><trkpt lat="45.581293690046145" lon="10.111484350339726"><ele>161.0</ele><time>2026-03-27T15:22:49Z</time></trkpt><trkpt lat="45.5811900988229" lon="10.111610403546836"><ele>160.66666666666666</ele><time>2026-03-27T15:22:50Z</time></trkpt><trkpt lat="45.58108026448268" lon="10.111747077103052"><ele>160.33333333333334</ele><time>2026-03-27T15:22:51Z</time></trkpt><trkpt lat="45.58096497300222" lon="10.111902763442268"><ele>160.0</ele><time>2026-03-27T15:22:52Z</time></trkpt><trkpt lat="45.58083813732291" lon="10.112083056840516"><ele>160.0</ele><time>2026-03-27T15:22:53Z</time></trkpt><trkpt lat="45.580677632796764" lon="10.112283439198045"><ele>160.0</ele><time>2026-03-27T15:22:54Z</time></trkpt><trkpt lat="45.580482871461484" lon="10.112523856023191"><ele>159.0</ele><time>2026-03-27T15:22:55Z</time></trkpt><trkpt lat="45.58024198333496" lon="10.112816631880959"><ele>158.0</ele><time>2026-03-27T15:22:56Z</time></trkpt><trkpt lat="45.579987738880426" lon="10.113126038869213"><ele>158.0</ele><time>2026-03-27T15:22:57Z</time></trkpt><trkpt lat="45.57974877853828" lon="10.113419495793613"><ele>158.0</ele><time>2026-03-27T15:22:58Z</time></trkpt><trkpt lat="45.57952617384324" lon="10.113683816210083"><ele>157.0</ele><time>2026-03-27T15:22:59Z</time></trkpt><trkpt lat="45.5793008218484" lon="10.11395436997219"><ele>156.0</ele><time>2026-03-27T15:23:00Z</time></trkpt><trkpt lat="45.57909756947012" lon="10.114201557557362"><ele>156.0</ele><time>2026-03-27T15:23:01Z</time></trkpt><trkpt lat="45.578904956314446" lon="10.114431509765156"><ele>156.0</ele><time>2026-03-27T15:23:02Z</time></trkpt><trkpt lat="45.57870551001465" lon="10.11466725245381"><ele>155.5</ele><time>2026-03-27T15:23:03Z</time></trkpt><trkpt lat="45.57851052152394" lon="10.11489636321876"><ele>155.0</ele><time>2026-03-27T15:23:04Z</time></trkpt><trkpt lat="45.57833383522132" lon="10.115109782718424"><ele>155.0</ele><time>2026-03-27T15:23:05Z</time></trkpt><trkpt lat="45.578168943004535" lon="10.115308117207242"><ele>155.0</ele><time>2026-03-27T15:23:06Z</time></trkpt><trkpt lat="45.578011464029075" lon="10.115493196966314"><ele>155.0</ele><time>2026-03-27T15:23:07Z</time></trkpt><trkpt lat="45.577851347622534" lon="10.115684474438812"><ele>154.0</ele><time>2026-03-27T15:23:08Z</time></trkpt><trkpt lat="45.577650722688595" lon="10.115921987124928"><ele>153.0</ele><time>2026-03-27T15:23:09Z</time></trkpt><trkpt lat="45.57741376466271" lon="10.116206912684206"><ele>153.0</ele><time>2026-03-27T15:23:10Z</time></trkpt><trkpt lat="45.57716735965967" lon="10.116499912334094"><ele>153.0</ele><time>2026-03-27T15:23:11Z</time></trkpt><trkpt lat="45.576929419734206" lon="10.116773593336257"><ele>152.5</ele><time>2026-03-27T15:23:12Z</time></trkpt><trkpt lat="45.57671488367443" lon="10.117021669278456"><ele>152.0</ele><time>2026-03-27T15:23:13Z</time></trkpt><trkpt lat="45.576513506192406" lon="10.117256091830253"><ele>152.0</ele><time>2026-03-27T15:23:14Z</time></trkpt><trkpt lat="45.57631514478272" lon="10.117496219873622"><ele>152.0</ele><time>2026-03-27T15:23:15Z</time></trkpt><trkpt lat="45.57610833870394" lon="10.117739981356822"><ele>152.0</ele><time>2026-03-27T15:23:16Z</time></trkpt><trkpt lat="45.57589606513424" lon="10.117985716702481"><ele>152.0</ele><time>2026-03-27T15:23:17Z</time></trkpt><trkpt lat="45.575666360697454" lon="10.118252196055794"><ele>152.0</ele><time>2026-03-27T15:23:18Z</time></trkpt><trkpt lat="45.57541520264333" lon="10.118551221218292"><ele>152.0</ele><time>2026-03-27T15:23:19Z</time></trkpt><trkpt lat="45.575175463203486" lon="10.118838364784741"><ele>151.0</ele><time>2026-03-27T15:23:20Z</time></trkpt><trkpt lat="45.574913763942305" lon="10.11914607230795"><ele>150.0</ele><time>2026-03-27T15:23:21Z</time></trkpt><trkpt lat="45.574673355394346" lon="10.119426805951141"><ele>149.5</ele><time>2026-03-27T15:23:22Z</time></trkpt><trkpt lat="45.57445483624863" lon="10.119679239662407"><ele>149.0</ele><time>2026-03-27T15:23:23Z</time></trkpt><trkpt lat="45.574254046482515" lon="10.119917115111614"><ele>148.5</ele><time>2026-03-27T15:23:23.999Z</time></trkpt><trkpt lat="45.57406465000747" lon="10.120142381999603"><ele>148.0</ele><time>2026-03-27T15:23:24.999Z</time></trkpt><trkpt lat="45.57388202374448" lon="10.120369388197895"><ele>148.0</ele><time>2026-03-27T15:23:25.999Z</time></trkpt><trkpt lat="45.57370680818797" lon="10.120595820459549"><ele>148.0</ele><time>2026-03-27T15:23:26.999Z</time></trkpt><trkpt lat="45.57353901378495" lon="10.120837121000475"><ele>148.0</ele><time>2026-03-27T15:23:27.999Z</time></trkpt><trkpt lat="45.573382960328125" lon="10.121067118812755"><ele>148.0</ele><time>2026-03-27T15:23:28.999Z</time></trkpt><trkpt lat="45.57322487012763" lon="10.121268050672866"><ele>148.0</ele><time>2026-03-27T15:23:29.999Z</time></trkpt><trkpt lat="45.5730549245959" lon="10.12146906235966"><ele>148.0</ele><time>2026-03-27T15:23:30.999Z</time></trkpt><trkpt lat="45.57290405073923" lon="10.121655273146663"><ele>148.0</ele><time>2026-03-27T15:23:31.999Z</time></trkpt><trkpt lat="45.57275058936649" lon="10.121838619884862"><ele>148.0</ele><time>2026-03-27T15:23:32.999Z</time></trkpt><trkpt lat="45.572589590237186" lon="10.12202534412635"><ele>148.0</ele><time>2026-03-27T15:23:33.999Z</time></trkpt><trkpt lat="45.57241952379964" lon="10.122203418039339"><ele>148.0</ele><time>2026-03-27T15:23:34.999Z</time></trkpt><trkpt lat="45.57224851043225" lon="10.122368439668437"><ele>148.0</ele><time>2026-03-27T15:23:35.999Z</time></trkpt><trkpt lat="45.57207884251467" lon="10.12252194876456"><ele>147.66666666666669</ele><time>2026-03-27T15:23:36.999Z</time></trkpt><trkpt lat="45.57191918667882" lon="10.122662003689703"><ele>147.33333333333334</ele><time>2026-03-27T15:23:37.999Z</time></trkpt><trkpt lat="45.57176177852452" lon="10.122798587449223"><ele>147.0</ele><time>2026-03-27T15:23:38.999Z</time></trkpt><trkpt lat="45.571612952870474" lon="10.12292673038183"><ele>147.0</ele><time>2026-03-27T15:23:39.999Z</time></trkpt><trkpt lat="45.57147056320234" lon="10.12305085704315"><ele>147.0</ele><time>2026-03-27T15:23:40.999Z</time></trkpt><trkpt lat="45.57130243038794" lon="10.123206316210137"><ele>147.0</ele><time>2026-03-27T15:23:41.999Z</time></trkpt><trkpt lat="45.57110549835754" lon="10.12338126104193"><ele>147.0</ele><time>2026-03-27T15:23:42.999Z</time></trkpt><trkpt lat="45.57090145980647" lon="10.123558341174958"><ele>147.0</ele><time>2026-03-27T15:23:43.999Z</time></trkpt><trkpt lat="45.570705833168276" lon="10.123725464396763"><ele>147.0</ele><time>2026-03-27T15:23:44.999Z</time></trkpt><trkpt lat="45.570525151870314" lon="10.123894560934255"><ele>147.0</ele><time>2026-03-27T15:23:45.999Z</time></trkpt><trkpt lat="45.57033699250854" lon="10.124081501138201"><ele>147.0</ele><time>2026-03-27T15:23:46.999Z</time></trkpt><trkpt lat="45.57014339298692" lon="10.124260252712219"><ele>146.0</ele><time>2026-03-27T15:23:47.999Z</time></trkpt><trkpt lat="45.56993751983259" lon="10.124424004494957"><ele>145.0</ele><time>2026-03-27T15:23:48.999Z</time></trkpt><trkpt lat="45.569723807237" lon="10.124572022418453"><ele>144.5</ele><time>2026-03-27T15:23:49.999Z</time></trkpt><trkpt lat="45.56949968040692" lon="10.124711580687443"><ele>144.0</ele><time>2026-03-27T15:23:50.999Z</time></trkpt><trkpt lat="45.56926379008301" lon="10.124836706394246"><ele>144.5</ele><time>2026-03-27T15:23:51.999Z</time></trkpt><trkpt lat="45.56901922351636" lon="10.12494987303486"><ele>145.0</ele><time>2026-03-27T15:23:52.999Z</time></trkpt><trkpt lat="45.568763425570204" lon="10.125043460851327"><ele>143.5</ele><time>2026-03-27T15:23:53.999Z</time></trkpt><trkpt lat="45.56850441091606" lon="10.125120289387032"><ele>142.0</ele><time>2026-03-27T15:23:54.999Z</time></trkpt><trkpt lat="45.568238032193875" lon="10.12519803966638"><ele>142.0</ele><time>2026-03-27T15:23:55.999Z</time></trkpt><trkpt lat="45.56797141984464" lon="10.125278433770992"><ele>142.0</ele><time>2026-03-27T15:23:56.999Z</time></trkpt><trkpt lat="45.56771430353218" lon="10.125361889708952"><ele>141.5</ele><time>2026-03-27T15:23:57.999Z</time></trkpt><trkpt lat="45.56744858099677" lon="10.12545000798153"><ele>141.0</ele><time>2026-03-27T15:23:58.999Z</time></trkpt><trkpt lat="45.56714716964137" lon="10.12554924404197"><ele>141.0</ele><time>2026-03-27T15:23:59.999Z</time></trkpt><trkpt lat="45.56681841101649" lon="10.125655065981329"><ele>141.0</ele><time>2026-03-27T15:24:00.999Z</time></trkpt><trkpt lat="45.5664629309027" lon="10.125771326671309"><ele>141.0</ele><time>2026-03-27T15:24:01.999Z</time></trkpt><trkpt lat="45.5660972726508" lon="10.125890659760197"><ele>141.0</ele><time>2026-03-27T15:24:02.999Z</time></trkpt><trkpt lat="45.565751536970396" lon="10.126000524855288"><ele>141.0</ele><time>2026-03-27T15:24:03.999Z</time></trkpt><trkpt lat="45.56542948944667" lon="10.126099786937498"><ele>141.0</ele><time>2026-03-27T15:24:04.999Z</time></trkpt><trkpt lat="45.56510923052818" lon="10.126201029659766"><ele>140.0</ele><time>2026-03-27T15:24:05.999Z</time></trkpt><trkpt lat="45.56480186780765" lon="10.126291478472153"><ele>139.0</ele><time>2026-03-27T15:24:06.999Z</time></trkpt><trkpt lat="45.564505921118055" lon="10.126377975875872"><ele>137.5</ele><time>2026-03-27T15:24:07.999Z</time></trkpt><trkpt lat="45.56421578311476" lon="10.126465980584216"><ele>136.0</ele><time>2026-03-27T15:24:08.999Z</time></trkpt><trkpt lat="45.56393381326564" lon="10.12655368702791"><ele>137.0</ele><time>2026-03-27T15:24:09.999Z</time></trkpt><trkpt lat="45.56365471084695" lon="10.12664544480056"><ele>138.0</ele><time>2026-03-27T15:24:10.999Z</time></trkpt><trkpt lat="45.56337717238215" lon="10.126743537280445"><ele>138.0</ele><time>2026-03-27T15:24:11.999Z</time></trkpt><trkpt lat="45.563100490608775" lon="10.126841338043246"><ele>138.0</ele><time>2026-03-27T15:24:12.999Z</time></trkpt><trkpt lat="45.56282774694272" lon="10.126932624600077"><ele>138.0</ele><time>2026-03-27T15:24:13.999Z</time></trkpt><trkpt lat="45.56257406577271" lon="10.127007454484694"><ele>138.0</ele><time>2026-03-27T15:24:14.999Z</time></trkpt><trkpt lat="45.5623334637931" lon="10.127078907741918"><ele>138.0</ele><time>2026-03-27T15:24:15.999Z</time></trkpt><trkpt lat="45.56208558017874" lon="10.127155249197182"><ele>138.0</ele><time>2026-03-27T15:24:16.999Z</time></trkpt><trkpt lat="45.56183608472364" lon="10.12723432296523"><ele>137.5</ele><time>2026-03-27T15:24:18Z</time></trkpt><trkpt lat="45.56159007531782" lon="10.127314422068102"><ele>137.0</ele><time>2026-03-27T15:24:19Z</time></trkpt><trkpt lat="45.56134961486055" lon="10.127396344979333"><ele>137.5</ele><time>2026-03-27T15:24:20Z</time></trkpt><trkpt lat="45.56110490610885" lon="10.12747740609047"><ele>138.0</ele><time>2026-03-27T15:24:21Z</time></trkpt><trkpt lat="45.56086464927212" lon="10.127558855007742"><ele>138.0</ele><time>2026-03-27T15:24:22Z</time></trkpt><trkpt lat="45.56061137864515" lon="10.12764595093038"><ele>138.0</ele><time>2026-03-27T15:24:23Z</time></trkpt><trkpt lat="45.56036409063707" lon="10.127733540028297"><ele>137.5</ele><time>2026-03-27T15:24:24Z</time></trkpt><trkpt lat="45.56011132420187" lon="10.127808304190047"><ele>137.0</ele><time>2026-03-27T15:24:25Z</time></trkpt><trkpt lat="45.55987958429337" lon="10.127864966786984"><ele>137.0</ele><time>2026-03-27T15:24:26Z</time></trkpt><trkpt lat="45.55965947089465" lon="10.127914761881135"><ele>137.0</ele><time>2026-03-27T15:24:27Z</time></trkpt><trkpt lat="45.55943743522713" lon="10.127961086277768"><ele>137.0</ele><time>2026-03-27T15:24:28Z</time></trkpt><trkpt lat="45.55922516136179" lon="10.128004911843027"><ele>137.0</ele><time>2026-03-27T15:24:29Z</time></trkpt><trkpt lat="45.5590119458726" lon="10.128047984148818"><ele>137.0</ele><time>2026-03-27T15:24:30Z</time></trkpt><trkpt lat="45.55879469591075" lon="10.128092664123784"><ele>137.0</ele><time>2026-03-27T15:24:31Z</time></trkpt><trkpt lat="45.558580591425226" lon="10.128133255084508"><ele>136.66666666666666</ele><time>2026-03-27T15:24:32Z</time></trkpt><trkpt lat="45.55836840926354" lon="10.128171961764933"><ele>136.33333333333334</ele><time>2026-03-27T15:24:33Z</time></trkpt><trkpt lat="45.55815517798225" lon="10.128213959338916"><ele>136.0</ele><time>2026-03-27T15:24:34Z</time></trkpt><trkpt lat="45.557944762347596" lon="10.12825429935093"><ele>135.33333333333334</ele><time>2026-03-27T15:24:35Z</time></trkpt><trkpt lat="45.55773426591597" lon="10.128300218051457"><ele>134.66666666666666</ele><time>2026-03-27T15:24:36Z</time></trkpt><trkpt lat="45.55752891380861" lon="10.12834302056491"><ele>134.0</ele><time>2026-03-27T15:24:37Z</time></trkpt><trkpt lat="45.55731827711313" lon="10.128387713372794"><ele>134.0</ele><time>2026-03-27T15:24:38Z</time></trkpt><trkpt lat="45.55711053829539" lon="10.12842461510811"><ele>134.0</ele><time>2026-03-27T15:24:39Z</time></trkpt><trkpt lat="45.55691932660415" lon="10.128454046689464"><ele>134.0</ele><time>2026-03-27T15:24:40Z</time></trkpt><trkpt lat="45.55675040765228" lon="10.128480225840624"><ele>133.66666666666666</ele><time>2026-03-27T15:24:41Z</time></trkpt><trkpt lat="45.55660258507056" lon="10.128505593149699"><ele>133.33333333333334</ele><time>2026-03-27T15:24:42Z</time></trkpt><trkpt lat="45.55644858952117" lon="10.1285369472453"><ele>133.0</ele><time>2026-03-27T15:24:43Z</time></trkpt><trkpt lat="45.556288804824796" lon="10.128570634261177"><ele>133.0</ele><time>2026-03-27T15:24:44Z</time></trkpt><trkpt lat="45.55613026690975" lon="10.128604329433292"><ele>133.0</ele><time>2026-03-27T15:24:45Z</time></trkpt><trkpt lat="45.55596367210852" lon="10.128639249553443"><ele>133.0</ele><time>2026-03-27T15:24:46Z</time></trkpt><trkpt lat="45.55579319050431" lon="10.128677221812922"><ele>133.0</ele><time>2026-03-27T15:24:47Z</time></trkpt><trkpt lat="45.55561447154516" lon="10.128724474740405"><ele>133.0</ele><time>2026-03-27T15:24:48Z</time></trkpt><trkpt lat="45.555434429360574" lon="10.128777037899965"><ele>133.0</ele><time>2026-03-27T15:24:49Z</time></trkpt><trkpt lat="45.555255761278005" lon="10.128817461457603"><ele>132.66666666666669</ele><time>2026-03-27T15:24:50Z</time></trkpt><trkpt lat="45.55506580760468" lon="10.128842581361223"><ele>132.33333333333334</ele><time>2026-03-27T15:24:51Z</time></trkpt><trkpt lat="45.55487705547997" lon="10.128853853119125"><ele>132.0</ele><time>2026-03-27T15:24:52Z</time></trkpt><trkpt lat="45.55467859569892" lon="10.128845933011183"><ele>131.5</ele><time>2026-03-27T15:24:53Z</time></trkpt><trkpt lat="45.55445694573718" lon="10.128820685287385"><ele>131.0</ele><time>2026-03-27T15:24:54Z</time></trkpt><trkpt lat="45.55419643767486" lon="10.128776878460929"><ele>131.0</ele><time>2026-03-27T15:24:55Z</time></trkpt><trkpt lat="45.553916460927105" lon="10.128711892279973"><ele>131.0</ele><time>2026-03-27T15:24:56Z</time></trkpt><trkpt lat="45.553620293460256" lon="10.128634249926645"><ele>131.0</ele><time>2026-03-27T15:24:57Z</time></trkpt><trkpt lat="45.553302453961216" lon="10.128554758810207"><ele>131.0</ele><time>2026-03-27T15:24:58Z</time></trkpt><trkpt lat="45.553005400439645" lon="10.12848391523176"><ele>131.5</ele><time>2026-03-27T15:24:59Z</time></trkpt><trkpt lat="45.55273945549651" lon="10.128419714416728"><ele>132.0</ele><time>2026-03-27T15:25:00Z</time></trkpt><trkpt lat="45.55249684968898" lon="10.128360929441259"><ele>132.0</ele><time>2026-03-27T15:25:01Z</time></trkpt><trkpt lat="45.55226773676975" lon="10.128314842783118"><ele>132.0</ele><time>2026-03-27T15:25:02Z</time></trkpt><trkpt lat="45.55203912060129" lon="10.128293961526964"><ele>131.5</ele><time>2026-03-27T15:25:03Z</time></trkpt><trkpt lat="45.55179216858495" lon="10.128320303819514"><ele>131.0</ele><time>2026-03-27T15:25:04Z</time></trkpt><trkpt lat="45.55155599269716" lon="10.128401076217573"><ele>131.0</ele><time>2026-03-27T15:25:05Z</time></trkpt><trkpt lat="45.55133155188313" lon="10.128537322697838"><ele>131.0</ele><time>2026-03-27T15:25:06Z</time></trkpt><trkpt lat="45.55112608620101" lon="10.12870034343317"><ele>131.0</ele><time>2026-03-27T15:25:07Z</time></trkpt><trkpt lat="45.55094817575787" lon="10.128912995232634"><ele>131.0</ele><time>2026-03-27T15:25:08Z</time></trkpt><trkpt lat="45.550783966204484" lon="10.129173247669334"><ele>131.5</ele><time>2026-03-27T15:25:09Z</time></trkpt><trkpt lat="45.550606017816904" lon="10.12948622389144"><ele>132.0</ele><time>2026-03-27T15:25:10Z</time></trkpt><trkpt lat="45.55044523566118" lon="10.129773895283222"><ele>131.5</ele><time>2026-03-27T15:25:11Z</time></trkpt><trkpt lat="45.55028901617316" lon="10.130045817567046"><ele>131.0</ele><time>2026-03-27T15:25:12Z</time></trkpt><trkpt lat="45.55013364370103" lon="10.130309293447214"><ele>131.0</ele><time>2026-03-27T15:25:13Z</time></trkpt><trkpt lat="45.54997318660218" lon="10.13056603325912"><ele>131.0</ele><time>2026-03-27T15:25:14Z</time></trkpt><trkpt lat="45.54981746194893" lon="10.130804713913488"><ele>131.5</ele><time>2026-03-27T15:25:15Z</time></trkpt><trkpt lat="45.54965419037917" lon="10.13103131333959"><ele>132.0</ele><time>2026-03-27T15:25:16Z</time></trkpt><trkpt lat="45.54947311985136" lon="10.131252952836872"><ele>131.5</ele><time>2026-03-27T15:25:17Z</time></trkpt><trkpt lat="45.549275301394175" lon="10.13145035992522"><ele>131.0</ele><time>2026-03-27T15:25:18Z</time></trkpt><trkpt lat="45.54905214905443" lon="10.13164109277485"><ele>131.0</ele><time>2026-03-27T15:25:19Z</time></trkpt><trkpt lat="45.54882097354142" lon="10.131825027462925"><ele>131.0</ele><time>2026-03-27T15:25:20Z</time></trkpt><trkpt lat="45.548589536366144" lon="10.132013684557114"><ele>130.0</ele><time>2026-03-27T15:25:21Z</time></trkpt><trkpt lat="45.54837007549112" lon="10.132198821724185"><ele>129.0</ele><time>2026-03-27T15:25:22Z</time></trkpt><trkpt lat="45.54816290014789" lon="10.132379304370502"><ele>129.66666666666666</ele><time>2026-03-27T15:25:23Z</time></trkpt><trkpt lat="45.547969941953504" lon="10.132547112469412"><ele>130.33333333333331</ele><time>2026-03-27T15:25:23.999Z</time></trkpt><trkpt lat="45.54779585533714" lon="10.132703697057272"><ele>131.0</ele><time>2026-03-27T15:25:24.999Z</time></trkpt><trkpt lat="45.54762128552493" lon="10.132867415863219"><ele>130.66666666666666</ele><time>2026-03-27T15:25:25.999Z</time></trkpt><trkpt lat="45.54745060106788" lon="10.133032431524239"><ele>130.33333333333334</ele><time>2026-03-27T15:25:26.999Z</time></trkpt><trkpt lat="45.54728482134314" lon="10.133186652306513"><ele>130.0</ele><time>2026-03-27T15:25:27.999Z</time></trkpt><trkpt lat="45.547117408116236" lon="10.133354386932437"><ele>129.33333333333334</ele><time>2026-03-27T15:25:28.999Z</time></trkpt><trkpt lat="45.54697111048463" lon="10.133564921277662"><ele>128.66666666666666</ele><time>2026-03-27T15:25:29.999Z</time></trkpt><trkpt lat="45.546832065456265" lon="10.13380821362685"><ele>128.0</ele><time>2026-03-27T15:25:30.999Z</time></trkpt><trkpt lat="45.546711099296246" lon="10.134064912073978"><ele>126.5</ele><time>2026-03-27T15:25:31.999Z</time></trkpt><trkpt lat="45.546601610349285" lon="10.134347360204524"><ele>125.0</ele><time>2026-03-27T15:25:32.999Z</time></trkpt><trkpt lat="45.546507000662444" lon="10.13464542648626"><ele>125.33333333333333</ele><time>2026-03-27T15:25:33.999Z</time></trkpt><trkpt lat="45.546425839089174" lon="10.134948893855299"><ele>125.66666666666666</ele><time>2026-03-27T15:25:34.999Z</time></trkpt><trkpt lat="45.54634194125106" lon="10.13523919946719"><ele>126.0</ele><time>2026-03-27T15:25:35.999Z</time></trkpt><trkpt lat="45.546254594089746" lon="10.135523110189474"><ele>125.66666666666666</ele><time>2026-03-27T15:25:36.999Z</time></trkpt><trkpt lat="45.54617190973024" lon="10.135804864048946"><ele>125.33333333333333</ele><time>2026-03-27T15:25:37.999Z</time></trkpt><trkpt lat="45.546080162128426" lon="10.13609902911486"><ele>125.0</ele><time>2026-03-27T15:25:38.999Z</time></trkpt><trkpt lat="45.545939479135015" lon="10.136404832066033"><ele>124.0</ele><time>2026-03-27T15:25:39.999Z</time></trkpt><trkpt lat="45.54574458284606" lon="10.13673938161615"><ele>123.0</ele><time>2026-03-27T15:25:40.999Z</time></trkpt><trkpt lat="45.545535225304214" lon="10.137091217287157"><ele>123.5</ele><time>2026-03-27T15:25:41.999Z</time></trkpt><trkpt lat="45.54517099275997" lon="10.137271477145191"><ele>124.0</ele><time>2026-03-27T15:25:42.999Z</time></trkpt><trkpt lat="45.54495726767753" lon="10.137647874395542"><ele>124.0</ele><time>2026-03-27T15:25:43.999Z</time></trkpt><trkpt lat="45.54493381582719" lon="10.138227319224887"><ele>124.0</ele><time>2026-03-27T15:25:44.999Z</time></trkpt><trkpt lat="45.54474867842153" lon="10.138578525404323"><ele>124.0</ele><time>2026-03-27T15:25:45.999Z</time></trkpt><trkpt lat="45.54455197949562" lon="10.138945000669027"><ele>124.0</ele><time>2026-03-27T15:25:46.999Z</time></trkpt><trkpt lat="45.54434818183323" lon="10.139331471935966"><ele>123.5</ele><time>2026-03-27T15:25:47.999Z</time></trkpt><trkpt lat="45.54416815040197" lon="10.13967820301514"><ele>123.0</ele><time>2026-03-27T15:25:48.999Z</time></trkpt><trkpt lat="45.54399963572682" lon="10.140030822002696"><ele>122.5</ele><time>2026-03-27T15:25:49.999Z</time></trkpt><trkpt lat="45.54381471669829" lon="10.140416901992854"><ele>122.0</ele><time>2026-03-27T15:25:50.999Z</time></trkpt><trkpt lat="45.543625051149235" lon="10.14076267607064"><ele>122.0</ele><time>2026-03-27T15:25:51.999Z</time></trkpt><trkpt lat="45.543430199432045" lon="10.141109938235154"><ele>122.0</ele><time>2026-03-27T15:25:52.999Z</time></trkpt><trkpt lat="45.543241320047585" lon="10.141446106316042"><ele>122.0</ele><time>2026-03-27T15:25:53.999Z</time></trkpt><trkpt lat="45.543051497929376" lon="10.141789035346566"><ele>122.0</ele><time>2026-03-27T15:25:54.999Z</time></trkpt><trkpt lat="45.54286502362872" lon="10.142123254572592"><ele>120.5</ele><time>2026-03-27T15:25:55.999Z</time></trkpt><trkpt lat="45.542683665333676" lon="10.142460810496532"><ele>119.0</ele><time>2026-03-27T15:25:56.999Z</time></trkpt><trkpt lat="45.5424972603726" lon="10.142798535953238"><ele>119.0</ele><time>2026-03-27T15:25:57.999Z</time></trkpt><trkpt lat="45.54230911796625" lon="10.14313556972702"><ele>119.0</ele><time>2026-03-27T15:25:58.999Z</time></trkpt><trkpt lat="45.54211753114938" lon="10.143481772489281"><ele>119.5</ele><time>2026-03-27T15:25:59.999Z</time></trkpt><trkpt lat="45.54191047478618" lon="10.143843651062845"><ele>120.0</ele><time>2026-03-27T15:26:00.999Z</time></trkpt><trkpt lat="45.54170831717686" lon="10.144187766831957"><ele>120.0</ele><time>2026-03-27T15:26:01.999Z</time></trkpt><trkpt lat="45.5415241179957" lon="10.144517625222962"><ele>120.0</ele><time>2026-03-27T15:26:02.999Z</time></trkpt><trkpt lat="45.54134433327955" lon="10.144853382038827"><ele>120.5</ele><time>2026-03-27T15:26:03.999Z</time></trkpt><trkpt lat="45.541149088897924" lon="10.145206083179538"><ele>121.0</ele><time>2026-03-27T15:26:04.999Z</time></trkpt><trkpt lat="45.540954898390936" lon="10.14554695361672"><ele>121.5</ele><time>2026-03-27T15:26:05.999Z</time></trkpt><trkpt lat="45.54077509313683" lon="10.145886794258427"><ele>122.0</ele><time>2026-03-27T15:26:06.999Z</time></trkpt><trkpt lat="45.54060736269098" lon="10.14622301072198"><ele>121.5</ele><time>2026-03-27T15:26:07.999Z</time></trkpt><trkpt lat="45.54043993312175" lon="10.146557747688018"><ele>121.0</ele><time>2026-03-27T15:26:08.999Z</time></trkpt><trkpt lat="45.54027337188375" lon="10.14686330906988"><ele>122.5</ele><time>2026-03-27T15:26:09.999Z</time></trkpt><trkpt lat="45.540109923683616" lon="10.147157015312965"><ele>124.0</ele><time>2026-03-27T15:26:10.999Z</time></trkpt><trkpt lat="45.53994520411971" lon="10.14744968229576"><ele>124.0</ele><time>2026-03-27T15:26:11.999Z</time></trkpt><trkpt lat="45.53977955855854" lon="10.147749350162528"><ele>124.0</ele><time>2026-03-27T15:26:12.999Z</time></trkpt><trkpt lat="45.539608737491726" lon="10.148047665504672"><ele>123.5</ele><time>2026-03-27T15:26:13.999Z</time></trkpt><trkpt lat="45.539449987782945" lon="10.148341967330982"><ele>123.0</ele><time>2026-03-27T15:26:14.999Z</time></trkpt><trkpt lat="45.539290575986456" lon="10.148633576955557"><ele>123.0</ele><time>2026-03-27T15:26:15.999Z</time></trkpt><trkpt lat="45.53912175130663" lon="10.14892902204349"><ele>123.0</ele><time>2026-03-27T15:26:16.999Z</time></trkpt><trkpt lat="45.5389546070994" lon="10.149220355661253"><ele>122.0</ele><time>2026-03-27T15:26:17.999Z</time></trkpt><trkpt lat="45.538794386727375" lon="10.149510920578887"><ele>121.0</ele><time>2026-03-27T15:26:18.999Z</time></trkpt><trkpt lat="45.53863875113163" lon="10.149811799028607"><ele>121.0</ele><time>2026-03-27T15:26:19.999Z</time></trkpt><trkpt lat="45.53848044368902" lon="10.150115941913755"><ele>121.0</ele><time>2026-03-27T15:26:20.999Z</time></trkpt><trkpt lat="45.538323458476505" lon="10.150409546912124"><ele>120.5</ele><time>2026-03-27T15:26:21.999Z</time></trkpt><trkpt lat="45.538162598726124" lon="10.150723580311166"><ele>120.0</ele><time>2026-03-27T15:26:22.999Z</time></trkpt><trkpt lat="45.538012028862326" lon="10.151016783711928"><ele>120.5</ele><time>2026-03-27T15:26:24Z</time></trkpt><trkpt lat="45.53786509050844" lon="10.151303538922543"><ele>121.0</ele><time>2026-03-27T15:26:25Z</time></trkpt><trkpt lat="45.53771638962079" lon="10.151590949604477"><ele>121.5</ele><time>2026-03-27T15:26:26Z</time></trkpt><trkpt lat="45.5375698813824" lon="10.151870690519218"><ele>122.0</ele><time>2026-03-27T15:26:27Z</time></trkpt><trkpt lat="45.5374339441755" lon="10.152155881537839"><ele>122.0</ele><time>2026-03-27T15:26:28Z</time></trkpt><trkpt lat="45.537302270676875" lon="10.152450364166407"><ele>122.0</ele><time>2026-03-27T15:26:29Z</time></trkpt><trkpt lat="45.53715798388843" lon="10.152736033741357"><ele>122.5</ele><time>2026-03-27T15:26:30Z</time></trkpt><trkpt lat="45.537000273667566" lon="10.153028130523559"><ele>123.0</ele><time>2026-03-27T15:26:31Z</time></trkpt><trkpt lat="45.536839022964486" lon="10.153324333089058"><ele>122.0</ele><time>2026-03-27T15:26:32Z</time></trkpt><trkpt lat="45.53666322086482" lon="10.153640943261088"><ele>121.0</ele><time>2026-03-27T15:26:33Z</time></trkpt><trkpt lat="45.536495310911" lon="10.153970646562094"><ele>122.0</ele><time>2026-03-27T15:26:34Z</time></trkpt><trkpt lat="45.53631326216729" lon="10.154329198977079"><ele>123.0</ele><time>2026-03-27T15:26:35Z</time></trkpt><trkpt lat="45.53614510987624" lon="10.15467637374918"><ele>121.5</ele><time>2026-03-27T15:26:36Z</time></trkpt><trkpt lat="45.53598749980128" lon="10.15499401689293"><ele>120.0</ele><time>2026-03-27T15:26:37Z</time></trkpt><trkpt lat="45.53583784708126" lon="10.155307019277291"><ele>120.0</ele><time>2026-03-27T15:26:38Z</time></trkpt><trkpt lat="45.53568114685565" lon="10.15562783760419"><ele>120.0</ele><time>2026-03-27T15:26:39Z</time></trkpt><trkpt lat="45.53552416880095" lon="10.155941608358772"><ele>120.5</ele><time>2026-03-27T15:26:40Z</time></trkpt><trkpt lat="45.53536779117576" lon="10.156252044725507"><ele>121.0</ele><time>2026-03-27T15:26:41Z</time></trkpt><trkpt lat="45.53521259832831" lon="10.156556782912789"><ele>121.5</ele><time>2026-03-27T15:26:42Z</time></trkpt><trkpt lat="45.53505635214669" lon="10.15686676967728"><ele>122.0</ele><time>2026-03-27T15:26:43Z</time></trkpt><trkpt lat="45.53490069735247" lon="10.157179578087467"><ele>122.5</ele><time>2026-03-27T15:26:44Z</time></trkpt><trkpt lat="45.53474328532287" lon="10.157490497828874"><ele>123.0</ele><time>2026-03-27T15:26:45Z</time></trkpt><trkpt lat="45.53458868248938" lon="10.157791680805156"><ele>123.0</ele><time>2026-03-27T15:26:46Z</time></trkpt><trkpt lat="45.534436639472965" lon="10.158089225364044"><ele>123.0</ele><time>2026-03-27T15:26:47Z</time></trkpt><trkpt lat="45.534280113390444" lon="10.15839438596113"><ele>123.5</ele><time>2026-03-27T15:26:48Z</time></trkpt><trkpt lat="45.53412047906025" lon="10.158705695247292"><ele>124.0</ele><time>2026-03-27T15:26:49Z</time></trkpt><trkpt lat="45.53395497743124" lon="10.159011891961894"><ele>124.0</ele><time>2026-03-27T15:26:50Z</time></trkpt><trkpt lat="45.533788979015135" lon="10.15932710468472"><ele>124.0</ele><time>2026-03-27T15:26:51Z</time></trkpt><trkpt lat="45.533629281782275" lon="10.159644171352918"><ele>123.0</ele><time>2026-03-27T15:26:52Z</time></trkpt><trkpt lat="45.53347248031883" lon="10.159968346929272"><ele>122.0</ele><time>2026-03-27T15:26:53Z</time></trkpt><trkpt lat="45.5333112708407" lon="10.160291940111248"><ele>122.0</ele><time>2026-03-27T15:26:54Z</time></trkpt><trkpt lat="45.533149173124535" lon="10.160596082086428"><ele>122.0</ele><time>2026-03-27T15:26:55Z</time></trkpt><trkpt lat="45.53298792253807" lon="10.160885980889567"><ele>123.0</ele><time>2026-03-27T15:26:56Z</time></trkpt><trkpt lat="45.53282511451312" lon="10.16119640517352"><ele>124.0</ele><time>2026-03-27T15:26:57Z</time></trkpt><trkpt lat="45.53266771925692" lon="10.161508337974828"><ele>124.5</ele><time>2026-03-27T15:26:58Z</time></trkpt><trkpt lat="45.532513091442105" lon="10.161819131678408"><ele>125.0</ele><time>2026-03-27T15:26:59Z</time></trkpt><trkpt lat="45.53235606214407" lon="10.162137165284403"><ele>125.5</ele><time>2026-03-27T15:27:00Z</time></trkpt><trkpt lat="45.5322000660333" lon="10.162446348313182"><ele>126.0</ele><time>2026-03-27T15:27:01Z</time></trkpt><trkpt lat="45.53204243602837" lon="10.162756317099165"><ele>126.0</ele><time>2026-03-27T15:27:02Z</time></trkpt><trkpt lat="45.531885183210434" lon="10.163056916282882"><ele>126.0</ele><time>2026-03-27T15:27:03Z</time></trkpt><trkpt lat="45.53172780988547" lon="10.16335054451091"><ele>126.5</ele><time>2026-03-27T15:27:04Z</time></trkpt><trkpt lat="45.53157265829456" lon="10.163653500098098"><ele>127.0</ele><time>2026-03-27T15:27:05Z</time></trkpt><trkpt lat="45.53142124702803" lon="10.163955102668268"><ele>127.0</ele><time>2026-03-27T15:27:06Z</time></trkpt><trkpt lat="45.53127018570947" lon="10.164262588744881"><ele>127.0</ele><time>2026-03-27T15:27:07Z</time></trkpt><trkpt lat="45.531116943876846" lon="10.164567762066069"><ele>126.5</ele><time>2026-03-27T15:27:08Z</time></trkpt><trkpt lat="45.530963741071496" lon="10.164868135575116"><ele>126.0</ele><time>2026-03-27T15:27:09Z</time></trkpt><trkpt lat="45.530809007728934" lon="10.165152577957208"><ele>126.0</ele><time>2026-03-27T15:27:10Z</time></trkpt><trkpt lat="45.53065466667606" lon="10.165438170132084"><ele>126.0</ele><time>2026-03-27T15:27:11Z</time></trkpt><trkpt lat="45.530507014512175" lon="10.165720794552875"><ele>126.0</ele><time>2026-03-27T15:27:12Z</time></trkpt><trkpt lat="45.530361041220274" lon="10.166003681074844"><ele>126.0</ele><time>2026-03-27T15:27:13Z</time></trkpt><trkpt lat="45.530214145911195" lon="10.166285962371182"><ele>126.0</ele><time>2026-03-27T15:27:14Z</time></trkpt><trkpt lat="45.530062381720604" lon="10.166575602291719"><ele>126.0</ele><time>2026-03-27T15:27:15Z</time></trkpt><trkpt lat="45.52991367373196" lon="10.16685172861613"><ele>126.0</ele><time>2026-03-27T15:27:16Z</time></trkpt><trkpt lat="45.52975887229828" lon="10.167142121026732"><ele>126.0</ele><time>2026-03-27T15:27:17Z</time></trkpt><trkpt lat="45.52961383221546" lon="10.167432068451902"><ele>126.0</ele><time>2026-03-27T15:27:18Z</time></trkpt><trkpt lat="45.52946347953097" lon="10.167759217389477"><ele>126.0</ele><time>2026-03-27T15:27:19Z</time></trkpt><trkpt lat="45.52929472370122" lon="10.168120758563045"><ele>127.0</ele><time>2026-03-27T15:27:20Z</time></trkpt><trkpt lat="45.529115927927776" lon="10.1684638994422"><ele>128.0</ele><time>2026-03-27T15:27:21Z</time></trkpt><trkpt lat="45.52894737189196" lon="10.168767506601661"><ele>128.0</ele><time>2026-03-27T15:27:22Z</time></trkpt><trkpt lat="45.52878338798938" lon="10.169069799013096"><ele>128.0</ele><time>2026-03-27T15:27:23Z</time></trkpt><trkpt lat="45.528630778870976" lon="10.169377553825766"><ele>128.0</ele><time>2026-03-27T15:27:24Z</time></trkpt><trkpt lat="45.52848685879867" lon="10.169691364917908"><ele>128.0</ele><time>2026-03-27T15:27:24.999Z</time></trkpt><trkpt lat="45.52833666611939" lon="10.17001065462362"><ele>127.5</ele><time>2026-03-27T15:27:25.999Z</time></trkpt><trkpt lat="45.52818227728529" lon="10.170317069699745"><ele>127.0</ele><time>2026-03-27T15:27:26.999Z</time></trkpt><trkpt lat="45.52802517400078" lon="10.170599826304036"><ele>126.5</ele><time>2026-03-27T15:27:27.999Z</time></trkpt><trkpt lat="45.52786783330301" lon="10.17087636488308"><ele>126.0</ele><time>2026-03-27T15:27:28.999Z</time></trkpt><trkpt lat="45.52771862905242" lon="10.171151120890759"><ele>126.0</ele><time>2026-03-27T15:27:29.999Z</time></trkpt><trkpt lat="45.52756612404745" lon="10.171441675491241"><ele>126.0</ele><time>2026-03-27T15:27:30.999Z</time></trkpt><trkpt lat="45.527423442320504" lon="10.171731790266932"><ele>126.0</ele><time>2026-03-27T15:27:31.999Z</time></trkpt><trkpt lat="45.527273788496466" lon="10.172028598207834"><ele>126.0</ele><time>2026-03-27T15:27:32.999Z</time></trkpt><trkpt lat="45.527119525229445" lon="10.172321186723103"><ele>125.0</ele><time>2026-03-27T15:27:33.999Z</time></trkpt><trkpt lat="45.52686385377766" lon="10.172519438283576"><ele>124.0</ele><time>2026-03-27T15:27:34.999Z</time></trkpt><trkpt lat="45.52671031336237" lon="10.17277189014574"><ele>124.0</ele><time>2026-03-27T15:27:35.999Z</time></trkpt><trkpt lat="45.52653298990404" lon="10.173028845905483"><ele>124.0</ele><time>2026-03-27T15:27:36.999Z</time></trkpt><trkpt lat="45.52635695392008" lon="10.173283936012652"><ele>124.5</ele><time>2026-03-27T15:27:37.999Z</time></trkpt><trkpt lat="45.52637175477806" lon="10.173812595081461"><ele>125.0</ele><time>2026-03-27T15:27:38.999Z</time></trkpt><trkpt lat="45.52622870858362" lon="10.174113058864117"><ele>125.5</ele><time>2026-03-27T15:27:39.999Z</time></trkpt><trkpt lat="45.52608612964895" lon="10.174416414018886"><ele>126.0</ele><time>2026-03-27T15:27:40.999Z</time></trkpt><trkpt lat="45.52594454600494" lon="10.17471672732637"><ele>125.5</ele><time>2026-03-27T15:27:41.999Z</time></trkpt><trkpt lat="45.52580601495601" lon="10.175011390254568"><ele>125.0</ele><time>2026-03-27T15:27:42.999Z</time></trkpt><trkpt lat="45.525669983718494" lon="10.17530132316209"><ele>125.0</ele><time>2026-03-27T15:27:43.999Z</time></trkpt><trkpt lat="45.525533450136486" lon="10.175604766050874"><ele>125.0</ele><time>2026-03-27T15:27:44.999Z</time></trkpt><trkpt lat="45.52539996032446" lon="10.175903110320531"><ele>125.0</ele><time>2026-03-27T15:27:45.999Z</time></trkpt><trkpt lat="45.525274209375716" lon="10.176199020046251"><ele>125.0</ele><time>2026-03-27T15:27:46.999Z</time></trkpt><trkpt lat="45.52514728858471" lon="10.176502596760743"><ele>126.0</ele><time>2026-03-27T15:27:47.999Z</time></trkpt><trkpt lat="45.52501937279486" lon="10.176802322588271"><ele>127.0</ele><time>2026-03-27T15:27:48.999Z</time></trkpt><trkpt lat="45.52488817470585" lon="10.177112354712534"><ele>126.5</ele><time>2026-03-27T15:27:49.999Z</time></trkpt><trkpt lat="45.524761041334" lon="10.17741707730542"><ele>126.0</ele><time>2026-03-27T15:27:50.999Z</time></trkpt><trkpt lat="45.524634363579715" lon="10.177728149525"><ele>125.5</ele><time>2026-03-27T15:27:51.999Z</time></trkpt><trkpt lat="45.524512143717686" lon="10.178038771289978"><ele>125.0</ele><time>2026-03-27T15:27:52.999Z</time></trkpt><trkpt lat="45.52438944368699" lon="10.17835241268676"><ele>125.0</ele><time>2026-03-27T15:27:53.999Z</time></trkpt><trkpt lat="45.52426745815919" lon="10.17866700549714"><ele>125.0</ele><time>2026-03-27T15:27:54.999Z</time></trkpt><trkpt lat="45.52414709875161" lon="10.178979880129683"><ele>125.0</ele><time>2026-03-27T15:27:55.999Z</time></trkpt><trkpt lat="45.52402556477708" lon="10.179294582683799"><ele>125.0</ele><time>2026-03-27T15:27:56.999Z</time></trkpt><trkpt lat="45.5239035612611" lon="10.179602395254857"><ele>125.0</ele><time>2026-03-27T15:27:57.999Z</time></trkpt><trkpt lat="45.523781033567715" lon="10.179906707461372"><ele>125.0</ele><time>2026-03-27T15:27:58.999Z</time></trkpt><trkpt lat="45.52365742146178" lon="10.180216703042642"><ele>125.0</ele><time>2026-03-27T15:27:59.999Z</time></trkpt><trkpt lat="45.523536231420316" lon="10.180528170899944"><ele>125.0</ele><time>2026-03-27T15:28:00.999Z</time></trkpt><trkpt lat="45.523415957657946" lon="10.1808350455147"><ele>125.0</ele><time>2026-03-27T15:28:01.999Z</time></trkpt><trkpt lat="45.52329754097692" lon="10.181140296222177"><ele>125.0</ele><time>2026-03-27T15:28:02.999Z</time></trkpt><trkpt lat="45.52318321113627" lon="10.181450724364218"><ele>125.0</ele><time>2026-03-27T15:28:03.999Z</time></trkpt><trkpt lat="45.52307838016754" lon="10.181762257567085"><ele>125.0</ele><time>2026-03-27T15:28:04.999Z</time></trkpt><trkpt lat="45.52298391894705" lon="10.18205793617065"><ele>124.66666666666666</ele><time>2026-03-27T15:28:05.999Z</time></trkpt><trkpt lat="45.522890801753064" lon="10.18235055536674"><ele>124.33333333333334</ele><time>2026-03-27T15:28:06.999Z</time></trkpt><trkpt lat="45.52280567592906" lon="10.182625906465432"><ele>124.0</ele><time>2026-03-27T15:28:07.999Z</time></trkpt><trkpt lat="45.52272753246341" lon="10.18288659333789"><ele>124.0</ele><time>2026-03-27T15:28:08.999Z</time></trkpt><trkpt lat="45.522649222455456" lon="10.183155258791174"><ele>124.0</ele><time>2026-03-27T15:28:09.999Z</time></trkpt><trkpt lat="45.522579542664054" lon="10.183413335161424"><ele>124.0</ele><time>2026-03-27T15:28:10.999Z</time></trkpt><trkpt lat="45.52251621797201" lon="10.183656820202406"><ele>123.66666666666667</ele><time>2026-03-27T15:28:11.999Z</time></trkpt><trkpt lat="45.522453345592574" lon="10.183893705463579"><ele>123.33333333333334</ele><time>2026-03-27T15:28:12.999Z</time></trkpt><trkpt lat="45.52238981234595" lon="10.184136738355495"><ele>123.0</ele><time>2026-03-27T15:28:13.999Z</time></trkpt><trkpt lat="45.52232639344682" lon="10.184368064470952"><ele>123.0</ele><time>2026-03-27T15:28:14.999Z</time></trkpt><trkpt lat="45.52226914469698" lon="10.184607538983501"><ele>123.0</ele><time>2026-03-27T15:28:15.999Z</time></trkpt><trkpt lat="45.52221265808741" lon="10.18484141213212"><ele>123.0</ele><time>2026-03-27T15:28:16.999Z</time></trkpt><trkpt lat="45.522158614714975" lon="10.18507059279807"><ele>123.0</ele><time>2026-03-27T15:28:17.999Z</time></trkpt><trkpt lat="45.522104518044095" lon="10.185300001266974"><ele>123.0</ele><time>2026-03-27T15:28:18.999Z</time></trkpt><trkpt lat="45.52204482879856" lon="10.18554188456471"><ele>123.0</ele><time>2026-03-27T15:28:19.999Z</time></trkpt><trkpt lat="45.52198392056183" lon="10.185782046430857"><ele>122.66666666666666</ele><time>2026-03-27T15:28:20.999Z</time></trkpt><trkpt lat="45.5219273921477" lon="10.186020861290388"><ele>122.33333333333333</ele><time>2026-03-27T15:28:21.999Z</time></trkpt><trkpt lat="45.52187335115587" lon="10.1862525546557"><ele>122.0</ele><time>2026-03-27T15:28:22.999Z</time></trkpt><trkpt lat="45.52180789667529" lon="10.18648034778083"><ele>121.66666666666666</ele><time>2026-03-27T15:28:23.999Z</time></trkpt><trkpt lat="45.521744148136726" lon="10.18669510362102"><ele>121.33333333333334</ele><time>2026-03-27T15:28:24.999Z</time></trkpt><trkpt lat="45.52169025584773" lon="10.18690463617397"><ele>121.0</ele><time>2026-03-27T15:28:25.999Z</time></trkpt><trkpt lat="45.52164332580694" lon="10.187111598515932"><ele>121.0</ele><time>2026-03-27T15:28:26.999Z</time></trkpt><trkpt lat="45.52159658352067" lon="10.187318128529867"><ele>121.0</ele><time>2026-03-27T15:28:27.999Z</time></trkpt><trkpt lat="45.52154611119354" lon="10.187517298113008"><ele>121.0</ele><time>2026-03-27T15:28:28.998Z</time></trkpt><trkpt lat="45.52148337921957" lon="10.187774672317222"><ele>121.66666666666667</ele><time>2026-03-27T15:28:30Z</time></trkpt><trkpt lat="45.52142926600392" lon="10.188018967236061"><ele>122.33333333333334</ele><time>2026-03-27T15:28:31Z</time></trkpt><trkpt lat="45.52136510549758" lon="10.18823651486068"><ele>123.0</ele><time>2026-03-27T15:28:32Z</time></trkpt><trkpt lat="45.52128401786143" lon="10.188411017132893"><ele>123.25</ele><time>2026-03-27T15:28:33Z</time></trkpt><trkpt lat="45.52118928216074" lon="10.188543990078296"><ele>123.5</ele><time>2026-03-27T15:28:34Z</time></trkpt><trkpt lat="45.52107619265236" lon="10.188637717217102"><ele>123.75</ele><time>2026-03-27T15:28:35Z</time></trkpt><trkpt lat="45.520958362604816" lon="10.188697794332809"><ele>124.0</ele><time>2026-03-27T15:28:36Z</time></trkpt><trkpt lat="45.52084653324425" lon="10.188728390967686"><ele>124.0</ele><time>2026-03-27T15:28:37Z</time></trkpt><trkpt lat="45.52074675146693" lon="10.188745327431421"><ele>124.0</ele><time>2026-03-27T15:28:38Z</time></trkpt><trkpt lat="45.520649059950934" lon="10.188807909814233"><ele>124.0</ele><time>2026-03-27T15:28:39Z</time></trkpt><trkpt lat="45.520571610108256" lon="10.188953951949305"><ele>124.0</ele><time>2026-03-27T15:28:40Z</time></trkpt><trkpt lat="45.52050671849287" lon="10.189116528788917"><ele>124.0</ele><time>2026-03-27T15:28:41Z</time></trkpt><trkpt lat="45.520465209465705" lon="10.189279116018898"><ele>124.0</ele><time>2026-03-27T15:28:42Z</time></trkpt><trkpt lat="45.52042404712702" lon="10.189457455687922"><ele>124.0</ele><time>2026-03-27T15:28:43Z</time></trkpt><trkpt lat="45.52037654418969" lon="10.189651145903909"><ele>124.0</ele><time>2026-03-27T15:28:44Z</time></trkpt><trkpt lat="45.52033799720092" lon="10.189913870158977"><ele>123.66666666666667</ele><time>2026-03-27T15:28:45Z</time></trkpt><trkpt lat="45.52027924163221" lon="10.190196331543758"><ele>123.33333333333334</ele><time>2026-03-27T15:28:46Z</time></trkpt><trkpt lat="45.52024820434121" lon="10.190431257765256"><ele>123.0</ele><time>2026-03-27T15:28:47Z</time></trkpt><trkpt lat="45.520211289460754" lon="10.19062870765789"><ele>123.4</ele><time>2026-03-27T15:28:48Z</time></trkpt><trkpt lat="45.52016992417942" lon="10.190785273116266"><ele>123.80000000000001</ele><time>2026-03-27T15:28:49Z</time></trkpt><trkpt lat="45.520153033010935" lon="10.190902473442312"><ele>124.2</ele><time>2026-03-27T15:28:50Z</time></trkpt><trkpt lat="45.520063287856225" lon="10.190977414046165"><ele>124.6</ele><time>2026-03-27T15:28:51Z</time></trkpt><trkpt lat="45.51996944434984" lon="10.191062844807213"><ele>125.0</ele><time>2026-03-27T15:28:52Z</time></trkpt><trkpt lat="45.51986835823857" lon="10.191129768416152"><ele>125.0</ele><time>2026-03-27T15:28:53Z</time></trkpt><trkpt lat="45.51980277443619" lon="10.191241607260135"><ele>125.0</ele><time>2026-03-27T15:28:54Z</time></trkpt><trkpt lat="45.51982180753366" lon="10.191399142319732"><ele>125.0</ele><time>2026-03-27T15:28:55Z</time></trkpt><trkpt lat="45.51986566733987" lon="10.191522439231209"><ele>125.0</ele><time>2026-03-27T15:28:56Z</time></trkpt><trkpt lat="45.51994120238227" lon="10.191621720853686"><ele>125.0</ele><time>2026-03-27T15:28:57Z</time></trkpt><trkpt lat="45.52006352152651" lon="10.191650173724685"><ele>125.33333333333333</ele><time>2026-03-27T15:28:58Z</time></trkpt><trkpt lat="45.5202285507266" lon="10.191751030786296"><ele>125.66666666666666</ele><time>2026-03-27T15:28:59Z</time></trkpt><trkpt lat="45.52035537955979" lon="10.191935157917944"><ele>126.0</ele><time>2026-03-27T15:29:00Z</time></trkpt><trkpt lat="45.520500569191704" lon="10.192164735394599"><ele>125.5</ele><time>2026-03-27T15:29:01Z</time></trkpt><trkpt lat="45.520634808184006" lon="10.192475361424698"><ele>125.0</ele><time>2026-03-27T15:29:02Z</time></trkpt><trkpt lat="45.52078859677483" lon="10.19283173922855"><ele>124.5</ele><time>2026-03-27T15:29:03Z</time></trkpt><trkpt lat="45.52091171994533" lon="10.193194860925628"><ele>124.0</ele><time>2026-03-27T15:29:04Z</time></trkpt><trkpt lat="45.52101126413944" lon="10.193539587261593"><ele>124.0</ele><time>2026-03-27T15:29:05Z</time></trkpt><trkpt lat="45.52109445131389" lon="10.193854869620008"><ele>124.0</ele><time>2026-03-27T15:29:06Z</time></trkpt><trkpt lat="45.521140163001995" lon="10.194125887877693"><ele>124.0</ele><time>2026-03-27T15:29:07Z</time></trkpt><trkpt lat="45.52116382230508" lon="10.194342435376264"><ele>124.33333333333334</ele><time>2026-03-27T15:29:08Z</time></trkpt><trkpt lat="45.52118434042287" lon="10.194498184946802"><ele>124.66666666666667</ele><time>2026-03-27T15:29:09Z</time></trkpt><trkpt lat="45.5212019917071" lon="10.194605618020958"><ele>125.0</ele><time>2026-03-27T15:29:10Z</time></trkpt><trkpt lat="45.521211586370896" lon="10.194698102144514"><ele>125.33333333333334</ele><time>2026-03-27T15:29:14Z</time></trkpt><trkpt lat="45.52121608314153" lon="10.194800892895985"><ele>125.66666666666667</ele><time>2026-03-27T15:29:18Z</time></trkpt><trkpt lat="45.521193401498955" lon="10.19496480745141"><ele>126.0</ele><time>2026-03-27T15:29:20Z</time></trkpt><trkpt lat="45.52117208682662" lon="10.195052489876243"><ele>126.19999999999999</ele><time>2026-03-27T15:29:21Z</time></trkpt><trkpt lat="45.52118043163781" lon="10.195157971023745"><ele>126.39999999999999</ele><time>2026-03-27T15:29:22Z</time></trkpt><trkpt lat="45.521218161040466" lon="10.195277122951131"><ele>126.6</ele><time>2026-03-27T15:29:23Z</time></trkpt><trkpt lat="45.5213195738918" lon="10.195347310842086"><ele>126.8</ele><time>2026-03-27T15:29:24Z</time></trkpt><trkpt lat="45.521420796280275" lon="10.195459490165645"><ele>127.0</ele><time>2026-03-27T15:29:25Z</time></trkpt><trkpt lat="45.52150135887205" lon="10.195619299374822"><ele>126.66666666666667</ele><time>2026-03-27T15:29:26Z</time></trkpt><trkpt lat="45.5215767563762" lon="10.195827185231959"><ele>126.33333333333334</ele><time>2026-03-27T15:29:27Z</time></trkpt><trkpt lat="45.521653714698424" lon="10.196023342877906"><ele>126.0</ele><time>2026-03-27T15:29:28Z</time></trkpt><trkpt lat="45.521762203790736" lon="10.196205065190165"><ele>126.0</ele><time>2026-03-27T15:29:29Z</time></trkpt><trkpt lat="45.52190461033446" lon="10.196375915250165"><ele>126.0</ele><time>2026-03-27T15:29:29.999Z</time></trkpt><trkpt lat="45.522050908360036" lon="10.19651312678631"><ele>126.0</ele><time>2026-03-27T15:29:30.999Z</time></trkpt><trkpt lat="45.52220461700061" lon="10.196631302019153"><ele>127.0</ele><time>2026-03-27T15:29:31.999Z</time></trkpt><trkpt lat="45.52235311486723" lon="10.196731204282418"><ele>128.0</ele><time>2026-03-27T15:29:32.999Z</time></trkpt><trkpt lat="45.52249814117632" lon="10.19680724636254"><ele>129.0</ele><time>2026-03-27T15:29:33.999Z</time></trkpt><trkpt lat="45.522597520462085" lon="10.196822909325375"><ele>130.0</ele><time>2026-03-27T15:29:34.999Z</time></trkpt><trkpt lat="45.522702260258065" lon="10.196862791254494"><ele>130.0</ele><time>2026-03-27T15:29:35.999Z</time></trkpt><trkpt lat="45.52280886292319" lon="10.196904071075467"><ele>130.0</ele><time>2026-03-27T15:29:36.999Z</time></trkpt><trkpt lat="45.5229058364333" lon="10.196944672190236"><ele>130.0</ele><time>2026-03-27T15:29:37.999Z</time></trkpt><trkpt lat="45.52299360363302" lon="10.19698175873836"><ele>130.0</ele><time>2026-03-27T15:29:38.999Z</time></trkpt><trkpt lat="45.52306974149861" lon="10.19702782925137"><ele>130.0</ele><time>2026-03-27T15:29:39.999Z</time></trkpt><trkpt lat="45.52315813636763" lon="10.197064938655782"><ele>129.4</ele><time>2026-03-27T15:29:40.999Z</time></trkpt><trkpt lat="45.52327218847791" lon="10.197082461824062"><ele>128.8</ele><time>2026-03-27T15:29:41.999Z</time></trkpt><trkpt lat="45.52337750655212" lon="10.197128711994031"><ele>128.2</ele><time>2026-03-27T15:29:42.999Z</time></trkpt><trkpt lat="45.5234646613676" lon="10.19718152260135"><ele>127.6</ele><time>2026-03-27T15:29:43.999Z</time></trkpt><trkpt lat="45.52353007286783" lon="10.197231525830384"><ele>127.0</ele><time>2026-03-27T15:29:44.999Z</time></trkpt><trkpt lat="45.5235788738931" lon="10.197288431175352"><ele>127.39999999999999</ele><time>2026-03-27T15:29:45.999Z</time></trkpt><trkpt lat="45.52366389637207" lon="10.197391629729886"><ele>127.79999999999998</ele><time>2026-03-27T15:29:47.999Z</time></trkpt><trkpt lat="45.52377691160529" lon="10.197347652391938"><ele>128.2</ele><time>2026-03-27T15:29:49.999Z</time></trkpt><trkpt lat="45.52384925066614" lon="10.197324885786575"><ele>128.6</ele><time>2026-03-27T15:29:50.999Z</time></trkpt><trkpt lat="45.523966075130424" lon="10.197343177581777"><ele>129.0</ele><time>2026-03-27T15:29:51.999Z</time></trkpt><trkpt lat="45.52408325445559" lon="10.19740015489787"><ele>129.5</ele><time>2026-03-27T15:29:52.999Z</time></trkpt><trkpt lat="45.52423626873348" lon="10.197460789152277"><ele>130.0</ele><time>2026-03-27T15:29:53.999Z</time></trkpt><trkpt lat="45.52436658041965" lon="10.197510649713404"><ele>130.5</ele><time>2026-03-27T15:29:54.999Z</time></trkpt><trkpt lat="45.524477924658065" lon="10.197554034023385"><ele>131.0</ele><time>2026-03-27T15:29:55.999Z</time></trkpt><trkpt lat="45.52457953916025" lon="10.197595188508116"><ele>131.16666666666666</ele><time>2026-03-27T15:29:56.999Z</time></trkpt><trkpt lat="45.524667939161475" lon="10.19762801384528"><ele>131.33333333333331</ele><time>2026-03-27T15:29:57.999Z</time></trkpt><trkpt lat="45.524742959724385" lon="10.197657990065698"><ele>131.5</ele><time>2026-03-27T15:29:58.999Z</time></trkpt><trkpt lat="45.52481616392089" lon="10.19771034286912"><ele>131.66666666666666</ele><time>2026-03-27T15:29:59.999Z</time></trkpt><trkpt lat="45.52489355797415" lon="10.197766279829734"><ele>131.83333333333334</ele><time>2026-03-27T15:30:00.999Z</time></trkpt><trkpt lat="45.52499517000766" lon="10.197788581935553"><ele>132.0</ele><time>2026-03-27T15:30:01.999Z</time></trkpt><trkpt lat="45.52510715568406" lon="10.197791509202872"><ele>132.0</ele><time>2026-03-27T15:30:02.999Z</time></trkpt><trkpt lat="45.52525575921628" lon="10.197832956641886"><ele>132.0</ele><time>2026-03-27T15:30:03.999Z</time></trkpt><trkpt lat="45.5254149771296" lon="10.197907606917278"><ele>132.0</ele><time>2026-03-27T15:30:04.999Z</time></trkpt><trkpt lat="45.525585199730855" lon="10.197977595520626"><ele>132.5</ele><time>2026-03-27T15:30:05.999Z</time></trkpt><trkpt lat="45.52572959507333" lon="10.198044349123162"><ele>133.0</ele><time>2026-03-27T15:30:06.999Z</time></trkpt><trkpt lat="45.525850543881376" lon="10.198090082851962"><ele>133.5</ele><time>2026-03-27T15:30:07.999Z</time></trkpt><trkpt lat="45.52595355780997" lon="10.198131174271701"><ele>134.0</ele><time>2026-03-27T15:30:08.999Z</time></trkpt><trkpt lat="45.52603218166335" lon="10.198167943665394"><ele>133.2</ele><time>2026-03-27T15:30:09.999Z</time></trkpt><trkpt lat="45.52610386508352" lon="10.198200785127646"><ele>132.4</ele><time>2026-03-27T15:30:10.999Z</time></trkpt><trkpt lat="45.52621062947199" lon="10.198271227777587"><ele>131.6</ele><time>2026-03-27T15:30:12.999Z</time></trkpt><trkpt lat="45.52626776062099" lon="10.198355836152528"><ele>130.8</ele><time>2026-03-27T15:30:14.999Z</time></trkpt><trkpt lat="45.52633145331083" lon="10.198442952289964"><ele>130.0</ele><time>2026-03-27T15:30:16.999Z</time></trkpt><trkpt lat="45.52644935701411" lon="10.198541349861422"><ele>130.0</ele><time>2026-03-27T15:30:18.999Z</time></trkpt><trkpt lat="45.52652032864715" lon="10.19853199451342"><ele>130.0</ele><time>2026-03-27T15:30:19.999Z</time></trkpt><trkpt lat="45.5265871362401" lon="10.198466642329967"><ele>130.0</ele><time>2026-03-27T15:30:20.999Z</time></trkpt><trkpt lat="45.5266594386651" lon="10.198403289417243"><ele>130.0</ele><time>2026-03-27T15:30:21.999Z</time></trkpt><trkpt lat="45.52674964224669" lon="10.19834232744725"><ele>130.0</ele><time>2026-03-27T15:30:22.999Z</time></trkpt><trkpt lat="45.52682277867884" lon="10.198291648001806"><ele>130.0</ele><time>2026-03-27T15:30:23.999Z</time></trkpt><trkpt lat="45.52688501261641" lon="10.198260896121036"><ele>130.0</ele><time>2026-03-27T15:30:24.999Z</time></trkpt><trkpt lat="45.526966969601" lon="10.198253570463475"><ele>130.0</ele><time>2026-03-27T15:30:26.999Z</time></trkpt><trkpt lat="45.52704745875768" lon="10.198269387036525"><ele>130.0</ele><time>2026-03-27T15:30:28.999Z</time></trkpt><trkpt lat="45.52713691797183" lon="10.198246520093024"><ele>130.0</ele><time>2026-03-27T15:30:30.999Z</time></trkpt><trkpt lat="45.52722016884166" lon="10.198345895975095"><ele>130.0</ele><time>2026-03-27T15:30:31.999Z</time></trkpt><trkpt lat="45.527258684583565" lon="10.198446091618042"><ele>130.0</ele><time>2026-03-27T15:30:32.999Z</time></trkpt><trkpt lat="45.52733336548732" lon="10.19851601643921"><ele>130.25</ele><time>2026-03-27T15:30:33.999Z</time></trkpt><trkpt lat="45.52741554066405" lon="10.198575507094507"><ele>130.5</ele><time>2026-03-27T15:30:34.998Z</time></trkpt><trkpt lat="45.527520055957524" lon="10.198656813402176"><ele>130.75</ele><time>2026-03-27T15:30:36Z</time></trkpt><trkpt lat="45.52763496996475" lon="10.198744743561521"><ele>131.0</ele><time>2026-03-27T15:30:37Z</time></trkpt><trkpt lat="45.52776816609269" lon="10.198818735548063"><ele>130.33333333333331</ele><time>2026-03-27T15:30:38Z</time></trkpt><trkpt lat="45.5279172218348" lon="10.198884262171246"><ele>129.66666666666666</ele><time>2026-03-27T15:30:39Z</time></trkpt><trkpt lat="45.52806856119667" lon="10.198942582326978"><ele>129.0</ele><time>2026-03-27T15:30:40Z</time></trkpt><trkpt lat="45.528244642344866" lon="10.199002988631417"><ele>131.0</ele><time>2026-03-27T15:30:41Z</time></trkpt><trkpt lat="45.52840163638547" lon="10.19906288935787"><ele>133.0</ele><time>2026-03-27T15:30:42Z</time></trkpt><trkpt lat="45.528550899104374" lon="10.19912249600314"><ele>135.0</ele><time>2026-03-27T15:30:43Z</time></trkpt><trkpt lat="45.52870183655774" lon="10.199181053593247"><ele>134.0</ele><time>2026-03-27T15:30:44Z</time></trkpt><trkpt lat="45.5288547388245" lon="10.199238282419644"><ele>133.0</ele><time>2026-03-27T15:30:45Z</time></trkpt><trkpt lat="45.529002347550914" lon="10.199296400406956"><ele>132.0</ele><time>2026-03-27T15:30:46Z</time></trkpt><trkpt lat="45.529143661087815" lon="10.199354650953701"><ele>132.0</ele><time>2026-03-27T15:30:47Z</time></trkpt><trkpt lat="45.529282570988116" lon="10.199412652366822"><ele>132.0</ele><time>2026-03-27T15:30:48Z</time></trkpt><trkpt lat="45.5294133593887" lon="10.199463668692507"><ele>132.0</ele><time>2026-03-27T15:30:49Z</time></trkpt><trkpt lat="45.52954495114363" lon="10.199512335091779"><ele>132.0</ele><time>2026-03-27T15:30:50Z</time></trkpt><trkpt lat="45.52967381213394" lon="10.199559584088856"><ele>132.0</ele><time>2026-03-27T15:30:51Z</time></trkpt><trkpt lat="45.52979093018844" lon="10.199604196936072"><ele>132.0</ele><time>2026-03-27T15:30:52Z</time></trkpt><trkpt lat="45.52991432528592" lon="10.199653834306858"><ele>132.0</ele><time>2026-03-27T15:30:53Z</time></trkpt><trkpt lat="45.5300319664482" lon="10.199703001538323"><ele>132.0</ele><time>2026-03-27T15:30:54Z</time></trkpt><trkpt lat="45.53014257416543" lon="10.199748985043051"><ele>132.0</ele><time>2026-03-27T15:30:55Z</time></trkpt><trkpt lat="45.530245402240766" lon="10.199799625008785"><ele>132.0</ele><time>2026-03-27T15:30:56Z</time></trkpt><trkpt lat="45.53033460796459" lon="10.199857876139435"><ele>132.0</ele><time>2026-03-27T15:30:57Z</time></trkpt><trkpt lat="45.530410010603" lon="10.199920532501709"><ele>132.0</ele><time>2026-03-27T15:30:58Z</time></trkpt><trkpt lat="45.53046602615686" lon="10.199994675344518"><ele>132.0</ele><time>2026-03-27T15:30:59Z</time></trkpt><trkpt lat="45.53051104090553" lon="10.20007671635495"><ele>132.0</ele><time>2026-03-27T15:31:00Z</time></trkpt><trkpt lat="45.530552098949755" lon="10.200157812770872"><ele>131.79999999999998</ele><time>2026-03-27T15:31:01Z</time></trkpt><trkpt lat="45.53064064069847" lon="10.200223823094868"><ele>131.6</ele><time>2026-03-27T15:31:03Z</time></trkpt><trkpt lat="45.530727209936664" lon="10.20016684529288"><ele>131.39999999999998</ele><time>2026-03-27T15:31:05Z</time></trkpt><trkpt lat="45.530718187758865" lon="10.200008746291289"><ele>131.2</ele><time>2026-03-27T15:31:07Z</time></trkpt><trkpt lat="45.53064780632672" lon="10.199945249662072"><ele>131.0</ele><time>2026-03-27T15:31:08Z</time></trkpt><trkpt lat="45.53057452805678" lon="10.199914384018438"><ele>131.0</ele><time>2026-03-27T15:31:09Z</time></trkpt><trkpt lat="45.530512772372646" lon="10.199875656680408"><ele>131.0</ele><time>2026-03-27T15:31:10Z</time></trkpt><trkpt lat="45.53043875031795" lon="10.199807997868744"><ele>131.0</ele><time>2026-03-27T15:31:11Z</time></trkpt><trkpt lat="45.53035590060423" lon="10.199744459670912"><ele>131.0</ele><time>2026-03-27T15:31:12Z</time></trkpt><trkpt lat="45.53027265924679" lon="10.199702098759525"><ele>131.0</ele><time>2026-03-27T15:31:13Z</time></trkpt><trkpt lat="45.5301968384103" lon="10.199718810283297"><ele>131.0</ele><time>2026-03-27T15:31:14Z</time></trkpt><trkpt lat="45.53014196669325" lon="10.199598281555954"><ele>131.25</ele><time>2026-03-27T15:31:15Z</time></trkpt><trkpt lat="45.53006307098307" lon="10.199493612357736"><ele>131.5</ele><time>2026-03-27T15:31:17Z</time></trkpt><trkpt lat="45.52998851225092" lon="10.199409270228037"><ele>131.75</ele><time>2026-03-27T15:31:19Z</time></trkpt><trkpt lat="45.52992640373552" lon="10.199353474483408"><ele>132.0</ele><time>2026-03-27T15:31:21Z</time></trkpt><trkpt lat="45.52973606388467" lon="10.199432006859924"><ele>132.0</ele><time>2026-03-27T15:33:49.999Z</time></trkpt><trkpt lat="45.529582105067306" lon="10.199439832458745"><ele>132.0</ele><time>2026-03-27T15:33:51.999Z</time></trkpt><trkpt lat="45.52946442177016" lon="10.199401894429373"><ele>132.0</ele><time>2026-03-27T15:33:52.999Z</time></trkpt><trkpt lat="45.52935426797629" lon="10.199337746725504"><ele>132.0</ele><time>2026-03-27T15:33:53.999Z</time></trkpt><trkpt lat="45.529235493414575" lon="10.199299115883738"><ele>132.0</ele><time>2026-03-27T15:33:54.999Z</time></trkpt><trkpt lat="45.52911900574702" lon="10.199253184620723"><ele>132.0</ele><time>2026-03-27T15:33:55.999Z</time></trkpt><trkpt lat="45.52899334943842" lon="10.199203630226073"><ele>132.0</ele><time>2026-03-27T15:33:56.999Z</time></trkpt><trkpt lat="45.528869385909914" lon="10.199154216608477"><ele>132.0</ele><time>2026-03-27T15:33:57.999Z</time></trkpt><trkpt lat="45.528739333873645" lon="10.199106777841939"><ele>132.75</ele><time>2026-03-27T15:33:58.999Z</time></trkpt><trkpt lat="45.528614861736386" lon="10.199057195058353"><ele>133.5</ele><time>2026-03-27T15:33:59.999Z</time></trkpt><trkpt lat="45.52848965402709" lon="10.19900874682805"><ele>134.25</ele><time>2026-03-27T15:34:00.999Z</time></trkpt><trkpt lat="45.52836686427477" lon="10.198961766926175"><ele>135.0</ele><time>2026-03-27T15:34:01.999Z</time></trkpt><trkpt lat="45.52824633170557" lon="10.198918564278534"><ele>134.2</ele><time>2026-03-27T15:34:02.999Z</time></trkpt><trkpt lat="45.5281326323365" lon="10.198876714283964"><ele>133.4</ele><time>2026-03-27T15:34:03.999Z</time></trkpt><trkpt lat="45.528025774772125" lon="10.198834879382575"><ele>132.6</ele><time>2026-03-27T15:34:04.999Z</time></trkpt><trkpt lat="45.52792907026284" lon="10.198791308392394"><ele>131.8</ele><time>2026-03-27T15:34:05.999Z</time></trkpt><trkpt lat="45.527826402248415" lon="10.19876499978337"><ele>131.0</ele><time>2026-03-27T15:34:06.999Z</time></trkpt><trkpt lat="45.527735252581884" lon="10.198718787499248"><ele>131.0</ele><time>2026-03-27T15:34:07.999Z</time></trkpt><trkpt lat="45.527653542664936" lon="10.198653362257222"><ele>131.0</ele><time>2026-03-27T15:34:08.999Z</time></trkpt><trkpt lat="45.527579075813556" lon="10.198606151412726"><ele>131.0</ele><time>2026-03-27T15:34:09.999Z</time></trkpt><trkpt lat="45.527512585744574" lon="10.19855923255227"><ele>131.0</ele><time>2026-03-27T15:34:10.999Z</time></trkpt><trkpt lat="45.52745612216709" lon="10.198508296245809"><ele>131.0</ele><time>2026-03-27T15:34:11.999Z</time></trkpt><trkpt lat="45.52738076429955" lon="10.198434854176131"><ele>131.0</ele><time>2026-03-27T15:34:13.999Z</time></trkpt><trkpt lat="45.527326149594884" lon="10.198384283077543"><ele>131.0</ele><time>2026-03-27T15:34:15.999Z</time></trkpt><trkpt lat="45.52727200581215" lon="10.198313570536994"><ele>131.0</ele><time>2026-03-27T15:34:20.999Z</time></trkpt><trkpt lat="45.52722497913425" lon="10.198241186235347"><ele>131.0</ele><time>2026-03-27T15:34:23.999Z</time></trkpt><trkpt lat="45.527178745654105" lon="10.198171739676674"><ele>131.0</ele><time>2026-03-27T15:34:26.999Z</time></trkpt><trkpt lat="45.52716427348918" lon="10.198031926401853"><ele>131.0</ele><time>2026-03-27T15:34:28.999Z</time></trkpt><trkpt lat="45.52711567351189" lon="10.197963523510893"><ele>131.0</ele><time>2026-03-27T15:34:29.999Z</time></trkpt><trkpt lat="45.52702918760387" lon="10.197892466257862"><ele>131.0</ele><time>2026-03-27T15:34:31.999Z</time></trkpt><trkpt lat="45.52693897537696" lon="10.19799756009618"><ele>131.0</ele><time>2026-03-27T15:34:33.999Z</time></trkpt><trkpt lat="45.52694890583657" lon="10.198096318410574"><ele>131.0</ele><time>2026-03-27T15:34:34.999Z</time></trkpt><trkpt lat="45.52708173153104" lon="10.198220179240076"><ele>131.0</ele><time>2026-03-27T15:34:36.999Z</time></trkpt><trkpt lat="45.52718349942607" lon="10.198307365322192"><ele>131.0</ele><time>2026-03-27T15:34:37.999Z</time></trkpt><trkpt lat="45.527279805270524" lon="10.19845016994642"><ele>131.0</ele><time>2026-03-27T15:34:38.999Z</time></trkpt><trkpt lat="45.52739468991272" lon="10.198607104759192"><ele>131.0</ele><time>2026-03-27T15:34:39.999Z</time></trkpt><trkpt lat="45.52750644128762" lon="10.198718315055054"><ele>131.0</ele><time>2026-03-27T15:34:40.999Z</time></trkpt><trkpt lat="45.52763876689003" lon="10.198806890511374"><ele>131.0</ele><time>2026-03-27T15:34:41.999Z</time></trkpt><trkpt lat="45.527773939756315" lon="10.198866189645763"><ele>131.0</ele><time>2026-03-27T15:34:42.999Z</time></trkpt><trkpt lat="45.52789489098998" lon="10.198921348643806"><ele>131.0</ele><time>2026-03-27T15:34:43.999Z</time></trkpt><trkpt lat="45.528016931353896" lon="10.198969161860076"><ele>131.0</ele><time>2026-03-27T15:34:44.999Z</time></trkpt><trkpt lat="45.528134123466714" lon="10.199009948197638"><ele>131.33333333333331</ele><time>2026-03-27T15:34:45.999Z</time></trkpt><trkpt lat="45.52829518114673" lon="10.199044942596561"><ele>131.66666666666666</ele><time>2026-03-27T15:34:47Z</time></trkpt><trkpt lat="45.52849924523936" lon="10.199095948598968"><ele>132.0</ele><time>2026-03-27T15:34:48Z</time></trkpt><trkpt lat="45.52873942133257" lon="10.199184696568723"><ele>132.0</ele><time>2026-03-27T15:34:49Z</time></trkpt><trkpt lat="45.52896048580622" lon="10.199272928676745"><ele>132.0</ele><time>2026-03-27T15:34:50Z</time></trkpt><trkpt lat="45.529171955791" lon="10.199369873527415"><ele>132.0</ele><time>2026-03-27T15:34:51Z</time></trkpt><trkpt lat="45.52937119227689" lon="10.19945760780046"><ele>132.0</ele><time>2026-03-27T15:34:52Z</time></trkpt><trkpt lat="45.52956451800461" lon="10.199519853935971"><ele>132.0</ele><time>2026-03-27T15:34:53Z</time></trkpt><trkpt lat="45.5297517307668" lon="10.199586445560726"><ele>132.0</ele><time>2026-03-27T15:34:54Z</time></trkpt><trkpt lat="45.52992220617352" lon="10.199667192771889"><ele>132.0</ele><time>2026-03-27T15:34:55Z</time></trkpt><trkpt lat="45.53005827653391" lon="10.199741233526579"><ele>132.0</ele><time>2026-03-27T15:34:56Z</time></trkpt><trkpt lat="45.53019260320486" lon="10.199802931569044"><ele>132.0</ele><time>2026-03-27T15:34:57Z</time></trkpt><trkpt lat="45.53031447742548" lon="10.199831337378551"><ele>132.0</ele><time>2026-03-27T15:34:58Z</time></trkpt><trkpt lat="45.53039632925967" lon="10.199936010398236"><ele>132.0</ele><time>2026-03-27T15:34:59Z</time></trkpt><trkpt lat="45.53045768285948" lon="10.200026550328426"><ele>132.0</ele><time>2026-03-27T15:35:00Z</time></trkpt><trkpt lat="45.53052414483558" lon="10.200101383160991"><ele>132.0</ele><time>2026-03-27T15:35:01Z</time></trkpt><trkpt lat="45.53055123240922" lon="10.200222055652103"><ele>131.79999999999998</ele><time>2026-03-27T15:35:02Z</time></trkpt><trkpt lat="45.53062243978396" lon="10.20025996700768"><ele>131.6</ele><time>2026-03-27T15:35:03Z</time></trkpt><trkpt lat="45.53071951489754" lon="10.200242443416824"><ele>131.39999999999998</ele><time>2026-03-27T15:35:04Z</time></trkpt><trkpt lat="45.530810999601925" lon="10.200173662525017"><ele>131.2</ele><time>2026-03-27T15:35:05Z</time></trkpt><trkpt lat="45.530903991033256" lon="10.200142099992817"><ele>131.0</ele><time>2026-03-27T15:35:06Z</time></trkpt><trkpt lat="45.53100095207261" lon="10.200139737012426"><ele>131.0</ele><time>2026-03-27T15:35:07Z</time></trkpt><trkpt lat="45.53109888257991" lon="10.20014846495779"><ele>131.0</ele><time>2026-03-27T15:35:08Z</time></trkpt><trkpt lat="45.53121206470207" lon="10.20015777364257"><ele>131.0</ele><time>2026-03-27T15:35:09Z</time></trkpt><trkpt lat="45.531351052737534" lon="10.200218827660246"><ele>131.0</ele><time>2026-03-27T15:35:10Z</time></trkpt><trkpt lat="45.531520773463576" lon="10.200313432074285"><ele>131.25</ele><time>2026-03-27T15:35:11Z</time></trkpt><trkpt lat="45.53168136827836" lon="10.200358690033658"><ele>131.5</ele><time>2026-03-27T15:35:12Z</time></trkpt><trkpt lat="45.53180351907755" lon="10.2004117307962"><ele>131.75</ele><time>2026-03-27T15:35:13Z</time></trkpt><trkpt lat="45.53193121190656" lon="10.200464670709092"><ele>132.0</ele><time>2026-03-27T15:35:14Z</time></trkpt><trkpt lat="45.532052325805815" lon="10.200515761762828"><ele>132.4</ele><time>2026-03-27T15:35:15Z</time></trkpt><trkpt lat="45.53215480748774" lon="10.200565549453126"><ele>132.79999999999998</ele><time>2026-03-27T15:35:16Z</time></trkpt><trkpt lat="45.532243042516946" lon="10.200609194450664"><ele>133.2</ele><time>2026-03-27T15:35:17Z</time></trkpt><trkpt lat="45.53232487042756" lon="10.200652038314876"><ele>133.6</ele><time>2026-03-27T15:35:18Z</time></trkpt><trkpt lat="45.53241065353646" lon="10.20070592103615"><ele>134.0</ele><time>2026-03-27T15:35:19Z</time></trkpt><trkpt lat="45.5325017138974" lon="10.200745404734585"><ele>134.16666666666666</ele><time>2026-03-27T15:35:20Z</time></trkpt><trkpt lat="45.532566700312266" lon="10.200760494195894"><ele>134.33333333333331</ele><time>2026-03-27T15:35:21Z</time></trkpt><trkpt lat="45.53265654057459" lon="10.200797190244355"><ele>134.5</ele><time>2026-03-27T15:35:23Z</time></trkpt><trkpt lat="45.53273011295985" lon="10.200816197474799"><ele>134.66666666666666</ele><time>2026-03-27T15:35:24Z</time></trkpt><trkpt lat="45.53281073390604" lon="10.200841415334791"><ele>134.83333333333334</ele><time>2026-03-27T15:35:25Z</time></trkpt><trkpt lat="45.532897277625224" lon="10.200877142118836"><ele>135.0</ele><time>2026-03-27T15:35:26Z</time></trkpt><trkpt lat="45.53299832660996" lon="10.200912542986373"><ele>135.2</ele><time>2026-03-27T15:35:27Z</time></trkpt><trkpt lat="45.53308900368736" lon="10.200946480270213"><ele>135.4</ele><time>2026-03-27T15:35:28Z</time></trkpt><trkpt lat="45.53317967269964" lon="10.200983645181614"><ele>135.6</ele><time>2026-03-27T15:35:29Z</time></trkpt><trkpt lat="45.53327805582322" lon="10.201022087809513"><ele>135.8</ele><time>2026-03-27T15:35:30Z</time></trkpt><trkpt lat="45.53337605691469" lon="10.201060076203168"><ele>136.0</ele><time>2026-03-27T15:35:31Z</time></trkpt><trkpt lat="45.53347838635317" lon="10.201096525182777"><ele>136.0</ele><time>2026-03-27T15:35:32Z</time></trkpt><trkpt lat="45.53357227907638" lon="10.20113428785845"><ele>136.0</ele><time>2026-03-27T15:35:33Z</time></trkpt><trkpt lat="45.53367028305133" lon="10.201172420197897"><ele>136.0</ele><time>2026-03-27T15:35:34Z</time></trkpt><trkpt lat="45.53376749004227" lon="10.201212106137904"><ele>136.0</ele><time>2026-03-27T15:35:35Z</time></trkpt><trkpt lat="45.53385086757968" lon="10.201244763329473"><ele>136.0</ele><time>2026-03-27T15:35:36Z</time></trkpt><trkpt lat="45.53394388382123" lon="10.201279313733092"><ele>136.4</ele><time>2026-03-27T15:35:37Z</time></trkpt><trkpt lat="45.534033893195435" lon="10.20131726678226"><ele>136.8</ele><time>2026-03-27T15:35:38Z</time></trkpt><trkpt lat="45.53412367035463" lon="10.201360423875586"><ele>137.20000000000002</ele><time>2026-03-27T15:35:39Z</time></trkpt><trkpt lat="45.534191767530814" lon="10.201432096762446"><ele>137.6</ele><time>2026-03-27T15:35:40Z</time></trkpt><trkpt lat="45.534289420649436" lon="10.2014558995011"><ele>138.0</ele><time>2026-03-27T15:35:41Z</time></trkpt><trkpt lat="45.5343684757353" lon="10.201484110805666"><ele>138.0</ele><time>2026-03-27T15:35:42Z</time></trkpt><trkpt lat="45.53446829590452" lon="10.20151050646485"><ele>138.0</ele><time>2026-03-27T15:35:43Z</time></trkpt><trkpt lat="45.534566107893625" lon="10.201549618511688"><ele>138.0</ele><time>2026-03-27T15:35:44Z</time></trkpt><trkpt lat="45.534671362972844" lon="10.201591039979808"><ele>138.0</ele><time>2026-03-27T15:35:45Z</time></trkpt><trkpt lat="45.53477767214847" lon="10.201631710398757"><ele>138.0</ele><time>2026-03-27T15:35:46Z</time></trkpt><trkpt lat="45.534881667196345" lon="10.201668504368163"><ele>138.0</ele><time>2026-03-27T15:35:47Z</time></trkpt><trkpt lat="45.53498135551216" lon="10.201705079809317"><ele>138.0</ele><time>2026-03-27T15:35:48Z</time></trkpt><trkpt lat="45.53507759114495" lon="10.201741137953123"><ele>138.0</ele><time>2026-03-27T15:35:49Z</time></trkpt><trkpt lat="45.53517327324074" lon="10.201778529882434"><ele>138.0</ele><time>2026-03-27T15:35:50Z</time></trkpt><trkpt lat="45.53528622769367" lon="10.201823049976722"><ele>138.0</ele><time>2026-03-27T15:35:51Z</time></trkpt><trkpt lat="45.53541005103557" lon="10.201867539886424"><ele>138.0</ele><time>2026-03-27T15:35:52Z</time></trkpt><trkpt lat="45.53553479711055" lon="10.201915881681519"><ele>138.0</ele><time>2026-03-27T15:35:53Z</time></trkpt><trkpt lat="45.53565740721482" lon="10.201966775055672"><ele>138.0</ele><time>2026-03-27T15:35:53.999Z</time></trkpt><trkpt lat="45.53579097970329" lon="10.202020856603516"><ele>138.0</ele><time>2026-03-27T15:35:55.071Z</time></trkpt><trkpt lat="45.53592097973309" lon="10.202080794932"><ele>138.0</ele><time>2026-03-27T15:35:56.067Z</time></trkpt><trkpt lat="45.536043971077646" lon="10.202124692891816"><ele>138.0</ele><time>2026-03-27T15:35:57.065Z</time></trkpt><trkpt lat="45.536137977189036" lon="10.202216253091086"><ele>138.0</ele><time>2026-03-27T15:35:58.065Z</time></trkpt><trkpt lat="45.536254627613125" lon="10.20229429138158"><ele>138.0</ele><time>2026-03-27T15:35:59.058Z</time></trkpt><trkpt lat="45.53637759423449" lon="10.202374495829947"><ele>139.25</ele><time>2026-03-27T15:36:00.05Z</time></trkpt><trkpt lat="45.53649967950162" lon="10.202448749868385"><ele>140.5</ele><time>2026-03-27T15:36:01.038Z</time></trkpt><trkpt lat="45.536621595835776" lon="10.202525855368638"><ele>141.75</ele><time>2026-03-27T15:36:02.034Z</time></trkpt><trkpt lat="45.5367452826489" lon="10.202594393507512"><ele>143.0</ele><time>2026-03-27T15:36:03.031Z</time></trkpt><trkpt lat="45.536879846673756" lon="10.202636195213017"><ele>143.0</ele><time>2026-03-27T15:36:04.033Z</time></trkpt><trkpt lat="45.53669644246482" lon="10.202569811998186"><ele>143.0</ele><time>2026-03-27T15:36:05.045Z</time></trkpt><trkpt lat="45.53677498780396" lon="10.20259573205561"><ele>143.0</ele><time>2026-03-27T15:36:06.999Z</time></trkpt><trkpt lat="45.5368622330883" lon="10.202683586024119"><ele>143.0</ele><time>2026-03-27T15:36:08.999Z</time></trkpt><trkpt lat="45.536898355606766" lon="10.202814617798126"><ele>143.0</ele><time>2026-03-27T15:36:10.999Z</time></trkpt><trkpt lat="45.536873214380556" lon="10.202940612209279"><ele>143.0</ele><time>2026-03-27T15:36:11.999Z</time></trkpt><trkpt lat="45.536829561040996" lon="10.203035282095264"><ele>143.0</ele><time>2026-03-27T15:36:12.999Z</time></trkpt><trkpt lat="45.53674234100096" lon="10.203181990692023"><ele>143.0</ele><time>2026-03-27T15:36:14.999Z</time></trkpt><trkpt lat="45.53672713756286" lon="10.203278474493262"><ele>143.0</ele><time>2026-03-27T15:36:15.999Z</time></trkpt><trkpt lat="45.53673130986279" lon="10.203380274615416"><ele>143.0</ele><time>2026-03-27T15:36:16.999Z</time></trkpt><trkpt lat="45.5367345526519" lon="10.203497662682576"><ele>142.8</ele><time>2026-03-27T15:36:17.999Z</time></trkpt><trkpt lat="45.53672750316176" lon="10.203615820297887"><ele>142.60000000000002</ele><time>2026-03-27T15:36:18.999Z</time></trkpt><trkpt lat="45.53671031276549" lon="10.20376307682186"><ele>142.39999999999998</ele><time>2026-03-27T15:36:19.999Z</time></trkpt><trkpt lat="45.536693201670765" lon="10.20390937415536"><ele>142.2</ele><time>2026-03-27T15:36:20.999Z</time></trkpt><trkpt lat="45.5366711497795" lon="10.204056487217143"><ele>142.0</ele><time>2026-03-27T15:36:21.999Z</time></trkpt><trkpt lat="45.536650444054565" lon="10.204209321085964"><ele>142.0</ele><time>2026-03-27T15:36:22.999Z</time></trkpt><trkpt lat="45.536621935287826" lon="10.20436239977112"><ele>142.0</ele><time>2026-03-27T15:36:23.999Z</time></trkpt><trkpt lat="45.536595263577595" lon="10.204509283541576"><ele>142.0</ele><time>2026-03-27T15:36:24.999Z</time></trkpt><trkpt lat="45.53656879248274" lon="10.204654854171265"><ele>142.0</ele><time>2026-03-27T15:36:25.999Z</time></trkpt><trkpt lat="45.53653837384825" lon="10.204808555690187"><ele>142.0</ele><time>2026-03-27T15:36:26.999Z</time></trkpt><trkpt lat="45.536507135004356" lon="10.204979887239714"><ele>141.66666666666669</ele><time>2026-03-27T15:36:27.999Z</time></trkpt><trkpt lat="45.53646591272524" lon="10.20520812100728"><ele>141.33333333333334</ele><time>2026-03-27T15:36:28.999Z</time></trkpt><trkpt lat="45.53642028307493" lon="10.205457432738744"><ele>141.0</ele><time>2026-03-27T15:36:29.999Z</time></trkpt><trkpt lat="45.53637053017379" lon="10.20575162029651"><ele>141.0</ele><time>2026-03-27T15:36:30.999Z</time></trkpt><trkpt lat="45.53632275049078" lon="10.206029939803253"><ele>141.0</ele><time>2026-03-27T15:36:31.999Z</time></trkpt><trkpt lat="45.53628234773481" lon="10.20628605016064"><ele>141.0</ele><time>2026-03-27T15:36:32.999Z</time></trkpt><trkpt lat="45.53624007074189" lon="10.206522827177526"><ele>140.5</ele><time>2026-03-27T15:36:33.999Z</time></trkpt><trkpt lat="45.53620145747355" lon="10.206733947902626"><ele>140.0</ele><time>2026-03-27T15:36:34.999Z</time></trkpt><trkpt lat="45.53616542992729" lon="10.206940068912777"><ele>139.5</ele><time>2026-03-27T15:36:35.999Z</time></trkpt><trkpt lat="45.536132722107105" lon="10.207129768541645"><ele>139.0</ele><time>2026-03-27T15:36:36.999Z</time></trkpt><trkpt lat="45.536083364201815" lon="10.20732207909702"><ele>140.0</ele><time>2026-03-27T15:36:37.999Z</time></trkpt><trkpt lat="45.536089870360556" lon="10.207513925446436"><ele>141.0</ele><time>2026-03-27T15:36:38.999Z</time></trkpt><trkpt lat="45.536115725701514" lon="10.2077045680361"><ele>142.0</ele><time>2026-03-27T15:36:39.999Z</time></trkpt><trkpt lat="45.536171088962675" lon="10.207902243394622"><ele>143.0</ele><time>2026-03-27T15:36:40.999Z</time></trkpt><trkpt lat="45.536249715598274" lon="10.208111717111551"><ele>144.0</ele><time>2026-03-27T15:36:41.999Z</time></trkpt><trkpt lat="45.53632456166889" lon="10.20831024686025"><ele>145.0</ele><time>2026-03-27T15:36:42.999Z</time></trkpt><trkpt lat="45.53640526107485" lon="10.208522585261198"><ele>146.0</ele><time>2026-03-27T15:36:43.999Z</time></trkpt><trkpt lat="45.53647393272383" lon="10.208715474366944"><ele>146.0</ele><time>2026-03-27T15:36:44.999Z</time></trkpt><trkpt lat="45.53654450401155" lon="10.208913973874576"><ele>146.0</ele><time>2026-03-27T15:36:45.999Z</time></trkpt><trkpt lat="45.53661968777783" lon="10.209125447183089"><ele>146.0</ele><time>2026-03-27T15:36:46.999Z</time></trkpt><trkpt lat="45.53666617880429" lon="10.209256214928017"><ele>146.0</ele><time>2026-03-27T15:36:47.999Z</time></trkpt><trkpt lat="45.53669192161701" lon="10.209483655256797"><ele>146.16666666666666</ele><time>2026-03-27T15:36:48.999Z</time></trkpt><trkpt lat="45.536687448822" lon="10.209577530187495"><ele>146.33333333333331</ele><time>2026-03-27T15:36:49.999Z</time></trkpt><trkpt lat="45.53665558654995" lon="10.209669344976124"><ele>146.5</ele><time>2026-03-27T15:36:50.999Z</time></trkpt><trkpt lat="45.53663497904603" lon="10.20977019091033"><ele>146.66666666666666</ele><time>2026-03-27T15:36:52Z</time></trkpt><trkpt lat="45.53650534556612" lon="10.209819734488699"><ele>146.83333333333334</ele><time>2026-03-27T15:36:53Z</time></trkpt><trkpt lat="45.53642598729014" lon="10.209878886534618"><ele>147.0</ele><time>2026-03-27T15:36:54Z</time></trkpt><trkpt lat="45.536361626615026" lon="10.209949022309036"><ele>147.0</ele><time>2026-03-27T15:36:55Z</time></trkpt><trkpt lat="45.5363121615684" lon="10.210012549978595"><ele>147.0</ele><time>2026-03-27T15:36:56Z</time></trkpt><trkpt lat="45.536235927049866" lon="10.210114585391882"><ele>147.0</ele><time>2026-03-27T15:36:58Z</time></trkpt><trkpt lat="45.53618074911776" lon="10.210176730063985"><ele>147.0</ele><time>2026-03-27T15:37:01Z</time></trkpt><trkpt lat="45.53607187216412" lon="10.210286501081981"><ele>147.0</ele><time>2026-03-27T15:37:03Z</time></trkpt><trkpt lat="45.53599585201037" lon="10.210354028533805"><ele>146.6</ele><time>2026-03-27T15:37:05Z</time></trkpt><trkpt lat="45.53592525960877" lon="10.210412518022876"><ele>146.2</ele><time>2026-03-27T15:37:10Z</time></trkpt><trkpt lat="45.53582611685814" lon="10.210460295939733"><ele>145.8</ele><time>2026-03-27T15:37:13Z</time></trkpt><trkpt lat="45.535760018022096" lon="10.210560989794562"><ele>145.4</ele><time>2026-03-27T15:37:15Z</time></trkpt><trkpt lat="45.535693295029176" lon="10.210624153279614"><ele>145.0</ele><time>2026-03-27T15:37:18Z</time></trkpt><trkpt lat="45.535620341814635" lon="10.21071068772538"><ele>145.0</ele><time>2026-03-27T15:37:35Z</time></trkpt><trkpt lat="45.53553162810832" lon="10.210784246202136"><ele>145.0</ele><time>2026-03-27T15:37:37Z</time></trkpt><trkpt lat="45.53545173992431" lon="10.21086464916205"><ele>145.0</ele><time>2026-03-27T15:37:39Z</time></trkpt><trkpt lat="45.535390092797" lon="10.210923488933178"><ele>145.0</ele><time>2026-03-27T15:37:42Z</time></trkpt><trkpt lat="45.53532429340359" lon="10.210981196283115"><ele>145.0</ele><time>2026-03-27T15:37:44Z</time></trkpt><trkpt lat="45.535276050848935" lon="10.21107067012975"><ele>145.0</ele><time>2026-03-27T15:37:46Z</time></trkpt><trkpt lat="45.53520586499436" lon="10.211141738262329"><ele>144.6</ele><time>2026-03-27T15:37:48Z</time></trkpt><trkpt lat="45.535147341147606" lon="10.211229998968859"><ele>144.2</ele><time>2026-03-27T15:37:51Z</time></trkpt><trkpt lat="45.53503996279422" lon="10.211323066049081"><ele>143.8</ele><time>2026-03-27T15:37:53Z</time></trkpt><trkpt lat="45.535037773862236" lon="10.211536155081435"><ele>143.4</ele><time>2026-03-27T15:37:54Z</time></trkpt><trkpt lat="45.53501379302428" lon="10.211642167862031"><ele>143.0</ele><time>2026-03-27T15:37:56Z</time></trkpt><trkpt lat="45.53497739633995" lon="10.211716404041807"><ele>143.0</ele><time>2026-03-27T15:37:58.999Z</time></trkpt><trkpt lat="45.53511366439254" lon="10.211879151528162"><ele>143.0</ele><time>2026-03-27T15:38:42.999Z</time></trkpt><trkpt lat="45.53516622331815" lon="10.211949288762417"><ele>143.0</ele><time>2026-03-27T15:38:45.999Z</time></trkpt><trkpt lat="45.53522982004193" lon="10.212021124645155"><ele>143.0</ele><time>2026-03-27T15:38:49.999Z</time></trkpt><trkpt lat="45.53528105049858" lon="10.212107875665025"><ele>143.0</ele><time>2026-03-27T15:38:54.999Z</time></trkpt><trkpt lat="45.53534242551124" lon="10.21217812095745"><ele>143.5</ele><time>2026-03-27T15:38:58Z</time></trkpt><trkpt lat="45.535402188738765" lon="10.212211173364185"><ele>144.0</ele><time>2026-03-27T15:38:59Z</time></trkpt><trkpt lat="45.535475290882864" lon="10.212217640425326"><ele>144.5</ele><time>2026-03-27T15:39:01Z</time></trkpt><trkpt lat="45.535560577172475" lon="10.212235634495071"><ele>145.0</ele><time>2026-03-27T15:39:04Z</time></trkpt><trkpt lat="45.53563250270823" lon="10.212276667215608"><ele>145.5</ele><time>2026-03-27T15:39:05Z</time></trkpt><trkpt lat="45.53571509040739" lon="10.212314519053749"><ele>146.0</ele><time>2026-03-27T15:39:06Z</time></trkpt><trkpt lat="45.5358303473729" lon="10.212339910776418"><ele>146.0</ele><time>2026-03-27T15:39:07Z</time></trkpt><trkpt lat="45.535941874258874" lon="10.21237914026283"><ele>146.0</ele><time>2026-03-27T15:39:08Z</time></trkpt><trkpt lat="45.53604251094958" lon="10.212411964530643"><ele>146.0</ele><time>2026-03-27T15:39:09Z</time></trkpt><trkpt lat="45.53614938709908" lon="10.212468326609997"><ele>146.0</ele><time>2026-03-27T15:39:10Z</time></trkpt><trkpt lat="45.53626456869498" lon="10.212507729655398"><ele>146.0</ele><time>2026-03-27T15:39:11Z</time></trkpt><trkpt lat="45.53637334317588" lon="10.212550471279053"><ele>146.0</ele><time>2026-03-27T15:39:12Z</time></trkpt><trkpt lat="45.53648748473651" lon="10.212599987052538"><ele>146.0</ele><time>2026-03-27T15:39:13Z</time></trkpt><trkpt lat="45.53659004565778" lon="10.212643220433602"><ele>146.0</ele><time>2026-03-27T15:39:14Z</time></trkpt><trkpt lat="45.5366909125638" lon="10.21268733661145"><ele>146.0</ele><time>2026-03-27T15:39:15Z</time></trkpt><trkpt lat="45.53678154650028" lon="10.212724076392089"><ele>146.0</ele><time>2026-03-27T15:39:16Z</time></trkpt><trkpt lat="45.53687860321994" lon="10.212752752287564"><ele>146.0</ele><time>2026-03-27T15:39:17Z</time></trkpt><trkpt lat="45.536956165135535" lon="10.212801918309877"><ele>146.0</ele><time>2026-03-27T15:39:18Z</time></trkpt><trkpt lat="45.537024403521514" lon="10.212834971742197"><ele>146.0</ele><time>2026-03-27T15:39:19Z</time></trkpt><trkpt lat="45.53709536636277" lon="10.212864031942761"><ele>146.0</ele><time>2026-03-27T15:39:20Z</time></trkpt><trkpt lat="45.53716158373097" lon="10.212888159227727"><ele>146.0</ele><time>2026-03-27T15:39:21Z</time></trkpt><trkpt lat="45.537259294637195" lon="10.212925345576405"><ele>146.75</ele><time>2026-03-27T15:39:23Z</time></trkpt><trkpt lat="45.537322992309115" lon="10.212954801723148"><ele>147.5</ele><time>2026-03-27T15:39:25Z</time></trkpt><trkpt lat="45.53717036666704" lon="10.212782066075457"><ele>148.25</ele><time>2026-03-27T15:41:11.137Z</time></trkpt><trkpt lat="45.53724186436023" lon="10.212624058900243"><ele>149.0</ele><time>2026-03-27T15:41:17.577Z</time></trkpt><trkpt lat="45.5372870426346" lon="10.212760006773483"><ele>149.0</ele><time>2026-03-27T15:42:31.037Z</time></trkpt></trkseg></trk></gpx>